<?xml version="1.0" encoding="UTF-8" standalone="no" ?>
<gpx xmlns="http://www.topografix.com/GPX/1/1" xmlns:xsi="http://www.w3.org/2001/XMLSchema-instance" xsi:schemaLocation="http://www.topografix.com/GPX/1/1 http://www.topografix.com/GPX/1/1/gpx.xsd" version="1.1" creator="VisuGPX - https://www.visugpx.com">
  <metadata>
    <name>tarsacq arbus laring</name>
    <desc><![CDATA[de très beaux paysages par temps dégager...]]></desc>
  </metadata>
  <trk>
    <name><![CDATA[tarsacq arbus laring_1]]></name>
    <trkseg>
      <trkpt lat="43.3578" lon="-0.53797">
        <ele>124</ele>
        <time>2013-02-17T07:13:45</time>
      </trkpt>
      <trkpt lat="43.3578" lon="-0.53797">
        <ele>124</ele>
        <time>2013-02-17T07:13:49</time>
      </trkpt>
      <trkpt lat="43.3578" lon="-0.53797">
        <ele>124</ele>
        <time>2013-02-17T07:13:54</time>
      </trkpt>
      <trkpt lat="43.3578" lon="-0.53797">
        <ele>124</ele>
        <time>2013-02-17T07:13:59</time>
      </trkpt>
      <trkpt lat="43.3578" lon="-0.53797">
        <ele>124</ele>
        <time>2013-02-17T07:14:04</time>
      </trkpt>
      <trkpt lat="43.3578" lon="-0.53797">
        <ele>122</ele>
        <time>2013-02-17T07:14:09</time>
      </trkpt>
      <trkpt lat="43.3578" lon="-0.53797">
        <ele>122</ele>
        <time>2013-02-17T07:14:15</time>
      </trkpt>
      <trkpt lat="43.3578" lon="-0.53797">
        <ele>124</ele>
        <time>2013-02-17T07:14:20</time>
      </trkpt>
      <trkpt lat="43.3578" lon="-0.53797">
        <ele>109</ele>
        <time>2013-02-17T07:14:25</time>
      </trkpt>
      <trkpt lat="43.3578" lon="-0.53797">
        <ele>123</ele>
        <time>2013-02-17T07:14:30</time>
      </trkpt>
      <trkpt lat="43.3578" lon="-0.53797">
        <ele>124</ele>
        <time>2013-02-17T07:14:35</time>
      </trkpt>
      <trkpt lat="43.3578" lon="-0.53797">
        <ele>124</ele>
        <time>2013-02-17T07:14:40</time>
      </trkpt>
      <trkpt lat="43.3578" lon="-0.53797">
        <ele>124</ele>
        <time>2013-02-17T07:14:45</time>
      </trkpt>
      <trkpt lat="43.3578" lon="-0.53797">
        <ele>123</ele>
        <time>2013-02-17T07:14:50</time>
      </trkpt>
      <trkpt lat="43.3578" lon="-0.53797">
        <ele>124</ele>
        <time>2013-02-17T07:14:55</time>
      </trkpt>
      <trkpt lat="43.3578" lon="-0.53797">
        <ele>124</ele>
        <time>2013-02-17T07:15:00</time>
      </trkpt>
      <trkpt lat="43.3578" lon="-0.53797">
        <ele>124</ele>
        <time>2013-02-17T07:15:05</time>
      </trkpt>
      <trkpt lat="43.3578" lon="-0.53797">
        <ele>124</ele>
        <time>2013-02-17T07:15:10</time>
      </trkpt>
      <trkpt lat="43.3578" lon="-0.53797">
        <ele>123</ele>
        <time>2013-02-17T07:15:15</time>
      </trkpt>
      <trkpt lat="43.3578" lon="-0.53797">
        <ele>123</ele>
        <time>2013-02-17T07:15:25</time>
      </trkpt>
      <trkpt lat="43.3578" lon="-0.53797">
        <ele>124</ele>
        <time>2013-02-17T07:15:30</time>
      </trkpt>
      <trkpt lat="43.3578" lon="-0.53797">
        <ele>124</ele>
        <time>2013-02-17T07:15:35</time>
      </trkpt>
      <trkpt lat="43.3578" lon="-0.53797">
        <ele>124</ele>
        <time>2013-02-17T07:15:40</time>
      </trkpt>
      <trkpt lat="43.3578" lon="-0.53797">
        <ele>124</ele>
        <time>2013-02-17T07:15:45</time>
      </trkpt>
      <trkpt lat="43.3578" lon="-0.53797">
        <ele>123</ele>
        <time>2013-02-17T07:15:50</time>
      </trkpt>
      <trkpt lat="43.3578" lon="-0.53797">
        <ele>124</ele>
        <time>2013-02-17T07:15:55</time>
      </trkpt>
      <trkpt lat="43.3578" lon="-0.53797">
        <ele>124</ele>
        <time>2013-02-17T07:16:00</time>
      </trkpt>
      <trkpt lat="43.3578" lon="-0.53797">
        <ele>123</ele>
        <time>2013-02-17T07:16:05</time>
      </trkpt>
      <trkpt lat="43.3578" lon="-0.53797">
        <ele>123</ele>
        <time>2013-02-17T07:16:10</time>
      </trkpt>
      <trkpt lat="43.3578" lon="-0.53797">
        <ele>124</ele>
        <time>2013-02-17T07:16:15</time>
      </trkpt>
      <trkpt lat="43.3578" lon="-0.53797">
        <ele>123</ele>
        <time>2013-02-17T07:16:21</time>
      </trkpt>
      <trkpt lat="43.3578" lon="-0.53797">
        <ele>123</ele>
        <time>2013-02-17T07:16:26</time>
      </trkpt>
      <trkpt lat="43.3578" lon="-0.53797">
        <ele>122</ele>
        <time>2013-02-17T07:16:31</time>
      </trkpt>
      <trkpt lat="43.3578" lon="-0.53797">
        <ele>123</ele>
        <time>2013-02-17T07:16:36</time>
      </trkpt>
      <trkpt lat="43.3578" lon="-0.53797">
        <ele>124</ele>
        <time>2013-02-17T07:16:41</time>
      </trkpt>
      <trkpt lat="43.3578" lon="-0.53797">
        <ele>124</ele>
        <time>2013-02-17T07:16:46</time>
      </trkpt>
      <trkpt lat="43.3578" lon="-0.53797">
        <ele>121</ele>
        <time>2013-02-17T07:16:51</time>
      </trkpt>
      <trkpt lat="43.3578" lon="-0.53797">
        <ele>120</ele>
        <time>2013-02-17T07:16:56</time>
      </trkpt>
      <trkpt lat="43.3578" lon="-0.53797">
        <ele>123</ele>
        <time>2013-02-17T07:17:01</time>
      </trkpt>
      <trkpt lat="43.3578" lon="-0.53797">
        <ele>124</ele>
        <time>2013-02-17T07:17:06</time>
      </trkpt>
      <trkpt lat="43.3578" lon="-0.53797">
        <ele>130</ele>
        <time>2013-02-17T07:17:11</time>
      </trkpt>
      <trkpt lat="43.3578" lon="-0.53797">
        <ele>124</ele>
        <time>2013-02-17T07:17:16</time>
      </trkpt>
      <trkpt lat="43.35758" lon="-0.53795">
        <ele>124</ele>
        <time>2013-02-17T07:17:21</time>
      </trkpt>
      <trkpt lat="43.35746" lon="-0.53774">
        <ele>124</ele>
        <time>2013-02-17T07:17:26</time>
      </trkpt>
      <trkpt lat="43.35736" lon="-0.53755">
        <ele>124</ele>
        <time>2013-02-17T07:17:31</time>
      </trkpt>
      <trkpt lat="43.35724" lon="-0.5373">
        <ele>124</ele>
        <time>2013-02-17T07:17:36</time>
      </trkpt>
      <trkpt lat="43.35715" lon="-0.53701">
        <ele>124</ele>
        <time>2013-02-17T07:17:41</time>
      </trkpt>
      <trkpt lat="43.35711" lon="-0.53669">
        <ele>123</ele>
        <time>2013-02-17T07:17:46</time>
      </trkpt>
      <trkpt lat="43.35709" lon="-0.53638">
        <ele>125</ele>
        <time>2013-02-17T07:17:51</time>
      </trkpt>
      <trkpt lat="43.35706" lon="-0.53606">
        <ele>124</ele>
        <time>2013-02-17T07:17:56</time>
      </trkpt>
      <trkpt lat="43.35703" lon="-0.53574">
        <ele>124</ele>
        <time>2013-02-17T07:18:01</time>
      </trkpt>
      <trkpt lat="43.35698" lon="-0.53536">
        <ele>124</ele>
        <time>2013-02-17T07:18:06</time>
      </trkpt>
      <trkpt lat="43.35691" lon="-0.53504">
        <ele>125</ele>
        <time>2013-02-17T07:18:11</time>
      </trkpt>
      <trkpt lat="43.35679" lon="-0.53474">
        <ele>125</ele>
        <time>2013-02-17T07:18:16</time>
      </trkpt>
      <trkpt lat="43.35668" lon="-0.53451">
        <ele>125</ele>
        <time>2013-02-17T07:18:22</time>
      </trkpt>
      <trkpt lat="43.35656" lon="-0.53427">
        <ele>125</ele>
        <time>2013-02-17T07:18:27</time>
      </trkpt>
      <trkpt lat="43.35637" lon="-0.53392">
        <ele>125</ele>
        <time>2013-02-17T07:18:32</time>
      </trkpt>
      <trkpt lat="43.35617" lon="-0.53357">
        <ele>126</ele>
        <time>2013-02-17T07:18:37</time>
      </trkpt>
      <trkpt lat="43.35601" lon="-0.53328">
        <ele>125</ele>
        <time>2013-02-17T07:18:42</time>
      </trkpt>
      <trkpt lat="43.35586" lon="-0.533">
        <ele>127</ele>
        <time>2013-02-17T07:18:47</time>
      </trkpt>
      <trkpt lat="43.35574" lon="-0.53268">
        <ele>127</ele>
        <time>2013-02-17T07:18:52</time>
      </trkpt>
      <trkpt lat="43.35568" lon="-0.53249">
        <ele>125</ele>
        <time>2013-02-17T07:18:57</time>
      </trkpt>
      <trkpt lat="43.3556" lon="-0.53208">
        <ele>127</ele>
        <time>2013-02-17T07:19:02</time>
      </trkpt>
      <trkpt lat="43.35552" lon="-0.53167">
        <ele>126</ele>
        <time>2013-02-17T07:19:07</time>
      </trkpt>
      <trkpt lat="43.35545" lon="-0.53132">
        <ele>127</ele>
        <time>2013-02-17T07:19:12</time>
      </trkpt>
      <trkpt lat="43.35539" lon="-0.53097">
        <ele>127</ele>
        <time>2013-02-17T07:19:17</time>
      </trkpt>
      <trkpt lat="43.3553" lon="-0.53064">
        <ele>127</ele>
        <time>2013-02-17T07:19:22</time>
      </trkpt>
      <trkpt lat="43.35518" lon="-0.53032">
        <ele>126</ele>
        <time>2013-02-17T07:19:27</time>
      </trkpt>
      <trkpt lat="43.35508" lon="-0.53008">
        <ele>126</ele>
        <time>2013-02-17T07:19:32</time>
      </trkpt>
      <trkpt lat="43.35506" lon="-0.5296">
        <ele>125</ele>
        <time>2013-02-17T07:19:37</time>
      </trkpt>
      <trkpt lat="43.35508" lon="-0.52925">
        <ele>125</ele>
        <time>2013-02-17T07:19:42</time>
      </trkpt>
      <trkpt lat="43.35509" lon="-0.52889">
        <ele>127</ele>
        <time>2013-02-17T07:19:47</time>
      </trkpt>
      <trkpt lat="43.35509" lon="-0.52861">
        <ele>128</ele>
        <time>2013-02-17T07:19:52</time>
      </trkpt>
      <trkpt lat="43.35509" lon="-0.52827">
        <ele>127</ele>
        <time>2013-02-17T07:19:57</time>
      </trkpt>
      <trkpt lat="43.35508" lon="-0.52799">
        <ele>126</ele>
        <time>2013-02-17T07:20:02</time>
      </trkpt>
      <trkpt lat="43.35503" lon="-0.5275">
        <ele>127</ele>
        <time>2013-02-17T07:20:07</time>
      </trkpt>
      <trkpt lat="43.35497" lon="-0.52716">
        <ele>127</ele>
        <time>2013-02-17T07:20:12</time>
      </trkpt>
      <trkpt lat="43.35492" lon="-0.5268">
        <ele>127</ele>
        <time>2013-02-17T07:20:17</time>
      </trkpt>
      <trkpt lat="43.35485" lon="-0.52646">
        <ele>128</ele>
        <time>2013-02-17T07:20:22</time>
      </trkpt>
      <trkpt lat="43.35481" lon="-0.52617">
        <ele>127</ele>
        <time>2013-02-17T07:20:27</time>
      </trkpt>
      <trkpt lat="43.35477" lon="-0.52588">
        <ele>127</ele>
        <time>2013-02-17T07:20:32</time>
      </trkpt>
      <trkpt lat="43.35471" lon="-0.52537">
        <ele>127</ele>
        <time>2013-02-17T07:20:37</time>
      </trkpt>
      <trkpt lat="43.35469" lon="-0.525">
        <ele>129</ele>
        <time>2013-02-17T07:20:42</time>
      </trkpt>
      <trkpt lat="43.35467" lon="-0.52464">
        <ele>128</ele>
        <time>2013-02-17T07:20:47</time>
      </trkpt>
      <trkpt lat="43.35467" lon="-0.52427">
        <ele>128</ele>
        <time>2013-02-17T07:20:53</time>
      </trkpt>
      <trkpt lat="43.35471" lon="-0.52398">
        <ele>127</ele>
        <time>2013-02-17T07:20:58</time>
      </trkpt>
      <trkpt lat="43.35475" lon="-0.52368">
        <ele>127</ele>
        <time>2013-02-17T07:21:03</time>
      </trkpt>
      <trkpt lat="43.35489" lon="-0.5232">
        <ele>129</ele>
        <time>2013-02-17T07:21:08</time>
      </trkpt>
      <trkpt lat="43.35497" lon="-0.52286">
        <ele>128</ele>
        <time>2013-02-17T07:21:13</time>
      </trkpt>
      <trkpt lat="43.35507" lon="-0.52251">
        <ele>129</ele>
        <time>2013-02-17T07:21:18</time>
      </trkpt>
      <trkpt lat="43.35522" lon="-0.52219">
        <ele>128</ele>
        <time>2013-02-17T07:21:23</time>
      </trkpt>
      <trkpt lat="43.35543" lon="-0.52195">
        <ele>127</ele>
        <time>2013-02-17T07:21:28</time>
      </trkpt>
      <trkpt lat="43.35569" lon="-0.52185">
        <ele>127</ele>
        <time>2013-02-17T07:21:33</time>
      </trkpt>
      <trkpt lat="43.35597" lon="-0.52195">
        <ele>127</ele>
        <time>2013-02-17T07:21:38</time>
      </trkpt>
      <trkpt lat="43.35623" lon="-0.52198">
        <ele>127</ele>
        <time>2013-02-17T07:21:43</time>
      </trkpt>
      <trkpt lat="43.3564" lon="-0.52175">
        <ele>128</ele>
        <time>2013-02-17T07:21:48</time>
      </trkpt>
      <trkpt lat="43.35645" lon="-0.52141">
        <ele>127</ele>
        <time>2013-02-17T07:21:53</time>
      </trkpt>
      <trkpt lat="43.35645" lon="-0.52105">
        <ele>128</ele>
        <time>2013-02-17T07:21:58</time>
      </trkpt>
      <trkpt lat="43.35636" lon="-0.52067">
        <ele>128</ele>
        <time>2013-02-17T07:22:03</time>
      </trkpt>
      <trkpt lat="43.35622" lon="-0.52032">
        <ele>128</ele>
        <time>2013-02-17T07:22:08</time>
      </trkpt>
      <trkpt lat="43.35606" lon="-0.51998">
        <ele>128</ele>
        <time>2013-02-17T07:22:13</time>
      </trkpt>
      <trkpt lat="43.35589" lon="-0.51967">
        <ele>127</ele>
        <time>2013-02-17T07:22:18</time>
      </trkpt>
      <trkpt lat="43.3557" lon="-0.51926">
        <ele>129</ele>
        <time>2013-02-17T07:22:23</time>
      </trkpt>
      <trkpt lat="43.35556" lon="-0.51918">
        <ele>129</ele>
        <time>2013-02-17T07:22:28</time>
      </trkpt>
      <trkpt lat="43.35532" lon="-0.51926">
        <ele>128</ele>
        <time>2013-02-17T07:22:33</time>
      </trkpt>
      <trkpt lat="43.35513" lon="-0.51903">
        <ele>129</ele>
        <time>2013-02-17T07:22:38</time>
      </trkpt>
      <trkpt lat="43.35497" lon="-0.51877">
        <ele>128</ele>
        <time>2013-02-17T07:22:43</time>
      </trkpt>
      <trkpt lat="43.3548" lon="-0.51851">
        <ele>128</ele>
        <time>2013-02-17T07:22:48</time>
      </trkpt>
      <trkpt lat="43.35462" lon="-0.51821">
        <ele>128</ele>
        <time>2013-02-17T07:22:53</time>
      </trkpt>
      <trkpt lat="43.35444" lon="-0.51797">
        <ele>127</ele>
        <time>2013-02-17T07:22:58</time>
      </trkpt>
      <trkpt lat="43.35431" lon="-0.51775">
        <ele>128</ele>
        <time>2013-02-17T07:23:03</time>
      </trkpt>
      <trkpt lat="43.35418" lon="-0.51749">
        <ele>128</ele>
        <time>2013-02-17T07:23:08</time>
      </trkpt>
      <trkpt lat="43.35409" lon="-0.51723">
        <ele>130</ele>
        <time>2013-02-17T07:23:13</time>
      </trkpt>
      <trkpt lat="43.35404" lon="-0.51702">
        <ele>129</ele>
        <time>2013-02-17T07:23:19</time>
      </trkpt>
      <trkpt lat="43.35391" lon="-0.51673">
        <ele>128</ele>
        <time>2013-02-17T07:23:24</time>
      </trkpt>
      <trkpt lat="43.35384" lon="-0.51652">
        <ele>130</ele>
        <time>2013-02-17T07:23:29</time>
      </trkpt>
      <trkpt lat="43.35368" lon="-0.51638">
        <ele>130</ele>
        <time>2013-02-17T07:23:34</time>
      </trkpt>
      <trkpt lat="43.35347" lon="-0.51626">
        <ele>129</ele>
        <time>2013-02-17T07:23:39</time>
      </trkpt>
      <trkpt lat="43.35325" lon="-0.51611">
        <ele>129</ele>
        <time>2013-02-17T07:23:44</time>
      </trkpt>
      <trkpt lat="43.35309" lon="-0.51593">
        <ele>129</ele>
        <time>2013-02-17T07:23:49</time>
      </trkpt>
      <trkpt lat="43.35286" lon="-0.51566">
        <ele>128</ele>
        <time>2013-02-17T07:23:54</time>
      </trkpt>
      <trkpt lat="43.35267" lon="-0.51542">
        <ele>129</ele>
        <time>2013-02-17T07:23:59</time>
      </trkpt>
      <trkpt lat="43.35249" lon="-0.51517">
        <ele>129</ele>
        <time>2013-02-17T07:24:04</time>
      </trkpt>
      <trkpt lat="43.35228" lon="-0.515">
        <ele>129</ele>
        <time>2013-02-17T07:24:09</time>
      </trkpt>
      <trkpt lat="43.35207" lon="-0.5151">
        <ele>129</ele>
        <time>2013-02-17T07:24:14</time>
      </trkpt>
      <trkpt lat="43.35186" lon="-0.51514">
        <ele>130</ele>
        <time>2013-02-17T07:24:19</time>
      </trkpt>
      <trkpt lat="43.3516" lon="-0.51517">
        <ele>130</ele>
        <time>2013-02-17T07:24:24</time>
      </trkpt>
      <trkpt lat="43.35141" lon="-0.5152">
        <ele>130</ele>
        <time>2013-02-17T07:24:29</time>
      </trkpt>
      <trkpt lat="43.35118" lon="-0.51507">
        <ele>131</ele>
        <time>2013-02-17T07:24:34</time>
      </trkpt>
      <trkpt lat="43.35098" lon="-0.51485">
        <ele>131</ele>
        <time>2013-02-17T07:24:39</time>
      </trkpt>
      <trkpt lat="43.3508" lon="-0.5146">
        <ele>130</ele>
        <time>2013-02-17T07:24:44</time>
      </trkpt>
      <trkpt lat="43.35069" lon="-0.51429">
        <ele>136</ele>
        <time>2013-02-17T07:24:49</time>
      </trkpt>
      <trkpt lat="43.35045" lon="-0.51409">
        <ele>131</ele>
        <time>2013-02-17T07:24:54</time>
      </trkpt>
      <trkpt lat="43.35021" lon="-0.51425">
        <ele>131</ele>
        <time>2013-02-17T07:24:59</time>
      </trkpt>
      <trkpt lat="43.34998" lon="-0.51423">
        <ele>130</ele>
        <time>2013-02-17T07:25:05</time>
      </trkpt>
      <trkpt lat="43.34972" lon="-0.51405">
        <ele>132</ele>
        <time>2013-02-17T07:25:10</time>
      </trkpt>
      <trkpt lat="43.34945" lon="-0.51386">
        <ele>131</ele>
        <time>2013-02-17T07:25:15</time>
      </trkpt>
      <trkpt lat="43.34917" lon="-0.51366">
        <ele>131</ele>
        <time>2013-02-17T07:25:20</time>
      </trkpt>
      <trkpt lat="43.34884" lon="-0.51342">
        <ele>131</ele>
        <time>2013-02-17T07:25:25</time>
      </trkpt>
      <trkpt lat="43.34859" lon="-0.51319">
        <ele>132</ele>
        <time>2013-02-17T07:25:30</time>
      </trkpt>
      <trkpt lat="43.34832" lon="-0.51303">
        <ele>131</ele>
        <time>2013-02-17T07:25:35</time>
      </trkpt>
      <trkpt lat="43.34804" lon="-0.51293">
        <ele>133</ele>
        <time>2013-02-17T07:25:40</time>
      </trkpt>
      <trkpt lat="43.34776" lon="-0.51285">
        <ele>132</ele>
        <time>2013-02-17T07:25:45</time>
      </trkpt>
      <trkpt lat="43.34744" lon="-0.51269">
        <ele>132</ele>
        <time>2013-02-17T07:25:50</time>
      </trkpt>
      <trkpt lat="43.34722" lon="-0.51262">
        <ele>132</ele>
        <time>2013-02-17T07:25:55</time>
      </trkpt>
      <trkpt lat="43.34694" lon="-0.51258">
        <ele>133</ele>
        <time>2013-02-17T07:26:00</time>
      </trkpt>
      <trkpt lat="43.34667" lon="-0.51249">
        <ele>133</ele>
        <time>2013-02-17T07:26:05</time>
      </trkpt>
      <trkpt lat="43.34641" lon="-0.51243">
        <ele>133</ele>
        <time>2013-02-17T07:26:10</time>
      </trkpt>
      <trkpt lat="43.34618" lon="-0.51236">
        <ele>133</ele>
        <time>2013-02-17T07:26:15</time>
      </trkpt>
      <trkpt lat="43.34589" lon="-0.51228">
        <ele>133</ele>
        <time>2013-02-17T07:26:20</time>
      </trkpt>
      <trkpt lat="43.34569" lon="-0.51228">
        <ele>133</ele>
        <time>2013-02-17T07:26:25</time>
      </trkpt>
      <trkpt lat="43.34544" lon="-0.51232">
        <ele>133</ele>
        <time>2013-02-17T07:26:30</time>
      </trkpt>
      <trkpt lat="43.34521" lon="-0.51239">
        <ele>134</ele>
        <time>2013-02-17T07:26:36</time>
      </trkpt>
      <trkpt lat="43.34506" lon="-0.51245">
        <ele>134</ele>
        <time>2013-02-17T07:26:41</time>
      </trkpt>
      <trkpt lat="43.34468" lon="-0.51263">
        <ele>133</ele>
        <time>2013-02-17T07:26:46</time>
      </trkpt>
      <trkpt lat="43.34445" lon="-0.51273">
        <ele>133</ele>
        <time>2013-02-17T07:26:51</time>
      </trkpt>
      <trkpt lat="43.34425" lon="-0.51278">
        <ele>133</ele>
        <time>2013-02-17T07:26:56</time>
      </trkpt>
      <trkpt lat="43.34395" lon="-0.51277">
        <ele>133</ele>
        <time>2013-02-17T07:27:01</time>
      </trkpt>
      <trkpt lat="43.3437" lon="-0.51268">
        <ele>134</ele>
        <time>2013-02-17T07:27:06</time>
      </trkpt>
      <trkpt lat="43.34347" lon="-0.51253">
        <ele>134</ele>
        <time>2013-02-17T07:27:11</time>
      </trkpt>
      <trkpt lat="43.34325" lon="-0.51235">
        <ele>135</ele>
        <time>2013-02-17T07:27:16</time>
      </trkpt>
      <trkpt lat="43.34304" lon="-0.51216">
        <ele>133</ele>
        <time>2013-02-17T07:27:21</time>
      </trkpt>
      <trkpt lat="43.34286" lon="-0.51202">
        <ele>133</ele>
        <time>2013-02-17T07:27:26</time>
      </trkpt>
      <trkpt lat="43.34259" lon="-0.51179">
        <ele>134</ele>
        <time>2013-02-17T07:27:31</time>
      </trkpt>
      <trkpt lat="43.34236" lon="-0.51162">
        <ele>134</ele>
        <time>2013-02-17T07:27:36</time>
      </trkpt>
      <trkpt lat="43.34214" lon="-0.51146">
        <ele>134</ele>
        <time>2013-02-17T07:27:41</time>
      </trkpt>
      <trkpt lat="43.3419" lon="-0.51135">
        <ele>134</ele>
        <time>2013-02-17T07:27:46</time>
      </trkpt>
      <trkpt lat="43.34165" lon="-0.51127">
        <ele>134</ele>
        <time>2013-02-17T07:27:51</time>
      </trkpt>
      <trkpt lat="43.3414" lon="-0.51121">
        <ele>135</ele>
        <time>2013-02-17T07:27:56</time>
      </trkpt>
      <trkpt lat="43.34115" lon="-0.51113">
        <ele>134</ele>
        <time>2013-02-17T07:28:01</time>
      </trkpt>
      <trkpt lat="43.34087" lon="-0.51098">
        <ele>135</ele>
        <time>2013-02-17T07:28:06</time>
      </trkpt>
      <trkpt lat="43.34068" lon="-0.51086">
        <ele>135</ele>
        <time>2013-02-17T07:28:11</time>
      </trkpt>
      <trkpt lat="43.34047" lon="-0.51066">
        <ele>135</ele>
        <time>2013-02-17T07:28:16</time>
      </trkpt>
      <trkpt lat="43.34027" lon="-0.51046">
        <ele>135</ele>
        <time>2013-02-17T07:28:21</time>
      </trkpt>
      <trkpt lat="43.34012" lon="-0.51029">
        <ele>134</ele>
        <time>2013-02-17T07:28:26</time>
      </trkpt>
      <trkpt lat="43.3399" lon="-0.51">
        <ele>135</ele>
        <time>2013-02-17T07:28:31</time>
      </trkpt>
      <trkpt lat="43.33966" lon="-0.50977">
        <ele>134</ele>
        <time>2013-02-17T07:28:36</time>
      </trkpt>
      <trkpt lat="43.33943" lon="-0.50975">
        <ele>136</ele>
        <time>2013-02-17T07:28:41</time>
      </trkpt>
      <trkpt lat="43.33924" lon="-0.50953">
        <ele>137</ele>
        <time>2013-02-17T07:28:46</time>
      </trkpt>
      <trkpt lat="43.33904" lon="-0.5095">
        <ele>137</ele>
        <time>2013-02-17T07:28:51</time>
      </trkpt>
      <trkpt lat="43.33883" lon="-0.5096">
        <ele>136</ele>
        <time>2013-02-17T07:28:56</time>
      </trkpt>
      <trkpt lat="43.33848" lon="-0.50977">
        <ele>136</ele>
        <time>2013-02-17T07:29:02</time>
      </trkpt>
      <trkpt lat="43.33823" lon="-0.50985">
        <ele>136</ele>
        <time>2013-02-17T07:29:07</time>
      </trkpt>
      <trkpt lat="43.33799" lon="-0.50994">
        <ele>135</ele>
        <time>2013-02-17T07:29:12</time>
      </trkpt>
      <trkpt lat="43.33774" lon="-0.51003">
        <ele>135</ele>
        <time>2013-02-17T07:29:17</time>
      </trkpt>
      <trkpt lat="43.3375" lon="-0.50999">
        <ele>136</ele>
        <time>2013-02-17T07:29:22</time>
      </trkpt>
      <trkpt lat="43.33727" lon="-0.50985">
        <ele>136</ele>
        <time>2013-02-17T07:29:27</time>
      </trkpt>
      <trkpt lat="43.33708" lon="-0.50973">
        <ele>137</ele>
        <time>2013-02-17T07:29:32</time>
      </trkpt>
      <trkpt lat="43.33684" lon="-0.50946">
        <ele>137</ele>
        <time>2013-02-17T07:29:37</time>
      </trkpt>
      <trkpt lat="43.33672" lon="-0.50914">
        <ele>136</ele>
        <time>2013-02-17T07:29:42</time>
      </trkpt>
      <trkpt lat="43.33662" lon="-0.50881">
        <ele>137</ele>
        <time>2013-02-17T07:29:47</time>
      </trkpt>
      <trkpt lat="43.33648" lon="-0.50852">
        <ele>137</ele>
        <time>2013-02-17T07:29:52</time>
      </trkpt>
      <trkpt lat="43.3363" lon="-0.50826">
        <ele>137</ele>
        <time>2013-02-17T07:29:57</time>
      </trkpt>
      <trkpt lat="43.33614" lon="-0.5081">
        <ele>137</ele>
        <time>2013-02-17T07:30:02</time>
      </trkpt>
      <trkpt lat="43.33588" lon="-0.50787">
        <ele>137</ele>
        <time>2013-02-17T07:30:07</time>
      </trkpt>
      <trkpt lat="43.33566" lon="-0.50767">
        <ele>137</ele>
        <time>2013-02-17T07:30:12</time>
      </trkpt>
      <trkpt lat="43.33543" lon="-0.50749">
        <ele>136</ele>
        <time>2013-02-17T07:30:17</time>
      </trkpt>
      <trkpt lat="43.33516" lon="-0.5073">
        <ele>136</ele>
        <time>2013-02-17T07:30:22</time>
      </trkpt>
      <trkpt lat="43.33497" lon="-0.50712">
        <ele>136</ele>
        <time>2013-02-17T07:30:27</time>
      </trkpt>
      <trkpt lat="43.33488" lon="-0.50698">
        <ele>137</ele>
        <time>2013-02-17T07:30:32</time>
      </trkpt>
      <trkpt lat="43.33481" lon="-0.50665">
        <ele>137</ele>
        <time>2013-02-17T07:30:37</time>
      </trkpt>
      <trkpt lat="43.33477" lon="-0.50646">
        <ele>135</ele>
        <time>2013-02-17T07:30:42</time>
      </trkpt>
      <trkpt lat="43.33478" lon="-0.50646">
        <ele>134</ele>
        <time>2013-02-17T07:30:47</time>
      </trkpt>
      <trkpt lat="43.33478" lon="-0.50646">
        <ele>136</ele>
        <time>2013-02-17T07:30:52</time>
      </trkpt>
      <trkpt lat="43.33478" lon="-0.50646">
        <ele>136</ele>
        <time>2013-02-17T07:30:57</time>
      </trkpt>
      <trkpt lat="43.33478" lon="-0.50646">
        <ele>134</ele>
        <time>2013-02-17T07:31:02</time>
      </trkpt>
      <trkpt lat="43.33478" lon="-0.50646">
        <ele>135</ele>
        <time>2013-02-17T07:31:07</time>
      </trkpt>
      <trkpt lat="43.33478" lon="-0.50646">
        <ele>135</ele>
        <time>2013-02-17T07:31:12</time>
      </trkpt>
      <trkpt lat="43.33478" lon="-0.50646">
        <ele>135</ele>
        <time>2013-02-17T07:31:17</time>
      </trkpt>
      <trkpt lat="43.33478" lon="-0.50646">
        <ele>135</ele>
        <time>2013-02-17T07:31:22</time>
      </trkpt>
      <trkpt lat="43.33478" lon="-0.50646">
        <ele>134</ele>
        <time>2013-02-17T07:31:28</time>
      </trkpt>
      <trkpt lat="43.33478" lon="-0.50646">
        <ele>135</ele>
        <time>2013-02-17T07:31:33</time>
      </trkpt>
      <trkpt lat="43.33478" lon="-0.50646">
        <ele>135</ele>
        <time>2013-02-17T07:31:38</time>
      </trkpt>
      <trkpt lat="43.33478" lon="-0.50646">
        <ele>135</ele>
        <time>2013-02-17T07:31:43</time>
      </trkpt>
      <trkpt lat="43.33478" lon="-0.50646">
        <ele>135</ele>
        <time>2013-02-17T07:31:48</time>
      </trkpt>
      <trkpt lat="43.33478" lon="-0.50646">
        <ele>135</ele>
        <time>2013-02-17T07:31:53</time>
      </trkpt>
      <trkpt lat="43.33478" lon="-0.50646">
        <ele>136</ele>
        <time>2013-02-17T07:31:58</time>
      </trkpt>
      <trkpt lat="43.33478" lon="-0.50646">
        <ele>136</ele>
        <time>2013-02-17T07:32:03</time>
      </trkpt>
      <trkpt lat="43.33478" lon="-0.50646">
        <ele>135</ele>
        <time>2013-02-17T07:32:08</time>
      </trkpt>
      <trkpt lat="43.33478" lon="-0.50646">
        <ele>135</ele>
        <time>2013-02-17T07:32:13</time>
      </trkpt>
      <trkpt lat="43.33478" lon="-0.50646">
        <ele>136</ele>
        <time>2013-02-17T07:32:18</time>
      </trkpt>
      <trkpt lat="43.33478" lon="-0.50646">
        <ele>136</ele>
        <time>2013-02-17T07:32:23</time>
      </trkpt>
      <trkpt lat="43.33478" lon="-0.50646">
        <ele>135</ele>
        <time>2013-02-17T07:32:28</time>
      </trkpt>
      <trkpt lat="43.33478" lon="-0.50646">
        <ele>135</ele>
        <time>2013-02-17T07:32:33</time>
      </trkpt>
      <trkpt lat="43.33478" lon="-0.50646">
        <ele>135</ele>
        <time>2013-02-17T07:32:38</time>
      </trkpt>
      <trkpt lat="43.33478" lon="-0.50646">
        <ele>135</ele>
        <time>2013-02-17T07:32:43</time>
      </trkpt>
      <trkpt lat="43.33478" lon="-0.50646">
        <ele>136</ele>
        <time>2013-02-17T07:32:48</time>
      </trkpt>
      <trkpt lat="43.33478" lon="-0.50646">
        <ele>135</ele>
        <time>2013-02-17T07:32:53</time>
      </trkpt>
      <trkpt lat="43.33478" lon="-0.50646">
        <ele>135</ele>
        <time>2013-02-17T07:32:58</time>
      </trkpt>
      <trkpt lat="43.33478" lon="-0.50646">
        <ele>135</ele>
        <time>2013-02-17T07:33:03</time>
      </trkpt>
      <trkpt lat="43.33478" lon="-0.50646">
        <ele>136</ele>
        <time>2013-02-17T07:33:08</time>
      </trkpt>
      <trkpt lat="43.33478" lon="-0.50646">
        <ele>135</ele>
        <time>2013-02-17T07:33:13</time>
      </trkpt>
      <trkpt lat="43.33478" lon="-0.50646">
        <ele>134</ele>
        <time>2013-02-17T07:33:18</time>
      </trkpt>
      <trkpt lat="43.33478" lon="-0.50646">
        <ele>134</ele>
        <time>2013-02-17T07:33:23</time>
      </trkpt>
      <trkpt lat="43.33478" lon="-0.50646">
        <ele>135</ele>
        <time>2013-02-17T07:33:28</time>
      </trkpt>
      <trkpt lat="43.33478" lon="-0.50646">
        <ele>135</ele>
        <time>2013-02-17T07:33:33</time>
      </trkpt>
      <trkpt lat="43.33478" lon="-0.50646">
        <ele>134</ele>
        <time>2013-02-17T07:33:39</time>
      </trkpt>
      <trkpt lat="43.33478" lon="-0.50646">
        <ele>136</ele>
        <time>2013-02-17T07:33:44</time>
      </trkpt>
      <trkpt lat="43.33478" lon="-0.50646">
        <ele>135</ele>
        <time>2013-02-17T07:33:49</time>
      </trkpt>
      <trkpt lat="43.33478" lon="-0.50646">
        <ele>135</ele>
        <time>2013-02-17T07:33:54</time>
      </trkpt>
      <trkpt lat="43.33478" lon="-0.50646">
        <ele>135</ele>
        <time>2013-02-17T07:33:59</time>
      </trkpt>
      <trkpt lat="43.33478" lon="-0.50646">
        <ele>134</ele>
        <time>2013-02-17T07:34:04</time>
      </trkpt>
      <trkpt lat="43.33478" lon="-0.50646">
        <ele>135</ele>
        <time>2013-02-17T07:34:09</time>
      </trkpt>
      <trkpt lat="43.33478" lon="-0.50646">
        <ele>136</ele>
        <time>2013-02-17T07:34:14</time>
      </trkpt>
      <trkpt lat="43.33478" lon="-0.50646">
        <ele>135</ele>
        <time>2013-02-17T07:34:19</time>
      </trkpt>
      <trkpt lat="43.33478" lon="-0.50646">
        <ele>134</ele>
        <time>2013-02-17T07:34:24</time>
      </trkpt>
      <trkpt lat="43.33478" lon="-0.50646">
        <ele>135</ele>
        <time>2013-02-17T07:34:29</time>
      </trkpt>
      <trkpt lat="43.33478" lon="-0.50646">
        <ele>135</ele>
        <time>2013-02-17T07:34:34</time>
      </trkpt>
      <trkpt lat="43.33478" lon="-0.50646">
        <ele>135</ele>
        <time>2013-02-17T07:34:39</time>
      </trkpt>
      <trkpt lat="43.33478" lon="-0.50646">
        <ele>134</ele>
        <time>2013-02-17T07:34:44</time>
      </trkpt>
      <trkpt lat="43.33478" lon="-0.50646">
        <ele>135</ele>
        <time>2013-02-17T07:34:49</time>
      </trkpt>
      <trkpt lat="43.33478" lon="-0.50646">
        <ele>135</ele>
        <time>2013-02-17T07:34:54</time>
      </trkpt>
      <trkpt lat="43.33478" lon="-0.50646">
        <ele>134</ele>
        <time>2013-02-17T07:34:59</time>
      </trkpt>
      <trkpt lat="43.33478" lon="-0.50646">
        <ele>136</ele>
        <time>2013-02-17T07:35:04</time>
      </trkpt>
      <trkpt lat="43.33478" lon="-0.50646">
        <ele>135</ele>
        <time>2013-02-17T07:35:09</time>
      </trkpt>
      <trkpt lat="43.33478" lon="-0.50646">
        <ele>135</ele>
        <time>2013-02-17T07:35:14</time>
      </trkpt>
      <trkpt lat="43.33478" lon="-0.50646">
        <ele>134</ele>
        <time>2013-02-17T07:35:19</time>
      </trkpt>
      <trkpt lat="43.33478" lon="-0.50646">
        <ele>134</ele>
        <time>2013-02-17T07:35:24</time>
      </trkpt>
      <trkpt lat="43.33478" lon="-0.50646">
        <ele>135</ele>
        <time>2013-02-17T07:35:29</time>
      </trkpt>
      <trkpt lat="43.33478" lon="-0.50646">
        <ele>135</ele>
        <time>2013-02-17T07:35:34</time>
      </trkpt>
      <trkpt lat="43.33478" lon="-0.50646">
        <ele>136</ele>
        <time>2013-02-17T07:35:39</time>
      </trkpt>
      <trkpt lat="43.33478" lon="-0.50646">
        <ele>134</ele>
        <time>2013-02-17T07:35:44</time>
      </trkpt>
      <trkpt lat="43.33478" lon="-0.50646">
        <ele>136</ele>
        <time>2013-02-17T07:35:49</time>
      </trkpt>
      <trkpt lat="43.33478" lon="-0.50646">
        <ele>135</ele>
        <time>2013-02-17T07:35:54</time>
      </trkpt>
      <trkpt lat="43.33478" lon="-0.50646">
        <ele>135</ele>
        <time>2013-02-17T07:35:59</time>
      </trkpt>
      <trkpt lat="43.33478" lon="-0.50646">
        <ele>134</ele>
        <time>2013-02-17T07:36:05</time>
      </trkpt>
      <trkpt lat="43.33478" lon="-0.50646">
        <ele>134</ele>
        <time>2013-02-17T07:36:10</time>
      </trkpt>
      <trkpt lat="43.33478" lon="-0.50646">
        <ele>136</ele>
        <time>2013-02-17T07:36:15</time>
      </trkpt>
      <trkpt lat="43.33478" lon="-0.50646">
        <ele>135</ele>
        <time>2013-02-17T07:36:20</time>
      </trkpt>
      <trkpt lat="43.33478" lon="-0.50646">
        <ele>135</ele>
        <time>2013-02-17T07:36:25</time>
      </trkpt>
      <trkpt lat="43.33478" lon="-0.50646">
        <ele>135</ele>
        <time>2013-02-17T07:36:30</time>
      </trkpt>
      <trkpt lat="43.33478" lon="-0.50646">
        <ele>135</ele>
        <time>2013-02-17T07:36:35</time>
      </trkpt>
      <trkpt lat="43.33478" lon="-0.50646">
        <ele>136</ele>
        <time>2013-02-17T07:36:40</time>
      </trkpt>
      <trkpt lat="43.33478" lon="-0.50646">
        <ele>135</ele>
        <time>2013-02-17T07:36:45</time>
      </trkpt>
      <trkpt lat="43.33478" lon="-0.50646">
        <ele>127</ele>
        <time>2013-02-17T07:36:50</time>
      </trkpt>
      <trkpt lat="43.33478" lon="-0.50646">
        <ele>135</ele>
        <time>2013-02-17T07:36:55</time>
      </trkpt>
      <trkpt lat="43.33478" lon="-0.50646">
        <ele>135</ele>
        <time>2013-02-17T07:37:00</time>
      </trkpt>
      <trkpt lat="43.33478" lon="-0.50646">
        <ele>135</ele>
        <time>2013-02-17T07:37:05</time>
      </trkpt>
      <trkpt lat="43.33478" lon="-0.50646">
        <ele>135</ele>
        <time>2013-02-17T07:37:10</time>
      </trkpt>
      <trkpt lat="43.33478" lon="-0.50646">
        <ele>136</ele>
        <time>2013-02-17T07:37:15</time>
      </trkpt>
      <trkpt lat="43.33478" lon="-0.50646">
        <ele>134</ele>
        <time>2013-02-17T07:37:20</time>
      </trkpt>
      <trkpt lat="43.33478" lon="-0.50646">
        <ele>135</ele>
        <time>2013-02-17T07:37:25</time>
      </trkpt>
      <trkpt lat="43.33478" lon="-0.50646">
        <ele>136</ele>
        <time>2013-02-17T07:37:30</time>
      </trkpt>
      <trkpt lat="43.33478" lon="-0.50646">
        <ele>135</ele>
        <time>2013-02-17T07:37:35</time>
      </trkpt>
      <trkpt lat="43.33478" lon="-0.50646">
        <ele>135</ele>
        <time>2013-02-17T07:37:40</time>
      </trkpt>
      <trkpt lat="43.33478" lon="-0.50646">
        <ele>135</ele>
        <time>2013-02-17T07:37:45</time>
      </trkpt>
      <trkpt lat="43.33478" lon="-0.50646">
        <ele>134</ele>
        <time>2013-02-17T07:37:51</time>
      </trkpt>
      <trkpt lat="43.33478" lon="-0.50646">
        <ele>135</ele>
        <time>2013-02-17T07:37:56</time>
      </trkpt>
      <trkpt lat="43.33478" lon="-0.50646">
        <ele>134</ele>
        <time>2013-02-17T07:38:01</time>
      </trkpt>
      <trkpt lat="43.33478" lon="-0.50646">
        <ele>135</ele>
        <time>2013-02-17T07:38:06</time>
      </trkpt>
      <trkpt lat="43.33478" lon="-0.50646">
        <ele>136</ele>
        <time>2013-02-17T07:38:11</time>
      </trkpt>
      <trkpt lat="43.33478" lon="-0.50646">
        <ele>135</ele>
        <time>2013-02-17T07:38:16</time>
      </trkpt>
      <trkpt lat="43.33478" lon="-0.50646">
        <ele>135</ele>
        <time>2013-02-17T07:38:21</time>
      </trkpt>
      <trkpt lat="43.33478" lon="-0.50646">
        <ele>135</ele>
        <time>2013-02-17T07:38:26</time>
      </trkpt>
      <trkpt lat="43.33478" lon="-0.50646">
        <ele>136</ele>
        <time>2013-02-17T07:38:31</time>
      </trkpt>
      <trkpt lat="43.33478" lon="-0.50646">
        <ele>135</ele>
        <time>2013-02-17T07:38:36</time>
      </trkpt>
      <trkpt lat="43.33478" lon="-0.50646">
        <ele>136</ele>
        <time>2013-02-17T07:38:41</time>
      </trkpt>
      <trkpt lat="43.33478" lon="-0.50646">
        <ele>135</ele>
        <time>2013-02-17T07:38:46</time>
      </trkpt>
      <trkpt lat="43.33478" lon="-0.50646">
        <ele>136</ele>
        <time>2013-02-17T07:38:51</time>
      </trkpt>
      <trkpt lat="43.33478" lon="-0.50646">
        <ele>136</ele>
        <time>2013-02-17T07:38:56</time>
      </trkpt>
      <trkpt lat="43.33478" lon="-0.50646">
        <ele>134</ele>
        <time>2013-02-17T07:39:01</time>
      </trkpt>
      <trkpt lat="43.33478" lon="-0.50646">
        <ele>134</ele>
        <time>2013-02-17T07:39:06</time>
      </trkpt>
      <trkpt lat="43.33478" lon="-0.50646">
        <ele>136</ele>
        <time>2013-02-17T07:39:11</time>
      </trkpt>
      <trkpt lat="43.33478" lon="-0.50646">
        <ele>135</ele>
        <time>2013-02-17T07:39:16</time>
      </trkpt>
      <trkpt lat="43.33478" lon="-0.50646">
        <ele>135</ele>
        <time>2013-02-17T07:39:21</time>
      </trkpt>
      <trkpt lat="43.33478" lon="-0.50646">
        <ele>135</ele>
        <time>2013-02-17T07:39:26</time>
      </trkpt>
      <trkpt lat="43.33478" lon="-0.50646">
        <ele>135</ele>
        <time>2013-02-17T07:39:31</time>
      </trkpt>
      <trkpt lat="43.33478" lon="-0.50646">
        <ele>135</ele>
        <time>2013-02-17T07:39:37</time>
      </trkpt>
      <trkpt lat="43.33478" lon="-0.50646">
        <ele>135</ele>
        <time>2013-02-17T07:39:42</time>
      </trkpt>
      <trkpt lat="43.33478" lon="-0.50646">
        <ele>136</ele>
        <time>2013-02-17T07:39:47</time>
      </trkpt>
      <trkpt lat="43.33478" lon="-0.50646">
        <ele>135</ele>
        <time>2013-02-17T07:39:52</time>
      </trkpt>
      <trkpt lat="43.33478" lon="-0.50646">
        <ele>135</ele>
        <time>2013-02-17T07:39:57</time>
      </trkpt>
      <trkpt lat="43.33478" lon="-0.50646">
        <ele>134</ele>
        <time>2013-02-17T07:40:02</time>
      </trkpt>
      <trkpt lat="43.33478" lon="-0.50646">
        <ele>135</ele>
        <time>2013-02-17T07:40:07</time>
      </trkpt>
      <trkpt lat="43.33478" lon="-0.50646">
        <ele>136</ele>
        <time>2013-02-17T07:40:12</time>
      </trkpt>
      <trkpt lat="43.33478" lon="-0.50646">
        <ele>135</ele>
        <time>2013-02-17T07:40:17</time>
      </trkpt>
      <trkpt lat="43.3347" lon="-0.50625">
        <ele>136</ele>
        <time>2013-02-17T07:40:22</time>
      </trkpt>
      <trkpt lat="43.33465" lon="-0.50615">
        <ele>136</ele>
        <time>2013-02-17T07:40:27</time>
      </trkpt>
      <trkpt lat="43.3346" lon="-0.50604">
        <ele>136</ele>
        <time>2013-02-17T07:40:32</time>
      </trkpt>
      <trkpt lat="43.33453" lon="-0.50586">
        <ele>136</ele>
        <time>2013-02-17T07:40:37</time>
      </trkpt>
      <trkpt lat="43.33446" lon="-0.50571">
        <ele>136</ele>
        <time>2013-02-17T07:40:42</time>
      </trkpt>
      <trkpt lat="43.3344" lon="-0.50561">
        <ele>135</ele>
        <time>2013-02-17T07:40:47</time>
      </trkpt>
      <trkpt lat="43.3344" lon="-0.50551">
        <ele>136</ele>
        <time>2013-02-17T07:40:52</time>
      </trkpt>
      <trkpt lat="43.3345" lon="-0.50545">
        <ele>135</ele>
        <time>2013-02-17T07:40:57</time>
      </trkpt>
      <trkpt lat="43.3346" lon="-0.5054">
        <ele>136</ele>
        <time>2013-02-17T07:41:02</time>
      </trkpt>
      <trkpt lat="43.33476" lon="-0.50529">
        <ele>136</ele>
        <time>2013-02-17T07:41:07</time>
      </trkpt>
      <trkpt lat="43.33491" lon="-0.50523">
        <ele>135</ele>
        <time>2013-02-17T07:41:12</time>
      </trkpt>
      <trkpt lat="43.33506" lon="-0.50518">
        <ele>136</ele>
        <time>2013-02-17T07:41:17</time>
      </trkpt>
      <trkpt lat="43.33518" lon="-0.50515">
        <ele>136</ele>
        <time>2013-02-17T07:41:22</time>
      </trkpt>
      <trkpt lat="43.33533" lon="-0.50509">
        <ele>134</ele>
        <time>2013-02-17T07:41:27</time>
      </trkpt>
      <trkpt lat="43.33547" lon="-0.50501">
        <ele>136</ele>
        <time>2013-02-17T07:41:32</time>
      </trkpt>
      <trkpt lat="43.33562" lon="-0.50498">
        <ele>135</ele>
        <time>2013-02-17T07:41:37</time>
      </trkpt>
      <trkpt lat="43.33578" lon="-0.50498">
        <ele>136</ele>
        <time>2013-02-17T07:41:42</time>
      </trkpt>
      <trkpt lat="43.33591" lon="-0.50498">
        <ele>135</ele>
        <time>2013-02-17T07:41:47</time>
      </trkpt>
      <trkpt lat="43.33612" lon="-0.50495">
        <ele>136</ele>
        <time>2013-02-17T07:41:53</time>
      </trkpt>
      <trkpt lat="43.3363" lon="-0.5049">
        <ele>137</ele>
        <time>2013-02-17T07:41:58</time>
      </trkpt>
      <trkpt lat="43.33649" lon="-0.50492">
        <ele>135</ele>
        <time>2013-02-17T07:42:03</time>
      </trkpt>
      <trkpt lat="43.33665" lon="-0.50505">
        <ele>136</ele>
        <time>2013-02-17T07:42:08</time>
      </trkpt>
      <trkpt lat="43.33679" lon="-0.50519">
        <ele>136</ele>
        <time>2013-02-17T07:42:13</time>
      </trkpt>
      <trkpt lat="43.33694" lon="-0.50531">
        <ele>137</ele>
        <time>2013-02-17T07:42:18</time>
      </trkpt>
      <trkpt lat="43.33717" lon="-0.50532">
        <ele>136</ele>
        <time>2013-02-17T07:42:23</time>
      </trkpt>
      <trkpt lat="43.33733" lon="-0.50535">
        <ele>135</ele>
        <time>2013-02-17T07:42:28</time>
      </trkpt>
      <trkpt lat="43.33752" lon="-0.50538">
        <ele>135</ele>
        <time>2013-02-17T07:42:33</time>
      </trkpt>
      <trkpt lat="43.33772" lon="-0.50538">
        <ele>135</ele>
        <time>2013-02-17T07:42:38</time>
      </trkpt>
      <trkpt lat="43.33793" lon="-0.50534">
        <ele>135</ele>
        <time>2013-02-17T07:42:43</time>
      </trkpt>
      <trkpt lat="43.33809" lon="-0.50538">
        <ele>134</ele>
        <time>2013-02-17T07:42:48</time>
      </trkpt>
      <trkpt lat="43.33823" lon="-0.5055">
        <ele>135</ele>
        <time>2013-02-17T07:42:53</time>
      </trkpt>
      <trkpt lat="43.33837" lon="-0.50551">
        <ele>135</ele>
        <time>2013-02-17T07:42:58</time>
      </trkpt>
      <trkpt lat="43.3385" lon="-0.50554">
        <ele>136</ele>
        <time>2013-02-17T07:43:03</time>
      </trkpt>
      <trkpt lat="43.33867" lon="-0.50553">
        <ele>134</ele>
        <time>2013-02-17T07:43:08</time>
      </trkpt>
      <trkpt lat="43.33884" lon="-0.50551">
        <ele>135</ele>
        <time>2013-02-17T07:43:13</time>
      </trkpt>
      <trkpt lat="43.33907" lon="-0.50546">
        <ele>135</ele>
        <time>2013-02-17T07:43:18</time>
      </trkpt>
      <trkpt lat="43.33926" lon="-0.50542">
        <ele>135</ele>
        <time>2013-02-17T07:43:23</time>
      </trkpt>
      <trkpt lat="43.33947" lon="-0.5054">
        <ele>134</ele>
        <time>2013-02-17T07:43:28</time>
      </trkpt>
      <trkpt lat="43.33963" lon="-0.50542">
        <ele>135</ele>
        <time>2013-02-17T07:43:33</time>
      </trkpt>
      <trkpt lat="43.33978" lon="-0.50545">
        <ele>135</ele>
        <time>2013-02-17T07:43:38</time>
      </trkpt>
      <trkpt lat="43.34007" lon="-0.50549">
        <ele>136</ele>
        <time>2013-02-17T07:43:43</time>
      </trkpt>
      <trkpt lat="43.34028" lon="-0.5055">
        <ele>135</ele>
        <time>2013-02-17T07:43:49</time>
      </trkpt>
      <trkpt lat="43.34049" lon="-0.50548">
        <ele>135</ele>
        <time>2013-02-17T07:43:54</time>
      </trkpt>
      <trkpt lat="43.3407" lon="-0.50543">
        <ele>136</ele>
        <time>2013-02-17T07:43:59</time>
      </trkpt>
      <trkpt lat="43.34091" lon="-0.5054">
        <ele>135</ele>
        <time>2013-02-17T07:44:04</time>
      </trkpt>
      <trkpt lat="43.34103" lon="-0.50539">
        <ele>135</ele>
        <time>2013-02-17T07:44:09</time>
      </trkpt>
      <trkpt lat="43.34133" lon="-0.50541">
        <ele>136</ele>
        <time>2013-02-17T07:44:14</time>
      </trkpt>
      <trkpt lat="43.34154" lon="-0.50543">
        <ele>134</ele>
        <time>2013-02-17T07:44:19</time>
      </trkpt>
      <trkpt lat="43.34175" lon="-0.50545">
        <ele>136</ele>
        <time>2013-02-17T07:44:24</time>
      </trkpt>
      <trkpt lat="43.34197" lon="-0.50546">
        <ele>135</ele>
        <time>2013-02-17T07:44:29</time>
      </trkpt>
      <trkpt lat="43.34205" lon="-0.50546">
        <ele>134</ele>
        <time>2013-02-17T07:44:34</time>
      </trkpt>
      <trkpt lat="43.3424" lon="-0.50546">
        <ele>135</ele>
        <time>2013-02-17T07:44:39</time>
      </trkpt>
      <trkpt lat="43.34261" lon="-0.50543">
        <ele>134</ele>
        <time>2013-02-17T07:44:44</time>
      </trkpt>
      <trkpt lat="43.34282" lon="-0.50536">
        <ele>135</ele>
        <time>2013-02-17T07:44:49</time>
      </trkpt>
      <trkpt lat="43.34302" lon="-0.50527">
        <ele>134</ele>
        <time>2013-02-17T07:44:54</time>
      </trkpt>
      <trkpt lat="43.3432" lon="-0.50515">
        <ele>136</ele>
        <time>2013-02-17T07:44:59</time>
      </trkpt>
      <trkpt lat="43.3434" lon="-0.50499">
        <ele>134</ele>
        <time>2013-02-17T07:45:04</time>
      </trkpt>
      <trkpt lat="43.34352" lon="-0.50489">
        <ele>134</ele>
        <time>2013-02-17T07:45:09</time>
      </trkpt>
      <trkpt lat="43.3437" lon="-0.50492">
        <ele>135</ele>
        <time>2013-02-17T07:45:14</time>
      </trkpt>
      <trkpt lat="43.34384" lon="-0.50498">
        <ele>134</ele>
        <time>2013-02-17T07:45:19</time>
      </trkpt>
      <trkpt lat="43.34402" lon="-0.50508">
        <ele>134</ele>
        <time>2013-02-17T07:45:24</time>
      </trkpt>
      <trkpt lat="43.34419" lon="-0.50522">
        <ele>133</ele>
        <time>2013-02-17T07:45:29</time>
      </trkpt>
      <trkpt lat="43.34436" lon="-0.50547">
        <ele>133</ele>
        <time>2013-02-17T07:45:34</time>
      </trkpt>
      <trkpt lat="43.34451" lon="-0.50562">
        <ele>134</ele>
        <time>2013-02-17T07:45:39</time>
      </trkpt>
      <trkpt lat="43.34468" lon="-0.50575">
        <ele>134</ele>
        <time>2013-02-17T07:45:44</time>
      </trkpt>
      <trkpt lat="43.34481" lon="-0.50585">
        <ele>135</ele>
        <time>2013-02-17T07:45:49</time>
      </trkpt>
      <trkpt lat="43.345" lon="-0.50604">
        <ele>133</ele>
        <time>2013-02-17T07:45:55</time>
      </trkpt>
      <trkpt lat="43.34511" lon="-0.50618">
        <ele>133</ele>
        <time>2013-02-17T07:45:59</time>
      </trkpt>
      <trkpt lat="43.34525" lon="-0.50639">
        <ele>133</ele>
        <time>2013-02-17T07:46:04</time>
      </trkpt>
      <trkpt lat="43.34543" lon="-0.50664">
        <ele>134</ele>
        <time>2013-02-17T07:46:10</time>
      </trkpt>
      <trkpt lat="43.34559" lon="-0.50685">
        <ele>134</ele>
        <time>2013-02-17T07:46:15</time>
      </trkpt>
      <trkpt lat="43.34571" lon="-0.50699">
        <ele>134</ele>
        <time>2013-02-17T07:46:20</time>
      </trkpt>
      <trkpt lat="43.34591" lon="-0.50725">
        <ele>133</ele>
        <time>2013-02-17T07:46:25</time>
      </trkpt>
      <trkpt lat="43.34604" lon="-0.50757">
        <ele>133</ele>
        <time>2013-02-17T07:46:30</time>
      </trkpt>
      <trkpt lat="43.34615" lon="-0.50783">
        <ele>132</ele>
        <time>2013-02-17T07:46:35</time>
      </trkpt>
      <trkpt lat="43.34626" lon="-0.50802">
        <ele>132</ele>
        <time>2013-02-17T07:46:40</time>
      </trkpt>
      <trkpt lat="43.34642" lon="-0.50818">
        <ele>133</ele>
        <time>2013-02-17T07:46:45</time>
      </trkpt>
      <trkpt lat="43.34659" lon="-0.50837">
        <ele>132</ele>
        <time>2013-02-17T07:46:50</time>
      </trkpt>
      <trkpt lat="43.34677" lon="-0.50867">
        <ele>132</ele>
        <time>2013-02-17T07:46:55</time>
      </trkpt>
      <trkpt lat="43.34692" lon="-0.50897">
        <ele>132</ele>
        <time>2013-02-17T07:47:00</time>
      </trkpt>
      <trkpt lat="43.34704" lon="-0.50922">
        <ele>132</ele>
        <time>2013-02-17T07:47:05</time>
      </trkpt>
      <trkpt lat="43.34718" lon="-0.50943">
        <ele>132</ele>
        <time>2013-02-17T07:47:10</time>
      </trkpt>
      <trkpt lat="43.3473" lon="-0.5097">
        <ele>132</ele>
        <time>2013-02-17T07:47:15</time>
      </trkpt>
      <trkpt lat="43.34739" lon="-0.50986">
        <ele>131</ele>
        <time>2013-02-17T07:47:20</time>
      </trkpt>
      <trkpt lat="43.34752" lon="-0.51021">
        <ele>132</ele>
        <time>2013-02-17T07:47:25</time>
      </trkpt>
      <trkpt lat="43.34747" lon="-0.5105">
        <ele>132</ele>
        <time>2013-02-17T07:47:30</time>
      </trkpt>
      <trkpt lat="43.34738" lon="-0.51076">
        <ele>132</ele>
        <time>2013-02-17T07:47:35</time>
      </trkpt>
      <trkpt lat="43.34738" lon="-0.51105">
        <ele>131</ele>
        <time>2013-02-17T07:47:40</time>
      </trkpt>
      <trkpt lat="43.3473" lon="-0.51134">
        <ele>131</ele>
        <time>2013-02-17T07:47:45</time>
      </trkpt>
      <trkpt lat="43.34719" lon="-0.51167">
        <ele>131</ele>
        <time>2013-02-17T07:47:50</time>
      </trkpt>
      <trkpt lat="43.34714" lon="-0.5119">
        <ele>132</ele>
        <time>2013-02-17T07:47:55</time>
      </trkpt>
      <trkpt lat="43.34704" lon="-0.51223">
        <ele>131</ele>
        <time>2013-02-17T07:48:00</time>
      </trkpt>
      <trkpt lat="43.34701" lon="-0.51243">
        <ele>131</ele>
        <time>2013-02-17T07:48:05</time>
      </trkpt>
      <trkpt lat="43.34716" lon="-0.51252">
        <ele>132</ele>
        <time>2013-02-17T07:48:10</time>
      </trkpt>
      <trkpt lat="43.34735" lon="-0.51258">
        <ele>131</ele>
        <time>2013-02-17T07:48:15</time>
      </trkpt>
      <trkpt lat="43.34751" lon="-0.51267">
        <ele>132</ele>
        <time>2013-02-17T07:48:20</time>
      </trkpt>
      <trkpt lat="43.34774" lon="-0.51278">
        <ele>132</ele>
        <time>2013-02-17T07:48:25</time>
      </trkpt>
      <trkpt lat="43.348" lon="-0.51287">
        <ele>131</ele>
        <time>2013-02-17T07:48:30</time>
      </trkpt>
      <trkpt lat="43.34822" lon="-0.51296">
        <ele>131</ele>
        <time>2013-02-17T07:48:35</time>
      </trkpt>
      <trkpt lat="43.34843" lon="-0.51306">
        <ele>131</ele>
        <time>2013-02-17T07:48:40</time>
      </trkpt>
      <trkpt lat="43.34862" lon="-0.51319">
        <ele>131</ele>
        <time>2013-02-17T07:48:45</time>
      </trkpt>
      <trkpt lat="43.34879" lon="-0.51333">
        <ele>131</ele>
        <time>2013-02-17T07:48:50</time>
      </trkpt>
      <trkpt lat="43.34895" lon="-0.51344">
        <ele>131</ele>
        <time>2013-02-17T07:48:56</time>
      </trkpt>
      <trkpt lat="43.34915" lon="-0.51358">
        <ele>132</ele>
        <time>2013-02-17T07:49:01</time>
      </trkpt>
      <trkpt lat="43.34939" lon="-0.51376">
        <ele>130</ele>
        <time>2013-02-17T07:49:06</time>
      </trkpt>
      <trkpt lat="43.34958" lon="-0.5139">
        <ele>130</ele>
        <time>2013-02-17T07:49:11</time>
      </trkpt>
      <trkpt lat="43.34975" lon="-0.51401">
        <ele>131</ele>
        <time>2013-02-17T07:49:16</time>
      </trkpt>
      <trkpt lat="43.34995" lon="-0.51412">
        <ele>131</ele>
        <time>2013-02-17T07:49:21</time>
      </trkpt>
      <trkpt lat="43.35016" lon="-0.51411">
        <ele>129</ele>
        <time>2013-02-17T07:49:26</time>
      </trkpt>
      <trkpt lat="43.35035" lon="-0.51396">
        <ele>130</ele>
        <time>2013-02-17T07:49:31</time>
      </trkpt>
      <trkpt lat="43.35052" lon="-0.51392">
        <ele>130</ele>
        <time>2013-02-17T07:49:36</time>
      </trkpt>
      <trkpt lat="43.35068" lon="-0.51419">
        <ele>131</ele>
        <time>2013-02-17T07:49:41</time>
      </trkpt>
      <trkpt lat="43.35075" lon="-0.51444">
        <ele>130</ele>
        <time>2013-02-17T07:49:46</time>
      </trkpt>
      <trkpt lat="43.35088" lon="-0.51465">
        <ele>130</ele>
        <time>2013-02-17T07:49:51</time>
      </trkpt>
      <trkpt lat="43.35105" lon="-0.51487">
        <ele>131</ele>
        <time>2013-02-17T07:49:56</time>
      </trkpt>
      <trkpt lat="43.35121" lon="-0.51502">
        <ele>130</ele>
        <time>2013-02-17T07:50:01</time>
      </trkpt>
      <trkpt lat="43.35143" lon="-0.51504">
        <ele>130</ele>
        <time>2013-02-17T07:50:06</time>
      </trkpt>
      <trkpt lat="43.35165" lon="-0.51503">
        <ele>130</ele>
        <time>2013-02-17T07:50:11</time>
      </trkpt>
      <trkpt lat="43.3519" lon="-0.51504">
        <ele>131</ele>
        <time>2013-02-17T07:50:16</time>
      </trkpt>
      <trkpt lat="43.35221" lon="-0.51488">
        <ele>130</ele>
        <time>2013-02-17T07:50:21</time>
      </trkpt>
      <trkpt lat="43.35239" lon="-0.515">
        <ele>129</ele>
        <time>2013-02-17T07:50:26</time>
      </trkpt>
      <trkpt lat="43.35256" lon="-0.51523">
        <ele>129</ele>
        <time>2013-02-17T07:50:31</time>
      </trkpt>
      <trkpt lat="43.35273" lon="-0.51543">
        <ele>129</ele>
        <time>2013-02-17T07:50:36</time>
      </trkpt>
      <trkpt lat="43.35289" lon="-0.5156">
        <ele>128</ele>
        <time>2013-02-17T07:50:41</time>
      </trkpt>
      <trkpt lat="43.35307" lon="-0.51578">
        <ele>129</ele>
        <time>2013-02-17T07:50:46</time>
      </trkpt>
      <trkpt lat="43.35331" lon="-0.51599">
        <ele>130</ele>
        <time>2013-02-17T07:50:51</time>
      </trkpt>
      <trkpt lat="43.35351" lon="-0.51611">
        <ele>130</ele>
        <time>2013-02-17T07:50:56</time>
      </trkpt>
      <trkpt lat="43.35368" lon="-0.51618">
        <ele>130</ele>
        <time>2013-02-17T07:51:01</time>
      </trkpt>
      <trkpt lat="43.35384" lon="-0.51643">
        <ele>129</ele>
        <time>2013-02-17T07:51:06</time>
      </trkpt>
      <trkpt lat="43.35393" lon="-0.51673">
        <ele>129</ele>
        <time>2013-02-17T07:51:11</time>
      </trkpt>
      <trkpt lat="43.35402" lon="-0.51704">
        <ele>129</ele>
        <time>2013-02-17T07:51:16</time>
      </trkpt>
      <trkpt lat="43.35415" lon="-0.51742">
        <ele>130</ele>
        <time>2013-02-17T07:51:21</time>
      </trkpt>
      <trkpt lat="43.35427" lon="-0.51768">
        <ele>130</ele>
        <time>2013-02-17T07:51:27</time>
      </trkpt>
      <trkpt lat="43.35443" lon="-0.51791">
        <ele>129</ele>
        <time>2013-02-17T07:51:32</time>
      </trkpt>
      <trkpt lat="43.35454" lon="-0.51808">
        <ele>129</ele>
        <time>2013-02-17T07:51:37</time>
      </trkpt>
      <trkpt lat="43.35469" lon="-0.51831">
        <ele>128</ele>
        <time>2013-02-17T07:51:42</time>
      </trkpt>
      <trkpt lat="43.35485" lon="-0.51851">
        <ele>128</ele>
        <time>2013-02-17T07:51:47</time>
      </trkpt>
      <trkpt lat="43.35501" lon="-0.51874">
        <ele>128</ele>
        <time>2013-02-17T07:51:52</time>
      </trkpt>
      <trkpt lat="43.35518" lon="-0.51903">
        <ele>128</ele>
        <time>2013-02-17T07:51:57</time>
      </trkpt>
      <trkpt lat="43.35538" lon="-0.51916">
        <ele>129</ele>
        <time>2013-02-17T07:52:02</time>
      </trkpt>
      <trkpt lat="43.35558" lon="-0.51909">
        <ele>128</ele>
        <time>2013-02-17T07:52:07</time>
      </trkpt>
      <trkpt lat="43.3557" lon="-0.51926">
        <ele>127</ele>
        <time>2013-02-17T07:52:12</time>
      </trkpt>
      <trkpt lat="43.3558" lon="-0.51945">
        <ele>129</ele>
        <time>2013-02-17T07:52:17</time>
      </trkpt>
      <trkpt lat="43.3559" lon="-0.51961">
        <ele>128</ele>
        <time>2013-02-17T07:52:22</time>
      </trkpt>
      <trkpt lat="43.35598" lon="-0.51978">
        <ele>128</ele>
        <time>2013-02-17T07:52:27</time>
      </trkpt>
      <trkpt lat="43.35606" lon="-0.51994">
        <ele>127</ele>
        <time>2013-02-17T07:52:32</time>
      </trkpt>
      <trkpt lat="43.35614" lon="-0.5201">
        <ele>127</ele>
        <time>2013-02-17T07:52:37</time>
      </trkpt>
      <trkpt lat="43.35621" lon="-0.52027">
        <ele>126</ele>
        <time>2013-02-17T07:52:42</time>
      </trkpt>
      <trkpt lat="43.35628" lon="-0.52043">
        <ele>127</ele>
        <time>2013-02-17T07:52:47</time>
      </trkpt>
      <trkpt lat="43.35635" lon="-0.52061">
        <ele>127</ele>
        <time>2013-02-17T07:52:52</time>
      </trkpt>
      <trkpt lat="43.35643" lon="-0.52086">
        <ele>128</ele>
        <time>2013-02-17T07:52:57</time>
      </trkpt>
      <trkpt lat="43.35647" lon="-0.52112">
        <ele>129</ele>
        <time>2013-02-17T07:53:02</time>
      </trkpt>
      <trkpt lat="43.35646" lon="-0.52138">
        <ele>128</ele>
        <time>2013-02-17T07:53:07</time>
      </trkpt>
      <trkpt lat="43.35643" lon="-0.52165">
        <ele>127</ele>
        <time>2013-02-17T07:53:12</time>
      </trkpt>
      <trkpt lat="43.35636" lon="-0.52185">
        <ele>127</ele>
        <time>2013-02-17T07:53:17</time>
      </trkpt>
      <trkpt lat="43.35621" lon="-0.522">
        <ele>128</ele>
        <time>2013-02-17T07:53:22</time>
      </trkpt>
      <trkpt lat="43.35601" lon="-0.52197">
        <ele>127</ele>
        <time>2013-02-17T07:53:27</time>
      </trkpt>
      <trkpt lat="43.35577" lon="-0.52187">
        <ele>128</ele>
        <time>2013-02-17T07:53:33</time>
      </trkpt>
      <trkpt lat="43.35559" lon="-0.52189">
        <ele>128</ele>
        <time>2013-02-17T07:53:38</time>
      </trkpt>
      <trkpt lat="43.35542" lon="-0.52201">
        <ele>127</ele>
        <time>2013-02-17T07:53:43</time>
      </trkpt>
      <trkpt lat="43.35527" lon="-0.52219">
        <ele>128</ele>
        <time>2013-02-17T07:53:48</time>
      </trkpt>
      <trkpt lat="43.35514" lon="-0.52243">
        <ele>127</ele>
        <time>2013-02-17T07:53:53</time>
      </trkpt>
      <trkpt lat="43.35506" lon="-0.52263">
        <ele>127</ele>
        <time>2013-02-17T07:53:58</time>
      </trkpt>
      <trkpt lat="43.35498" lon="-0.52296">
        <ele>128</ele>
        <time>2013-02-17T07:54:03</time>
      </trkpt>
      <trkpt lat="43.3549" lon="-0.52323">
        <ele>128</ele>
        <time>2013-02-17T07:54:08</time>
      </trkpt>
      <trkpt lat="43.35482" lon="-0.52352">
        <ele>128</ele>
        <time>2013-02-17T07:54:13</time>
      </trkpt>
      <trkpt lat="43.35476" lon="-0.52382">
        <ele>127</ele>
        <time>2013-02-17T07:54:18</time>
      </trkpt>
      <trkpt lat="43.35471" lon="-0.52413">
        <ele>127</ele>
        <time>2013-02-17T07:54:23</time>
      </trkpt>
      <trkpt lat="43.35468" lon="-0.52451">
        <ele>128</ele>
        <time>2013-02-17T07:54:28</time>
      </trkpt>
      <trkpt lat="43.35469" lon="-0.52476">
        <ele>128</ele>
        <time>2013-02-17T07:54:33</time>
      </trkpt>
      <trkpt lat="43.35471" lon="-0.52507">
        <ele>127</ele>
        <time>2013-02-17T07:54:38</time>
      </trkpt>
      <trkpt lat="43.35473" lon="-0.52539">
        <ele>127</ele>
        <time>2013-02-17T07:54:43</time>
      </trkpt>
      <trkpt lat="43.35477" lon="-0.52571">
        <ele>128</ele>
        <time>2013-02-17T07:54:48</time>
      </trkpt>
      <trkpt lat="43.35481" lon="-0.52602">
        <ele>127</ele>
        <time>2013-02-17T07:54:53</time>
      </trkpt>
      <trkpt lat="43.35486" lon="-0.52634">
        <ele>127</ele>
        <time>2013-02-17T07:54:58</time>
      </trkpt>
      <trkpt lat="43.35492" lon="-0.52671">
        <ele>127</ele>
        <time>2013-02-17T07:55:03</time>
      </trkpt>
      <trkpt lat="43.35498" lon="-0.52701">
        <ele>127</ele>
        <time>2013-02-17T07:55:08</time>
      </trkpt>
      <trkpt lat="43.35503" lon="-0.52731">
        <ele>127</ele>
        <time>2013-02-17T07:55:13</time>
      </trkpt>
      <trkpt lat="43.35508" lon="-0.52755">
        <ele>125</ele>
        <time>2013-02-17T07:55:18</time>
      </trkpt>
      <trkpt lat="43.35512" lon="-0.52786">
        <ele>126</ele>
        <time>2013-02-17T07:55:23</time>
      </trkpt>
      <trkpt lat="43.35513" lon="-0.52817">
        <ele>125</ele>
        <time>2013-02-17T07:55:28</time>
      </trkpt>
      <trkpt lat="43.35512" lon="-0.52855">
        <ele>125</ele>
        <time>2013-02-17T07:55:33</time>
      </trkpt>
      <trkpt lat="43.35512" lon="-0.52886">
        <ele>126</ele>
        <time>2013-02-17T07:55:38</time>
      </trkpt>
      <trkpt lat="43.35511" lon="-0.52917">
        <ele>127</ele>
        <time>2013-02-17T07:55:44</time>
      </trkpt>
      <trkpt lat="43.35509" lon="-0.52949">
        <ele>126</ele>
        <time>2013-02-17T07:55:49</time>
      </trkpt>
      <trkpt lat="43.35508" lon="-0.5298">
        <ele>128</ele>
        <time>2013-02-17T07:55:54</time>
      </trkpt>
      <trkpt lat="43.35501" lon="-0.52997">
        <ele>128</ele>
        <time>2013-02-17T07:55:59</time>
      </trkpt>
      <trkpt lat="43.35489" lon="-0.52986">
        <ele>127</ele>
        <time>2013-02-17T07:56:04</time>
      </trkpt>
      <trkpt lat="43.35476" lon="-0.52972">
        <ele>127</ele>
        <time>2013-02-17T07:56:09</time>
      </trkpt>
      <trkpt lat="43.35463" lon="-0.52956">
        <ele>127</ele>
        <time>2013-02-17T07:56:14</time>
      </trkpt>
      <trkpt lat="43.3545" lon="-0.52938">
        <ele>127</ele>
        <time>2013-02-17T07:56:19</time>
      </trkpt>
      <trkpt lat="43.35436" lon="-0.5292">
        <ele>127</ele>
        <time>2013-02-17T07:56:24</time>
      </trkpt>
      <trkpt lat="43.35424" lon="-0.52905">
        <ele>128</ele>
        <time>2013-02-17T07:56:29</time>
      </trkpt>
      <trkpt lat="43.35406" lon="-0.52882">
        <ele>127</ele>
        <time>2013-02-17T07:56:34</time>
      </trkpt>
      <trkpt lat="43.35392" lon="-0.52863">
        <ele>128</ele>
        <time>2013-02-17T07:56:39</time>
      </trkpt>
      <trkpt lat="43.35378" lon="-0.52843">
        <ele>128</ele>
        <time>2013-02-17T07:56:44</time>
      </trkpt>
      <trkpt lat="43.35363" lon="-0.52823">
        <ele>127</ele>
        <time>2013-02-17T07:56:49</time>
      </trkpt>
      <trkpt lat="43.3535" lon="-0.52805">
        <ele>128</ele>
        <time>2013-02-17T07:56:54</time>
      </trkpt>
      <trkpt lat="43.35335" lon="-0.52785">
        <ele>128</ele>
        <time>2013-02-17T07:56:59</time>
      </trkpt>
      <trkpt lat="43.35318" lon="-0.52762">
        <ele>129</ele>
        <time>2013-02-17T07:57:04</time>
      </trkpt>
      <trkpt lat="43.35305" lon="-0.52746">
        <ele>127</ele>
        <time>2013-02-17T07:57:09</time>
      </trkpt>
      <trkpt lat="43.3529" lon="-0.52727">
        <ele>129</ele>
        <time>2013-02-17T07:57:14</time>
      </trkpt>
      <trkpt lat="43.35275" lon="-0.52706">
        <ele>129</ele>
        <time>2013-02-17T07:57:19</time>
      </trkpt>
      <trkpt lat="43.35259" lon="-0.52687">
        <ele>129</ele>
        <time>2013-02-17T07:57:24</time>
      </trkpt>
      <trkpt lat="43.35243" lon="-0.52666">
        <ele>129</ele>
        <time>2013-02-17T07:57:29</time>
      </trkpt>
      <trkpt lat="43.35228" lon="-0.52645">
        <ele>129</ele>
        <time>2013-02-17T07:57:34</time>
      </trkpt>
      <trkpt lat="43.35209" lon="-0.52621">
        <ele>129</ele>
        <time>2013-02-17T07:57:39</time>
      </trkpt>
      <trkpt lat="43.35194" lon="-0.52602">
        <ele>130</ele>
        <time>2013-02-17T07:57:44</time>
      </trkpt>
      <trkpt lat="43.35176" lon="-0.526">
        <ele>129</ele>
        <time>2013-02-17T07:57:49</time>
      </trkpt>
      <trkpt lat="43.35167" lon="-0.52616">
        <ele>129</ele>
        <time>2013-02-17T07:57:54</time>
      </trkpt>
      <trkpt lat="43.35151" lon="-0.52628">
        <ele>128</ele>
        <time>2013-02-17T07:57:59</time>
      </trkpt>
      <trkpt lat="43.35135" lon="-0.52626">
        <ele>129</ele>
        <time>2013-02-17T07:58:04</time>
      </trkpt>
      <trkpt lat="43.3512" lon="-0.52648">
        <ele>129</ele>
        <time>2013-02-17T07:58:09</time>
      </trkpt>
      <trkpt lat="43.35109" lon="-0.5267">
        <ele>128</ele>
        <time>2013-02-17T07:58:14</time>
      </trkpt>
      <trkpt lat="43.35097" lon="-0.52693">
        <ele>129</ele>
        <time>2013-02-17T07:58:19</time>
      </trkpt>
      <trkpt lat="43.35086" lon="-0.52718">
        <ele>129</ele>
        <time>2013-02-17T07:58:25</time>
      </trkpt>
      <trkpt lat="43.35075" lon="-0.52741">
        <ele>128</ele>
        <time>2013-02-17T07:58:30</time>
      </trkpt>
      <trkpt lat="43.35067" lon="-0.5276">
        <ele>129</ele>
        <time>2013-02-17T07:58:35</time>
      </trkpt>
      <trkpt lat="43.35053" lon="-0.52791">
        <ele>130</ele>
        <time>2013-02-17T07:58:40</time>
      </trkpt>
      <trkpt lat="43.35045" lon="-0.52816">
        <ele>130</ele>
        <time>2013-02-17T07:58:45</time>
      </trkpt>
      <trkpt lat="43.3504" lon="-0.52837">
        <ele>133</ele>
        <time>2013-02-17T07:58:50</time>
      </trkpt>
      <trkpt lat="43.35035" lon="-0.52856">
        <ele>134</ele>
        <time>2013-02-17T07:58:55</time>
      </trkpt>
      <trkpt lat="43.35031" lon="-0.52876">
        <ele>135</ele>
        <time>2013-02-17T07:59:00</time>
      </trkpt>
      <trkpt lat="43.35022" lon="-0.52886">
        <ele>135</ele>
        <time>2013-02-17T07:59:05</time>
      </trkpt>
      <trkpt lat="43.35011" lon="-0.52888">
        <ele>136</ele>
        <time>2013-02-17T07:59:10</time>
      </trkpt>
      <trkpt lat="43.34997" lon="-0.52886">
        <ele>137</ele>
        <time>2013-02-17T07:59:15</time>
      </trkpt>
      <trkpt lat="43.34985" lon="-0.52884">
        <ele>136</ele>
        <time>2013-02-17T07:59:20</time>
      </trkpt>
      <trkpt lat="43.34974" lon="-0.52877">
        <ele>136</ele>
        <time>2013-02-17T07:59:25</time>
      </trkpt>
      <trkpt lat="43.34958" lon="-0.52863">
        <ele>136</ele>
        <time>2013-02-17T07:59:30</time>
      </trkpt>
      <trkpt lat="43.34938" lon="-0.52861">
        <ele>136</ele>
        <time>2013-02-17T07:59:35</time>
      </trkpt>
      <trkpt lat="43.34921" lon="-0.52858">
        <ele>137</ele>
        <time>2013-02-17T07:59:40</time>
      </trkpt>
      <trkpt lat="43.34906" lon="-0.52856">
        <ele>136</ele>
        <time>2013-02-17T07:59:45</time>
      </trkpt>
      <trkpt lat="43.34892" lon="-0.52844">
        <ele>139</ele>
        <time>2013-02-17T07:59:50</time>
      </trkpt>
      <trkpt lat="43.34879" lon="-0.5283">
        <ele>139</ele>
        <time>2013-02-17T07:59:55</time>
      </trkpt>
      <trkpt lat="43.34862" lon="-0.52821">
        <ele>138</ele>
        <time>2013-02-17T08:00:00</time>
      </trkpt>
      <trkpt lat="43.34843" lon="-0.52805">
        <ele>138</ele>
        <time>2013-02-17T08:00:05</time>
      </trkpt>
      <trkpt lat="43.34831" lon="-0.52784">
        <ele>138</ele>
        <time>2013-02-17T08:00:10</time>
      </trkpt>
      <trkpt lat="43.34819" lon="-0.52764">
        <ele>139</ele>
        <time>2013-02-17T08:00:15</time>
      </trkpt>
      <trkpt lat="43.34804" lon="-0.52749">
        <ele>141</ele>
        <time>2013-02-17T08:00:20</time>
      </trkpt>
      <trkpt lat="43.34793" lon="-0.52738">
        <ele>142</ele>
        <time>2013-02-17T08:00:25</time>
      </trkpt>
      <trkpt lat="43.3478" lon="-0.52739">
        <ele>144</ele>
        <time>2013-02-17T08:00:30</time>
      </trkpt>
      <trkpt lat="43.3477" lon="-0.52742">
        <ele>146</ele>
        <time>2013-02-17T08:00:35</time>
      </trkpt>
      <trkpt lat="43.34758" lon="-0.5274">
        <ele>149</ele>
        <time>2013-02-17T08:00:40</time>
      </trkpt>
      <trkpt lat="43.34747" lon="-0.52727">
        <ele>149</ele>
        <time>2013-02-17T08:00:45</time>
      </trkpt>
      <trkpt lat="43.34738" lon="-0.52714">
        <ele>150</ele>
        <time>2013-02-17T08:00:50</time>
      </trkpt>
      <trkpt lat="43.3473" lon="-0.52701">
        <ele>150</ele>
        <time>2013-02-17T08:00:56</time>
      </trkpt>
      <trkpt lat="43.34724" lon="-0.52688">
        <ele>150</ele>
        <time>2013-02-17T08:01:01</time>
      </trkpt>
      <trkpt lat="43.34717" lon="-0.52676">
        <ele>151</ele>
        <time>2013-02-17T08:01:06</time>
      </trkpt>
      <trkpt lat="43.3471" lon="-0.52666">
        <ele>153</ele>
        <time>2013-02-17T08:01:11</time>
      </trkpt>
      <trkpt lat="43.347" lon="-0.52654">
        <ele>154</ele>
        <time>2013-02-17T08:01:16</time>
      </trkpt>
      <trkpt lat="43.34688" lon="-0.52646">
        <ele>155</ele>
        <time>2013-02-17T08:01:21</time>
      </trkpt>
      <trkpt lat="43.3468" lon="-0.52652">
        <ele>157</ele>
        <time>2013-02-17T08:01:26</time>
      </trkpt>
      <trkpt lat="43.34677" lon="-0.52666">
        <ele>159</ele>
        <time>2013-02-17T08:01:31</time>
      </trkpt>
      <trkpt lat="43.34674" lon="-0.52681">
        <ele>160</ele>
        <time>2013-02-17T08:01:36</time>
      </trkpt>
      <trkpt lat="43.3467" lon="-0.52696">
        <ele>161</ele>
        <time>2013-02-17T08:01:41</time>
      </trkpt>
      <trkpt lat="43.34668" lon="-0.5271">
        <ele>164</ele>
        <time>2013-02-17T08:01:46</time>
      </trkpt>
      <trkpt lat="43.34668" lon="-0.52724">
        <ele>165</ele>
        <time>2013-02-17T08:01:51</time>
      </trkpt>
      <trkpt lat="43.34673" lon="-0.52733">
        <ele>167</ele>
        <time>2013-02-17T08:01:56</time>
      </trkpt>
      <trkpt lat="43.3468" lon="-0.5274">
        <ele>169</ele>
        <time>2013-02-17T08:02:01</time>
      </trkpt>
      <trkpt lat="43.34688" lon="-0.5275">
        <ele>170</ele>
        <time>2013-02-17T08:02:06</time>
      </trkpt>
      <trkpt lat="43.34695" lon="-0.52762">
        <ele>168</ele>
        <time>2013-02-17T08:02:11</time>
      </trkpt>
      <trkpt lat="43.34702" lon="-0.52777">
        <ele>169</ele>
        <time>2013-02-17T08:02:16</time>
      </trkpt>
      <trkpt lat="43.34708" lon="-0.52793">
        <ele>170</ele>
        <time>2013-02-17T08:02:21</time>
      </trkpt>
      <trkpt lat="43.34713" lon="-0.52807">
        <ele>170</ele>
        <time>2013-02-17T08:02:26</time>
      </trkpt>
      <trkpt lat="43.3472" lon="-0.52824">
        <ele>171</ele>
        <time>2013-02-17T08:02:31</time>
      </trkpt>
      <trkpt lat="43.34726" lon="-0.52841">
        <ele>171</ele>
        <time>2013-02-17T08:02:36</time>
      </trkpt>
      <trkpt lat="43.34733" lon="-0.52859">
        <ele>173</ele>
        <time>2013-02-17T08:02:41</time>
      </trkpt>
      <trkpt lat="43.3474" lon="-0.52879">
        <ele>172</ele>
        <time>2013-02-17T08:02:46</time>
      </trkpt>
      <trkpt lat="43.34745" lon="-0.52895">
        <ele>174</ele>
        <time>2013-02-17T08:02:52</time>
      </trkpt>
      <trkpt lat="43.34748" lon="-0.52915">
        <ele>173</ele>
        <time>2013-02-17T08:02:57</time>
      </trkpt>
      <trkpt lat="43.3475" lon="-0.52936">
        <ele>173</ele>
        <time>2013-02-17T08:03:02</time>
      </trkpt>
      <trkpt lat="43.34752" lon="-0.52957">
        <ele>176</ele>
        <time>2013-02-17T08:03:07</time>
      </trkpt>
      <trkpt lat="43.34754" lon="-0.52975">
        <ele>177</ele>
        <time>2013-02-17T08:03:12</time>
      </trkpt>
      <trkpt lat="43.34762" lon="-0.5299">
        <ele>176</ele>
        <time>2013-02-17T08:03:17</time>
      </trkpt>
      <trkpt lat="43.34773" lon="-0.53004">
        <ele>178</ele>
        <time>2013-02-17T08:03:22</time>
      </trkpt>
      <trkpt lat="43.3478" lon="-0.53024">
        <ele>180</ele>
        <time>2013-02-17T08:03:27</time>
      </trkpt>
      <trkpt lat="43.34782" lon="-0.5304">
        <ele>181</ele>
        <time>2013-02-17T08:03:32</time>
      </trkpt>
      <trkpt lat="43.34789" lon="-0.5306">
        <ele>183</ele>
        <time>2013-02-17T08:03:37</time>
      </trkpt>
      <trkpt lat="43.34797" lon="-0.53071">
        <ele>185</ele>
        <time>2013-02-17T08:03:42</time>
      </trkpt>
      <trkpt lat="43.34804" lon="-0.53081">
        <ele>188</ele>
        <time>2013-02-17T08:03:47</time>
      </trkpt>
      <trkpt lat="43.34811" lon="-0.53095">
        <ele>190</ele>
        <time>2013-02-17T08:03:52</time>
      </trkpt>
      <trkpt lat="43.34814" lon="-0.53111">
        <ele>192</ele>
        <time>2013-02-17T08:03:57</time>
      </trkpt>
      <trkpt lat="43.34815" lon="-0.53127">
        <ele>194</ele>
        <time>2013-02-17T08:04:02</time>
      </trkpt>
      <trkpt lat="43.34818" lon="-0.53144">
        <ele>196</ele>
        <time>2013-02-17T08:04:07</time>
      </trkpt>
      <trkpt lat="43.34819" lon="-0.53155">
        <ele>198</ele>
        <time>2013-02-17T08:04:12</time>
      </trkpt>
      <trkpt lat="43.34821" lon="-0.53158">
        <ele>200</ele>
        <time>2013-02-17T08:04:17</time>
      </trkpt>
      <trkpt lat="43.34821" lon="-0.53158">
        <ele>199</ele>
        <time>2013-02-17T08:04:22</time>
      </trkpt>
      <trkpt lat="43.34819" lon="-0.53163">
        <ele>199</ele>
        <time>2013-02-17T08:04:27</time>
      </trkpt>
      <trkpt lat="43.34811" lon="-0.53164">
        <ele>200</ele>
        <time>2013-02-17T08:04:32</time>
      </trkpt>
      <trkpt lat="43.34814" lon="-0.53163">
        <ele>200</ele>
        <time>2013-02-17T08:04:37</time>
      </trkpt>
      <trkpt lat="43.34821" lon="-0.53163">
        <ele>199</ele>
        <time>2013-02-17T08:04:43</time>
      </trkpt>
      <trkpt lat="43.34821" lon="-0.53163">
        <ele>199</ele>
        <time>2013-02-17T08:04:48</time>
      </trkpt>
      <trkpt lat="43.34821" lon="-0.53163">
        <ele>199</ele>
        <time>2013-02-17T08:04:53</time>
      </trkpt>
      <trkpt lat="43.34821" lon="-0.53163">
        <ele>198</ele>
        <time>2013-02-17T08:04:58</time>
      </trkpt>
      <trkpt lat="43.34821" lon="-0.53163">
        <ele>199</ele>
        <time>2013-02-17T08:05:03</time>
      </trkpt>
      <trkpt lat="43.34821" lon="-0.53163">
        <ele>199</ele>
        <time>2013-02-17T08:05:08</time>
      </trkpt>
      <trkpt lat="43.34821" lon="-0.53163">
        <ele>198</ele>
        <time>2013-02-17T08:05:13</time>
      </trkpt>
      <trkpt lat="43.34821" lon="-0.53163">
        <ele>199</ele>
        <time>2013-02-17T08:05:18</time>
      </trkpt>
      <trkpt lat="43.34821" lon="-0.53163">
        <ele>199</ele>
        <time>2013-02-17T08:05:23</time>
      </trkpt>
      <trkpt lat="43.34821" lon="-0.53163">
        <ele>198</ele>
        <time>2013-02-17T08:05:28</time>
      </trkpt>
      <trkpt lat="43.34821" lon="-0.53163">
        <ele>198</ele>
        <time>2013-02-17T08:05:33</time>
      </trkpt>
      <trkpt lat="43.34821" lon="-0.53163">
        <ele>199</ele>
        <time>2013-02-17T08:05:38</time>
      </trkpt>
      <trkpt lat="43.34821" lon="-0.53163">
        <ele>198</ele>
        <time>2013-02-17T08:05:43</time>
      </trkpt>
      <trkpt lat="43.34821" lon="-0.53163">
        <ele>200</ele>
        <time>2013-02-17T08:05:48</time>
      </trkpt>
      <trkpt lat="43.34821" lon="-0.53163">
        <ele>199</ele>
        <time>2013-02-17T08:05:53</time>
      </trkpt>
      <trkpt lat="43.34821" lon="-0.53163">
        <ele>198</ele>
        <time>2013-02-17T08:05:58</time>
      </trkpt>
      <trkpt lat="43.34821" lon="-0.53163">
        <ele>199</ele>
        <time>2013-02-17T08:06:03</time>
      </trkpt>
      <trkpt lat="43.34821" lon="-0.53163">
        <ele>199</ele>
        <time>2013-02-17T08:06:08</time>
      </trkpt>
      <trkpt lat="43.34821" lon="-0.53163">
        <ele>199</ele>
        <time>2013-02-17T08:06:13</time>
      </trkpt>
      <trkpt lat="43.34821" lon="-0.53163">
        <ele>199</ele>
        <time>2013-02-17T08:06:18</time>
      </trkpt>
      <trkpt lat="43.34821" lon="-0.53163">
        <ele>198</ele>
        <time>2013-02-17T08:06:23</time>
      </trkpt>
      <trkpt lat="43.34821" lon="-0.53163">
        <ele>199</ele>
        <time>2013-02-17T08:06:28</time>
      </trkpt>
      <trkpt lat="43.34821" lon="-0.53163">
        <ele>199</ele>
        <time>2013-02-17T08:06:33</time>
      </trkpt>
      <trkpt lat="43.34821" lon="-0.53163">
        <ele>199</ele>
        <time>2013-02-17T08:06:38</time>
      </trkpt>
      <trkpt lat="43.34821" lon="-0.53163">
        <ele>199</ele>
        <time>2013-02-17T08:06:43</time>
      </trkpt>
      <trkpt lat="43.34821" lon="-0.53163">
        <ele>199</ele>
        <time>2013-02-17T08:06:48</time>
      </trkpt>
      <trkpt lat="43.34821" lon="-0.53163">
        <ele>200</ele>
        <time>2013-02-17T08:06:53</time>
      </trkpt>
      <trkpt lat="43.34821" lon="-0.53163">
        <ele>200</ele>
        <time>2013-02-17T08:06:59</time>
      </trkpt>
      <trkpt lat="43.34821" lon="-0.53163">
        <ele>200</ele>
        <time>2013-02-17T08:07:04</time>
      </trkpt>
      <trkpt lat="43.34821" lon="-0.53163">
        <ele>191</ele>
        <time>2013-02-17T08:07:09</time>
      </trkpt>
      <trkpt lat="43.34821" lon="-0.53163">
        <ele>203</ele>
        <time>2013-02-17T08:07:14</time>
      </trkpt>
      <trkpt lat="43.34821" lon="-0.53163">
        <ele>200</ele>
        <time>2013-02-17T08:07:19</time>
      </trkpt>
      <trkpt lat="43.34821" lon="-0.53163">
        <ele>199</ele>
        <time>2013-02-17T08:07:24</time>
      </trkpt>
      <trkpt lat="43.34821" lon="-0.53163">
        <ele>199</ele>
        <time>2013-02-17T08:07:29</time>
      </trkpt>
      <trkpt lat="43.3482" lon="-0.53166">
        <ele>200</ele>
        <time>2013-02-17T08:07:34</time>
      </trkpt>
      <trkpt lat="43.3481" lon="-0.5317">
        <ele>200</ele>
        <time>2013-02-17T08:07:39</time>
      </trkpt>
      <trkpt lat="43.34801" lon="-0.53174">
        <ele>201</ele>
        <time>2013-02-17T08:07:44</time>
      </trkpt>
      <trkpt lat="43.34791" lon="-0.53182">
        <ele>201</ele>
        <time>2013-02-17T08:07:49</time>
      </trkpt>
      <trkpt lat="43.34782" lon="-0.53191">
        <ele>201</ele>
        <time>2013-02-17T08:07:54</time>
      </trkpt>
      <trkpt lat="43.34773" lon="-0.532">
        <ele>202</ele>
        <time>2013-02-17T08:07:59</time>
      </trkpt>
      <trkpt lat="43.34765" lon="-0.53207">
        <ele>202</ele>
        <time>2013-02-17T08:08:04</time>
      </trkpt>
      <trkpt lat="43.34757" lon="-0.53215">
        <ele>204</ele>
        <time>2013-02-17T08:08:09</time>
      </trkpt>
      <trkpt lat="43.34751" lon="-0.53225">
        <ele>204</ele>
        <time>2013-02-17T08:08:14</time>
      </trkpt>
      <trkpt lat="43.34744" lon="-0.53237">
        <ele>204</ele>
        <time>2013-02-17T08:08:19</time>
      </trkpt>
      <trkpt lat="43.34735" lon="-0.53246">
        <ele>208</ele>
        <time>2013-02-17T08:08:24</time>
      </trkpt>
      <trkpt lat="43.3473" lon="-0.5326">
        <ele>206</ele>
        <time>2013-02-17T08:08:29</time>
      </trkpt>
      <trkpt lat="43.34726" lon="-0.53274">
        <ele>205</ele>
        <time>2013-02-17T08:08:34</time>
      </trkpt>
      <trkpt lat="43.3472" lon="-0.5329">
        <ele>206</ele>
        <time>2013-02-17T08:08:39</time>
      </trkpt>
      <trkpt lat="43.34716" lon="-0.53302">
        <ele>206</ele>
        <time>2013-02-17T08:08:44</time>
      </trkpt>
      <trkpt lat="43.3471" lon="-0.53315">
        <ele>206</ele>
        <time>2013-02-17T08:08:49</time>
      </trkpt>
      <trkpt lat="43.34707" lon="-0.53328">
        <ele>206</ele>
        <time>2013-02-17T08:08:54</time>
      </trkpt>
      <trkpt lat="43.34706" lon="-0.53342">
        <ele>207</ele>
        <time>2013-02-17T08:08:59</time>
      </trkpt>
      <trkpt lat="43.34705" lon="-0.5336">
        <ele>208</ele>
        <time>2013-02-17T08:09:05</time>
      </trkpt>
      <trkpt lat="43.34701" lon="-0.53376">
        <ele>208</ele>
        <time>2013-02-17T08:09:10</time>
      </trkpt>
      <trkpt lat="43.34697" lon="-0.53393">
        <ele>208</ele>
        <time>2013-02-17T08:09:15</time>
      </trkpt>
      <trkpt lat="43.34691" lon="-0.53409">
        <ele>210</ele>
        <time>2013-02-17T08:09:20</time>
      </trkpt>
      <trkpt lat="43.34686" lon="-0.53426">
        <ele>209</ele>
        <time>2013-02-17T08:09:25</time>
      </trkpt>
      <trkpt lat="43.34679" lon="-0.53441">
        <ele>209</ele>
        <time>2013-02-17T08:09:30</time>
      </trkpt>
      <trkpt lat="43.34672" lon="-0.53453">
        <ele>211</ele>
        <time>2013-02-17T08:09:35</time>
      </trkpt>
      <trkpt lat="43.34667" lon="-0.53467">
        <ele>211</ele>
        <time>2013-02-17T08:09:40</time>
      </trkpt>
      <trkpt lat="43.34665" lon="-0.53474">
        <ele>211</ele>
        <time>2013-02-17T08:09:45</time>
      </trkpt>
      <trkpt lat="43.34665" lon="-0.53474">
        <ele>213</ele>
        <time>2013-02-17T08:09:50</time>
      </trkpt>
      <trkpt lat="43.34665" lon="-0.53474">
        <ele>213</ele>
        <time>2013-02-17T08:09:55</time>
      </trkpt>
      <trkpt lat="43.34652" lon="-0.53518">
        <ele>215</ele>
        <time>2013-02-17T08:10:00</time>
      </trkpt>
      <trkpt lat="43.34651" lon="-0.53521">
        <ele>217</ele>
        <time>2013-02-17T08:10:05</time>
      </trkpt>
      <trkpt lat="43.34647" lon="-0.53545">
        <ele>218</ele>
        <time>2013-02-17T08:10:10</time>
      </trkpt>
      <trkpt lat="43.34647" lon="-0.53545">
        <ele>218</ele>
        <time>2013-02-17T08:10:15</time>
      </trkpt>
      <trkpt lat="43.34634" lon="-0.53575">
        <ele>218</ele>
        <time>2013-02-17T08:10:20</time>
      </trkpt>
      <trkpt lat="43.3463" lon="-0.53584">
        <ele>218</ele>
        <time>2013-02-17T08:10:25</time>
      </trkpt>
      <trkpt lat="43.34619" lon="-0.53604">
        <ele>221</ele>
        <time>2013-02-17T08:10:30</time>
      </trkpt>
      <trkpt lat="43.34613" lon="-0.53613">
        <ele>221</ele>
        <time>2013-02-17T08:10:35</time>
      </trkpt>
      <trkpt lat="43.34605" lon="-0.53623">
        <ele>221</ele>
        <time>2013-02-17T08:10:40</time>
      </trkpt>
      <trkpt lat="43.34596" lon="-0.53632">
        <ele>224</ele>
        <time>2013-02-17T08:10:45</time>
      </trkpt>
      <trkpt lat="43.34589" lon="-0.53639">
        <ele>224</ele>
        <time>2013-02-17T08:10:50</time>
      </trkpt>
      <trkpt lat="43.34589" lon="-0.53639">
        <ele>222</ele>
        <time>2013-02-17T08:10:55</time>
      </trkpt>
      <trkpt lat="43.3458" lon="-0.53634">
        <ele>225</ele>
        <time>2013-02-17T08:11:00</time>
      </trkpt>
      <trkpt lat="43.3458" lon="-0.53622">
        <ele>226</ele>
        <time>2013-02-17T08:11:05</time>
      </trkpt>
      <trkpt lat="43.34581" lon="-0.53612">
        <ele>229</ele>
        <time>2013-02-17T08:11:10</time>
      </trkpt>
      <trkpt lat="43.34582" lon="-0.53601">
        <ele>229</ele>
        <time>2013-02-17T08:11:15</time>
      </trkpt>
      <trkpt lat="43.34584" lon="-0.53589">
        <ele>231</ele>
        <time>2013-02-17T08:11:20</time>
      </trkpt>
      <trkpt lat="43.34584" lon="-0.53577">
        <ele>231</ele>
        <time>2013-02-17T08:11:26</time>
      </trkpt>
      <trkpt lat="43.34586" lon="-0.53564">
        <ele>233</ele>
        <time>2013-02-17T08:11:31</time>
      </trkpt>
      <trkpt lat="43.34587" lon="-0.53553">
        <ele>233</ele>
        <time>2013-02-17T08:11:36</time>
      </trkpt>
      <trkpt lat="43.3459" lon="-0.53536">
        <ele>234</ele>
        <time>2013-02-17T08:11:41</time>
      </trkpt>
      <trkpt lat="43.34588" lon="-0.53524">
        <ele>232</ele>
        <time>2013-02-17T08:11:46</time>
      </trkpt>
      <trkpt lat="43.34589" lon="-0.53511">
        <ele>234</ele>
        <time>2013-02-17T08:11:51</time>
      </trkpt>
      <trkpt lat="43.34589" lon="-0.53496">
        <ele>235</ele>
        <time>2013-02-17T08:11:56</time>
      </trkpt>
      <trkpt lat="43.34588" lon="-0.53482">
        <ele>236</ele>
        <time>2013-02-17T08:12:01</time>
      </trkpt>
      <trkpt lat="43.34587" lon="-0.53468">
        <ele>237</ele>
        <time>2013-02-17T08:12:06</time>
      </trkpt>
      <trkpt lat="43.34586" lon="-0.53456">
        <ele>238</ele>
        <time>2013-02-17T08:12:11</time>
      </trkpt>
      <trkpt lat="43.34585" lon="-0.53441">
        <ele>240</ele>
        <time>2013-02-17T08:12:16</time>
      </trkpt>
      <trkpt lat="43.34581" lon="-0.53425">
        <ele>241</ele>
        <time>2013-02-17T08:12:21</time>
      </trkpt>
      <trkpt lat="43.34581" lon="-0.53411">
        <ele>244</ele>
        <time>2013-02-17T08:12:26</time>
      </trkpt>
      <trkpt lat="43.3458" lon="-0.53399">
        <ele>247</ele>
        <time>2013-02-17T08:12:31</time>
      </trkpt>
      <trkpt lat="43.3458" lon="-0.53386">
        <ele>246</ele>
        <time>2013-02-17T08:12:36</time>
      </trkpt>
      <trkpt lat="43.34577" lon="-0.53377">
        <ele>246</ele>
        <time>2013-02-17T08:12:41</time>
      </trkpt>
      <trkpt lat="43.34577" lon="-0.53377">
        <ele>247</ele>
        <time>2013-02-17T08:12:46</time>
      </trkpt>
      <trkpt lat="43.34577" lon="-0.53377">
        <ele>249</ele>
        <time>2013-02-17T08:12:51</time>
      </trkpt>
      <trkpt lat="43.34577" lon="-0.53377">
        <ele>249</ele>
        <time>2013-02-17T08:12:56</time>
      </trkpt>
      <trkpt lat="43.34572" lon="-0.53334">
        <ele>247</ele>
        <time>2013-02-17T08:13:01</time>
      </trkpt>
      <trkpt lat="43.34572" lon="-0.53319">
        <ele>247</ele>
        <time>2013-02-17T08:13:06</time>
      </trkpt>
      <trkpt lat="43.3457" lon="-0.53303">
        <ele>249</ele>
        <time>2013-02-17T08:13:11</time>
      </trkpt>
      <trkpt lat="43.3457" lon="-0.53289">
        <ele>250</ele>
        <time>2013-02-17T08:13:16</time>
      </trkpt>
      <trkpt lat="43.34568" lon="-0.53274">
        <ele>249</ele>
        <time>2013-02-17T08:13:21</time>
      </trkpt>
      <trkpt lat="43.34565" lon="-0.53261">
        <ele>251</ele>
        <time>2013-02-17T08:13:26</time>
      </trkpt>
      <trkpt lat="43.34564" lon="-0.53246">
        <ele>251</ele>
        <time>2013-02-17T08:13:31</time>
      </trkpt>
      <trkpt lat="43.34562" lon="-0.53231">
        <ele>251</ele>
        <time>2013-02-17T08:13:36</time>
      </trkpt>
      <trkpt lat="43.34559" lon="-0.53216">
        <ele>253</ele>
        <time>2013-02-17T08:13:42</time>
      </trkpt>
      <trkpt lat="43.34558" lon="-0.53199">
        <ele>257</ele>
        <time>2013-02-17T08:13:47</time>
      </trkpt>
      <trkpt lat="43.34557" lon="-0.53179">
        <ele>257</ele>
        <time>2013-02-17T08:13:52</time>
      </trkpt>
      <trkpt lat="43.34556" lon="-0.53162">
        <ele>257</ele>
        <time>2013-02-17T08:13:57</time>
      </trkpt>
      <trkpt lat="43.34556" lon="-0.53145">
        <ele>259</ele>
        <time>2013-02-17T08:14:02</time>
      </trkpt>
      <trkpt lat="43.34553" lon="-0.53128">
        <ele>260</ele>
        <time>2013-02-17T08:14:07</time>
      </trkpt>
      <trkpt lat="43.34552" lon="-0.53112">
        <ele>260</ele>
        <time>2013-02-17T08:14:12</time>
      </trkpt>
      <trkpt lat="43.34552" lon="-0.53097">
        <ele>262</ele>
        <time>2013-02-17T08:14:17</time>
      </trkpt>
      <trkpt lat="43.34547" lon="-0.53081">
        <ele>265</ele>
        <time>2013-02-17T08:14:22</time>
      </trkpt>
      <trkpt lat="43.34542" lon="-0.53067">
        <ele>265</ele>
        <time>2013-02-17T08:14:27</time>
      </trkpt>
      <trkpt lat="43.34538" lon="-0.53049">
        <ele>266</ele>
        <time>2013-02-17T08:14:32</time>
      </trkpt>
      <trkpt lat="43.34536" lon="-0.53045">
        <ele>266</ele>
        <time>2013-02-17T08:14:37</time>
      </trkpt>
      <trkpt lat="43.34536" lon="-0.53045">
        <ele>266</ele>
        <time>2013-02-17T08:14:42</time>
      </trkpt>
      <trkpt lat="43.34536" lon="-0.53045">
        <ele>265</ele>
        <time>2013-02-17T08:14:47</time>
      </trkpt>
      <trkpt lat="43.34536" lon="-0.53045">
        <ele>265</ele>
        <time>2013-02-17T08:14:52</time>
      </trkpt>
      <trkpt lat="43.34536" lon="-0.53045">
        <ele>266</ele>
        <time>2013-02-17T08:14:57</time>
      </trkpt>
      <trkpt lat="43.34536" lon="-0.53045">
        <ele>265</ele>
        <time>2013-02-17T08:15:02</time>
      </trkpt>
      <trkpt lat="43.34536" lon="-0.53045">
        <ele>264</ele>
        <time>2013-02-17T08:15:07</time>
      </trkpt>
      <trkpt lat="43.34536" lon="-0.53045">
        <ele>265</ele>
        <time>2013-02-17T08:15:12</time>
      </trkpt>
      <trkpt lat="43.34536" lon="-0.53045">
        <ele>265</ele>
        <time>2013-02-17T08:15:17</time>
      </trkpt>
      <trkpt lat="43.34536" lon="-0.53045">
        <ele>266</ele>
        <time>2013-02-17T08:15:22</time>
      </trkpt>
      <trkpt lat="43.34536" lon="-0.53045">
        <ele>267</ele>
        <time>2013-02-17T08:15:27</time>
      </trkpt>
      <trkpt lat="43.34536" lon="-0.53045">
        <ele>266</ele>
        <time>2013-02-17T08:15:32</time>
      </trkpt>
      <trkpt lat="43.34536" lon="-0.53045">
        <ele>268</ele>
        <time>2013-02-17T08:15:37</time>
      </trkpt>
      <trkpt lat="43.34536" lon="-0.53045">
        <ele>265</ele>
        <time>2013-02-17T08:15:42</time>
      </trkpt>
      <trkpt lat="43.34536" lon="-0.53045">
        <ele>267</ele>
        <time>2013-02-17T08:15:47</time>
      </trkpt>
      <trkpt lat="43.34536" lon="-0.53045">
        <ele>266</ele>
        <time>2013-02-17T08:15:52</time>
      </trkpt>
      <trkpt lat="43.34536" lon="-0.53045">
        <ele>265</ele>
        <time>2013-02-17T08:15:57</time>
      </trkpt>
      <trkpt lat="43.34536" lon="-0.53045">
        <ele>265</ele>
        <time>2013-02-17T08:16:02</time>
      </trkpt>
      <trkpt lat="43.34536" lon="-0.53045">
        <ele>266</ele>
        <time>2013-02-17T08:16:07</time>
      </trkpt>
      <trkpt lat="43.34536" lon="-0.53045">
        <ele>266</ele>
        <time>2013-02-17T08:16:13</time>
      </trkpt>
      <trkpt lat="43.34536" lon="-0.53045">
        <ele>266</ele>
        <time>2013-02-17T08:16:18</time>
      </trkpt>
      <trkpt lat="43.34536" lon="-0.53045">
        <ele>265</ele>
        <time>2013-02-17T08:16:23</time>
      </trkpt>
      <trkpt lat="43.34536" lon="-0.53045">
        <ele>266</ele>
        <time>2013-02-17T08:16:28</time>
      </trkpt>
      <trkpt lat="43.34536" lon="-0.53045">
        <ele>265</ele>
        <time>2013-02-17T08:16:33</time>
      </trkpt>
      <trkpt lat="43.34536" lon="-0.53045">
        <ele>265</ele>
        <time>2013-02-17T08:16:38</time>
      </trkpt>
      <trkpt lat="43.34536" lon="-0.53045">
        <ele>266</ele>
        <time>2013-02-17T08:16:43</time>
      </trkpt>
      <trkpt lat="43.34536" lon="-0.53045">
        <ele>266</ele>
        <time>2013-02-17T08:16:48</time>
      </trkpt>
      <trkpt lat="43.34531" lon="-0.53018">
        <ele>267</ele>
        <time>2013-02-17T08:16:53</time>
      </trkpt>
      <trkpt lat="43.34518" lon="-0.53004">
        <ele>264</ele>
        <time>2013-02-17T08:16:58</time>
      </trkpt>
      <trkpt lat="43.34503" lon="-0.52977">
        <ele>259</ele>
        <time>2013-02-17T08:17:03</time>
      </trkpt>
      <trkpt lat="43.34487" lon="-0.52959">
        <ele>256</ele>
        <time>2013-02-17T08:17:08</time>
      </trkpt>
      <trkpt lat="43.34468" lon="-0.52934">
        <ele>253</ele>
        <time>2013-02-17T08:17:13</time>
      </trkpt>
      <trkpt lat="43.3445" lon="-0.52903">
        <ele>247</ele>
        <time>2013-02-17T08:17:18</time>
      </trkpt>
      <trkpt lat="43.34435" lon="-0.52866">
        <ele>247</ele>
        <time>2013-02-17T08:17:23</time>
      </trkpt>
      <trkpt lat="43.34426" lon="-0.52836">
        <ele>246</ele>
        <time>2013-02-17T08:17:28</time>
      </trkpt>
      <trkpt lat="43.34421" lon="-0.5282">
        <ele>246</ele>
        <time>2013-02-17T08:17:33</time>
      </trkpt>
      <trkpt lat="43.34409" lon="-0.52814">
        <ele>244</ele>
        <time>2013-02-17T08:17:38</time>
      </trkpt>
      <trkpt lat="43.34396" lon="-0.52815">
        <ele>246</ele>
        <time>2013-02-17T08:17:43</time>
      </trkpt>
      <trkpt lat="43.34388" lon="-0.52821">
        <ele>246</ele>
        <time>2013-02-17T08:17:48</time>
      </trkpt>
      <trkpt lat="43.34381" lon="-0.52829">
        <ele>246</ele>
        <time>2013-02-17T08:17:53</time>
      </trkpt>
      <trkpt lat="43.34372" lon="-0.52845">
        <ele>246</ele>
        <time>2013-02-17T08:17:58</time>
      </trkpt>
      <trkpt lat="43.34364" lon="-0.52856">
        <ele>249</ele>
        <time>2013-02-17T08:18:03</time>
      </trkpt>
      <trkpt lat="43.34354" lon="-0.52869">
        <ele>249</ele>
        <time>2013-02-17T08:18:08</time>
      </trkpt>
      <trkpt lat="43.34345" lon="-0.52882">
        <ele>247</ele>
        <time>2013-02-17T08:18:13</time>
      </trkpt>
      <trkpt lat="43.34334" lon="-0.529">
        <ele>247</ele>
        <time>2013-02-17T08:18:19</time>
      </trkpt>
      <trkpt lat="43.34313" lon="-0.5292">
        <ele>245</ele>
        <time>2013-02-17T08:18:24</time>
      </trkpt>
      <trkpt lat="43.34292" lon="-0.52947">
        <ele>239</ele>
        <time>2013-02-17T08:18:29</time>
      </trkpt>
      <trkpt lat="43.34278" lon="-0.52973">
        <ele>239</ele>
        <time>2013-02-17T08:18:34</time>
      </trkpt>
      <trkpt lat="43.34262" lon="-0.53001">
        <ele>236</ele>
        <time>2013-02-17T08:18:39</time>
      </trkpt>
      <trkpt lat="43.34238" lon="-0.53026">
        <ele>233</ele>
        <time>2013-02-17T08:18:44</time>
      </trkpt>
      <trkpt lat="43.3423" lon="-0.53032">
        <ele>233</ele>
        <time>2013-02-17T08:18:49</time>
      </trkpt>
      <trkpt lat="43.3423" lon="-0.53032">
        <ele>234</ele>
        <time>2013-02-17T08:18:54</time>
      </trkpt>
      <trkpt lat="43.34218" lon="-0.53046">
        <ele>236</ele>
        <time>2013-02-17T08:18:59</time>
      </trkpt>
      <trkpt lat="43.34203" lon="-0.53069">
        <ele>234</ele>
        <time>2013-02-17T08:19:04</time>
      </trkpt>
      <trkpt lat="43.34194" lon="-0.53084">
        <ele>230</ele>
        <time>2013-02-17T08:19:09</time>
      </trkpt>
      <trkpt lat="43.34193" lon="-0.53086">
        <ele>230</ele>
        <time>2013-02-17T08:19:14</time>
      </trkpt>
      <trkpt lat="43.34193" lon="-0.53086">
        <ele>230</ele>
        <time>2013-02-17T08:19:19</time>
      </trkpt>
      <trkpt lat="43.34175" lon="-0.53079">
        <ele>233</ele>
        <time>2013-02-17T08:19:24</time>
      </trkpt>
      <trkpt lat="43.34166" lon="-0.53084">
        <ele>234</ele>
        <time>2013-02-17T08:19:29</time>
      </trkpt>
      <trkpt lat="43.34153" lon="-0.53092">
        <ele>234</ele>
        <time>2013-02-17T08:19:34</time>
      </trkpt>
      <trkpt lat="43.34143" lon="-0.53083">
        <ele>232</ele>
        <time>2013-02-17T08:19:39</time>
      </trkpt>
      <trkpt lat="43.34136" lon="-0.53077">
        <ele>234</ele>
        <time>2013-02-17T08:19:44</time>
      </trkpt>
      <trkpt lat="43.34129" lon="-0.53075">
        <ele>235</ele>
        <time>2013-02-17T08:19:49</time>
      </trkpt>
      <trkpt lat="43.34124" lon="-0.53076">
        <ele>237</ele>
        <time>2013-02-17T08:19:54</time>
      </trkpt>
      <trkpt lat="43.34114" lon="-0.53073">
        <ele>238</ele>
        <time>2013-02-17T08:19:59</time>
      </trkpt>
      <trkpt lat="43.34105" lon="-0.5307">
        <ele>236</ele>
        <time>2013-02-17T08:20:04</time>
      </trkpt>
      <trkpt lat="43.34091" lon="-0.53062">
        <ele>238</ele>
        <time>2013-02-17T08:20:09</time>
      </trkpt>
      <trkpt lat="43.34081" lon="-0.53053">
        <ele>239</ele>
        <time>2013-02-17T08:20:14</time>
      </trkpt>
      <trkpt lat="43.3407" lon="-0.53042">
        <ele>238</ele>
        <time>2013-02-17T08:20:20</time>
      </trkpt>
      <trkpt lat="43.34063" lon="-0.5304">
        <ele>238</ele>
        <time>2013-02-17T08:20:25</time>
      </trkpt>
      <trkpt lat="43.34063" lon="-0.5304">
        <ele>237</ele>
        <time>2013-02-17T08:20:30</time>
      </trkpt>
      <trkpt lat="43.34063" lon="-0.5304">
        <ele>237</ele>
        <time>2013-02-17T08:20:35</time>
      </trkpt>
      <trkpt lat="43.34063" lon="-0.5304">
        <ele>237</ele>
        <time>2013-02-17T08:20:40</time>
      </trkpt>
      <trkpt lat="43.34063" lon="-0.5304">
        <ele>236</ele>
        <time>2013-02-17T08:20:45</time>
      </trkpt>
      <trkpt lat="43.34063" lon="-0.5304">
        <ele>237</ele>
        <time>2013-02-17T08:20:50</time>
      </trkpt>
      <trkpt lat="43.34063" lon="-0.5304">
        <ele>237</ele>
        <time>2013-02-17T08:20:55</time>
      </trkpt>
      <trkpt lat="43.34063" lon="-0.5304">
        <ele>236</ele>
        <time>2013-02-17T08:21:00</time>
      </trkpt>
      <trkpt lat="43.34063" lon="-0.5304">
        <ele>237</ele>
        <time>2013-02-17T08:21:05</time>
      </trkpt>
      <trkpt lat="43.34063" lon="-0.53034">
        <ele>235</ele>
        <time>2013-02-17T08:21:10</time>
      </trkpt>
      <trkpt lat="43.34049" lon="-0.53057">
        <ele>234</ele>
        <time>2013-02-17T08:21:15</time>
      </trkpt>
      <trkpt lat="43.34023" lon="-0.53098">
        <ele>225</ele>
        <time>2013-02-17T08:21:20</time>
      </trkpt>
      <trkpt lat="43.33998" lon="-0.53139">
        <ele>215</ele>
        <time>2013-02-17T08:21:25</time>
      </trkpt>
      <trkpt lat="43.33979" lon="-0.53146">
        <ele>209</ele>
        <time>2013-02-17T08:21:30</time>
      </trkpt>
      <trkpt lat="43.33965" lon="-0.53132">
        <ele>209</ele>
        <time>2013-02-17T08:21:35</time>
      </trkpt>
      <trkpt lat="43.33962" lon="-0.53122">
        <ele>208</ele>
        <time>2013-02-17T08:21:40</time>
      </trkpt>
      <trkpt lat="43.33961" lon="-0.53121">
        <ele>206</ele>
        <time>2013-02-17T08:21:45</time>
      </trkpt>
      <trkpt lat="43.33966" lon="-0.53125">
        <ele>207</ele>
        <time>2013-02-17T08:21:50</time>
      </trkpt>
      <trkpt lat="43.33968" lon="-0.53134">
        <ele>208</ele>
        <time>2013-02-17T08:21:55</time>
      </trkpt>
      <trkpt lat="43.33974" lon="-0.53139">
        <ele>208</ele>
        <time>2013-02-17T08:22:00</time>
      </trkpt>
      <trkpt lat="43.33982" lon="-0.53145">
        <ele>209</ele>
        <time>2013-02-17T08:22:06</time>
      </trkpt>
      <trkpt lat="43.33989" lon="-0.53159">
        <ele>210</ele>
        <time>2013-02-17T08:22:11</time>
      </trkpt>
      <trkpt lat="43.33981" lon="-0.53193">
        <ele>206</ele>
        <time>2013-02-17T08:22:16</time>
      </trkpt>
      <trkpt lat="43.33959" lon="-0.53215">
        <ele>200</ele>
        <time>2013-02-17T08:22:21</time>
      </trkpt>
      <trkpt lat="43.33943" lon="-0.5322">
        <ele>195</ele>
        <time>2013-02-17T08:22:26</time>
      </trkpt>
      <trkpt lat="43.33933" lon="-0.53216">
        <ele>195</ele>
        <time>2013-02-17T08:22:31</time>
      </trkpt>
      <trkpt lat="43.33919" lon="-0.53207">
        <ele>194</ele>
        <time>2013-02-17T08:22:36</time>
      </trkpt>
      <trkpt lat="43.33913" lon="-0.53193">
        <ele>192</ele>
        <time>2013-02-17T08:22:41</time>
      </trkpt>
      <trkpt lat="43.33906" lon="-0.53192">
        <ele>192</ele>
        <time>2013-02-17T08:22:46</time>
      </trkpt>
      <trkpt lat="43.33889" lon="-0.532">
        <ele>190</ele>
        <time>2013-02-17T08:22:51</time>
      </trkpt>
      <trkpt lat="43.33874" lon="-0.53195">
        <ele>190</ele>
        <time>2013-02-17T08:22:56</time>
      </trkpt>
      <trkpt lat="43.33857" lon="-0.53186">
        <ele>187</ele>
        <time>2013-02-17T08:23:01</time>
      </trkpt>
      <trkpt lat="43.33849" lon="-0.53179">
        <ele>187</ele>
        <time>2013-02-17T08:23:06</time>
      </trkpt>
      <trkpt lat="43.33833" lon="-0.53167">
        <ele>186</ele>
        <time>2013-02-17T08:23:11</time>
      </trkpt>
      <trkpt lat="43.3382" lon="-0.53154">
        <ele>184</ele>
        <time>2013-02-17T08:23:16</time>
      </trkpt>
      <trkpt lat="43.33804" lon="-0.53156">
        <ele>184</ele>
        <time>2013-02-17T08:23:21</time>
      </trkpt>
      <trkpt lat="43.33782" lon="-0.5315">
        <ele>178</ele>
        <time>2013-02-17T08:23:26</time>
      </trkpt>
      <trkpt lat="43.33762" lon="-0.53165">
        <ele>174</ele>
        <time>2013-02-17T08:23:31</time>
      </trkpt>
      <trkpt lat="43.33733" lon="-0.5316">
        <ele>171</ele>
        <time>2013-02-17T08:23:36</time>
      </trkpt>
      <trkpt lat="43.33706" lon="-0.53135">
        <ele>165</ele>
        <time>2013-02-17T08:23:41</time>
      </trkpt>
      <trkpt lat="43.33681" lon="-0.53132">
        <ele>159</ele>
        <time>2013-02-17T08:23:46</time>
      </trkpt>
      <trkpt lat="43.33661" lon="-0.53153">
        <ele>158</ele>
        <time>2013-02-17T08:23:51</time>
      </trkpt>
      <trkpt lat="43.33627" lon="-0.53164">
        <ele>151</ele>
        <time>2013-02-17T08:23:56</time>
      </trkpt>
      <trkpt lat="43.33614" lon="-0.53182">
        <ele>151</ele>
        <time>2013-02-17T08:24:01</time>
      </trkpt>
      <trkpt lat="43.33593" lon="-0.53177">
        <ele>151</ele>
        <time>2013-02-17T08:24:06</time>
      </trkpt>
      <trkpt lat="43.33568" lon="-0.53174">
        <ele>145</ele>
        <time>2013-02-17T08:24:11</time>
      </trkpt>
      <trkpt lat="43.33551" lon="-0.53187">
        <ele>145</ele>
        <time>2013-02-17T08:24:16</time>
      </trkpt>
      <trkpt lat="43.33534" lon="-0.53203">
        <ele>145</ele>
        <time>2013-02-17T08:24:21</time>
      </trkpt>
      <trkpt lat="43.33516" lon="-0.53215">
        <ele>142</ele>
        <time>2013-02-17T08:24:26</time>
      </trkpt>
      <trkpt lat="43.33494" lon="-0.53237">
        <ele>141</ele>
        <time>2013-02-17T08:24:32</time>
      </trkpt>
      <trkpt lat="43.33474" lon="-0.53249">
        <ele>139</ele>
        <time>2013-02-17T08:24:37</time>
      </trkpt>
      <trkpt lat="43.33467" lon="-0.53246">
        <ele>136</ele>
        <time>2013-02-17T08:24:42</time>
      </trkpt>
      <trkpt lat="43.33467" lon="-0.53246">
        <ele>137</ele>
        <time>2013-02-17T08:24:47</time>
      </trkpt>
      <trkpt lat="43.33467" lon="-0.53246">
        <ele>138</ele>
        <time>2013-02-17T08:24:52</time>
      </trkpt>
      <trkpt lat="43.33467" lon="-0.53246">
        <ele>138</ele>
        <time>2013-02-17T08:24:57</time>
      </trkpt>
      <trkpt lat="43.33467" lon="-0.53246">
        <ele>138</ele>
        <time>2013-02-17T08:25:02</time>
      </trkpt>
      <trkpt lat="43.33467" lon="-0.53246">
        <ele>137</ele>
        <time>2013-02-17T08:25:07</time>
      </trkpt>
      <trkpt lat="43.33467" lon="-0.53246">
        <ele>137</ele>
        <time>2013-02-17T08:25:12</time>
      </trkpt>
      <trkpt lat="43.33467" lon="-0.53246">
        <ele>137</ele>
        <time>2013-02-17T08:25:17</time>
      </trkpt>
      <trkpt lat="43.33467" lon="-0.53246">
        <ele>137</ele>
        <time>2013-02-17T08:25:22</time>
      </trkpt>
      <trkpt lat="43.33455" lon="-0.53247">
        <ele>137</ele>
        <time>2013-02-17T08:25:27</time>
      </trkpt>
      <trkpt lat="43.33447" lon="-0.53256">
        <ele>137</ele>
        <time>2013-02-17T08:25:32</time>
      </trkpt>
      <trkpt lat="43.33435" lon="-0.53271">
        <ele>135</ele>
        <time>2013-02-17T08:25:37</time>
      </trkpt>
      <trkpt lat="43.33422" lon="-0.53288">
        <ele>136</ele>
        <time>2013-02-17T08:25:42</time>
      </trkpt>
      <trkpt lat="43.33408" lon="-0.53307">
        <ele>135</ele>
        <time>2013-02-17T08:25:47</time>
      </trkpt>
      <trkpt lat="43.33391" lon="-0.53328">
        <ele>134</ele>
        <time>2013-02-17T08:25:52</time>
      </trkpt>
      <trkpt lat="43.33369" lon="-0.53354">
        <ele>134</ele>
        <time>2013-02-17T08:25:57</time>
      </trkpt>
      <trkpt lat="43.3335" lon="-0.53378">
        <ele>132</ele>
        <time>2013-02-17T08:26:02</time>
      </trkpt>
      <trkpt lat="43.33335" lon="-0.53398">
        <ele>131</ele>
        <time>2013-02-17T08:26:07</time>
      </trkpt>
      <trkpt lat="43.33317" lon="-0.53424">
        <ele>132</ele>
        <time>2013-02-17T08:26:12</time>
      </trkpt>
      <trkpt lat="43.33298" lon="-0.53447">
        <ele>131</ele>
        <time>2013-02-17T08:26:17</time>
      </trkpt>
      <trkpt lat="43.33281" lon="-0.53469">
        <ele>131</ele>
        <time>2013-02-17T08:26:22</time>
      </trkpt>
      <trkpt lat="43.33261" lon="-0.53496">
        <ele>131</ele>
        <time>2013-02-17T08:26:27</time>
      </trkpt>
      <trkpt lat="43.33244" lon="-0.53518">
        <ele>130</ele>
        <time>2013-02-17T08:26:32</time>
      </trkpt>
      <trkpt lat="43.33228" lon="-0.53539">
        <ele>130</ele>
        <time>2013-02-17T08:26:38</time>
      </trkpt>
      <trkpt lat="43.33213" lon="-0.53557">
        <ele>131</ele>
        <time>2013-02-17T08:26:43</time>
      </trkpt>
      <trkpt lat="43.332" lon="-0.53575">
        <ele>132</ele>
        <time>2013-02-17T08:26:48</time>
      </trkpt>
      <trkpt lat="43.33188" lon="-0.53592">
        <ele>130</ele>
        <time>2013-02-17T08:26:53</time>
      </trkpt>
      <trkpt lat="43.33178" lon="-0.53606">
        <ele>131</ele>
        <time>2013-02-17T08:26:58</time>
      </trkpt>
      <trkpt lat="43.33162" lon="-0.53628">
        <ele>132</ele>
        <time>2013-02-17T08:27:03</time>
      </trkpt>
      <trkpt lat="43.33147" lon="-0.53648">
        <ele>131</ele>
        <time>2013-02-17T08:27:08</time>
      </trkpt>
      <trkpt lat="43.3313" lon="-0.53667">
        <ele>130</ele>
        <time>2013-02-17T08:27:13</time>
      </trkpt>
      <trkpt lat="43.33111" lon="-0.53684">
        <ele>131</ele>
        <time>2013-02-17T08:27:18</time>
      </trkpt>
      <trkpt lat="43.33092" lon="-0.53699">
        <ele>130</ele>
        <time>2013-02-17T08:27:23</time>
      </trkpt>
      <trkpt lat="43.33072" lon="-0.53713">
        <ele>131</ele>
        <time>2013-02-17T08:27:28</time>
      </trkpt>
      <trkpt lat="43.33053" lon="-0.53727">
        <ele>131</ele>
        <time>2013-02-17T08:27:33</time>
      </trkpt>
      <trkpt lat="43.3303" lon="-0.53743">
        <ele>131</ele>
        <time>2013-02-17T08:27:38</time>
      </trkpt>
      <trkpt lat="43.3301" lon="-0.53756">
        <ele>130</ele>
        <time>2013-02-17T08:27:43</time>
      </trkpt>
      <trkpt lat="43.3299" lon="-0.53768">
        <ele>131</ele>
        <time>2013-02-17T08:27:48</time>
      </trkpt>
      <trkpt lat="43.32975" lon="-0.5378">
        <ele>130</ele>
        <time>2013-02-17T08:27:53</time>
      </trkpt>
      <trkpt lat="43.32958" lon="-0.53797">
        <ele>131</ele>
        <time>2013-02-17T08:27:58</time>
      </trkpt>
      <trkpt lat="43.32943" lon="-0.53818">
        <ele>131</ele>
        <time>2013-02-17T08:28:03</time>
      </trkpt>
      <trkpt lat="43.32931" lon="-0.53843">
        <ele>131</ele>
        <time>2013-02-17T08:28:08</time>
      </trkpt>
      <trkpt lat="43.32921" lon="-0.53869">
        <ele>132</ele>
        <time>2013-02-17T08:28:13</time>
      </trkpt>
      <trkpt lat="43.32912" lon="-0.53894">
        <ele>132</ele>
        <time>2013-02-17T08:28:18</time>
      </trkpt>
      <trkpt lat="43.32899" lon="-0.53923">
        <ele>132</ele>
        <time>2013-02-17T08:28:23</time>
      </trkpt>
      <trkpt lat="43.3289" lon="-0.53947">
        <ele>132</ele>
        <time>2013-02-17T08:28:28</time>
      </trkpt>
      <trkpt lat="43.32882" lon="-0.53971">
        <ele>132</ele>
        <time>2013-02-17T08:28:33</time>
      </trkpt>
      <trkpt lat="43.32871" lon="-0.53997">
        <ele>133</ele>
        <time>2013-02-17T08:28:38</time>
      </trkpt>
      <trkpt lat="43.3286" lon="-0.54021">
        <ele>133</ele>
        <time>2013-02-17T08:28:43</time>
      </trkpt>
      <trkpt lat="43.32848" lon="-0.54043">
        <ele>134</ele>
        <time>2013-02-17T08:28:48</time>
      </trkpt>
      <trkpt lat="43.32838" lon="-0.54059">
        <ele>134</ele>
        <time>2013-02-17T08:28:53</time>
      </trkpt>
      <trkpt lat="43.32824" lon="-0.5408">
        <ele>136</ele>
        <time>2013-02-17T08:28:58</time>
      </trkpt>
      <trkpt lat="43.32809" lon="-0.54104">
        <ele>136</ele>
        <time>2013-02-17T08:29:04</time>
      </trkpt>
      <trkpt lat="43.32796" lon="-0.54123">
        <ele>137</ele>
        <time>2013-02-17T08:29:09</time>
      </trkpt>
      <trkpt lat="43.32783" lon="-0.54142">
        <ele>137</ele>
        <time>2013-02-17T08:29:14</time>
      </trkpt>
      <trkpt lat="43.32771" lon="-0.54161">
        <ele>139</ele>
        <time>2013-02-17T08:29:19</time>
      </trkpt>
      <trkpt lat="43.32758" lon="-0.54181">
        <ele>139</ele>
        <time>2013-02-17T08:29:24</time>
      </trkpt>
      <trkpt lat="43.32745" lon="-0.542">
        <ele>140</ele>
        <time>2013-02-17T08:29:29</time>
      </trkpt>
      <trkpt lat="43.32732" lon="-0.54219">
        <ele>141</ele>
        <time>2013-02-17T08:29:34</time>
      </trkpt>
      <trkpt lat="43.32719" lon="-0.54237">
        <ele>142</ele>
        <time>2013-02-17T08:29:39</time>
      </trkpt>
      <trkpt lat="43.32705" lon="-0.54254">
        <ele>143</ele>
        <time>2013-02-17T08:29:44</time>
      </trkpt>
      <trkpt lat="43.32693" lon="-0.54266">
        <ele>143</ele>
        <time>2013-02-17T08:29:49</time>
      </trkpt>
      <trkpt lat="43.32676" lon="-0.54284">
        <ele>144</ele>
        <time>2013-02-17T08:29:54</time>
      </trkpt>
      <trkpt lat="43.3266" lon="-0.543">
        <ele>145</ele>
        <time>2013-02-17T08:29:59</time>
      </trkpt>
      <trkpt lat="43.32645" lon="-0.54315">
        <ele>144</ele>
        <time>2013-02-17T08:30:04</time>
      </trkpt>
      <trkpt lat="43.32633" lon="-0.54328">
        <ele>146</ele>
        <time>2013-02-17T08:30:09</time>
      </trkpt>
      <trkpt lat="43.3262" lon="-0.54342">
        <ele>147</ele>
        <time>2013-02-17T08:30:14</time>
      </trkpt>
      <trkpt lat="43.32607" lon="-0.54356">
        <ele>146</ele>
        <time>2013-02-17T08:30:19</time>
      </trkpt>
      <trkpt lat="43.32597" lon="-0.54356">
        <ele>147</ele>
        <time>2013-02-17T08:30:24</time>
      </trkpt>
      <trkpt lat="43.32589" lon="-0.54345">
        <ele>146</ele>
        <time>2013-02-17T08:30:29</time>
      </trkpt>
      <trkpt lat="43.32581" lon="-0.54333">
        <ele>147</ele>
        <time>2013-02-17T08:30:34</time>
      </trkpt>
      <trkpt lat="43.32576" lon="-0.54322">
        <ele>148</ele>
        <time>2013-02-17T08:30:39</time>
      </trkpt>
      <trkpt lat="43.32568" lon="-0.54309">
        <ele>149</ele>
        <time>2013-02-17T08:30:44</time>
      </trkpt>
      <trkpt lat="43.32562" lon="-0.54298">
        <ele>148</ele>
        <time>2013-02-17T08:30:49</time>
      </trkpt>
      <trkpt lat="43.32556" lon="-0.54284">
        <ele>151</ele>
        <time>2013-02-17T08:30:54</time>
      </trkpt>
      <trkpt lat="43.32553" lon="-0.54272">
        <ele>152</ele>
        <time>2013-02-17T08:30:59</time>
      </trkpt>
      <trkpt lat="43.32548" lon="-0.5426">
        <ele>153</ele>
        <time>2013-02-17T08:31:04</time>
      </trkpt>
      <trkpt lat="43.32543" lon="-0.54248">
        <ele>154</ele>
        <time>2013-02-17T08:31:09</time>
      </trkpt>
      <trkpt lat="43.32534" lon="-0.54238">
        <ele>154</ele>
        <time>2013-02-17T08:31:15</time>
      </trkpt>
      <trkpt lat="43.32524" lon="-0.54233">
        <ele>156</ele>
        <time>2013-02-17T08:31:20</time>
      </trkpt>
      <trkpt lat="43.32511" lon="-0.54229">
        <ele>158</ele>
        <time>2013-02-17T08:31:25</time>
      </trkpt>
      <trkpt lat="43.32502" lon="-0.54231">
        <ele>159</ele>
        <time>2013-02-17T08:31:30</time>
      </trkpt>
      <trkpt lat="43.32493" lon="-0.54236">
        <ele>161</ele>
        <time>2013-02-17T08:31:35</time>
      </trkpt>
      <trkpt lat="43.32483" lon="-0.54236">
        <ele>163</ele>
        <time>2013-02-17T08:31:40</time>
      </trkpt>
      <trkpt lat="43.3247" lon="-0.54234">
        <ele>164</ele>
        <time>2013-02-17T08:31:45</time>
      </trkpt>
      <trkpt lat="43.32462" lon="-0.54235">
        <ele>167</ele>
        <time>2013-02-17T08:31:50</time>
      </trkpt>
      <trkpt lat="43.32452" lon="-0.54239">
        <ele>167</ele>
        <time>2013-02-17T08:31:55</time>
      </trkpt>
      <trkpt lat="43.32443" lon="-0.54245">
        <ele>168</ele>
        <time>2013-02-17T08:32:00</time>
      </trkpt>
      <trkpt lat="43.32434" lon="-0.54252">
        <ele>172</ele>
        <time>2013-02-17T08:32:05</time>
      </trkpt>
      <trkpt lat="43.32424" lon="-0.54261">
        <ele>175</ele>
        <time>2013-02-17T08:32:10</time>
      </trkpt>
      <trkpt lat="43.32415" lon="-0.54269">
        <ele>174</ele>
        <time>2013-02-17T08:32:15</time>
      </trkpt>
      <trkpt lat="43.32406" lon="-0.54275">
        <ele>178</ele>
        <time>2013-02-17T08:32:20</time>
      </trkpt>
      <trkpt lat="43.32398" lon="-0.54283">
        <ele>178</ele>
        <time>2013-02-17T08:32:25</time>
      </trkpt>
      <trkpt lat="43.3239" lon="-0.5429">
        <ele>177</ele>
        <time>2013-02-17T08:32:30</time>
      </trkpt>
      <trkpt lat="43.32381" lon="-0.543">
        <ele>179</ele>
        <time>2013-02-17T08:32:35</time>
      </trkpt>
      <trkpt lat="43.32373" lon="-0.54311">
        <ele>181</ele>
        <time>2013-02-17T08:32:40</time>
      </trkpt>
      <trkpt lat="43.32365" lon="-0.54322">
        <ele>180</ele>
        <time>2013-02-17T08:32:46</time>
      </trkpt>
      <trkpt lat="43.32358" lon="-0.54334">
        <ele>180</ele>
        <time>2013-02-17T08:32:51</time>
      </trkpt>
      <trkpt lat="43.32352" lon="-0.54345">
        <ele>184</ele>
        <time>2013-02-17T08:32:56</time>
      </trkpt>
      <trkpt lat="43.32344" lon="-0.54353">
        <ele>186</ele>
        <time>2013-02-17T08:33:01</time>
      </trkpt>
      <trkpt lat="43.32335" lon="-0.54361">
        <ele>187</ele>
        <time>2013-02-17T08:33:06</time>
      </trkpt>
      <trkpt lat="43.32327" lon="-0.54367">
        <ele>187</ele>
        <time>2013-02-17T08:33:11</time>
      </trkpt>
      <trkpt lat="43.32317" lon="-0.54374">
        <ele>190</ele>
        <time>2013-02-17T08:33:16</time>
      </trkpt>
      <trkpt lat="43.32308" lon="-0.54379">
        <ele>190</ele>
        <time>2013-02-17T08:33:21</time>
      </trkpt>
      <trkpt lat="43.32299" lon="-0.54383">
        <ele>191</ele>
        <time>2013-02-17T08:33:26</time>
      </trkpt>
      <trkpt lat="43.32297" lon="-0.54383">
        <ele>193</ele>
        <time>2013-02-17T08:33:31</time>
      </trkpt>
      <trkpt lat="43.32279" lon="-0.54382">
        <ele>195</ele>
        <time>2013-02-17T08:33:36</time>
      </trkpt>
      <trkpt lat="43.32267" lon="-0.54379">
        <ele>196</ele>
        <time>2013-02-17T08:33:41</time>
      </trkpt>
      <trkpt lat="43.32256" lon="-0.54375">
        <ele>196</ele>
        <time>2013-02-17T08:33:46</time>
      </trkpt>
      <trkpt lat="43.32246" lon="-0.54372">
        <ele>199</ele>
        <time>2013-02-17T08:33:51</time>
      </trkpt>
      <trkpt lat="43.32234" lon="-0.54368">
        <ele>202</ele>
        <time>2013-02-17T08:33:56</time>
      </trkpt>
      <trkpt lat="43.32223" lon="-0.54363">
        <ele>205</ele>
        <time>2013-02-17T08:34:01</time>
      </trkpt>
      <trkpt lat="43.3221" lon="-0.54357">
        <ele>205</ele>
        <time>2013-02-17T08:34:06</time>
      </trkpt>
      <trkpt lat="43.32199" lon="-0.54353">
        <ele>205</ele>
        <time>2013-02-17T08:34:11</time>
      </trkpt>
      <trkpt lat="43.32188" lon="-0.54349">
        <ele>207</ele>
        <time>2013-02-17T08:34:16</time>
      </trkpt>
      <trkpt lat="43.32179" lon="-0.54344">
        <ele>209</ele>
        <time>2013-02-17T08:34:22</time>
      </trkpt>
      <trkpt lat="43.32169" lon="-0.54339">
        <ele>209</ele>
        <time>2013-02-17T08:34:27</time>
      </trkpt>
      <trkpt lat="43.3216" lon="-0.54336">
        <ele>212</ele>
        <time>2013-02-17T08:34:32</time>
      </trkpt>
      <trkpt lat="43.32149" lon="-0.54333">
        <ele>212</ele>
        <time>2013-02-17T08:34:37</time>
      </trkpt>
      <trkpt lat="43.32139" lon="-0.5433">
        <ele>212</ele>
        <time>2013-02-17T08:34:42</time>
      </trkpt>
      <trkpt lat="43.32127" lon="-0.54329">
        <ele>214</ele>
        <time>2013-02-17T08:34:47</time>
      </trkpt>
      <trkpt lat="43.32118" lon="-0.54327">
        <ele>216</ele>
        <time>2013-02-17T08:34:52</time>
      </trkpt>
      <trkpt lat="43.32108" lon="-0.54325">
        <ele>219</ele>
        <time>2013-02-17T08:34:57</time>
      </trkpt>
      <trkpt lat="43.32101" lon="-0.54325">
        <ele>217</ele>
        <time>2013-02-17T08:35:02</time>
      </trkpt>
      <trkpt lat="43.32091" lon="-0.54326">
        <ele>219</ele>
        <time>2013-02-17T08:35:07</time>
      </trkpt>
      <trkpt lat="43.32083" lon="-0.5433">
        <ele>221</ele>
        <time>2013-02-17T08:35:12</time>
      </trkpt>
      <trkpt lat="43.32075" lon="-0.54337">
        <ele>220</ele>
        <time>2013-02-17T08:35:17</time>
      </trkpt>
      <trkpt lat="43.32064" lon="-0.5434">
        <ele>223</ele>
        <time>2013-02-17T08:35:22</time>
      </trkpt>
      <trkpt lat="43.32051" lon="-0.54341">
        <ele>224</ele>
        <time>2013-02-17T08:35:27</time>
      </trkpt>
      <trkpt lat="43.32039" lon="-0.5434">
        <ele>225</ele>
        <time>2013-02-17T08:35:32</time>
      </trkpt>
      <trkpt lat="43.32028" lon="-0.54338">
        <ele>224</ele>
        <time>2013-02-17T08:35:37</time>
      </trkpt>
      <trkpt lat="43.32016" lon="-0.54337">
        <ele>226</ele>
        <time>2013-02-17T08:35:42</time>
      </trkpt>
      <trkpt lat="43.32004" lon="-0.54336">
        <ele>228</ele>
        <time>2013-02-17T08:35:47</time>
      </trkpt>
      <trkpt lat="43.31996" lon="-0.54336">
        <ele>227</ele>
        <time>2013-02-17T08:35:52</time>
      </trkpt>
      <trkpt lat="43.31985" lon="-0.54338">
        <ele>228</ele>
        <time>2013-02-17T08:35:57</time>
      </trkpt>
      <trkpt lat="43.31972" lon="-0.54342">
        <ele>230</ele>
        <time>2013-02-17T08:36:02</time>
      </trkpt>
      <trkpt lat="43.31961" lon="-0.54344">
        <ele>229</ele>
        <time>2013-02-17T08:36:08</time>
      </trkpt>
      <trkpt lat="43.3195" lon="-0.54346">
        <ele>231</ele>
        <time>2013-02-17T08:36:13</time>
      </trkpt>
      <trkpt lat="43.31939" lon="-0.54349">
        <ele>230</ele>
        <time>2013-02-17T08:36:18</time>
      </trkpt>
      <trkpt lat="43.31929" lon="-0.54352">
        <ele>233</ele>
        <time>2013-02-17T08:36:23</time>
      </trkpt>
      <trkpt lat="43.31919" lon="-0.54357">
        <ele>235</ele>
        <time>2013-02-17T08:36:28</time>
      </trkpt>
      <trkpt lat="43.31909" lon="-0.54364">
        <ele>233</ele>
        <time>2013-02-17T08:36:33</time>
      </trkpt>
      <trkpt lat="43.319" lon="-0.54373">
        <ele>235</ele>
        <time>2013-02-17T08:36:38</time>
      </trkpt>
      <trkpt lat="43.31892" lon="-0.54381">
        <ele>237</ele>
        <time>2013-02-17T08:36:43</time>
      </trkpt>
      <trkpt lat="43.31882" lon="-0.54391">
        <ele>237</ele>
        <time>2013-02-17T08:36:48</time>
      </trkpt>
      <trkpt lat="43.3187" lon="-0.54403">
        <ele>238</ele>
        <time>2013-02-17T08:36:53</time>
      </trkpt>
      <trkpt lat="43.31861" lon="-0.5441">
        <ele>240</ele>
        <time>2013-02-17T08:36:58</time>
      </trkpt>
      <trkpt lat="43.31851" lon="-0.54421">
        <ele>239</ele>
        <time>2013-02-17T08:37:03</time>
      </trkpt>
      <trkpt lat="43.31842" lon="-0.54431">
        <ele>242</ele>
        <time>2013-02-17T08:37:08</time>
      </trkpt>
      <trkpt lat="43.31831" lon="-0.54437">
        <ele>245</ele>
        <time>2013-02-17T08:37:13</time>
      </trkpt>
      <trkpt lat="43.31817" lon="-0.54435">
        <ele>244</ele>
        <time>2013-02-17T08:37:18</time>
      </trkpt>
      <trkpt lat="43.31804" lon="-0.54433">
        <ele>244</ele>
        <time>2013-02-17T08:37:23</time>
      </trkpt>
      <trkpt lat="43.31789" lon="-0.54431">
        <ele>246</ele>
        <time>2013-02-17T08:37:28</time>
      </trkpt>
      <trkpt lat="43.31778" lon="-0.54429">
        <ele>246</ele>
        <time>2013-02-17T08:37:33</time>
      </trkpt>
      <trkpt lat="43.31767" lon="-0.54426">
        <ele>246</ele>
        <time>2013-02-17T08:37:38</time>
      </trkpt>
      <trkpt lat="43.31757" lon="-0.54423">
        <ele>248</ele>
        <time>2013-02-17T08:37:43</time>
      </trkpt>
      <trkpt lat="43.31755" lon="-0.54423">
        <ele>245</ele>
        <time>2013-02-17T08:37:49</time>
      </trkpt>
      <trkpt lat="43.31755" lon="-0.54423">
        <ele>248</ele>
        <time>2013-02-17T08:37:54</time>
      </trkpt>
      <trkpt lat="43.31755" lon="-0.54423">
        <ele>248</ele>
        <time>2013-02-17T08:37:59</time>
      </trkpt>
      <trkpt lat="43.31755" lon="-0.54423">
        <ele>247</ele>
        <time>2013-02-17T08:38:04</time>
      </trkpt>
      <trkpt lat="43.31755" lon="-0.54423">
        <ele>247</ele>
        <time>2013-02-17T08:38:09</time>
      </trkpt>
      <trkpt lat="43.31755" lon="-0.54423">
        <ele>247</ele>
        <time>2013-02-17T08:38:14</time>
      </trkpt>
      <trkpt lat="43.31755" lon="-0.54423">
        <ele>247</ele>
        <time>2013-02-17T08:38:19</time>
      </trkpt>
      <trkpt lat="43.31755" lon="-0.54423">
        <ele>247</ele>
        <time>2013-02-17T08:38:24</time>
      </trkpt>
      <trkpt lat="43.31755" lon="-0.54423">
        <ele>247</ele>
        <time>2013-02-17T08:38:29</time>
      </trkpt>
      <trkpt lat="43.31755" lon="-0.54423">
        <ele>248</ele>
        <time>2013-02-17T08:38:34</time>
      </trkpt>
      <trkpt lat="43.31755" lon="-0.54423">
        <ele>248</ele>
        <time>2013-02-17T08:38:39</time>
      </trkpt>
      <trkpt lat="43.31755" lon="-0.54423">
        <ele>247</ele>
        <time>2013-02-17T08:38:44</time>
      </trkpt>
      <trkpt lat="43.31755" lon="-0.54423">
        <ele>246</ele>
        <time>2013-02-17T08:38:49</time>
      </trkpt>
      <trkpt lat="43.31755" lon="-0.54423">
        <ele>247</ele>
        <time>2013-02-17T08:38:54</time>
      </trkpt>
      <trkpt lat="43.31755" lon="-0.54423">
        <ele>247</ele>
        <time>2013-02-17T08:38:59</time>
      </trkpt>
      <trkpt lat="43.31755" lon="-0.54423">
        <ele>247</ele>
        <time>2013-02-17T08:39:04</time>
      </trkpt>
      <trkpt lat="43.31755" lon="-0.54423">
        <ele>247</ele>
        <time>2013-02-17T08:39:09</time>
      </trkpt>
      <trkpt lat="43.31755" lon="-0.54423">
        <ele>246</ele>
        <time>2013-02-17T08:39:14</time>
      </trkpt>
      <trkpt lat="43.31755" lon="-0.54423">
        <ele>247</ele>
        <time>2013-02-17T08:39:19</time>
      </trkpt>
      <trkpt lat="43.31755" lon="-0.54423">
        <ele>247</ele>
        <time>2013-02-17T08:39:24</time>
      </trkpt>
      <trkpt lat="43.31755" lon="-0.54423">
        <ele>247</ele>
        <time>2013-02-17T08:39:29</time>
      </trkpt>
      <trkpt lat="43.31755" lon="-0.54423">
        <ele>247</ele>
        <time>2013-02-17T08:39:34</time>
      </trkpt>
      <trkpt lat="43.31755" lon="-0.54423">
        <ele>247</ele>
        <time>2013-02-17T08:39:39</time>
      </trkpt>
      <trkpt lat="43.31755" lon="-0.54423">
        <ele>246</ele>
        <time>2013-02-17T08:39:44</time>
      </trkpt>
      <trkpt lat="43.31755" lon="-0.54423">
        <ele>247</ele>
        <time>2013-02-17T08:39:49</time>
      </trkpt>
      <trkpt lat="43.31755" lon="-0.54423">
        <ele>247</ele>
        <time>2013-02-17T08:39:54</time>
      </trkpt>
      <trkpt lat="43.31755" lon="-0.54423">
        <ele>247</ele>
        <time>2013-02-17T08:39:59</time>
      </trkpt>
      <trkpt lat="43.31755" lon="-0.54423">
        <ele>246</ele>
        <time>2013-02-17T08:40:04</time>
      </trkpt>
      <trkpt lat="43.31755" lon="-0.54423">
        <ele>247</ele>
        <time>2013-02-17T08:40:09</time>
      </trkpt>
      <trkpt lat="43.31755" lon="-0.54423">
        <ele>247</ele>
        <time>2013-02-17T08:40:14</time>
      </trkpt>
      <trkpt lat="43.31755" lon="-0.54423">
        <ele>246</ele>
        <time>2013-02-17T08:40:19</time>
      </trkpt>
      <trkpt lat="43.31755" lon="-0.54423">
        <ele>247</ele>
        <time>2013-02-17T08:40:25</time>
      </trkpt>
      <trkpt lat="43.31755" lon="-0.54423">
        <ele>248</ele>
        <time>2013-02-17T08:40:30</time>
      </trkpt>
      <trkpt lat="43.31755" lon="-0.54423">
        <ele>248</ele>
        <time>2013-02-17T08:40:35</time>
      </trkpt>
      <trkpt lat="43.31755" lon="-0.54423">
        <ele>247</ele>
        <time>2013-02-17T08:40:40</time>
      </trkpt>
      <trkpt lat="43.31755" lon="-0.54423">
        <ele>248</ele>
        <time>2013-02-17T08:40:45</time>
      </trkpt>
      <trkpt lat="43.31755" lon="-0.54423">
        <ele>246</ele>
        <time>2013-02-17T08:40:50</time>
      </trkpt>
      <trkpt lat="43.31755" lon="-0.54423">
        <ele>247</ele>
        <time>2013-02-17T08:40:55</time>
      </trkpt>
      <trkpt lat="43.31755" lon="-0.54423">
        <ele>247</ele>
        <time>2013-02-17T08:41:00</time>
      </trkpt>
      <trkpt lat="43.31755" lon="-0.54423">
        <ele>247</ele>
        <time>2013-02-17T08:41:05</time>
      </trkpt>
      <trkpt lat="43.31755" lon="-0.54423">
        <ele>247</ele>
        <time>2013-02-17T08:41:10</time>
      </trkpt>
      <trkpt lat="43.31755" lon="-0.54423">
        <ele>247</ele>
        <time>2013-02-17T08:41:15</time>
      </trkpt>
      <trkpt lat="43.31755" lon="-0.54423">
        <ele>247</ele>
        <time>2013-02-17T08:41:20</time>
      </trkpt>
      <trkpt lat="43.31755" lon="-0.54423">
        <ele>247</ele>
        <time>2013-02-17T08:41:25</time>
      </trkpt>
      <trkpt lat="43.31755" lon="-0.54423">
        <ele>248</ele>
        <time>2013-02-17T08:41:30</time>
      </trkpt>
      <trkpt lat="43.31755" lon="-0.54423">
        <ele>247</ele>
        <time>2013-02-17T08:41:35</time>
      </trkpt>
      <trkpt lat="43.31755" lon="-0.54423">
        <ele>247</ele>
        <time>2013-02-17T08:41:40</time>
      </trkpt>
      <trkpt lat="43.31755" lon="-0.54423">
        <ele>248</ele>
        <time>2013-02-17T08:41:45</time>
      </trkpt>
      <trkpt lat="43.31755" lon="-0.54423">
        <ele>247</ele>
        <time>2013-02-17T08:41:50</time>
      </trkpt>
      <trkpt lat="43.31732" lon="-0.54415">
        <ele>247</ele>
        <time>2013-02-17T08:41:55</time>
      </trkpt>
      <trkpt lat="43.31726" lon="-0.54409">
        <ele>248</ele>
        <time>2013-02-17T08:42:00</time>
      </trkpt>
      <trkpt lat="43.31718" lon="-0.544">
        <ele>249</ele>
        <time>2013-02-17T08:42:05</time>
      </trkpt>
      <trkpt lat="43.31709" lon="-0.54394">
        <ele>249</ele>
        <time>2013-02-17T08:42:10</time>
      </trkpt>
      <trkpt lat="43.31701" lon="-0.54393">
        <ele>251</ele>
        <time>2013-02-17T08:42:15</time>
      </trkpt>
      <trkpt lat="43.31693" lon="-0.54394">
        <ele>251</ele>
        <time>2013-02-17T08:42:20</time>
      </trkpt>
      <trkpt lat="43.3168" lon="-0.54394">
        <ele>251</ele>
        <time>2013-02-17T08:42:25</time>
      </trkpt>
      <trkpt lat="43.3167" lon="-0.54393">
        <ele>254</ele>
        <time>2013-02-17T08:42:30</time>
      </trkpt>
      <trkpt lat="43.3166" lon="-0.54391">
        <ele>255</ele>
        <time>2013-02-17T08:42:35</time>
      </trkpt>
      <trkpt lat="43.3165" lon="-0.5439">
        <ele>255</ele>
        <time>2013-02-17T08:42:40</time>
      </trkpt>
      <trkpt lat="43.3164" lon="-0.54387">
        <ele>257</ele>
        <time>2013-02-17T08:42:45</time>
      </trkpt>
      <trkpt lat="43.31631" lon="-0.54386">
        <ele>257</ele>
        <time>2013-02-17T08:42:51</time>
      </trkpt>
      <trkpt lat="43.31623" lon="-0.54386">
        <ele>258</ele>
        <time>2013-02-17T08:42:56</time>
      </trkpt>
      <trkpt lat="43.31613" lon="-0.54386">
        <ele>259</ele>
        <time>2013-02-17T08:43:01</time>
      </trkpt>
      <trkpt lat="43.31604" lon="-0.54386">
        <ele>261</ele>
        <time>2013-02-17T08:43:06</time>
      </trkpt>
      <trkpt lat="43.31595" lon="-0.54386">
        <ele>260</ele>
        <time>2013-02-17T08:43:11</time>
      </trkpt>
      <trkpt lat="43.31587" lon="-0.54386">
        <ele>260</ele>
        <time>2013-02-17T08:43:16</time>
      </trkpt>
      <trkpt lat="43.31578" lon="-0.54386">
        <ele>262</ele>
        <time>2013-02-17T08:43:21</time>
      </trkpt>
      <trkpt lat="43.31578" lon="-0.54386">
        <ele>263</ele>
        <time>2013-02-17T08:43:26</time>
      </trkpt>
      <trkpt lat="43.31578" lon="-0.54386">
        <ele>262</ele>
        <time>2013-02-17T08:43:31</time>
      </trkpt>
      <trkpt lat="43.31578" lon="-0.54386">
        <ele>267</ele>
        <time>2013-02-17T08:43:36</time>
      </trkpt>
      <trkpt lat="43.31578" lon="-0.54386">
        <ele>267</ele>
        <time>2013-02-17T08:43:41</time>
      </trkpt>
      <trkpt lat="43.31543" lon="-0.54372">
        <ele>267</ele>
        <time>2013-02-17T08:43:46</time>
      </trkpt>
      <trkpt lat="43.3154" lon="-0.54372">
        <ele>268</ele>
        <time>2013-02-17T08:43:51</time>
      </trkpt>
      <trkpt lat="43.3154" lon="-0.54372">
        <ele>269</ele>
        <time>2013-02-17T08:43:56</time>
      </trkpt>
      <trkpt lat="43.3154" lon="-0.54372">
        <ele>269</ele>
        <time>2013-02-17T08:44:01</time>
      </trkpt>
      <trkpt lat="43.3154" lon="-0.54372">
        <ele>271</ele>
        <time>2013-02-17T08:44:06</time>
      </trkpt>
      <trkpt lat="43.3154" lon="-0.54372">
        <ele>272</ele>
        <time>2013-02-17T08:44:11</time>
      </trkpt>
      <trkpt lat="43.3154" lon="-0.54372">
        <ele>274</ele>
        <time>2013-02-17T08:44:16</time>
      </trkpt>
      <trkpt lat="43.315" lon="-0.54357">
        <ele>272</ele>
        <time>2013-02-17T08:44:22</time>
      </trkpt>
      <trkpt lat="43.315" lon="-0.54357">
        <ele>273</ele>
        <time>2013-02-17T08:44:27</time>
      </trkpt>
      <trkpt lat="43.315" lon="-0.54357">
        <ele>277</ele>
        <time>2013-02-17T08:44:32</time>
      </trkpt>
      <trkpt lat="43.315" lon="-0.54357">
        <ele>275</ele>
        <time>2013-02-17T08:44:37</time>
      </trkpt>
      <trkpt lat="43.315" lon="-0.54357">
        <ele>276</ele>
        <time>2013-02-17T08:44:42</time>
      </trkpt>
      <trkpt lat="43.315" lon="-0.54357">
        <ele>279</ele>
        <time>2013-02-17T08:44:47</time>
      </trkpt>
      <trkpt lat="43.31465" lon="-0.54345">
        <ele>279</ele>
        <time>2013-02-17T08:44:52</time>
      </trkpt>
      <trkpt lat="43.31462" lon="-0.54344">
        <ele>279</ele>
        <time>2013-02-17T08:44:57</time>
      </trkpt>
      <trkpt lat="43.31462" lon="-0.54344">
        <ele>279</ele>
        <time>2013-02-17T08:45:02</time>
      </trkpt>
      <trkpt lat="43.31462" lon="-0.54344">
        <ele>279</ele>
        <time>2013-02-17T08:45:07</time>
      </trkpt>
      <trkpt lat="43.31462" lon="-0.54344">
        <ele>281</ele>
        <time>2013-02-17T08:45:12</time>
      </trkpt>
      <trkpt lat="43.31462" lon="-0.54344">
        <ele>281</ele>
        <time>2013-02-17T08:45:17</time>
      </trkpt>
      <trkpt lat="43.31462" lon="-0.54344">
        <ele>282</ele>
        <time>2013-02-17T08:45:22</time>
      </trkpt>
      <trkpt lat="43.31424" lon="-0.54338">
        <ele>281</ele>
        <time>2013-02-17T08:45:27</time>
      </trkpt>
      <trkpt lat="43.31422" lon="-0.54337">
        <ele>282</ele>
        <time>2013-02-17T08:45:32</time>
      </trkpt>
      <trkpt lat="43.31422" lon="-0.54337">
        <ele>282</ele>
        <time>2013-02-17T08:45:37</time>
      </trkpt>
      <trkpt lat="43.31401" lon="-0.54329">
        <ele>282</ele>
        <time>2013-02-17T08:45:42</time>
      </trkpt>
      <trkpt lat="43.31392" lon="-0.54326">
        <ele>282</ele>
        <time>2013-02-17T08:45:48</time>
      </trkpt>
      <trkpt lat="43.31382" lon="-0.54324">
        <ele>283</ele>
        <time>2013-02-17T08:45:53</time>
      </trkpt>
      <trkpt lat="43.31377" lon="-0.54321">
        <ele>284</ele>
        <time>2013-02-17T08:45:58</time>
      </trkpt>
      <trkpt lat="43.31366" lon="-0.54319">
        <ele>283</ele>
        <time>2013-02-17T08:46:03</time>
      </trkpt>
      <trkpt lat="43.31353" lon="-0.54316">
        <ele>284</ele>
        <time>2013-02-17T08:46:08</time>
      </trkpt>
      <trkpt lat="43.31343" lon="-0.54312">
        <ele>282</ele>
        <time>2013-02-17T08:46:13</time>
      </trkpt>
      <trkpt lat="43.31335" lon="-0.5431">
        <ele>283</ele>
        <time>2013-02-17T08:46:18</time>
      </trkpt>
      <trkpt lat="43.31329" lon="-0.54308">
        <ele>284</ele>
        <time>2013-02-17T08:46:23</time>
      </trkpt>
      <trkpt lat="43.3131" lon="-0.54302">
        <ele>284</ele>
        <time>2013-02-17T08:46:28</time>
      </trkpt>
      <trkpt lat="43.31302" lon="-0.54299">
        <ele>285</ele>
        <time>2013-02-17T08:46:33</time>
      </trkpt>
      <trkpt lat="43.31288" lon="-0.54295">
        <ele>285</ele>
        <time>2013-02-17T08:46:38</time>
      </trkpt>
      <trkpt lat="43.31278" lon="-0.54293">
        <ele>285</ele>
        <time>2013-02-17T08:46:43</time>
      </trkpt>
      <trkpt lat="43.31274" lon="-0.54298">
        <ele>286</ele>
        <time>2013-02-17T08:46:48</time>
      </trkpt>
      <trkpt lat="43.31274" lon="-0.54298">
        <ele>286</ele>
        <time>2013-02-17T08:46:53</time>
      </trkpt>
      <trkpt lat="43.31274" lon="-0.54298">
        <ele>285</ele>
        <time>2013-02-17T08:46:58</time>
      </trkpt>
      <trkpt lat="43.31274" lon="-0.54298">
        <ele>287</ele>
        <time>2013-02-17T08:47:03</time>
      </trkpt>
      <trkpt lat="43.31274" lon="-0.54298">
        <ele>285</ele>
        <time>2013-02-17T08:47:08</time>
      </trkpt>
      <trkpt lat="43.31274" lon="-0.54298">
        <ele>286</ele>
        <time>2013-02-17T08:47:13</time>
      </trkpt>
      <trkpt lat="43.31274" lon="-0.54298">
        <ele>286</ele>
        <time>2013-02-17T08:47:18</time>
      </trkpt>
      <trkpt lat="43.31274" lon="-0.54298">
        <ele>285</ele>
        <time>2013-02-17T08:47:23</time>
      </trkpt>
      <trkpt lat="43.31274" lon="-0.54298">
        <ele>286</ele>
        <time>2013-02-17T08:47:28</time>
      </trkpt>
      <trkpt lat="43.31274" lon="-0.54298">
        <ele>286</ele>
        <time>2013-02-17T08:47:33</time>
      </trkpt>
      <trkpt lat="43.31274" lon="-0.54298">
        <ele>286</ele>
        <time>2013-02-17T08:47:38</time>
      </trkpt>
      <trkpt lat="43.31274" lon="-0.54298">
        <ele>287</ele>
        <time>2013-02-17T08:47:43</time>
      </trkpt>
      <trkpt lat="43.31274" lon="-0.54298">
        <ele>286</ele>
        <time>2013-02-17T08:47:48</time>
      </trkpt>
      <trkpt lat="43.31274" lon="-0.54298">
        <ele>286</ele>
        <time>2013-02-17T08:47:53</time>
      </trkpt>
      <trkpt lat="43.31274" lon="-0.54298">
        <ele>286</ele>
        <time>2013-02-17T08:47:59</time>
      </trkpt>
      <trkpt lat="43.31274" lon="-0.54298">
        <ele>286</ele>
        <time>2013-02-17T08:48:04</time>
      </trkpt>
      <trkpt lat="43.31274" lon="-0.54298">
        <ele>286</ele>
        <time>2013-02-17T08:48:09</time>
      </trkpt>
      <trkpt lat="43.31274" lon="-0.54298">
        <ele>269</ele>
        <time>2013-02-17T08:48:14</time>
      </trkpt>
      <trkpt lat="43.31274" lon="-0.54298">
        <ele>286</ele>
        <time>2013-02-17T08:48:19</time>
      </trkpt>
      <trkpt lat="43.31274" lon="-0.54298">
        <ele>286</ele>
        <time>2013-02-17T08:48:24</time>
      </trkpt>
      <trkpt lat="43.31274" lon="-0.54298">
        <ele>285</ele>
        <time>2013-02-17T08:48:29</time>
      </trkpt>
      <trkpt lat="43.31274" lon="-0.54298">
        <ele>286</ele>
        <time>2013-02-17T08:48:34</time>
      </trkpt>
      <trkpt lat="43.31274" lon="-0.54298">
        <ele>286</ele>
        <time>2013-02-17T08:48:39</time>
      </trkpt>
      <trkpt lat="43.31274" lon="-0.54298">
        <ele>286</ele>
        <time>2013-02-17T08:48:44</time>
      </trkpt>
      <trkpt lat="43.31274" lon="-0.54298">
        <ele>286</ele>
        <time>2013-02-17T08:48:49</time>
      </trkpt>
      <trkpt lat="43.31274" lon="-0.54298">
        <ele>286</ele>
        <time>2013-02-17T08:48:54</time>
      </trkpt>
      <trkpt lat="43.31274" lon="-0.54298">
        <ele>286</ele>
        <time>2013-02-17T08:48:59</time>
      </trkpt>
      <trkpt lat="43.31274" lon="-0.54298">
        <ele>284</ele>
        <time>2013-02-17T08:49:04</time>
      </trkpt>
      <trkpt lat="43.31274" lon="-0.54298">
        <ele>286</ele>
        <time>2013-02-17T08:49:09</time>
      </trkpt>
      <trkpt lat="43.31274" lon="-0.54298">
        <ele>284</ele>
        <time>2013-02-17T08:49:14</time>
      </trkpt>
      <trkpt lat="43.31274" lon="-0.54298">
        <ele>287</ele>
        <time>2013-02-17T08:49:19</time>
      </trkpt>
      <trkpt lat="43.31274" lon="-0.54298">
        <ele>283</ele>
        <time>2013-02-17T08:49:24</time>
      </trkpt>
      <trkpt lat="43.31274" lon="-0.54298">
        <ele>283</ele>
        <time>2013-02-17T08:49:30</time>
      </trkpt>
      <trkpt lat="43.31274" lon="-0.54298">
        <ele>287</ele>
        <time>2013-02-17T08:49:35</time>
      </trkpt>
      <trkpt lat="43.31274" lon="-0.54298">
        <ele>284</ele>
        <time>2013-02-17T08:49:40</time>
      </trkpt>
      <trkpt lat="43.31274" lon="-0.54298">
        <ele>285</ele>
        <time>2013-02-17T08:49:45</time>
      </trkpt>
      <trkpt lat="43.31274" lon="-0.54298">
        <ele>285</ele>
        <time>2013-02-17T08:49:50</time>
      </trkpt>
      <trkpt lat="43.31274" lon="-0.54298">
        <ele>286</ele>
        <time>2013-02-17T08:49:55</time>
      </trkpt>
      <trkpt lat="43.31274" lon="-0.54298">
        <ele>286</ele>
        <time>2013-02-17T08:50:00</time>
      </trkpt>
      <trkpt lat="43.31274" lon="-0.54298">
        <ele>286</ele>
        <time>2013-02-17T08:50:05</time>
      </trkpt>
      <trkpt lat="43.31274" lon="-0.54298">
        <ele>286</ele>
        <time>2013-02-17T08:50:10</time>
      </trkpt>
      <trkpt lat="43.31274" lon="-0.54298">
        <ele>286</ele>
        <time>2013-02-17T08:50:15</time>
      </trkpt>
      <trkpt lat="43.31274" lon="-0.54298">
        <ele>286</ele>
        <time>2013-02-17T08:50:20</time>
      </trkpt>
      <trkpt lat="43.31274" lon="-0.54298">
        <ele>286</ele>
        <time>2013-02-17T08:50:25</time>
      </trkpt>
      <trkpt lat="43.31274" lon="-0.54298">
        <ele>286</ele>
        <time>2013-02-17T08:50:30</time>
      </trkpt>
      <trkpt lat="43.31274" lon="-0.54298">
        <ele>286</ele>
        <time>2013-02-17T08:50:35</time>
      </trkpt>
      <trkpt lat="43.31274" lon="-0.54298">
        <ele>287</ele>
        <time>2013-02-17T08:50:40</time>
      </trkpt>
      <trkpt lat="43.31274" lon="-0.54298">
        <ele>286</ele>
        <time>2013-02-17T08:50:45</time>
      </trkpt>
      <trkpt lat="43.31274" lon="-0.54298">
        <ele>286</ele>
        <time>2013-02-17T08:50:50</time>
      </trkpt>
      <trkpt lat="43.31274" lon="-0.54298">
        <ele>286</ele>
        <time>2013-02-17T08:50:55</time>
      </trkpt>
      <trkpt lat="43.31274" lon="-0.54298">
        <ele>286</ele>
        <time>2013-02-17T08:51:00</time>
      </trkpt>
      <trkpt lat="43.31274" lon="-0.54298">
        <ele>287</ele>
        <time>2013-02-17T08:51:05</time>
      </trkpt>
      <trkpt lat="43.31274" lon="-0.54298">
        <ele>285</ele>
        <time>2013-02-17T08:51:10</time>
      </trkpt>
      <trkpt lat="43.31274" lon="-0.54298">
        <ele>286</ele>
        <time>2013-02-17T08:51:16</time>
      </trkpt>
      <trkpt lat="43.31274" lon="-0.54298">
        <ele>286</ele>
        <time>2013-02-17T08:51:21</time>
      </trkpt>
      <trkpt lat="43.31274" lon="-0.54298">
        <ele>286</ele>
        <time>2013-02-17T08:51:26</time>
      </trkpt>
      <trkpt lat="43.31274" lon="-0.54298">
        <ele>286</ele>
        <time>2013-02-17T08:51:31</time>
      </trkpt>
      <trkpt lat="43.31274" lon="-0.54298">
        <ele>285</ele>
        <time>2013-02-17T08:51:36</time>
      </trkpt>
      <trkpt lat="43.31274" lon="-0.54298">
        <ele>285</ele>
        <time>2013-02-17T08:51:41</time>
      </trkpt>
      <trkpt lat="43.31274" lon="-0.54298">
        <ele>286</ele>
        <time>2013-02-17T08:51:46</time>
      </trkpt>
      <trkpt lat="43.31274" lon="-0.54298">
        <ele>286</ele>
        <time>2013-02-17T08:51:51</time>
      </trkpt>
      <trkpt lat="43.31274" lon="-0.54298">
        <ele>286</ele>
        <time>2013-02-17T08:51:56</time>
      </trkpt>
      <trkpt lat="43.31274" lon="-0.54298">
        <ele>287</ele>
        <time>2013-02-17T08:52:01</time>
      </trkpt>
      <trkpt lat="43.31274" lon="-0.54298">
        <ele>286</ele>
        <time>2013-02-17T08:52:06</time>
      </trkpt>
      <trkpt lat="43.31274" lon="-0.54298">
        <ele>286</ele>
        <time>2013-02-17T08:52:11</time>
      </trkpt>
      <trkpt lat="43.31274" lon="-0.54298">
        <ele>287</ele>
        <time>2013-02-17T08:52:16</time>
      </trkpt>
      <trkpt lat="43.31274" lon="-0.54298">
        <ele>286</ele>
        <time>2013-02-17T08:52:21</time>
      </trkpt>
      <trkpt lat="43.31274" lon="-0.54298">
        <ele>282</ele>
        <time>2013-02-17T08:52:26</time>
      </trkpt>
      <trkpt lat="43.31274" lon="-0.54298">
        <ele>286</ele>
        <time>2013-02-17T08:52:31</time>
      </trkpt>
      <trkpt lat="43.31274" lon="-0.54298">
        <ele>286</ele>
        <time>2013-02-17T08:52:36</time>
      </trkpt>
      <trkpt lat="43.31274" lon="-0.54298">
        <ele>286</ele>
        <time>2013-02-17T08:52:41</time>
      </trkpt>
      <trkpt lat="43.31274" lon="-0.54298">
        <ele>286</ele>
        <time>2013-02-17T08:52:46</time>
      </trkpt>
      <trkpt lat="43.31274" lon="-0.54298">
        <ele>286</ele>
        <time>2013-02-17T08:52:51</time>
      </trkpt>
      <trkpt lat="43.31274" lon="-0.54298">
        <ele>286</ele>
        <time>2013-02-17T08:52:57</time>
      </trkpt>
      <trkpt lat="43.31274" lon="-0.54298">
        <ele>285</ele>
        <time>2013-02-17T08:53:02</time>
      </trkpt>
      <trkpt lat="43.31274" lon="-0.54298">
        <ele>286</ele>
        <time>2013-02-17T08:53:07</time>
      </trkpt>
      <trkpt lat="43.31274" lon="-0.54298">
        <ele>286</ele>
        <time>2013-02-17T08:53:12</time>
      </trkpt>
      <trkpt lat="43.31274" lon="-0.54298">
        <ele>287</ele>
        <time>2013-02-17T08:53:17</time>
      </trkpt>
      <trkpt lat="43.31274" lon="-0.54298">
        <ele>287</ele>
        <time>2013-02-17T08:53:22</time>
      </trkpt>
      <trkpt lat="43.31274" lon="-0.54298">
        <ele>286</ele>
        <time>2013-02-17T08:53:27</time>
      </trkpt>
      <trkpt lat="43.31274" lon="-0.54298">
        <ele>287</ele>
        <time>2013-02-17T08:53:32</time>
      </trkpt>
      <trkpt lat="43.31274" lon="-0.54298">
        <ele>286</ele>
        <time>2013-02-17T08:53:37</time>
      </trkpt>
      <trkpt lat="43.31274" lon="-0.54298">
        <ele>285</ele>
        <time>2013-02-17T08:53:42</time>
      </trkpt>
      <trkpt lat="43.31274" lon="-0.54298">
        <ele>286</ele>
        <time>2013-02-17T08:53:47</time>
      </trkpt>
      <trkpt lat="43.31274" lon="-0.54298">
        <ele>287</ele>
        <time>2013-02-17T08:53:52</time>
      </trkpt>
      <trkpt lat="43.31274" lon="-0.54298">
        <ele>286</ele>
        <time>2013-02-17T08:53:57</time>
      </trkpt>
      <trkpt lat="43.31274" lon="-0.54298">
        <ele>286</ele>
        <time>2013-02-17T08:54:02</time>
      </trkpt>
      <trkpt lat="43.31274" lon="-0.54298">
        <ele>285</ele>
        <time>2013-02-17T08:54:07</time>
      </trkpt>
      <trkpt lat="43.31274" lon="-0.54298">
        <ele>286</ele>
        <time>2013-02-17T08:54:12</time>
      </trkpt>
      <trkpt lat="43.31274" lon="-0.54298">
        <ele>286</ele>
        <time>2013-02-17T08:54:17</time>
      </trkpt>
      <trkpt lat="43.31274" lon="-0.54298">
        <ele>286</ele>
        <time>2013-02-17T08:54:22</time>
      </trkpt>
      <trkpt lat="43.31274" lon="-0.54298">
        <ele>286</ele>
        <time>2013-02-17T08:54:27</time>
      </trkpt>
      <trkpt lat="43.31274" lon="-0.54298">
        <ele>287</ele>
        <time>2013-02-17T08:54:32</time>
      </trkpt>
      <trkpt lat="43.31274" lon="-0.54298">
        <ele>287</ele>
        <time>2013-02-17T08:54:37</time>
      </trkpt>
      <trkpt lat="43.31274" lon="-0.54298">
        <ele>286</ele>
        <time>2013-02-17T08:54:42</time>
      </trkpt>
      <trkpt lat="43.31274" lon="-0.54298">
        <ele>287</ele>
        <time>2013-02-17T08:54:47</time>
      </trkpt>
      <trkpt lat="43.31274" lon="-0.54298">
        <ele>287</ele>
        <time>2013-02-17T08:54:53</time>
      </trkpt>
      <trkpt lat="43.31274" lon="-0.54298">
        <ele>286</ele>
        <time>2013-02-17T08:54:58</time>
      </trkpt>
      <trkpt lat="43.31274" lon="-0.54298">
        <ele>286</ele>
        <time>2013-02-17T08:55:03</time>
      </trkpt>
      <trkpt lat="43.31274" lon="-0.54298">
        <ele>287</ele>
        <time>2013-02-17T08:55:08</time>
      </trkpt>
      <trkpt lat="43.31274" lon="-0.54298">
        <ele>286</ele>
        <time>2013-02-17T08:55:13</time>
      </trkpt>
      <trkpt lat="43.31274" lon="-0.54298">
        <ele>287</ele>
        <time>2013-02-17T08:55:18</time>
      </trkpt>
      <trkpt lat="43.31274" lon="-0.54298">
        <ele>287</ele>
        <time>2013-02-17T08:55:23</time>
      </trkpt>
      <trkpt lat="43.31274" lon="-0.54298">
        <ele>287</ele>
        <time>2013-02-17T08:55:28</time>
      </trkpt>
      <trkpt lat="43.31274" lon="-0.54298">
        <ele>287</ele>
        <time>2013-02-17T08:55:33</time>
      </trkpt>
      <trkpt lat="43.31274" lon="-0.54298">
        <ele>288</ele>
        <time>2013-02-17T08:55:38</time>
      </trkpt>
      <trkpt lat="43.31274" lon="-0.54298">
        <ele>288</ele>
        <time>2013-02-17T08:55:43</time>
      </trkpt>
      <trkpt lat="43.31274" lon="-0.54298">
        <ele>287</ele>
        <time>2013-02-17T08:55:48</time>
      </trkpt>
      <trkpt lat="43.31274" lon="-0.54298">
        <ele>286</ele>
        <time>2013-02-17T08:55:53</time>
      </trkpt>
      <trkpt lat="43.31274" lon="-0.54298">
        <ele>286</ele>
        <time>2013-02-17T08:55:58</time>
      </trkpt>
      <trkpt lat="43.31274" lon="-0.54298">
        <ele>287</ele>
        <time>2013-02-17T08:56:03</time>
      </trkpt>
      <trkpt lat="43.31274" lon="-0.54298">
        <ele>287</ele>
        <time>2013-02-17T08:56:08</time>
      </trkpt>
      <trkpt lat="43.31274" lon="-0.54298">
        <ele>286</ele>
        <time>2013-02-17T08:56:13</time>
      </trkpt>
      <trkpt lat="43.31274" lon="-0.54298">
        <ele>287</ele>
        <time>2013-02-17T08:56:18</time>
      </trkpt>
      <trkpt lat="43.31274" lon="-0.54298">
        <ele>287</ele>
        <time>2013-02-17T08:56:23</time>
      </trkpt>
      <trkpt lat="43.31274" lon="-0.54298">
        <ele>287</ele>
        <time>2013-02-17T08:56:28</time>
      </trkpt>
      <trkpt lat="43.31274" lon="-0.54298">
        <ele>286</ele>
        <time>2013-02-17T08:56:33</time>
      </trkpt>
      <trkpt lat="43.31274" lon="-0.54298">
        <ele>286</ele>
        <time>2013-02-17T08:56:38</time>
      </trkpt>
      <trkpt lat="43.31274" lon="-0.54298">
        <ele>286</ele>
        <time>2013-02-17T08:56:43</time>
      </trkpt>
      <trkpt lat="43.31274" lon="-0.54298">
        <ele>285</ele>
        <time>2013-02-17T08:56:48</time>
      </trkpt>
      <trkpt lat="43.31274" lon="-0.54298">
        <ele>286</ele>
        <time>2013-02-17T08:56:53</time>
      </trkpt>
      <trkpt lat="43.31274" lon="-0.54298">
        <ele>288</ele>
        <time>2013-02-17T08:56:58</time>
      </trkpt>
      <trkpt lat="43.31274" lon="-0.54298">
        <ele>287</ele>
        <time>2013-02-17T08:57:03</time>
      </trkpt>
      <trkpt lat="43.31274" lon="-0.54298">
        <ele>286</ele>
        <time>2013-02-17T08:57:08</time>
      </trkpt>
      <trkpt lat="43.31274" lon="-0.54298">
        <ele>286</ele>
        <time>2013-02-17T08:57:13</time>
      </trkpt>
      <trkpt lat="43.31274" lon="-0.54298">
        <ele>287</ele>
        <time>2013-02-17T08:57:18</time>
      </trkpt>
      <trkpt lat="43.31274" lon="-0.54298">
        <ele>287</ele>
        <time>2013-02-17T08:57:24</time>
      </trkpt>
      <trkpt lat="43.31274" lon="-0.54298">
        <ele>287</ele>
        <time>2013-02-17T08:57:29</time>
      </trkpt>
      <trkpt lat="43.31274" lon="-0.54298">
        <ele>285</ele>
        <time>2013-02-17T08:57:34</time>
      </trkpt>
      <trkpt lat="43.31274" lon="-0.54298">
        <ele>287</ele>
        <time>2013-02-17T08:57:39</time>
      </trkpt>
      <trkpt lat="43.31274" lon="-0.54298">
        <ele>287</ele>
        <time>2013-02-17T08:57:44</time>
      </trkpt>
      <trkpt lat="43.31274" lon="-0.54298">
        <ele>286</ele>
        <time>2013-02-17T08:57:49</time>
      </trkpt>
      <trkpt lat="43.31274" lon="-0.54298">
        <ele>286</ele>
        <time>2013-02-17T08:57:54</time>
      </trkpt>
      <trkpt lat="43.31274" lon="-0.54298">
        <ele>287</ele>
        <time>2013-02-17T08:57:59</time>
      </trkpt>
      <trkpt lat="43.31274" lon="-0.54298">
        <ele>287</ele>
        <time>2013-02-17T08:58:04</time>
      </trkpt>
      <trkpt lat="43.31274" lon="-0.54298">
        <ele>286</ele>
        <time>2013-02-17T08:58:09</time>
      </trkpt>
      <trkpt lat="43.31274" lon="-0.54298">
        <ele>286</ele>
        <time>2013-02-17T08:58:14</time>
      </trkpt>
      <trkpt lat="43.31274" lon="-0.54298">
        <ele>287</ele>
        <time>2013-02-17T08:58:19</time>
      </trkpt>
      <trkpt lat="43.31274" lon="-0.54298">
        <ele>287</ele>
        <time>2013-02-17T08:58:24</time>
      </trkpt>
      <trkpt lat="43.31274" lon="-0.54298">
        <ele>286</ele>
        <time>2013-02-17T08:58:29</time>
      </trkpt>
      <trkpt lat="43.31274" lon="-0.54298">
        <ele>286</ele>
        <time>2013-02-17T08:58:34</time>
      </trkpt>
      <trkpt lat="43.31274" lon="-0.54298">
        <ele>286</ele>
        <time>2013-02-17T08:58:39</time>
      </trkpt>
      <trkpt lat="43.31274" lon="-0.54298">
        <ele>287</ele>
        <time>2013-02-17T08:58:44</time>
      </trkpt>
      <trkpt lat="43.31274" lon="-0.54298">
        <ele>287</ele>
        <time>2013-02-17T08:58:49</time>
      </trkpt>
      <trkpt lat="43.31274" lon="-0.54298">
        <ele>286</ele>
        <time>2013-02-17T08:58:54</time>
      </trkpt>
      <trkpt lat="43.31274" lon="-0.54298">
        <ele>286</ele>
        <time>2013-02-17T08:58:59</time>
      </trkpt>
      <trkpt lat="43.31274" lon="-0.54298">
        <ele>286</ele>
        <time>2013-02-17T08:59:04</time>
      </trkpt>
      <trkpt lat="43.31262" lon="-0.54287">
        <ele>288</ele>
        <time>2013-02-17T08:59:09</time>
      </trkpt>
      <trkpt lat="43.31253" lon="-0.54283">
        <ele>288</ele>
        <time>2013-02-17T08:59:14</time>
      </trkpt>
      <trkpt lat="43.31246" lon="-0.5428">
        <ele>287</ele>
        <time>2013-02-17T08:59:20</time>
      </trkpt>
      <trkpt lat="43.31237" lon="-0.54276">
        <ele>287</ele>
        <time>2013-02-17T08:59:25</time>
      </trkpt>
      <trkpt lat="43.31228" lon="-0.54272">
        <ele>288</ele>
        <time>2013-02-17T08:59:30</time>
      </trkpt>
      <trkpt lat="43.31219" lon="-0.54268">
        <ele>288</ele>
        <time>2013-02-17T08:59:35</time>
      </trkpt>
      <trkpt lat="43.3121" lon="-0.54263">
        <ele>289</ele>
        <time>2013-02-17T08:59:40</time>
      </trkpt>
      <trkpt lat="43.31198" lon="-0.54259">
        <ele>290</ele>
        <time>2013-02-17T08:59:45</time>
      </trkpt>
      <trkpt lat="43.31187" lon="-0.54254">
        <ele>290</ele>
        <time>2013-02-17T08:59:50</time>
      </trkpt>
      <trkpt lat="43.31176" lon="-0.5425">
        <ele>289</ele>
        <time>2013-02-17T08:59:55</time>
      </trkpt>
      <trkpt lat="43.31165" lon="-0.54246">
        <ele>291</ele>
        <time>2013-02-17T09:00:00</time>
      </trkpt>
      <trkpt lat="43.31154" lon="-0.54241">
        <ele>291</ele>
        <time>2013-02-17T09:00:05</time>
      </trkpt>
      <trkpt lat="43.31141" lon="-0.54235">
        <ele>291</ele>
        <time>2013-02-17T09:00:10</time>
      </trkpt>
      <trkpt lat="43.31128" lon="-0.54227">
        <ele>291</ele>
        <time>2013-02-17T09:00:15</time>
      </trkpt>
      <trkpt lat="43.31114" lon="-0.54218">
        <ele>291</ele>
        <time>2013-02-17T09:00:20</time>
      </trkpt>
      <trkpt lat="43.31101" lon="-0.54206">
        <ele>291</ele>
        <time>2013-02-17T09:00:25</time>
      </trkpt>
      <trkpt lat="43.31087" lon="-0.54197">
        <ele>292</ele>
        <time>2013-02-17T09:00:30</time>
      </trkpt>
      <trkpt lat="43.31075" lon="-0.54192">
        <ele>291</ele>
        <time>2013-02-17T09:00:35</time>
      </trkpt>
      <trkpt lat="43.31062" lon="-0.54188">
        <ele>293</ele>
        <time>2013-02-17T09:00:40</time>
      </trkpt>
      <trkpt lat="43.31051" lon="-0.5419">
        <ele>294</ele>
        <time>2013-02-17T09:00:45</time>
      </trkpt>
      <trkpt lat="43.31048" lon="-0.54212">
        <ele>293</ele>
        <time>2013-02-17T09:00:50</time>
      </trkpt>
      <trkpt lat="43.3105" lon="-0.5425">
        <ele>291</ele>
        <time>2013-02-17T09:00:55</time>
      </trkpt>
      <trkpt lat="43.31038" lon="-0.54275">
        <ele>288</ele>
        <time>2013-02-17T09:01:00</time>
      </trkpt>
      <trkpt lat="43.31026" lon="-0.54272">
        <ele>285</ele>
        <time>2013-02-17T09:01:05</time>
      </trkpt>
      <trkpt lat="43.31018" lon="-0.54258">
        <ele>288</ele>
        <time>2013-02-17T09:01:10</time>
      </trkpt>
      <trkpt lat="43.31011" lon="-0.54243">
        <ele>288</ele>
        <time>2013-02-17T09:01:15</time>
      </trkpt>
      <trkpt lat="43.31005" lon="-0.5423">
        <ele>289</ele>
        <time>2013-02-17T09:01:21</time>
      </trkpt>
      <trkpt lat="43.31002" lon="-0.54222">
        <ele>289</ele>
        <time>2013-02-17T09:01:26</time>
      </trkpt>
      <trkpt lat="43.30996" lon="-0.5421">
        <ele>290</ele>
        <time>2013-02-17T09:01:31</time>
      </trkpt>
      <trkpt lat="43.3099" lon="-0.54192">
        <ele>293</ele>
        <time>2013-02-17T09:01:36</time>
      </trkpt>
      <trkpt lat="43.30984" lon="-0.54179">
        <ele>293</ele>
        <time>2013-02-17T09:01:41</time>
      </trkpt>
      <trkpt lat="43.30979" lon="-0.54166">
        <ele>296</ele>
        <time>2013-02-17T09:01:46</time>
      </trkpt>
      <trkpt lat="43.30974" lon="-0.54155">
        <ele>296</ele>
        <time>2013-02-17T09:01:51</time>
      </trkpt>
      <trkpt lat="43.30966" lon="-0.54141">
        <ele>297</ele>
        <time>2013-02-17T09:01:56</time>
      </trkpt>
      <trkpt lat="43.30958" lon="-0.5413">
        <ele>297</ele>
        <time>2013-02-17T09:02:01</time>
      </trkpt>
      <trkpt lat="43.30949" lon="-0.54121">
        <ele>297</ele>
        <time>2013-02-17T09:02:06</time>
      </trkpt>
      <trkpt lat="43.30941" lon="-0.54111">
        <ele>298</ele>
        <time>2013-02-17T09:02:11</time>
      </trkpt>
      <trkpt lat="43.3093" lon="-0.54103">
        <ele>298</ele>
        <time>2013-02-17T09:02:16</time>
      </trkpt>
      <trkpt lat="43.30919" lon="-0.54097">
        <ele>298</ele>
        <time>2013-02-17T09:02:21</time>
      </trkpt>
      <trkpt lat="43.30898" lon="-0.54089">
        <ele>297</ele>
        <time>2013-02-17T09:02:26</time>
      </trkpt>
      <trkpt lat="43.30877" lon="-0.54079">
        <ele>297</ele>
        <time>2013-02-17T09:02:31</time>
      </trkpt>
      <trkpt lat="43.30854" lon="-0.54069">
        <ele>297</ele>
        <time>2013-02-17T09:02:36</time>
      </trkpt>
      <trkpt lat="43.30825" lon="-0.54061">
        <ele>295</ele>
        <time>2013-02-17T09:02:41</time>
      </trkpt>
      <trkpt lat="43.30786" lon="-0.54053">
        <ele>292</ele>
        <time>2013-02-17T09:02:46</time>
      </trkpt>
      <trkpt lat="43.30751" lon="-0.54043">
        <ele>290</ele>
        <time>2013-02-17T09:02:51</time>
      </trkpt>
      <trkpt lat="43.30705" lon="-0.54016">
        <ele>289</ele>
        <time>2013-02-17T09:02:56</time>
      </trkpt>
      <trkpt lat="43.30677" lon="-0.53984">
        <ele>287</ele>
        <time>2013-02-17T09:03:01</time>
      </trkpt>
      <trkpt lat="43.30656" lon="-0.53945">
        <ele>287</ele>
        <time>2013-02-17T09:03:06</time>
      </trkpt>
      <trkpt lat="43.30641" lon="-0.53916">
        <ele>286</ele>
        <time>2013-02-17T09:03:11</time>
      </trkpt>
      <trkpt lat="43.3062" lon="-0.53898">
        <ele>287</ele>
        <time>2013-02-17T09:03:16</time>
      </trkpt>
      <trkpt lat="43.306" lon="-0.53908">
        <ele>286</ele>
        <time>2013-02-17T09:03:21</time>
      </trkpt>
      <trkpt lat="43.30594" lon="-0.53928">
        <ele>287</ele>
        <time>2013-02-17T09:03:26</time>
      </trkpt>
      <trkpt lat="43.30588" lon="-0.53945">
        <ele>290</ele>
        <time>2013-02-17T09:03:31</time>
      </trkpt>
      <trkpt lat="43.30582" lon="-0.53958">
        <ele>291</ele>
        <time>2013-02-17T09:03:36</time>
      </trkpt>
      <trkpt lat="43.30576" lon="-0.53974">
        <ele>291</ele>
        <time>2013-02-17T09:03:42</time>
      </trkpt>
      <trkpt lat="43.30571" lon="-0.53986">
        <ele>291</ele>
        <time>2013-02-17T09:03:47</time>
      </trkpt>
      <trkpt lat="43.30567" lon="-0.53993">
        <ele>293</ele>
        <time>2013-02-17T09:03:52</time>
      </trkpt>
      <trkpt lat="43.30559" lon="-0.54006">
        <ele>292</ele>
        <time>2013-02-17T09:03:57</time>
      </trkpt>
      <trkpt lat="43.3055" lon="-0.5402">
        <ele>293</ele>
        <time>2013-02-17T09:04:02</time>
      </trkpt>
      <trkpt lat="43.30539" lon="-0.54039">
        <ele>292</ele>
        <time>2013-02-17T09:04:07</time>
      </trkpt>
      <trkpt lat="43.30528" lon="-0.54054">
        <ele>292</ele>
        <time>2013-02-17T09:04:12</time>
      </trkpt>
      <trkpt lat="43.30518" lon="-0.54068">
        <ele>291</ele>
        <time>2013-02-17T09:04:17</time>
      </trkpt>
      <trkpt lat="43.30511" lon="-0.54079">
        <ele>291</ele>
        <time>2013-02-17T09:04:22</time>
      </trkpt>
      <trkpt lat="43.305" lon="-0.54105">
        <ele>292</ele>
        <time>2013-02-17T09:04:27</time>
      </trkpt>
      <trkpt lat="43.3049" lon="-0.54118">
        <ele>292</ele>
        <time>2013-02-17T09:04:32</time>
      </trkpt>
      <trkpt lat="43.30479" lon="-0.54128">
        <ele>292</ele>
        <time>2013-02-17T09:04:37</time>
      </trkpt>
      <trkpt lat="43.30467" lon="-0.54134">
        <ele>293</ele>
        <time>2013-02-17T09:04:42</time>
      </trkpt>
      <trkpt lat="43.30453" lon="-0.54143">
        <ele>293</ele>
        <time>2013-02-17T09:04:47</time>
      </trkpt>
      <trkpt lat="43.30432" lon="-0.54159">
        <ele>291</ele>
        <time>2013-02-17T09:04:52</time>
      </trkpt>
      <trkpt lat="43.30421" lon="-0.54167">
        <ele>290</ele>
        <time>2013-02-17T09:04:57</time>
      </trkpt>
      <trkpt lat="43.30397" lon="-0.54196">
        <ele>289</ele>
        <time>2013-02-17T09:05:02</time>
      </trkpt>
      <trkpt lat="43.30374" lon="-0.54242">
        <ele>285</ele>
        <time>2013-02-17T09:05:07</time>
      </trkpt>
      <trkpt lat="43.30361" lon="-0.54301">
        <ele>277</ele>
        <time>2013-02-17T09:05:12</time>
      </trkpt>
      <trkpt lat="43.30357" lon="-0.54351">
        <ele>271</ele>
        <time>2013-02-17T09:05:17</time>
      </trkpt>
      <trkpt lat="43.30359" lon="-0.54396">
        <ele>264</ele>
        <time>2013-02-17T09:05:22</time>
      </trkpt>
      <trkpt lat="43.30339" lon="-0.54408">
        <ele>259</ele>
        <time>2013-02-17T09:05:27</time>
      </trkpt>
      <trkpt lat="43.30308" lon="-0.54418">
        <ele>252</ele>
        <time>2013-02-17T09:05:32</time>
      </trkpt>
      <trkpt lat="43.30309" lon="-0.5444">
        <ele>247</ele>
        <time>2013-02-17T09:05:37</time>
      </trkpt>
      <trkpt lat="43.30309" lon="-0.54469">
        <ele>245</ele>
        <time>2013-02-17T09:05:42</time>
      </trkpt>
      <trkpt lat="43.30309" lon="-0.54497">
        <ele>246</ele>
        <time>2013-02-17T09:05:47</time>
      </trkpt>
      <trkpt lat="43.3031" lon="-0.54521">
        <ele>246</ele>
        <time>2013-02-17T09:05:52</time>
      </trkpt>
      <trkpt lat="43.3031" lon="-0.5454">
        <ele>246</ele>
        <time>2013-02-17T09:05:57</time>
      </trkpt>
      <trkpt lat="43.30314" lon="-0.54562">
        <ele>246</ele>
        <time>2013-02-17T09:06:03</time>
      </trkpt>
      <trkpt lat="43.3032" lon="-0.54576">
        <ele>247</ele>
        <time>2013-02-17T09:06:08</time>
      </trkpt>
      <trkpt lat="43.30327" lon="-0.54586">
        <ele>247</ele>
        <time>2013-02-17T09:06:13</time>
      </trkpt>
      <trkpt lat="43.3034" lon="-0.54602">
        <ele>248</ele>
        <time>2013-02-17T09:06:18</time>
      </trkpt>
      <trkpt lat="43.30359" lon="-0.54616">
        <ele>248</ele>
        <time>2013-02-17T09:06:23</time>
      </trkpt>
      <trkpt lat="43.30378" lon="-0.54626">
        <ele>247</ele>
        <time>2013-02-17T09:06:28</time>
      </trkpt>
      <trkpt lat="43.30394" lon="-0.54633">
        <ele>247</ele>
        <time>2013-02-17T09:06:33</time>
      </trkpt>
      <trkpt lat="43.30406" lon="-0.54641">
        <ele>248</ele>
        <time>2013-02-17T09:06:38</time>
      </trkpt>
      <trkpt lat="43.30426" lon="-0.54656">
        <ele>247</ele>
        <time>2013-02-17T09:06:43</time>
      </trkpt>
      <trkpt lat="43.30463" lon="-0.54682">
        <ele>244</ele>
        <time>2013-02-17T09:06:48</time>
      </trkpt>
      <trkpt lat="43.30505" lon="-0.54714">
        <ele>240</ele>
        <time>2013-02-17T09:06:53</time>
      </trkpt>
      <trkpt lat="43.30544" lon="-0.54751">
        <ele>239</ele>
        <time>2013-02-17T09:06:58</time>
      </trkpt>
      <trkpt lat="43.30558" lon="-0.54778">
        <ele>237</ele>
        <time>2013-02-17T09:07:03</time>
      </trkpt>
      <trkpt lat="43.30531" lon="-0.54784">
        <ele>230</ele>
        <time>2013-02-17T09:07:08</time>
      </trkpt>
      <trkpt lat="43.30509" lon="-0.54785">
        <ele>224</ele>
        <time>2013-02-17T09:07:13</time>
      </trkpt>
      <trkpt lat="43.30485" lon="-0.54807">
        <ele>216</ele>
        <time>2013-02-17T09:07:18</time>
      </trkpt>
      <trkpt lat="43.30463" lon="-0.54845">
        <ele>208</ele>
        <time>2013-02-17T09:07:23</time>
      </trkpt>
      <trkpt lat="43.30442" lon="-0.54884">
        <ele>201</ele>
        <time>2013-02-17T09:07:28</time>
      </trkpt>
      <trkpt lat="43.30416" lon="-0.54922">
        <ele>195</ele>
        <time>2013-02-17T09:07:33</time>
      </trkpt>
      <trkpt lat="43.30388" lon="-0.54943">
        <ele>189</ele>
        <time>2013-02-17T09:07:38</time>
      </trkpt>
      <trkpt lat="43.30373" lon="-0.54971">
        <ele>182</ele>
        <time>2013-02-17T09:07:43</time>
      </trkpt>
      <trkpt lat="43.30362" lon="-0.54993">
        <ele>178</ele>
        <time>2013-02-17T09:07:48</time>
      </trkpt>
      <trkpt lat="43.30352" lon="-0.55013">
        <ele>174</ele>
        <time>2013-02-17T09:07:53</time>
      </trkpt>
      <trkpt lat="43.3034" lon="-0.55034">
        <ele>170</ele>
        <time>2013-02-17T09:07:58</time>
      </trkpt>
      <trkpt lat="43.30332" lon="-0.55048">
        <ele>167</ele>
        <time>2013-02-17T09:08:03</time>
      </trkpt>
      <trkpt lat="43.3032" lon="-0.55059">
        <ele>165</ele>
        <time>2013-02-17T09:08:08</time>
      </trkpt>
      <trkpt lat="43.3031" lon="-0.55065">
        <ele>163</ele>
        <time>2013-02-17T09:08:13</time>
      </trkpt>
      <trkpt lat="43.30296" lon="-0.55072">
        <ele>160</ele>
        <time>2013-02-17T09:08:18</time>
      </trkpt>
      <trkpt lat="43.3029" lon="-0.55076">
        <ele>161</ele>
        <time>2013-02-17T09:08:24</time>
      </trkpt>
      <trkpt lat="43.3029" lon="-0.55076">
        <ele>162</ele>
        <time>2013-02-17T09:08:29</time>
      </trkpt>
      <trkpt lat="43.3029" lon="-0.55076">
        <ele>161</ele>
        <time>2013-02-17T09:08:34</time>
      </trkpt>
      <trkpt lat="43.3029" lon="-0.55076">
        <ele>162</ele>
        <time>2013-02-17T09:08:39</time>
      </trkpt>
      <trkpt lat="43.3029" lon="-0.55076">
        <ele>161</ele>
        <time>2013-02-17T09:08:44</time>
      </trkpt>
      <trkpt lat="43.3029" lon="-0.55076">
        <ele>161</ele>
        <time>2013-02-17T09:08:49</time>
      </trkpt>
      <trkpt lat="43.3029" lon="-0.55076">
        <ele>161</ele>
        <time>2013-02-17T09:08:54</time>
      </trkpt>
      <trkpt lat="43.3029" lon="-0.55076">
        <ele>161</ele>
        <time>2013-02-17T09:08:59</time>
      </trkpt>
      <trkpt lat="43.3029" lon="-0.55076">
        <ele>161</ele>
        <time>2013-02-17T09:09:04</time>
      </trkpt>
      <trkpt lat="43.3029" lon="-0.55076">
        <ele>160</ele>
        <time>2013-02-17T09:09:09</time>
      </trkpt>
      <trkpt lat="43.30281" lon="-0.55085">
        <ele>161</ele>
        <time>2013-02-17T09:09:14</time>
      </trkpt>
      <trkpt lat="43.30271" lon="-0.55103">
        <ele>160</ele>
        <time>2013-02-17T09:09:19</time>
      </trkpt>
      <trkpt lat="43.30258" lon="-0.55126">
        <ele>159</ele>
        <time>2013-02-17T09:09:24</time>
      </trkpt>
      <trkpt lat="43.30242" lon="-0.55152">
        <ele>158</ele>
        <time>2013-02-17T09:09:29</time>
      </trkpt>
      <trkpt lat="43.30229" lon="-0.55173">
        <ele>157</ele>
        <time>2013-02-17T09:09:34</time>
      </trkpt>
      <trkpt lat="43.30222" lon="-0.55182">
        <ele>157</ele>
        <time>2013-02-17T09:09:39</time>
      </trkpt>
      <trkpt lat="43.30222" lon="-0.55182">
        <ele>157</ele>
        <time>2013-02-17T09:09:44</time>
      </trkpt>
      <trkpt lat="43.30222" lon="-0.55182">
        <ele>158</ele>
        <time>2013-02-17T09:09:49</time>
      </trkpt>
      <trkpt lat="43.30222" lon="-0.55182">
        <ele>156</ele>
        <time>2013-02-17T09:09:54</time>
      </trkpt>
      <trkpt lat="43.30222" lon="-0.55182">
        <ele>158</ele>
        <time>2013-02-17T09:09:59</time>
      </trkpt>
      <trkpt lat="43.30222" lon="-0.55182">
        <ele>158</ele>
        <time>2013-02-17T09:10:04</time>
      </trkpt>
      <trkpt lat="43.30222" lon="-0.55182">
        <ele>157</ele>
        <time>2013-02-17T09:10:09</time>
      </trkpt>
      <trkpt lat="43.30218" lon="-0.55191">
        <ele>158</ele>
        <time>2013-02-17T09:10:14</time>
      </trkpt>
      <trkpt lat="43.30212" lon="-0.55191">
        <ele>157</ele>
        <time>2013-02-17T09:10:19</time>
      </trkpt>
      <trkpt lat="43.30216" lon="-0.55186">
        <ele>158</ele>
        <time>2013-02-17T09:10:24</time>
      </trkpt>
      <trkpt lat="43.30213" lon="-0.55187">
        <ele>158</ele>
        <time>2013-02-17T09:10:30</time>
      </trkpt>
      <trkpt lat="43.30214" lon="-0.55184">
        <ele>157</ele>
        <time>2013-02-17T09:10:35</time>
      </trkpt>
      <trkpt lat="43.30214" lon="-0.55184">
        <ele>158</ele>
        <time>2013-02-17T09:10:40</time>
      </trkpt>
      <trkpt lat="43.30214" lon="-0.55184">
        <ele>158</ele>
        <time>2013-02-17T09:10:45</time>
      </trkpt>
      <trkpt lat="43.30214" lon="-0.55184">
        <ele>157</ele>
        <time>2013-02-17T09:10:50</time>
      </trkpt>
      <trkpt lat="43.30214" lon="-0.55184">
        <ele>157</ele>
        <time>2013-02-17T09:10:55</time>
      </trkpt>
      <trkpt lat="43.30214" lon="-0.55184">
        <ele>157</ele>
        <time>2013-02-17T09:11:00</time>
      </trkpt>
      <trkpt lat="43.30214" lon="-0.55184">
        <ele>157</ele>
        <time>2013-02-17T09:11:05</time>
      </trkpt>
      <trkpt lat="43.30214" lon="-0.55184">
        <ele>157</ele>
        <time>2013-02-17T09:11:10</time>
      </trkpt>
      <trkpt lat="43.30214" lon="-0.55184">
        <ele>158</ele>
        <time>2013-02-17T09:11:15</time>
      </trkpt>
      <trkpt lat="43.30213" lon="-0.55187">
        <ele>158</ele>
        <time>2013-02-17T09:11:20</time>
      </trkpt>
      <trkpt lat="43.30205" lon="-0.55197">
        <ele>158</ele>
        <time>2013-02-17T09:11:25</time>
      </trkpt>
      <trkpt lat="43.30195" lon="-0.55207">
        <ele>157</ele>
        <time>2013-02-17T09:11:30</time>
      </trkpt>
      <trkpt lat="43.3019" lon="-0.55214">
        <ele>157</ele>
        <time>2013-02-17T09:11:35</time>
      </trkpt>
      <trkpt lat="43.30184" lon="-0.55225">
        <ele>157</ele>
        <time>2013-02-17T09:11:40</time>
      </trkpt>
      <trkpt lat="43.30182" lon="-0.55239">
        <ele>157</ele>
        <time>2013-02-17T09:11:45</time>
      </trkpt>
      <trkpt lat="43.30179" lon="-0.55255">
        <ele>159</ele>
        <time>2013-02-17T09:11:50</time>
      </trkpt>
      <trkpt lat="43.30175" lon="-0.55274">
        <ele>158</ele>
        <time>2013-02-17T09:11:55</time>
      </trkpt>
      <trkpt lat="43.30171" lon="-0.55281">
        <ele>159</ele>
        <time>2013-02-17T09:12:00</time>
      </trkpt>
      <trkpt lat="43.30171" lon="-0.55281">
        <ele>157</ele>
        <time>2013-02-17T09:12:05</time>
      </trkpt>
      <trkpt lat="43.30171" lon="-0.55281">
        <ele>157</ele>
        <time>2013-02-17T09:12:10</time>
      </trkpt>
      <trkpt lat="43.30171" lon="-0.55281">
        <ele>158</ele>
        <time>2013-02-17T09:12:15</time>
      </trkpt>
      <trkpt lat="43.30171" lon="-0.55281">
        <ele>158</ele>
        <time>2013-02-17T09:12:21</time>
      </trkpt>
      <trkpt lat="43.30171" lon="-0.55281">
        <ele>158</ele>
        <time>2013-02-17T09:12:26</time>
      </trkpt>
      <trkpt lat="43.30171" lon="-0.55281">
        <ele>157</ele>
        <time>2013-02-17T09:12:31</time>
      </trkpt>
      <trkpt lat="43.30171" lon="-0.55281">
        <ele>157</ele>
        <time>2013-02-17T09:12:36</time>
      </trkpt>
      <trkpt lat="43.30171" lon="-0.55281">
        <ele>157</ele>
        <time>2013-02-17T09:12:41</time>
      </trkpt>
      <trkpt lat="43.30171" lon="-0.55281">
        <ele>158</ele>
        <time>2013-02-17T09:12:46</time>
      </trkpt>
      <trkpt lat="43.30171" lon="-0.55281">
        <ele>158</ele>
        <time>2013-02-17T09:12:51</time>
      </trkpt>
      <trkpt lat="43.30171" lon="-0.55281">
        <ele>158</ele>
        <time>2013-02-17T09:12:56</time>
      </trkpt>
      <trkpt lat="43.30171" lon="-0.55281">
        <ele>157</ele>
        <time>2013-02-17T09:13:01</time>
      </trkpt>
      <trkpt lat="43.30171" lon="-0.55281">
        <ele>159</ele>
        <time>2013-02-17T09:13:06</time>
      </trkpt>
      <trkpt lat="43.30171" lon="-0.55281">
        <ele>158</ele>
        <time>2013-02-17T09:13:11</time>
      </trkpt>
      <trkpt lat="43.30171" lon="-0.55281">
        <ele>158</ele>
        <time>2013-02-17T09:13:16</time>
      </trkpt>
      <trkpt lat="43.30171" lon="-0.55281">
        <ele>158</ele>
        <time>2013-02-17T09:13:21</time>
      </trkpt>
      <trkpt lat="43.3017" lon="-0.55303">
        <ele>159</ele>
        <time>2013-02-17T09:13:26</time>
      </trkpt>
      <trkpt lat="43.30166" lon="-0.5532">
        <ele>159</ele>
        <time>2013-02-17T09:13:31</time>
      </trkpt>
      <trkpt lat="43.30161" lon="-0.55341">
        <ele>158</ele>
        <time>2013-02-17T09:13:36</time>
      </trkpt>
      <trkpt lat="43.30157" lon="-0.55355">
        <ele>158</ele>
        <time>2013-02-17T09:13:41</time>
      </trkpt>
      <trkpt lat="43.30149" lon="-0.55371">
        <ele>158</ele>
        <time>2013-02-17T09:13:46</time>
      </trkpt>
      <trkpt lat="43.3014" lon="-0.55382">
        <ele>160</ele>
        <time>2013-02-17T09:13:51</time>
      </trkpt>
      <trkpt lat="43.30123" lon="-0.55401">
        <ele>160</ele>
        <time>2013-02-17T09:13:56</time>
      </trkpt>
      <trkpt lat="43.30114" lon="-0.55417">
        <ele>162</ele>
        <time>2013-02-17T09:14:01</time>
      </trkpt>
      <trkpt lat="43.30106" lon="-0.55432">
        <ele>162</ele>
        <time>2013-02-17T09:14:07</time>
      </trkpt>
      <trkpt lat="43.30098" lon="-0.55449">
        <ele>162</ele>
        <time>2013-02-17T09:14:12</time>
      </trkpt>
      <trkpt lat="43.30095" lon="-0.55466">
        <ele>163</ele>
        <time>2013-02-17T09:14:17</time>
      </trkpt>
      <trkpt lat="43.30098" lon="-0.55475">
        <ele>163</ele>
        <time>2013-02-17T09:14:22</time>
      </trkpt>
      <trkpt lat="43.30098" lon="-0.55475">
        <ele>163</ele>
        <time>2013-02-17T09:14:27</time>
      </trkpt>
      <trkpt lat="43.30098" lon="-0.55475">
        <ele>163</ele>
        <time>2013-02-17T09:14:32</time>
      </trkpt>
      <trkpt lat="43.30098" lon="-0.55475">
        <ele>164</ele>
        <time>2013-02-17T09:14:37</time>
      </trkpt>
      <trkpt lat="43.30098" lon="-0.55475">
        <ele>164</ele>
        <time>2013-02-17T09:14:42</time>
      </trkpt>
      <trkpt lat="43.30098" lon="-0.55475">
        <ele>164</ele>
        <time>2013-02-17T09:14:47</time>
      </trkpt>
      <trkpt lat="43.30098" lon="-0.55475">
        <ele>163</ele>
        <time>2013-02-17T09:14:52</time>
      </trkpt>
      <trkpt lat="43.30098" lon="-0.55475">
        <ele>163</ele>
        <time>2013-02-17T09:14:57</time>
      </trkpt>
      <trkpt lat="43.30098" lon="-0.55475">
        <ele>163</ele>
        <time>2013-02-17T09:15:02</time>
      </trkpt>
      <trkpt lat="43.30098" lon="-0.55475">
        <ele>163</ele>
        <time>2013-02-17T09:15:07</time>
      </trkpt>
      <trkpt lat="43.30098" lon="-0.55475">
        <ele>164</ele>
        <time>2013-02-17T09:15:12</time>
      </trkpt>
      <trkpt lat="43.30094" lon="-0.55481">
        <ele>164</ele>
        <time>2013-02-17T09:15:17</time>
      </trkpt>
      <trkpt lat="43.30087" lon="-0.55478">
        <ele>165</ele>
        <time>2013-02-17T09:15:22</time>
      </trkpt>
      <trkpt lat="43.3008" lon="-0.55475">
        <ele>164</ele>
        <time>2013-02-17T09:15:27</time>
      </trkpt>
      <trkpt lat="43.30074" lon="-0.55471">
        <ele>165</ele>
        <time>2013-02-17T09:15:32</time>
      </trkpt>
      <trkpt lat="43.30067" lon="-0.55467">
        <ele>166</ele>
        <time>2013-02-17T09:15:37</time>
      </trkpt>
      <trkpt lat="43.3006" lon="-0.55459">
        <ele>165</ele>
        <time>2013-02-17T09:15:42</time>
      </trkpt>
      <trkpt lat="43.30049" lon="-0.55454">
        <ele>166</ele>
        <time>2013-02-17T09:15:47</time>
      </trkpt>
      <trkpt lat="43.3004" lon="-0.55458">
        <ele>166</ele>
        <time>2013-02-17T09:15:52</time>
      </trkpt>
      <trkpt lat="43.30034" lon="-0.55467">
        <ele>165</ele>
        <time>2013-02-17T09:15:57</time>
      </trkpt>
      <trkpt lat="43.3003" lon="-0.5548">
        <ele>167</ele>
        <time>2013-02-17T09:16:03</time>
      </trkpt>
      <trkpt lat="43.30023" lon="-0.55495">
        <ele>167</ele>
        <time>2013-02-17T09:16:08</time>
      </trkpt>
      <trkpt lat="43.30017" lon="-0.55509">
        <ele>168</ele>
        <time>2013-02-17T09:16:13</time>
      </trkpt>
      <trkpt lat="43.30013" lon="-0.55527">
        <ele>169</ele>
        <time>2013-02-17T09:16:18</time>
      </trkpt>
      <trkpt lat="43.30014" lon="-0.55548">
        <ele>170</ele>
        <time>2013-02-17T09:16:23</time>
      </trkpt>
      <trkpt lat="43.30016" lon="-0.55565">
        <ele>171</ele>
        <time>2013-02-17T09:16:28</time>
      </trkpt>
      <trkpt lat="43.30017" lon="-0.55581">
        <ele>174</ele>
        <time>2013-02-17T09:16:33</time>
      </trkpt>
      <trkpt lat="43.30018" lon="-0.55597">
        <ele>176</ele>
        <time>2013-02-17T09:16:38</time>
      </trkpt>
      <trkpt lat="43.30017" lon="-0.55612">
        <ele>177</ele>
        <time>2013-02-17T09:16:43</time>
      </trkpt>
      <trkpt lat="43.30015" lon="-0.55629">
        <ele>177</ele>
        <time>2013-02-17T09:16:48</time>
      </trkpt>
      <trkpt lat="43.30013" lon="-0.55645">
        <ele>177</ele>
        <time>2013-02-17T09:16:53</time>
      </trkpt>
      <trkpt lat="43.30009" lon="-0.55663">
        <ele>177</ele>
        <time>2013-02-17T09:16:58</time>
      </trkpt>
      <trkpt lat="43.30007" lon="-0.55675">
        <ele>179</ele>
        <time>2013-02-17T09:17:03</time>
      </trkpt>
      <trkpt lat="43.30006" lon="-0.55687">
        <ele>180</ele>
        <time>2013-02-17T09:17:08</time>
      </trkpt>
      <trkpt lat="43.30006" lon="-0.55689">
        <ele>180</ele>
        <time>2013-02-17T09:17:13</time>
      </trkpt>
      <trkpt lat="43.30006" lon="-0.55689">
        <ele>181</ele>
        <time>2013-02-17T09:17:18</time>
      </trkpt>
      <trkpt lat="43.30006" lon="-0.55689">
        <ele>181</ele>
        <time>2013-02-17T09:17:23</time>
      </trkpt>
      <trkpt lat="43.30006" lon="-0.55689">
        <ele>180</ele>
        <time>2013-02-17T09:17:28</time>
      </trkpt>
      <trkpt lat="43.30006" lon="-0.55689">
        <ele>180</ele>
        <time>2013-02-17T09:17:33</time>
      </trkpt>
      <trkpt lat="43.30006" lon="-0.55689">
        <ele>180</ele>
        <time>2013-02-17T09:17:38</time>
      </trkpt>
      <trkpt lat="43.30006" lon="-0.55689">
        <ele>181</ele>
        <time>2013-02-17T09:17:43</time>
      </trkpt>
      <trkpt lat="43.30006" lon="-0.55689">
        <ele>181</ele>
        <time>2013-02-17T09:17:48</time>
      </trkpt>
      <trkpt lat="43.30006" lon="-0.55689">
        <ele>181</ele>
        <time>2013-02-17T09:17:53</time>
      </trkpt>
      <trkpt lat="43.30006" lon="-0.55689">
        <ele>179</ele>
        <time>2013-02-17T09:17:59</time>
      </trkpt>
      <trkpt lat="43.30006" lon="-0.55689">
        <ele>179</ele>
        <time>2013-02-17T09:18:04</time>
      </trkpt>
      <trkpt lat="43.30006" lon="-0.55689">
        <ele>180</ele>
        <time>2013-02-17T09:18:09</time>
      </trkpt>
      <trkpt lat="43.30006" lon="-0.55707">
        <ele>181</ele>
        <time>2013-02-17T09:18:14</time>
      </trkpt>
      <trkpt lat="43.30006" lon="-0.55722">
        <ele>181</ele>
        <time>2013-02-17T09:18:19</time>
      </trkpt>
      <trkpt lat="43.30007" lon="-0.55738">
        <ele>182</ele>
        <time>2013-02-17T09:18:24</time>
      </trkpt>
      <trkpt lat="43.30007" lon="-0.55754">
        <ele>183</ele>
        <time>2013-02-17T09:18:29</time>
      </trkpt>
      <trkpt lat="43.30008" lon="-0.5577">
        <ele>184</ele>
        <time>2013-02-17T09:18:34</time>
      </trkpt>
      <trkpt lat="43.30009" lon="-0.55787">
        <ele>185</ele>
        <time>2013-02-17T09:18:39</time>
      </trkpt>
      <trkpt lat="43.3001" lon="-0.55803">
        <ele>185</ele>
        <time>2013-02-17T09:18:44</time>
      </trkpt>
      <trkpt lat="43.3001" lon="-0.55819">
        <ele>187</ele>
        <time>2013-02-17T09:18:49</time>
      </trkpt>
      <trkpt lat="43.30004" lon="-0.55831">
        <ele>189</ele>
        <time>2013-02-17T09:18:54</time>
      </trkpt>
      <trkpt lat="43.29991" lon="-0.55831">
        <ele>189</ele>
        <time>2013-02-17T09:18:59</time>
      </trkpt>
      <trkpt lat="43.29976" lon="-0.55823">
        <ele>190</ele>
        <time>2013-02-17T09:19:04</time>
      </trkpt>
      <trkpt lat="43.29961" lon="-0.55821">
        <ele>189</ele>
        <time>2013-02-17T09:19:09</time>
      </trkpt>
      <trkpt lat="43.29946" lon="-0.5582">
        <ele>189</ele>
        <time>2013-02-17T09:19:14</time>
      </trkpt>
      <trkpt lat="43.29931" lon="-0.55821">
        <ele>189</ele>
        <time>2013-02-17T09:19:19</time>
      </trkpt>
      <trkpt lat="43.29913" lon="-0.55817">
        <ele>189</ele>
        <time>2013-02-17T09:19:24</time>
      </trkpt>
      <trkpt lat="43.29898" lon="-0.55812">
        <ele>189</ele>
        <time>2013-02-17T09:19:29</time>
      </trkpt>
      <trkpt lat="43.29879" lon="-0.55805">
        <ele>188</ele>
        <time>2013-02-17T09:19:34</time>
      </trkpt>
      <trkpt lat="43.29852" lon="-0.55797">
        <ele>188</ele>
        <time>2013-02-17T09:19:39</time>
      </trkpt>
      <trkpt lat="43.29831" lon="-0.55791">
        <ele>187</ele>
        <time>2013-02-17T09:19:45</time>
      </trkpt>
      <trkpt lat="43.29811" lon="-0.55787">
        <ele>186</ele>
        <time>2013-02-17T09:19:50</time>
      </trkpt>
      <trkpt lat="43.29794" lon="-0.55783">
        <ele>188</ele>
        <time>2013-02-17T09:19:55</time>
      </trkpt>
      <trkpt lat="43.29778" lon="-0.55777">
        <ele>188</ele>
        <time>2013-02-17T09:20:00</time>
      </trkpt>
      <trkpt lat="43.29763" lon="-0.55771">
        <ele>189</ele>
        <time>2013-02-17T09:20:05</time>
      </trkpt>
      <trkpt lat="43.29747" lon="-0.55767">
        <ele>190</ele>
        <time>2013-02-17T09:20:10</time>
      </trkpt>
      <trkpt lat="43.2973" lon="-0.55763">
        <ele>188</ele>
        <time>2013-02-17T09:20:15</time>
      </trkpt>
      <trkpt lat="43.29712" lon="-0.55757">
        <ele>188</ele>
        <time>2013-02-17T09:20:20</time>
      </trkpt>
      <trkpt lat="43.29694" lon="-0.55748">
        <ele>188</ele>
        <time>2013-02-17T09:20:25</time>
      </trkpt>
      <trkpt lat="43.29676" lon="-0.55736">
        <ele>189</ele>
        <time>2013-02-17T09:20:30</time>
      </trkpt>
      <trkpt lat="43.2966" lon="-0.55727">
        <ele>190</ele>
        <time>2013-02-17T09:20:35</time>
      </trkpt>
      <trkpt lat="43.29642" lon="-0.55719">
        <ele>190</ele>
        <time>2013-02-17T09:20:40</time>
      </trkpt>
      <trkpt lat="43.29627" lon="-0.55712">
        <ele>189</ele>
        <time>2013-02-17T09:20:45</time>
      </trkpt>
      <trkpt lat="43.2961" lon="-0.55703">
        <ele>189</ele>
        <time>2013-02-17T09:20:50</time>
      </trkpt>
      <trkpt lat="43.29593" lon="-0.55696">
        <ele>191</ele>
        <time>2013-02-17T09:20:55</time>
      </trkpt>
      <trkpt lat="43.29572" lon="-0.55688">
        <ele>191</ele>
        <time>2013-02-17T09:21:00</time>
      </trkpt>
      <trkpt lat="43.29555" lon="-0.55681">
        <ele>191</ele>
        <time>2013-02-17T09:21:05</time>
      </trkpt>
      <trkpt lat="43.29542" lon="-0.55675">
        <ele>193</ele>
        <time>2013-02-17T09:21:10</time>
      </trkpt>
      <trkpt lat="43.29525" lon="-0.55668">
        <ele>193</ele>
        <time>2013-02-17T09:21:15</time>
      </trkpt>
      <trkpt lat="43.29508" lon="-0.55662">
        <ele>194</ele>
        <time>2013-02-17T09:21:20</time>
      </trkpt>
      <trkpt lat="43.2949" lon="-0.55658">
        <ele>195</ele>
        <time>2013-02-17T09:21:25</time>
      </trkpt>
      <trkpt lat="43.2947" lon="-0.55655">
        <ele>194</ele>
        <time>2013-02-17T09:21:30</time>
      </trkpt>
      <trkpt lat="43.29453" lon="-0.55655">
        <ele>194</ele>
        <time>2013-02-17T09:21:35</time>
      </trkpt>
      <trkpt lat="43.29435" lon="-0.55654">
        <ele>195</ele>
        <time>2013-02-17T09:21:40</time>
      </trkpt>
      <trkpt lat="43.2942" lon="-0.55651">
        <ele>195</ele>
        <time>2013-02-17T09:21:45</time>
      </trkpt>
      <trkpt lat="43.29408" lon="-0.55647">
        <ele>196</ele>
        <time>2013-02-17T09:21:51</time>
      </trkpt>
      <trkpt lat="43.29392" lon="-0.55642">
        <ele>197</ele>
        <time>2013-02-17T09:21:56</time>
      </trkpt>
      <trkpt lat="43.29375" lon="-0.55636">
        <ele>197</ele>
        <time>2013-02-17T09:22:01</time>
      </trkpt>
      <trkpt lat="43.29359" lon="-0.55628">
        <ele>199</ele>
        <time>2013-02-17T09:22:06</time>
      </trkpt>
      <trkpt lat="43.29341" lon="-0.5562">
        <ele>199</ele>
        <time>2013-02-17T09:22:11</time>
      </trkpt>
      <trkpt lat="43.29322" lon="-0.55612">
        <ele>197</ele>
        <time>2013-02-17T09:22:16</time>
      </trkpt>
      <trkpt lat="43.29303" lon="-0.556">
        <ele>198</ele>
        <time>2013-02-17T09:22:21</time>
      </trkpt>
      <trkpt lat="43.29285" lon="-0.55585">
        <ele>198</ele>
        <time>2013-02-17T09:22:26</time>
      </trkpt>
      <trkpt lat="43.29266" lon="-0.55575">
        <ele>198</ele>
        <time>2013-02-17T09:22:31</time>
      </trkpt>
      <trkpt lat="43.29247" lon="-0.55567">
        <ele>197</ele>
        <time>2013-02-17T09:22:36</time>
      </trkpt>
      <trkpt lat="43.29229" lon="-0.55558">
        <ele>199</ele>
        <time>2013-02-17T09:22:41</time>
      </trkpt>
      <trkpt lat="43.29207" lon="-0.55547">
        <ele>200</ele>
        <time>2013-02-17T09:22:46</time>
      </trkpt>
      <trkpt lat="43.29188" lon="-0.55539">
        <ele>200</ele>
        <time>2013-02-17T09:22:51</time>
      </trkpt>
      <trkpt lat="43.29174" lon="-0.55528">
        <ele>200</ele>
        <time>2013-02-17T09:22:56</time>
      </trkpt>
      <trkpt lat="43.29157" lon="-0.55515">
        <ele>201</ele>
        <time>2013-02-17T09:23:01</time>
      </trkpt>
      <trkpt lat="43.29143" lon="-0.55501">
        <ele>201</ele>
        <time>2013-02-17T09:23:06</time>
      </trkpt>
      <trkpt lat="43.29129" lon="-0.55489">
        <ele>202</ele>
        <time>2013-02-17T09:23:11</time>
      </trkpt>
      <trkpt lat="43.29113" lon="-0.55481">
        <ele>202</ele>
        <time>2013-02-17T09:23:16</time>
      </trkpt>
      <trkpt lat="43.29099" lon="-0.55481">
        <ele>202</ele>
        <time>2013-02-17T09:23:21</time>
      </trkpt>
      <trkpt lat="43.29085" lon="-0.55485">
        <ele>204</ele>
        <time>2013-02-17T09:23:26</time>
      </trkpt>
      <trkpt lat="43.29069" lon="-0.5549">
        <ele>204</ele>
        <time>2013-02-17T09:23:31</time>
      </trkpt>
      <trkpt lat="43.29052" lon="-0.55498">
        <ele>204</ele>
        <time>2013-02-17T09:23:36</time>
      </trkpt>
      <trkpt lat="43.29041" lon="-0.55502">
        <ele>205</ele>
        <time>2013-02-17T09:23:41</time>
      </trkpt>
      <trkpt lat="43.29028" lon="-0.55505">
        <ele>207</ele>
        <time>2013-02-17T09:23:46</time>
      </trkpt>
      <trkpt lat="43.2902" lon="-0.55507">
        <ele>207</ele>
        <time>2013-02-17T09:23:51</time>
      </trkpt>
      <trkpt lat="43.2902" lon="-0.55507">
        <ele>209</ele>
        <time>2013-02-17T09:23:56</time>
      </trkpt>
      <trkpt lat="43.2902" lon="-0.55507">
        <ele>210</ele>
        <time>2013-02-17T09:24:02</time>
      </trkpt>
      <trkpt lat="43.2902" lon="-0.55507">
        <ele>212</ele>
        <time>2013-02-17T09:24:07</time>
      </trkpt>
      <trkpt lat="43.2902" lon="-0.55507">
        <ele>209</ele>
        <time>2013-02-17T09:24:12</time>
      </trkpt>
      <trkpt lat="43.2902" lon="-0.55507">
        <ele>210</ele>
        <time>2013-02-17T09:24:17</time>
      </trkpt>
      <trkpt lat="43.29014" lon="-0.55516">
        <ele>209</ele>
        <time>2013-02-17T09:24:22</time>
      </trkpt>
      <trkpt lat="43.29002" lon="-0.55504">
        <ele>209</ele>
        <time>2013-02-17T09:24:27</time>
      </trkpt>
      <trkpt lat="43.28984" lon="-0.5549">
        <ele>208</ele>
        <time>2013-02-17T09:24:32</time>
      </trkpt>
      <trkpt lat="43.28968" lon="-0.55473">
        <ele>207</ele>
        <time>2013-02-17T09:24:37</time>
      </trkpt>
      <trkpt lat="43.28948" lon="-0.55457">
        <ele>207</ele>
        <time>2013-02-17T09:24:42</time>
      </trkpt>
      <trkpt lat="43.28931" lon="-0.55444">
        <ele>207</ele>
        <time>2013-02-17T09:24:47</time>
      </trkpt>
      <trkpt lat="43.28914" lon="-0.55428">
        <ele>206</ele>
        <time>2013-02-17T09:24:52</time>
      </trkpt>
      <trkpt lat="43.28904" lon="-0.55418">
        <ele>206</ele>
        <time>2013-02-17T09:24:57</time>
      </trkpt>
      <trkpt lat="43.28878" lon="-0.55399">
        <ele>206</ele>
        <time>2013-02-17T09:25:02</time>
      </trkpt>
      <trkpt lat="43.28861" lon="-0.55392">
        <ele>206</ele>
        <time>2013-02-17T09:25:07</time>
      </trkpt>
      <trkpt lat="43.28841" lon="-0.55384">
        <ele>206</ele>
        <time>2013-02-17T09:25:12</time>
      </trkpt>
      <trkpt lat="43.2882" lon="-0.55379">
        <ele>205</ele>
        <time>2013-02-17T09:25:17</time>
      </trkpt>
      <trkpt lat="43.28798" lon="-0.55377">
        <ele>204</ele>
        <time>2013-02-17T09:25:22</time>
      </trkpt>
      <trkpt lat="43.28773" lon="-0.55371">
        <ele>203</ele>
        <time>2013-02-17T09:25:27</time>
      </trkpt>
      <trkpt lat="43.28749" lon="-0.55364">
        <ele>203</ele>
        <time>2013-02-17T09:25:32</time>
      </trkpt>
      <trkpt lat="43.28725" lon="-0.55359">
        <ele>201</ele>
        <time>2013-02-17T09:25:37</time>
      </trkpt>
      <trkpt lat="43.28702" lon="-0.55358">
        <ele>201</ele>
        <time>2013-02-17T09:25:42</time>
      </trkpt>
      <trkpt lat="43.28679" lon="-0.55359">
        <ele>202</ele>
        <time>2013-02-17T09:25:47</time>
      </trkpt>
      <trkpt lat="43.28653" lon="-0.55359">
        <ele>200</ele>
        <time>2013-02-17T09:25:52</time>
      </trkpt>
      <trkpt lat="43.28631" lon="-0.5536">
        <ele>200</ele>
        <time>2013-02-17T09:25:57</time>
      </trkpt>
      <trkpt lat="43.2861" lon="-0.55363">
        <ele>200</ele>
        <time>2013-02-17T09:26:02</time>
      </trkpt>
      <trkpt lat="43.28589" lon="-0.55362">
        <ele>200</ele>
        <time>2013-02-17T09:26:07</time>
      </trkpt>
      <trkpt lat="43.28568" lon="-0.55355">
        <ele>201</ele>
        <time>2013-02-17T09:26:13</time>
      </trkpt>
      <trkpt lat="43.28553" lon="-0.55346">
        <ele>201</ele>
        <time>2013-02-17T09:26:17</time>
      </trkpt>
      <trkpt lat="43.28538" lon="-0.55346">
        <ele>200</ele>
        <time>2013-02-17T09:26:22</time>
      </trkpt>
      <trkpt lat="43.28524" lon="-0.55351">
        <ele>202</ele>
        <time>2013-02-17T09:26:27</time>
      </trkpt>
      <trkpt lat="43.28511" lon="-0.55355">
        <ele>204</ele>
        <time>2013-02-17T09:26:33</time>
      </trkpt>
      <trkpt lat="43.28498" lon="-0.55359">
        <ele>205</ele>
        <time>2013-02-17T09:26:38</time>
      </trkpt>
      <trkpt lat="43.28484" lon="-0.55364">
        <ele>207</ele>
        <time>2013-02-17T09:26:43</time>
      </trkpt>
      <trkpt lat="43.28468" lon="-0.5537">
        <ele>206</ele>
        <time>2013-02-17T09:26:48</time>
      </trkpt>
      <trkpt lat="43.28445" lon="-0.55377">
        <ele>207</ele>
        <time>2013-02-17T09:26:53</time>
      </trkpt>
      <trkpt lat="43.28426" lon="-0.55378">
        <ele>205</ele>
        <time>2013-02-17T09:26:58</time>
      </trkpt>
      <trkpt lat="43.28407" lon="-0.55377">
        <ele>208</ele>
        <time>2013-02-17T09:27:03</time>
      </trkpt>
      <trkpt lat="43.28389" lon="-0.55373">
        <ele>209</ele>
        <time>2013-02-17T09:27:08</time>
      </trkpt>
      <trkpt lat="43.28373" lon="-0.55369">
        <ele>210</ele>
        <time>2013-02-17T09:27:13</time>
      </trkpt>
      <trkpt lat="43.28357" lon="-0.55369">
        <ele>210</ele>
        <time>2013-02-17T09:27:18</time>
      </trkpt>
      <trkpt lat="43.28339" lon="-0.55369">
        <ele>210</ele>
        <time>2013-02-17T09:27:23</time>
      </trkpt>
      <trkpt lat="43.28325" lon="-0.55369">
        <ele>211</ele>
        <time>2013-02-17T09:27:28</time>
      </trkpt>
      <trkpt lat="43.28311" lon="-0.55369">
        <ele>213</ele>
        <time>2013-02-17T09:27:33</time>
      </trkpt>
      <trkpt lat="43.28298" lon="-0.5537">
        <ele>213</ele>
        <time>2013-02-17T09:27:38</time>
      </trkpt>
      <trkpt lat="43.28283" lon="-0.55369">
        <ele>214</ele>
        <time>2013-02-17T09:27:43</time>
      </trkpt>
      <trkpt lat="43.2827" lon="-0.55368">
        <ele>214</ele>
        <time>2013-02-17T09:27:48</time>
      </trkpt>
      <trkpt lat="43.2826" lon="-0.55366">
        <ele>217</ele>
        <time>2013-02-17T09:27:53</time>
      </trkpt>
      <trkpt lat="43.28247" lon="-0.55367">
        <ele>218</ele>
        <time>2013-02-17T09:27:58</time>
      </trkpt>
      <trkpt lat="43.28233" lon="-0.55366">
        <ele>220</ele>
        <time>2013-02-17T09:28:03</time>
      </trkpt>
      <trkpt lat="43.2822" lon="-0.55366">
        <ele>220</ele>
        <time>2013-02-17T09:28:08</time>
      </trkpt>
      <trkpt lat="43.28206" lon="-0.55364">
        <ele>222</ele>
        <time>2013-02-17T09:28:13</time>
      </trkpt>
      <trkpt lat="43.28194" lon="-0.55356">
        <ele>221</ele>
        <time>2013-02-17T09:28:18</time>
      </trkpt>
      <trkpt lat="43.28182" lon="-0.55346">
        <ele>223</ele>
        <time>2013-02-17T09:28:23</time>
      </trkpt>
      <trkpt lat="43.28167" lon="-0.55336">
        <ele>224</ele>
        <time>2013-02-17T09:28:28</time>
      </trkpt>
      <trkpt lat="43.28154" lon="-0.55328">
        <ele>222</ele>
        <time>2013-02-17T09:28:33</time>
      </trkpt>
      <trkpt lat="43.28141" lon="-0.55322">
        <ele>224</ele>
        <time>2013-02-17T09:28:38</time>
      </trkpt>
      <trkpt lat="43.2813" lon="-0.55317">
        <ele>224</ele>
        <time>2013-02-17T09:28:44</time>
      </trkpt>
      <trkpt lat="43.28126" lon="-0.55314">
        <ele>225</ele>
        <time>2013-02-17T09:28:49</time>
      </trkpt>
      <trkpt lat="43.28118" lon="-0.55309">
        <ele>225</ele>
        <time>2013-02-17T09:28:54</time>
      </trkpt>
      <trkpt lat="43.28114" lon="-0.55306">
        <ele>225</ele>
        <time>2013-02-17T09:28:59</time>
      </trkpt>
      <trkpt lat="43.28114" lon="-0.55306">
        <ele>226</ele>
        <time>2013-02-17T09:29:04</time>
      </trkpt>
      <trkpt lat="43.28114" lon="-0.55306">
        <ele>226</ele>
        <time>2013-02-17T09:29:09</time>
      </trkpt>
      <trkpt lat="43.28114" lon="-0.55306">
        <ele>225</ele>
        <time>2013-02-17T09:29:14</time>
      </trkpt>
      <trkpt lat="43.28114" lon="-0.55306">
        <ele>225</ele>
        <time>2013-02-17T09:29:19</time>
      </trkpt>
      <trkpt lat="43.28114" lon="-0.55306">
        <ele>226</ele>
        <time>2013-02-17T09:29:24</time>
      </trkpt>
      <trkpt lat="43.28102" lon="-0.55284">
        <ele>228</ele>
        <time>2013-02-17T09:29:29</time>
      </trkpt>
      <trkpt lat="43.28094" lon="-0.55279">
        <ele>228</ele>
        <time>2013-02-17T09:29:34</time>
      </trkpt>
      <trkpt lat="43.28085" lon="-0.55275">
        <ele>226</ele>
        <time>2013-02-17T09:29:39</time>
      </trkpt>
      <trkpt lat="43.28074" lon="-0.5527">
        <ele>228</ele>
        <time>2013-02-17T09:29:44</time>
      </trkpt>
      <trkpt lat="43.28064" lon="-0.55264">
        <ele>228</ele>
        <time>2013-02-17T09:29:49</time>
      </trkpt>
      <trkpt lat="43.28054" lon="-0.55258">
        <ele>229</ele>
        <time>2013-02-17T09:29:54</time>
      </trkpt>
      <trkpt lat="43.28043" lon="-0.55252">
        <ele>231</ele>
        <time>2013-02-17T09:29:59</time>
      </trkpt>
      <trkpt lat="43.28032" lon="-0.55247">
        <ele>233</ele>
        <time>2013-02-17T09:30:04</time>
      </trkpt>
      <trkpt lat="43.28021" lon="-0.55237">
        <ele>233</ele>
        <time>2013-02-17T09:30:09</time>
      </trkpt>
      <trkpt lat="43.28011" lon="-0.5523">
        <ele>234</ele>
        <time>2013-02-17T09:30:14</time>
      </trkpt>
      <trkpt lat="43.27999" lon="-0.55223">
        <ele>234</ele>
        <time>2013-02-17T09:30:19</time>
      </trkpt>
      <trkpt lat="43.27988" lon="-0.55214">
        <ele>236</ele>
        <time>2013-02-17T09:30:24</time>
      </trkpt>
      <trkpt lat="43.27978" lon="-0.55205">
        <ele>238</ele>
        <time>2013-02-17T09:30:29</time>
      </trkpt>
      <trkpt lat="43.27968" lon="-0.55196">
        <ele>238</ele>
        <time>2013-02-17T09:30:34</time>
      </trkpt>
      <trkpt lat="43.27958" lon="-0.55188">
        <ele>240</ele>
        <time>2013-02-17T09:30:39</time>
      </trkpt>
      <trkpt lat="43.27947" lon="-0.55181">
        <ele>241</ele>
        <time>2013-02-17T09:30:44</time>
      </trkpt>
      <trkpt lat="43.27936" lon="-0.55176">
        <ele>242</ele>
        <time>2013-02-17T09:30:50</time>
      </trkpt>
      <trkpt lat="43.27923" lon="-0.55169">
        <ele>242</ele>
        <time>2013-02-17T09:30:55</time>
      </trkpt>
      <trkpt lat="43.2791" lon="-0.55159">
        <ele>243</ele>
        <time>2013-02-17T09:31:00</time>
      </trkpt>
      <trkpt lat="43.27898" lon="-0.55148">
        <ele>244</ele>
        <time>2013-02-17T09:31:05</time>
      </trkpt>
      <trkpt lat="43.27885" lon="-0.55139">
        <ele>244</ele>
        <time>2013-02-17T09:31:10</time>
      </trkpt>
      <trkpt lat="43.27875" lon="-0.5513">
        <ele>246</ele>
        <time>2013-02-17T09:31:15</time>
      </trkpt>
      <trkpt lat="43.27864" lon="-0.5512">
        <ele>245</ele>
        <time>2013-02-17T09:31:20</time>
      </trkpt>
      <trkpt lat="43.27851" lon="-0.55109">
        <ele>246</ele>
        <time>2013-02-17T09:31:25</time>
      </trkpt>
      <trkpt lat="43.27836" lon="-0.55096">
        <ele>246</ele>
        <time>2013-02-17T09:31:30</time>
      </trkpt>
      <trkpt lat="43.27826" lon="-0.55085">
        <ele>248</ele>
        <time>2013-02-17T09:31:35</time>
      </trkpt>
      <trkpt lat="43.27816" lon="-0.55074">
        <ele>249</ele>
        <time>2013-02-17T09:31:40</time>
      </trkpt>
      <trkpt lat="43.27804" lon="-0.55063">
        <ele>249</ele>
        <time>2013-02-17T09:31:45</time>
      </trkpt>
      <trkpt lat="43.27792" lon="-0.55051">
        <ele>249</ele>
        <time>2013-02-17T09:31:50</time>
      </trkpt>
      <trkpt lat="43.27781" lon="-0.55041">
        <ele>250</ele>
        <time>2013-02-17T09:31:55</time>
      </trkpt>
      <trkpt lat="43.27769" lon="-0.5503">
        <ele>250</ele>
        <time>2013-02-17T09:32:00</time>
      </trkpt>
      <trkpt lat="43.27757" lon="-0.55019">
        <ele>250</ele>
        <time>2013-02-17T09:32:05</time>
      </trkpt>
      <trkpt lat="43.27746" lon="-0.55005">
        <ele>251</ele>
        <time>2013-02-17T09:32:10</time>
      </trkpt>
      <trkpt lat="43.27736" lon="-0.5499">
        <ele>250</ele>
        <time>2013-02-17T09:32:15</time>
      </trkpt>
      <trkpt lat="43.27729" lon="-0.54976">
        <ele>253</ele>
        <time>2013-02-17T09:32:20</time>
      </trkpt>
      <trkpt lat="43.2772" lon="-0.54961">
        <ele>254</ele>
        <time>2013-02-17T09:32:25</time>
      </trkpt>
      <trkpt lat="43.2771" lon="-0.5495">
        <ele>254</ele>
        <time>2013-02-17T09:32:30</time>
      </trkpt>
      <trkpt lat="43.27698" lon="-0.54942">
        <ele>256</ele>
        <time>2013-02-17T09:32:35</time>
      </trkpt>
      <trkpt lat="43.27685" lon="-0.54934">
        <ele>256</ele>
        <time>2013-02-17T09:32:40</time>
      </trkpt>
      <trkpt lat="43.27672" lon="-0.54924">
        <ele>257</ele>
        <time>2013-02-17T09:32:45</time>
      </trkpt>
      <trkpt lat="43.27663" lon="-0.54914">
        <ele>256</ele>
        <time>2013-02-17T09:32:50</time>
      </trkpt>
      <trkpt lat="43.27654" lon="-0.54901">
        <ele>256</ele>
        <time>2013-02-17T09:32:55</time>
      </trkpt>
      <trkpt lat="43.27646" lon="-0.54888">
        <ele>261</ele>
        <time>2013-02-17T09:33:00</time>
      </trkpt>
      <trkpt lat="43.27638" lon="-0.54876">
        <ele>262</ele>
        <time>2013-02-17T09:33:05</time>
      </trkpt>
      <trkpt lat="43.27627" lon="-0.54868">
        <ele>263</ele>
        <time>2013-02-17T09:33:10</time>
      </trkpt>
      <trkpt lat="43.27617" lon="-0.54863">
        <ele>263</ele>
        <time>2013-02-17T09:33:16</time>
      </trkpt>
      <trkpt lat="43.27607" lon="-0.54858">
        <ele>264</ele>
        <time>2013-02-17T09:33:21</time>
      </trkpt>
      <trkpt lat="43.27599" lon="-0.5485">
        <ele>266</ele>
        <time>2013-02-17T09:33:26</time>
      </trkpt>
      <trkpt lat="43.27589" lon="-0.54843">
        <ele>266</ele>
        <time>2013-02-17T09:33:31</time>
      </trkpt>
      <trkpt lat="43.27581" lon="-0.54834">
        <ele>269</ele>
        <time>2013-02-17T09:33:36</time>
      </trkpt>
      <trkpt lat="43.27571" lon="-0.54826">
        <ele>268</ele>
        <time>2013-02-17T09:33:41</time>
      </trkpt>
      <trkpt lat="43.27562" lon="-0.54821">
        <ele>268</ele>
        <time>2013-02-17T09:33:46</time>
      </trkpt>
      <trkpt lat="43.27553" lon="-0.54817">
        <ele>271</ele>
        <time>2013-02-17T09:33:51</time>
      </trkpt>
      <trkpt lat="43.27545" lon="-0.54812">
        <ele>275</ele>
        <time>2013-02-17T09:33:56</time>
      </trkpt>
      <trkpt lat="43.27536" lon="-0.54807">
        <ele>275</ele>
        <time>2013-02-17T09:34:01</time>
      </trkpt>
      <trkpt lat="43.27527" lon="-0.54801">
        <ele>275</ele>
        <time>2013-02-17T09:34:06</time>
      </trkpt>
      <trkpt lat="43.27519" lon="-0.54798">
        <ele>276</ele>
        <time>2013-02-17T09:34:11</time>
      </trkpt>
      <trkpt lat="43.27511" lon="-0.54796">
        <ele>277</ele>
        <time>2013-02-17T09:34:16</time>
      </trkpt>
      <trkpt lat="43.27504" lon="-0.54796">
        <ele>279</ele>
        <time>2013-02-17T09:34:21</time>
      </trkpt>
      <trkpt lat="43.27496" lon="-0.54795">
        <ele>279</ele>
        <time>2013-02-17T09:34:26</time>
      </trkpt>
      <trkpt lat="43.27488" lon="-0.54797">
        <ele>282</ele>
        <time>2013-02-17T09:34:31</time>
      </trkpt>
      <trkpt lat="43.27478" lon="-0.54796">
        <ele>282</ele>
        <time>2013-02-17T09:34:36</time>
      </trkpt>
      <trkpt lat="43.27467" lon="-0.54794">
        <ele>283</ele>
        <time>2013-02-17T09:34:41</time>
      </trkpt>
      <trkpt lat="43.27456" lon="-0.54791">
        <ele>285</ele>
        <time>2013-02-17T09:34:46</time>
      </trkpt>
      <trkpt lat="43.27446" lon="-0.54787">
        <ele>284</ele>
        <time>2013-02-17T09:34:51</time>
      </trkpt>
      <trkpt lat="43.27436" lon="-0.54782">
        <ele>288</ele>
        <time>2013-02-17T09:34:56</time>
      </trkpt>
      <trkpt lat="43.27427" lon="-0.54778">
        <ele>290</ele>
        <time>2013-02-17T09:35:01</time>
      </trkpt>
      <trkpt lat="43.27422" lon="-0.54773">
        <ele>290</ele>
        <time>2013-02-17T09:35:06</time>
      </trkpt>
      <trkpt lat="43.27414" lon="-0.54768">
        <ele>292</ele>
        <time>2013-02-17T09:35:11</time>
      </trkpt>
      <trkpt lat="43.27414" lon="-0.54768">
        <ele>292</ele>
        <time>2013-02-17T09:35:17</time>
      </trkpt>
      <trkpt lat="43.27403" lon="-0.54755">
        <ele>292</ele>
        <time>2013-02-17T09:35:22</time>
      </trkpt>
      <trkpt lat="43.27397" lon="-0.54747">
        <ele>294</ele>
        <time>2013-02-17T09:35:27</time>
      </trkpt>
      <trkpt lat="43.2739" lon="-0.54736">
        <ele>296</ele>
        <time>2013-02-17T09:35:32</time>
      </trkpt>
      <trkpt lat="43.27385" lon="-0.54726">
        <ele>295</ele>
        <time>2013-02-17T09:35:37</time>
      </trkpt>
      <trkpt lat="43.27378" lon="-0.54716">
        <ele>297</ele>
        <time>2013-02-17T09:35:42</time>
      </trkpt>
      <trkpt lat="43.2737" lon="-0.54707">
        <ele>297</ele>
        <time>2013-02-17T09:35:47</time>
      </trkpt>
      <trkpt lat="43.27362" lon="-0.54704">
        <ele>301</ele>
        <time>2013-02-17T09:35:52</time>
      </trkpt>
      <trkpt lat="43.27354" lon="-0.54702">
        <ele>300</ele>
        <time>2013-02-17T09:35:57</time>
      </trkpt>
      <trkpt lat="43.27347" lon="-0.54699">
        <ele>304</ele>
        <time>2013-02-17T09:36:02</time>
      </trkpt>
      <trkpt lat="43.27337" lon="-0.54694">
        <ele>304</ele>
        <time>2013-02-17T09:36:07</time>
      </trkpt>
      <trkpt lat="43.27327" lon="-0.54689">
        <ele>304</ele>
        <time>2013-02-17T09:36:12</time>
      </trkpt>
      <trkpt lat="43.27318" lon="-0.54682">
        <ele>307</ele>
        <time>2013-02-17T09:36:17</time>
      </trkpt>
      <trkpt lat="43.2731" lon="-0.54674">
        <ele>307</ele>
        <time>2013-02-17T09:36:22</time>
      </trkpt>
      <trkpt lat="43.27304" lon="-0.54665">
        <ele>308</ele>
        <time>2013-02-17T09:36:27</time>
      </trkpt>
      <trkpt lat="43.273" lon="-0.54659">
        <ele>309</ele>
        <time>2013-02-17T09:36:32</time>
      </trkpt>
      <trkpt lat="43.27295" lon="-0.5465">
        <ele>311</ele>
        <time>2013-02-17T09:36:37</time>
      </trkpt>
      <trkpt lat="43.2729" lon="-0.54639">
        <ele>309</ele>
        <time>2013-02-17T09:36:42</time>
      </trkpt>
      <trkpt lat="43.27286" lon="-0.54628">
        <ele>310</ele>
        <time>2013-02-17T09:36:47</time>
      </trkpt>
      <trkpt lat="43.27281" lon="-0.54616">
        <ele>311</ele>
        <time>2013-02-17T09:36:52</time>
      </trkpt>
      <trkpt lat="43.27275" lon="-0.54603">
        <ele>312</ele>
        <time>2013-02-17T09:36:57</time>
      </trkpt>
      <trkpt lat="43.27269" lon="-0.54591">
        <ele>313</ele>
        <time>2013-02-17T09:37:02</time>
      </trkpt>
      <trkpt lat="43.27263" lon="-0.54576">
        <ele>313</ele>
        <time>2013-02-17T09:37:07</time>
      </trkpt>
      <trkpt lat="43.27257" lon="-0.54563">
        <ele>313</ele>
        <time>2013-02-17T09:37:12</time>
      </trkpt>
      <trkpt lat="43.27251" lon="-0.5455">
        <ele>314</ele>
        <time>2013-02-17T09:37:17</time>
      </trkpt>
      <trkpt lat="43.27246" lon="-0.54538">
        <ele>316</ele>
        <time>2013-02-17T09:37:22</time>
      </trkpt>
      <trkpt lat="43.27241" lon="-0.54527">
        <ele>316</ele>
        <time>2013-02-17T09:37:27</time>
      </trkpt>
      <trkpt lat="43.27235" lon="-0.54514">
        <ele>316</ele>
        <time>2013-02-17T09:37:32</time>
      </trkpt>
      <trkpt lat="43.27229" lon="-0.545">
        <ele>317</ele>
        <time>2013-02-17T09:37:38</time>
      </trkpt>
      <trkpt lat="43.27221" lon="-0.54482">
        <ele>319</ele>
        <time>2013-02-17T09:37:43</time>
      </trkpt>
      <trkpt lat="43.27215" lon="-0.54466">
        <ele>318</ele>
        <time>2013-02-17T09:37:48</time>
      </trkpt>
      <trkpt lat="43.27208" lon="-0.54452">
        <ele>319</ele>
        <time>2013-02-17T09:37:53</time>
      </trkpt>
      <trkpt lat="43.27202" lon="-0.54437">
        <ele>319</ele>
        <time>2013-02-17T09:37:58</time>
      </trkpt>
      <trkpt lat="43.27198" lon="-0.54426">
        <ele>319</ele>
        <time>2013-02-17T09:38:03</time>
      </trkpt>
      <trkpt lat="43.27193" lon="-0.54416">
        <ele>322</ele>
        <time>2013-02-17T09:38:08</time>
      </trkpt>
      <trkpt lat="43.27193" lon="-0.54415">
        <ele>320</ele>
        <time>2013-02-17T09:38:13</time>
      </trkpt>
      <trkpt lat="43.27193" lon="-0.54415">
        <ele>321</ele>
        <time>2013-02-17T09:38:18</time>
      </trkpt>
      <trkpt lat="43.27193" lon="-0.54415">
        <ele>320</ele>
        <time>2013-02-17T09:38:23</time>
      </trkpt>
      <trkpt lat="43.27193" lon="-0.54415">
        <ele>321</ele>
        <time>2013-02-17T09:38:28</time>
      </trkpt>
      <trkpt lat="43.27193" lon="-0.54415">
        <ele>320</ele>
        <time>2013-02-17T09:38:33</time>
      </trkpt>
      <trkpt lat="43.27193" lon="-0.54415">
        <ele>319</ele>
        <time>2013-02-17T09:38:38</time>
      </trkpt>
      <trkpt lat="43.27193" lon="-0.54415">
        <ele>320</ele>
        <time>2013-02-17T09:38:43</time>
      </trkpt>
      <trkpt lat="43.27193" lon="-0.54415">
        <ele>321</ele>
        <time>2013-02-17T09:38:48</time>
      </trkpt>
      <trkpt lat="43.27193" lon="-0.54415">
        <ele>321</ele>
        <time>2013-02-17T09:38:53</time>
      </trkpt>
      <trkpt lat="43.27193" lon="-0.54415">
        <ele>321</ele>
        <time>2013-02-17T09:38:58</time>
      </trkpt>
      <trkpt lat="43.27193" lon="-0.54415">
        <ele>320</ele>
        <time>2013-02-17T09:39:03</time>
      </trkpt>
      <trkpt lat="43.27193" lon="-0.54415">
        <ele>320</ele>
        <time>2013-02-17T09:39:08</time>
      </trkpt>
      <trkpt lat="43.27193" lon="-0.54415">
        <ele>315</ele>
        <time>2013-02-17T09:39:13</time>
      </trkpt>
      <trkpt lat="43.27193" lon="-0.54415">
        <ele>321</ele>
        <time>2013-02-17T09:39:18</time>
      </trkpt>
      <trkpt lat="43.27193" lon="-0.54415">
        <ele>321</ele>
        <time>2013-02-17T09:39:23</time>
      </trkpt>
      <trkpt lat="43.27193" lon="-0.54415">
        <ele>320</ele>
        <time>2013-02-17T09:39:28</time>
      </trkpt>
      <trkpt lat="43.27193" lon="-0.54415">
        <ele>321</ele>
        <time>2013-02-17T09:39:33</time>
      </trkpt>
      <trkpt lat="43.27193" lon="-0.54415">
        <ele>320</ele>
        <time>2013-02-17T09:39:38</time>
      </trkpt>
      <trkpt lat="43.27193" lon="-0.54415">
        <ele>320</ele>
        <time>2013-02-17T09:39:43</time>
      </trkpt>
      <trkpt lat="43.27193" lon="-0.54415">
        <ele>319</ele>
        <time>2013-02-17T09:39:48</time>
      </trkpt>
      <trkpt lat="43.27193" lon="-0.54415">
        <ele>320</ele>
        <time>2013-02-17T09:39:53</time>
      </trkpt>
      <trkpt lat="43.27193" lon="-0.54415">
        <ele>320</ele>
        <time>2013-02-17T09:39:58</time>
      </trkpt>
      <trkpt lat="43.27193" lon="-0.54415">
        <ele>320</ele>
        <time>2013-02-17T09:40:03</time>
      </trkpt>
      <trkpt lat="43.27193" lon="-0.54415">
        <ele>320</ele>
        <time>2013-02-17T09:40:09</time>
      </trkpt>
      <trkpt lat="43.27193" lon="-0.54415">
        <ele>321</ele>
        <time>2013-02-17T09:40:14</time>
      </trkpt>
      <trkpt lat="43.27193" lon="-0.54415">
        <ele>321</ele>
        <time>2013-02-17T09:40:19</time>
      </trkpt>
      <trkpt lat="43.27193" lon="-0.54415">
        <ele>321</ele>
        <time>2013-02-17T09:40:24</time>
      </trkpt>
      <trkpt lat="43.27193" lon="-0.54415">
        <ele>320</ele>
        <time>2013-02-17T09:40:29</time>
      </trkpt>
      <trkpt lat="43.27193" lon="-0.54415">
        <ele>320</ele>
        <time>2013-02-17T09:40:34</time>
      </trkpt>
      <trkpt lat="43.27193" lon="-0.54415">
        <ele>320</ele>
        <time>2013-02-17T09:40:39</time>
      </trkpt>
      <trkpt lat="43.27193" lon="-0.54415">
        <ele>321</ele>
        <time>2013-02-17T09:40:44</time>
      </trkpt>
      <trkpt lat="43.27193" lon="-0.54415">
        <ele>321</ele>
        <time>2013-02-17T09:40:49</time>
      </trkpt>
      <trkpt lat="43.27193" lon="-0.54415">
        <ele>322</ele>
        <time>2013-02-17T09:40:54</time>
      </trkpt>
      <trkpt lat="43.27193" lon="-0.54415">
        <ele>322</ele>
        <time>2013-02-17T09:40:59</time>
      </trkpt>
      <trkpt lat="43.27193" lon="-0.54415">
        <ele>322</ele>
        <time>2013-02-17T09:41:04</time>
      </trkpt>
      <trkpt lat="43.27193" lon="-0.54415">
        <ele>323</ele>
        <time>2013-02-17T09:41:09</time>
      </trkpt>
      <trkpt lat="43.27193" lon="-0.54415">
        <ele>324</ele>
        <time>2013-02-17T09:41:14</time>
      </trkpt>
      <trkpt lat="43.27193" lon="-0.54415">
        <ele>322</ele>
        <time>2013-02-17T09:41:19</time>
      </trkpt>
      <trkpt lat="43.27193" lon="-0.54415">
        <ele>322</ele>
        <time>2013-02-17T09:41:24</time>
      </trkpt>
      <trkpt lat="43.27193" lon="-0.54415">
        <ele>323</ele>
        <time>2013-02-17T09:41:29</time>
      </trkpt>
      <trkpt lat="43.27193" lon="-0.54415">
        <ele>323</ele>
        <time>2013-02-17T09:41:34</time>
      </trkpt>
      <trkpt lat="43.27193" lon="-0.54415">
        <ele>323</ele>
        <time>2013-02-17T09:41:39</time>
      </trkpt>
      <trkpt lat="43.27193" lon="-0.54415">
        <ele>322</ele>
        <time>2013-02-17T09:41:44</time>
      </trkpt>
      <trkpt lat="43.27193" lon="-0.54415">
        <ele>321</ele>
        <time>2013-02-17T09:41:49</time>
      </trkpt>
      <trkpt lat="43.27193" lon="-0.54415">
        <ele>321</ele>
        <time>2013-02-17T09:41:54</time>
      </trkpt>
      <trkpt lat="43.27193" lon="-0.54415">
        <ele>321</ele>
        <time>2013-02-17T09:41:59</time>
      </trkpt>
      <trkpt lat="43.27193" lon="-0.54415">
        <ele>320</ele>
        <time>2013-02-17T09:42:04</time>
      </trkpt>
      <trkpt lat="43.27193" lon="-0.54415">
        <ele>321</ele>
        <time>2013-02-17T09:42:09</time>
      </trkpt>
      <trkpt lat="43.27193" lon="-0.54415">
        <ele>320</ele>
        <time>2013-02-17T09:42:15</time>
      </trkpt>
      <trkpt lat="43.27193" lon="-0.54415">
        <ele>321</ele>
        <time>2013-02-17T09:42:20</time>
      </trkpt>
      <trkpt lat="43.27193" lon="-0.54415">
        <ele>321</ele>
        <time>2013-02-17T09:42:25</time>
      </trkpt>
      <trkpt lat="43.27193" lon="-0.54415">
        <ele>320</ele>
        <time>2013-02-17T09:42:30</time>
      </trkpt>
      <trkpt lat="43.27193" lon="-0.54415">
        <ele>320</ele>
        <time>2013-02-17T09:42:35</time>
      </trkpt>
      <trkpt lat="43.27193" lon="-0.54415">
        <ele>320</ele>
        <time>2013-02-17T09:42:40</time>
      </trkpt>
      <trkpt lat="43.27193" lon="-0.54415">
        <ele>320</ele>
        <time>2013-02-17T09:42:45</time>
      </trkpt>
      <trkpt lat="43.27193" lon="-0.54415">
        <ele>320</ele>
        <time>2013-02-17T09:42:50</time>
      </trkpt>
      <trkpt lat="43.27193" lon="-0.54415">
        <ele>321</ele>
        <time>2013-02-17T09:42:55</time>
      </trkpt>
      <trkpt lat="43.27193" lon="-0.54415">
        <ele>321</ele>
        <time>2013-02-17T09:43:00</time>
      </trkpt>
      <trkpt lat="43.27193" lon="-0.54415">
        <ele>322</ele>
        <time>2013-02-17T09:43:05</time>
      </trkpt>
      <trkpt lat="43.27193" lon="-0.54415">
        <ele>320</ele>
        <time>2013-02-17T09:43:10</time>
      </trkpt>
      <trkpt lat="43.27193" lon="-0.54415">
        <ele>321</ele>
        <time>2013-02-17T09:43:15</time>
      </trkpt>
      <trkpt lat="43.27193" lon="-0.54415">
        <ele>323</ele>
        <time>2013-02-17T09:43:20</time>
      </trkpt>
      <trkpt lat="43.27193" lon="-0.54415">
        <ele>321</ele>
        <time>2013-02-17T09:43:25</time>
      </trkpt>
      <trkpt lat="43.27193" lon="-0.54415">
        <ele>321</ele>
        <time>2013-02-17T09:43:30</time>
      </trkpt>
      <trkpt lat="43.27193" lon="-0.54415">
        <ele>320</ele>
        <time>2013-02-17T09:43:35</time>
      </trkpt>
      <trkpt lat="43.27193" lon="-0.54415">
        <ele>321</ele>
        <time>2013-02-17T09:43:40</time>
      </trkpt>
      <trkpt lat="43.27193" lon="-0.54415">
        <ele>320</ele>
        <time>2013-02-17T09:43:45</time>
      </trkpt>
      <trkpt lat="43.27193" lon="-0.54415">
        <ele>321</ele>
        <time>2013-02-17T09:43:50</time>
      </trkpt>
      <trkpt lat="43.27193" lon="-0.54415">
        <ele>321</ele>
        <time>2013-02-17T09:43:55</time>
      </trkpt>
      <trkpt lat="43.27193" lon="-0.54415">
        <ele>320</ele>
        <time>2013-02-17T09:44:00</time>
      </trkpt>
      <trkpt lat="43.27193" lon="-0.54415">
        <ele>321</ele>
        <time>2013-02-17T09:44:06</time>
      </trkpt>
      <trkpt lat="43.27193" lon="-0.54415">
        <ele>321</ele>
        <time>2013-02-17T09:44:11</time>
      </trkpt>
      <trkpt lat="43.27193" lon="-0.54415">
        <ele>321</ele>
        <time>2013-02-17T09:44:16</time>
      </trkpt>
      <trkpt lat="43.27193" lon="-0.54415">
        <ele>321</ele>
        <time>2013-02-17T09:44:21</time>
      </trkpt>
      <trkpt lat="43.27193" lon="-0.54415">
        <ele>321</ele>
        <time>2013-02-17T09:44:26</time>
      </trkpt>
      <trkpt lat="43.27193" lon="-0.54415">
        <ele>321</ele>
        <time>2013-02-17T09:44:31</time>
      </trkpt>
      <trkpt lat="43.27193" lon="-0.54415">
        <ele>321</ele>
        <time>2013-02-17T09:44:36</time>
      </trkpt>
      <trkpt lat="43.27193" lon="-0.54415">
        <ele>321</ele>
        <time>2013-02-17T09:44:41</time>
      </trkpt>
      <trkpt lat="43.27193" lon="-0.54415">
        <ele>320</ele>
        <time>2013-02-17T09:44:46</time>
      </trkpt>
      <trkpt lat="43.27193" lon="-0.54415">
        <ele>321</ele>
        <time>2013-02-17T09:44:51</time>
      </trkpt>
      <trkpt lat="43.27193" lon="-0.54415">
        <ele>321</ele>
        <time>2013-02-17T09:44:56</time>
      </trkpt>
      <trkpt lat="43.27193" lon="-0.54415">
        <ele>321</ele>
        <time>2013-02-17T09:45:01</time>
      </trkpt>
      <trkpt lat="43.27193" lon="-0.54415">
        <ele>322</ele>
        <time>2013-02-17T09:45:06</time>
      </trkpt>
      <trkpt lat="43.27193" lon="-0.54415">
        <ele>322</ele>
        <time>2013-02-17T09:45:11</time>
      </trkpt>
      <trkpt lat="43.27193" lon="-0.54415">
        <ele>321</ele>
        <time>2013-02-17T09:45:16</time>
      </trkpt>
      <trkpt lat="43.27193" lon="-0.54415">
        <ele>322</ele>
        <time>2013-02-17T09:45:21</time>
      </trkpt>
      <trkpt lat="43.27193" lon="-0.54415">
        <ele>321</ele>
        <time>2013-02-17T09:45:26</time>
      </trkpt>
      <trkpt lat="43.27193" lon="-0.54415">
        <ele>321</ele>
        <time>2013-02-17T09:45:31</time>
      </trkpt>
      <trkpt lat="43.27193" lon="-0.54415">
        <ele>318</ele>
        <time>2013-02-17T09:45:36</time>
      </trkpt>
      <trkpt lat="43.27193" lon="-0.54415">
        <ele>321</ele>
        <time>2013-02-17T09:45:41</time>
      </trkpt>
      <trkpt lat="43.27193" lon="-0.54415">
        <ele>320</ele>
        <time>2013-02-17T09:45:46</time>
      </trkpt>
      <trkpt lat="43.27193" lon="-0.54415">
        <ele>323</ele>
        <time>2013-02-17T09:45:51</time>
      </trkpt>
      <trkpt lat="43.27193" lon="-0.54415">
        <ele>310</ele>
        <time>2013-02-17T09:45:56</time>
      </trkpt>
      <trkpt lat="43.27193" lon="-0.54415">
        <ele>317</ele>
        <time>2013-02-17T09:46:01</time>
      </trkpt>
      <trkpt lat="43.27193" lon="-0.54415">
        <ele>320</ele>
        <time>2013-02-17T09:46:07</time>
      </trkpt>
      <trkpt lat="43.27193" lon="-0.54415">
        <ele>321</ele>
        <time>2013-02-17T09:46:12</time>
      </trkpt>
      <trkpt lat="43.27193" lon="-0.54415">
        <ele>320</ele>
        <time>2013-02-17T09:46:17</time>
      </trkpt>
      <trkpt lat="43.27193" lon="-0.54415">
        <ele>320</ele>
        <time>2013-02-17T09:46:22</time>
      </trkpt>
      <trkpt lat="43.27193" lon="-0.54415">
        <ele>320</ele>
        <time>2013-02-17T09:46:27</time>
      </trkpt>
      <trkpt lat="43.27193" lon="-0.54415">
        <ele>320</ele>
        <time>2013-02-17T09:46:32</time>
      </trkpt>
      <trkpt lat="43.27193" lon="-0.54415">
        <ele>321</ele>
        <time>2013-02-17T09:46:37</time>
      </trkpt>
      <trkpt lat="43.27193" lon="-0.54415">
        <ele>320</ele>
        <time>2013-02-17T09:46:42</time>
      </trkpt>
      <trkpt lat="43.27193" lon="-0.54415">
        <ele>321</ele>
        <time>2013-02-17T09:46:47</time>
      </trkpt>
      <trkpt lat="43.27193" lon="-0.54415">
        <ele>321</ele>
        <time>2013-02-17T09:46:52</time>
      </trkpt>
      <trkpt lat="43.27193" lon="-0.54415">
        <ele>320</ele>
        <time>2013-02-17T09:46:57</time>
      </trkpt>
      <trkpt lat="43.27193" lon="-0.54415">
        <ele>320</ele>
        <time>2013-02-17T09:47:02</time>
      </trkpt>
      <trkpt lat="43.27193" lon="-0.54415">
        <ele>321</ele>
        <time>2013-02-17T09:47:07</time>
      </trkpt>
      <trkpt lat="43.27193" lon="-0.54415">
        <ele>321</ele>
        <time>2013-02-17T09:47:12</time>
      </trkpt>
      <trkpt lat="43.27193" lon="-0.54415">
        <ele>320</ele>
        <time>2013-02-17T09:47:17</time>
      </trkpt>
      <trkpt lat="43.27193" lon="-0.54415">
        <ele>320</ele>
        <time>2013-02-17T09:47:22</time>
      </trkpt>
      <trkpt lat="43.27193" lon="-0.54415">
        <ele>321</ele>
        <time>2013-02-17T09:47:27</time>
      </trkpt>
      <trkpt lat="43.27193" lon="-0.54415">
        <ele>321</ele>
        <time>2013-02-17T09:47:32</time>
      </trkpt>
      <trkpt lat="43.27193" lon="-0.54415">
        <ele>320</ele>
        <time>2013-02-17T09:47:37</time>
      </trkpt>
      <trkpt lat="43.27193" lon="-0.54415">
        <ele>320</ele>
        <time>2013-02-17T09:47:42</time>
      </trkpt>
      <trkpt lat="43.27193" lon="-0.54415">
        <ele>322</ele>
        <time>2013-02-17T09:47:47</time>
      </trkpt>
      <trkpt lat="43.27193" lon="-0.54415">
        <ele>323</ele>
        <time>2013-02-17T09:47:52</time>
      </trkpt>
      <trkpt lat="43.27193" lon="-0.54415">
        <ele>323</ele>
        <time>2013-02-17T09:47:57</time>
      </trkpt>
      <trkpt lat="43.27193" lon="-0.54415">
        <ele>320</ele>
        <time>2013-02-17T09:48:02</time>
      </trkpt>
      <trkpt lat="43.27193" lon="-0.54415">
        <ele>321</ele>
        <time>2013-02-17T09:48:07</time>
      </trkpt>
      <trkpt lat="43.27193" lon="-0.54415">
        <ele>321</ele>
        <time>2013-02-17T09:48:12</time>
      </trkpt>
      <trkpt lat="43.27193" lon="-0.54415">
        <ele>321</ele>
        <time>2013-02-17T09:48:17</time>
      </trkpt>
      <trkpt lat="43.27193" lon="-0.54415">
        <ele>321</ele>
        <time>2013-02-17T09:48:23</time>
      </trkpt>
      <trkpt lat="43.27193" lon="-0.54415">
        <ele>321</ele>
        <time>2013-02-17T09:48:27</time>
      </trkpt>
      <trkpt lat="43.27193" lon="-0.54415">
        <ele>320</ele>
        <time>2013-02-17T09:48:33</time>
      </trkpt>
      <trkpt lat="43.27193" lon="-0.54415">
        <ele>320</ele>
        <time>2013-02-17T09:48:38</time>
      </trkpt>
      <trkpt lat="43.27193" lon="-0.54415">
        <ele>320</ele>
        <time>2013-02-17T09:48:43</time>
      </trkpt>
      <trkpt lat="43.27193" lon="-0.54415">
        <ele>320</ele>
        <time>2013-02-17T09:48:48</time>
      </trkpt>
      <trkpt lat="43.27193" lon="-0.54415">
        <ele>320</ele>
        <time>2013-02-17T09:48:53</time>
      </trkpt>
      <trkpt lat="43.27193" lon="-0.54415">
        <ele>320</ele>
        <time>2013-02-17T09:48:58</time>
      </trkpt>
      <trkpt lat="43.27187" lon="-0.54406">
        <ele>318</ele>
        <time>2013-02-17T09:49:03</time>
      </trkpt>
      <trkpt lat="43.27178" lon="-0.54396">
        <ele>321</ele>
        <time>2013-02-17T09:49:08</time>
      </trkpt>
      <trkpt lat="43.27169" lon="-0.54388">
        <ele>320</ele>
        <time>2013-02-17T09:49:13</time>
      </trkpt>
      <trkpt lat="43.27158" lon="-0.54383">
        <ele>320</ele>
        <time>2013-02-17T09:49:18</time>
      </trkpt>
      <trkpt lat="43.27145" lon="-0.54378">
        <ele>320</ele>
        <time>2013-02-17T09:49:23</time>
      </trkpt>
      <trkpt lat="43.27136" lon="-0.54374">
        <ele>321</ele>
        <time>2013-02-17T09:49:28</time>
      </trkpt>
      <trkpt lat="43.27118" lon="-0.54367">
        <ele>321</ele>
        <time>2013-02-17T09:49:33</time>
      </trkpt>
      <trkpt lat="43.271" lon="-0.5436">
        <ele>320</ele>
        <time>2013-02-17T09:49:38</time>
      </trkpt>
      <trkpt lat="43.27085" lon="-0.54354">
        <ele>321</ele>
        <time>2013-02-17T09:49:43</time>
      </trkpt>
      <trkpt lat="43.27072" lon="-0.54349">
        <ele>323</ele>
        <time>2013-02-17T09:49:48</time>
      </trkpt>
      <trkpt lat="43.27058" lon="-0.54344">
        <ele>324</ele>
        <time>2013-02-17T09:49:53</time>
      </trkpt>
      <trkpt lat="43.27049" lon="-0.54341">
        <ele>324</ele>
        <time>2013-02-17T09:49:58</time>
      </trkpt>
      <trkpt lat="43.27027" lon="-0.54333">
        <ele>326</ele>
        <time>2013-02-17T09:50:03</time>
      </trkpt>
      <trkpt lat="43.27015" lon="-0.54329">
        <ele>327</ele>
        <time>2013-02-17T09:50:08</time>
      </trkpt>
      <trkpt lat="43.27002" lon="-0.54324">
        <ele>328</ele>
        <time>2013-02-17T09:50:13</time>
      </trkpt>
      <trkpt lat="43.26989" lon="-0.5432">
        <ele>328</ele>
        <time>2013-02-17T09:50:18</time>
      </trkpt>
      <trkpt lat="43.26976" lon="-0.54318">
        <ele>330</ele>
        <time>2013-02-17T09:50:23</time>
      </trkpt>
      <trkpt lat="43.26968" lon="-0.54317">
        <ele>330</ele>
        <time>2013-02-17T09:50:28</time>
      </trkpt>
      <trkpt lat="43.26946" lon="-0.54317">
        <ele>330</ele>
        <time>2013-02-17T09:50:33</time>
      </trkpt>
      <trkpt lat="43.26931" lon="-0.54317">
        <ele>330</ele>
        <time>2013-02-17T09:50:38</time>
      </trkpt>
      <trkpt lat="43.26916" lon="-0.54318">
        <ele>332</ele>
        <time>2013-02-17T09:50:43</time>
      </trkpt>
      <trkpt lat="43.26902" lon="-0.54318">
        <ele>332</ele>
        <time>2013-02-17T09:50:48</time>
      </trkpt>
      <trkpt lat="43.26887" lon="-0.5432">
        <ele>333</ele>
        <time>2013-02-17T09:50:53</time>
      </trkpt>
      <trkpt lat="43.26881" lon="-0.5432">
        <ele>334</ele>
        <time>2013-02-17T09:50:58</time>
      </trkpt>
      <trkpt lat="43.26862" lon="-0.5432">
        <ele>333</ele>
        <time>2013-02-17T09:51:03</time>
      </trkpt>
      <trkpt lat="43.26844" lon="-0.5432">
        <ele>333</ele>
        <time>2013-02-17T09:51:08</time>
      </trkpt>
      <trkpt lat="43.26828" lon="-0.5432">
        <ele>333</ele>
        <time>2013-02-17T09:51:13</time>
      </trkpt>
      <trkpt lat="43.26814" lon="-0.5432">
        <ele>334</ele>
        <time>2013-02-17T09:51:18</time>
      </trkpt>
      <trkpt lat="43.26796" lon="-0.54318">
        <ele>334</ele>
        <time>2013-02-17T09:51:24</time>
      </trkpt>
      <trkpt lat="43.26782" lon="-0.54316">
        <ele>335</ele>
        <time>2013-02-17T09:51:29</time>
      </trkpt>
      <trkpt lat="43.26774" lon="-0.54313">
        <ele>337</ele>
        <time>2013-02-17T09:51:34</time>
      </trkpt>
      <trkpt lat="43.26758" lon="-0.54305">
        <ele>337</ele>
        <time>2013-02-17T09:51:39</time>
      </trkpt>
      <trkpt lat="43.26746" lon="-0.54297">
        <ele>337</ele>
        <time>2013-02-17T09:51:44</time>
      </trkpt>
      <trkpt lat="43.26734" lon="-0.54287">
        <ele>339</ele>
        <time>2013-02-17T09:51:49</time>
      </trkpt>
      <trkpt lat="43.26729" lon="-0.54288">
        <ele>338</ele>
        <time>2013-02-17T09:51:54</time>
      </trkpt>
      <trkpt lat="43.26729" lon="-0.54288">
        <ele>338</ele>
        <time>2013-02-17T09:51:59</time>
      </trkpt>
      <trkpt lat="43.26729" lon="-0.54288">
        <ele>335</ele>
        <time>2013-02-17T09:52:04</time>
      </trkpt>
      <trkpt lat="43.26729" lon="-0.54288">
        <ele>335</ele>
        <time>2013-02-17T09:52:09</time>
      </trkpt>
      <trkpt lat="43.26729" lon="-0.54288">
        <ele>338</ele>
        <time>2013-02-17T09:52:14</time>
      </trkpt>
      <trkpt lat="43.26729" lon="-0.54288">
        <ele>337</ele>
        <time>2013-02-17T09:52:19</time>
      </trkpt>
      <trkpt lat="43.26729" lon="-0.54288">
        <ele>338</ele>
        <time>2013-02-17T09:52:24</time>
      </trkpt>
      <trkpt lat="43.26729" lon="-0.54288">
        <ele>338</ele>
        <time>2013-02-17T09:52:29</time>
      </trkpt>
      <trkpt lat="43.26729" lon="-0.54288">
        <ele>338</ele>
        <time>2013-02-17T09:52:34</time>
      </trkpt>
      <trkpt lat="43.26729" lon="-0.54288">
        <ele>338</ele>
        <time>2013-02-17T09:52:39</time>
      </trkpt>
      <trkpt lat="43.26729" lon="-0.54288">
        <ele>338</ele>
        <time>2013-02-17T09:52:44</time>
      </trkpt>
      <trkpt lat="43.26729" lon="-0.54288">
        <ele>338</ele>
        <time>2013-02-17T09:52:49</time>
      </trkpt>
      <trkpt lat="43.26729" lon="-0.54288">
        <ele>337</ele>
        <time>2013-02-17T09:52:54</time>
      </trkpt>
      <trkpt lat="43.26729" lon="-0.54288">
        <ele>338</ele>
        <time>2013-02-17T09:52:59</time>
      </trkpt>
      <trkpt lat="43.26721" lon="-0.54281">
        <ele>339</ele>
        <time>2013-02-17T09:53:04</time>
      </trkpt>
      <trkpt lat="43.26715" lon="-0.54243">
        <ele>336</ele>
        <time>2013-02-17T09:53:09</time>
      </trkpt>
      <trkpt lat="43.26709" lon="-0.54209">
        <ele>334</ele>
        <time>2013-02-17T09:53:14</time>
      </trkpt>
      <trkpt lat="43.26699" lon="-0.54172">
        <ele>333</ele>
        <time>2013-02-17T09:53:19</time>
      </trkpt>
      <trkpt lat="43.26685" lon="-0.54126">
        <ele>330</ele>
        <time>2013-02-17T09:53:24</time>
      </trkpt>
      <trkpt lat="43.26667" lon="-0.5409">
        <ele>330</ele>
        <time>2013-02-17T09:53:29</time>
      </trkpt>
      <trkpt lat="43.26641" lon="-0.54062">
        <ele>328</ele>
        <time>2013-02-17T09:53:34</time>
      </trkpt>
      <trkpt lat="43.26618" lon="-0.54045">
        <ele>327</ele>
        <time>2013-02-17T09:53:39</time>
      </trkpt>
      <trkpt lat="43.26601" lon="-0.54035">
        <ele>328</ele>
        <time>2013-02-17T09:53:44</time>
      </trkpt>
      <trkpt lat="43.26587" lon="-0.54028">
        <ele>328</ele>
        <time>2013-02-17T09:53:49</time>
      </trkpt>
      <trkpt lat="43.26571" lon="-0.54017">
        <ele>330</ele>
        <time>2013-02-17T09:53:54</time>
      </trkpt>
      <trkpt lat="43.26557" lon="-0.54003">
        <ele>331</ele>
        <time>2013-02-17T09:53:59</time>
      </trkpt>
      <trkpt lat="43.2654" lon="-0.53983">
        <ele>332</ele>
        <time>2013-02-17T09:54:04</time>
      </trkpt>
      <trkpt lat="43.26526" lon="-0.53964">
        <ele>333</ele>
        <time>2013-02-17T09:54:10</time>
      </trkpt>
      <trkpt lat="43.26509" lon="-0.53936">
        <ele>332</ele>
        <time>2013-02-17T09:54:15</time>
      </trkpt>
      <trkpt lat="43.26489" lon="-0.53909">
        <ele>329</ele>
        <time>2013-02-17T09:54:20</time>
      </trkpt>
      <trkpt lat="43.26464" lon="-0.53889">
        <ele>329</ele>
        <time>2013-02-17T09:54:25</time>
      </trkpt>
      <trkpt lat="43.2644" lon="-0.53869">
        <ele>328</ele>
        <time>2013-02-17T09:54:30</time>
      </trkpt>
      <trkpt lat="43.26431" lon="-0.53863">
        <ele>326</ele>
        <time>2013-02-17T09:54:35</time>
      </trkpt>
      <trkpt lat="43.26393" lon="-0.53855">
        <ele>325</ele>
        <time>2013-02-17T09:54:40</time>
      </trkpt>
      <trkpt lat="43.26365" lon="-0.53858">
        <ele>324</ele>
        <time>2013-02-17T09:54:45</time>
      </trkpt>
      <trkpt lat="43.26337" lon="-0.53867">
        <ele>324</ele>
        <time>2013-02-17T09:54:50</time>
      </trkpt>
      <trkpt lat="43.26309" lon="-0.53875">
        <ele>322</ele>
        <time>2013-02-17T09:54:55</time>
      </trkpt>
      <trkpt lat="43.2628" lon="-0.53882">
        <ele>321</ele>
        <time>2013-02-17T09:55:00</time>
      </trkpt>
      <trkpt lat="43.26251" lon="-0.53881">
        <ele>321</ele>
        <time>2013-02-17T09:55:05</time>
      </trkpt>
      <trkpt lat="43.26224" lon="-0.53874">
        <ele>319</ele>
        <time>2013-02-17T09:55:10</time>
      </trkpt>
      <trkpt lat="43.262" lon="-0.53862">
        <ele>319</ele>
        <time>2013-02-17T09:55:15</time>
      </trkpt>
      <trkpt lat="43.26179" lon="-0.53846">
        <ele>319</ele>
        <time>2013-02-17T09:55:20</time>
      </trkpt>
      <trkpt lat="43.26162" lon="-0.53828">
        <ele>320</ele>
        <time>2013-02-17T09:55:25</time>
      </trkpt>
      <trkpt lat="43.26145" lon="-0.53807">
        <ele>320</ele>
        <time>2013-02-17T09:55:30</time>
      </trkpt>
      <trkpt lat="43.26131" lon="-0.53791">
        <ele>320</ele>
        <time>2013-02-17T09:55:35</time>
      </trkpt>
      <trkpt lat="43.26118" lon="-0.53776">
        <ele>323</ele>
        <time>2013-02-17T09:55:40</time>
      </trkpt>
      <trkpt lat="43.26108" lon="-0.53763">
        <ele>323</ele>
        <time>2013-02-17T09:55:45</time>
      </trkpt>
      <trkpt lat="43.261" lon="-0.53753">
        <ele>323</ele>
        <time>2013-02-17T09:55:50</time>
      </trkpt>
      <trkpt lat="43.26091" lon="-0.53739">
        <ele>325</ele>
        <time>2013-02-17T09:55:55</time>
      </trkpt>
      <trkpt lat="43.26081" lon="-0.53727">
        <ele>325</ele>
        <time>2013-02-17T09:56:00</time>
      </trkpt>
      <trkpt lat="43.26073" lon="-0.53716">
        <ele>325</ele>
        <time>2013-02-17T09:56:05</time>
      </trkpt>
      <trkpt lat="43.26067" lon="-0.53708">
        <ele>328</ele>
        <time>2013-02-17T09:56:10</time>
      </trkpt>
      <trkpt lat="43.26059" lon="-0.537">
        <ele>330</ele>
        <time>2013-02-17T09:56:15</time>
      </trkpt>
      <trkpt lat="43.26048" lon="-0.53689">
        <ele>331</ele>
        <time>2013-02-17T09:56:20</time>
      </trkpt>
      <trkpt lat="43.2604" lon="-0.53683">
        <ele>332</ele>
        <time>2013-02-17T09:56:26</time>
      </trkpt>
      <trkpt lat="43.26033" lon="-0.53675">
        <ele>334</ele>
        <time>2013-02-17T09:56:31</time>
      </trkpt>
      <trkpt lat="43.26025" lon="-0.53665">
        <ele>335</ele>
        <time>2013-02-17T09:56:36</time>
      </trkpt>
      <trkpt lat="43.26017" lon="-0.53655">
        <ele>335</ele>
        <time>2013-02-17T09:56:41</time>
      </trkpt>
      <trkpt lat="43.26009" lon="-0.53644">
        <ele>338</ele>
        <time>2013-02-17T09:56:46</time>
      </trkpt>
      <trkpt lat="43.26003" lon="-0.53636">
        <ele>340</ele>
        <time>2013-02-17T09:56:51</time>
      </trkpt>
      <trkpt lat="43.25996" lon="-0.53626">
        <ele>338</ele>
        <time>2013-02-17T09:56:56</time>
      </trkpt>
      <trkpt lat="43.25988" lon="-0.53616">
        <ele>338</ele>
        <time>2013-02-17T09:57:01</time>
      </trkpt>
      <trkpt lat="43.25982" lon="-0.53608">
        <ele>340</ele>
        <time>2013-02-17T09:57:06</time>
      </trkpt>
      <trkpt lat="43.25975" lon="-0.53598">
        <ele>341</ele>
        <time>2013-02-17T09:57:11</time>
      </trkpt>
      <trkpt lat="43.2597" lon="-0.53588">
        <ele>341</ele>
        <time>2013-02-17T09:57:16</time>
      </trkpt>
      <trkpt lat="43.25966" lon="-0.53579">
        <ele>341</ele>
        <time>2013-02-17T09:57:21</time>
      </trkpt>
      <trkpt lat="43.25961" lon="-0.53565">
        <ele>342</ele>
        <time>2013-02-17T09:57:26</time>
      </trkpt>
      <trkpt lat="43.25956" lon="-0.53552">
        <ele>342</ele>
        <time>2013-02-17T09:57:31</time>
      </trkpt>
      <trkpt lat="43.25948" lon="-0.53536">
        <ele>343</ele>
        <time>2013-02-17T09:57:36</time>
      </trkpt>
      <trkpt lat="43.25942" lon="-0.53522">
        <ele>343</ele>
        <time>2013-02-17T09:57:41</time>
      </trkpt>
      <trkpt lat="43.25934" lon="-0.5351">
        <ele>344</ele>
        <time>2013-02-17T09:57:46</time>
      </trkpt>
      <trkpt lat="43.2593" lon="-0.53503">
        <ele>344</ele>
        <time>2013-02-17T09:57:51</time>
      </trkpt>
      <trkpt lat="43.25918" lon="-0.53489">
        <ele>343</ele>
        <time>2013-02-17T09:57:56</time>
      </trkpt>
      <trkpt lat="43.25906" lon="-0.53478">
        <ele>343</ele>
        <time>2013-02-17T09:58:01</time>
      </trkpt>
      <trkpt lat="43.25887" lon="-0.53461">
        <ele>343</ele>
        <time>2013-02-17T09:58:06</time>
      </trkpt>
      <trkpt lat="43.25873" lon="-0.5345">
        <ele>343</ele>
        <time>2013-02-17T09:58:11</time>
      </trkpt>
      <trkpt lat="43.25863" lon="-0.53444">
        <ele>342</ele>
        <time>2013-02-17T09:58:17</time>
      </trkpt>
      <trkpt lat="43.25857" lon="-0.53441">
        <ele>341</ele>
        <time>2013-02-17T09:58:22</time>
      </trkpt>
      <trkpt lat="43.25846" lon="-0.53435">
        <ele>342</ele>
        <time>2013-02-17T09:58:27</time>
      </trkpt>
      <trkpt lat="43.25837" lon="-0.5343">
        <ele>342</ele>
        <time>2013-02-17T09:58:32</time>
      </trkpt>
      <trkpt lat="43.25826" lon="-0.53422">
        <ele>343</ele>
        <time>2013-02-17T09:58:37</time>
      </trkpt>
      <trkpt lat="43.25816" lon="-0.53415">
        <ele>344</ele>
        <time>2013-02-17T09:58:42</time>
      </trkpt>
      <trkpt lat="43.25803" lon="-0.53404">
        <ele>345</ele>
        <time>2013-02-17T09:58:47</time>
      </trkpt>
      <trkpt lat="43.25792" lon="-0.53391">
        <ele>343</ele>
        <time>2013-02-17T09:58:52</time>
      </trkpt>
      <trkpt lat="43.2576" lon="-0.5337">
        <ele>341</ele>
        <time>2013-02-17T09:58:57</time>
      </trkpt>
      <trkpt lat="43.25727" lon="-0.53355">
        <ele>340</ele>
        <time>2013-02-17T09:59:02</time>
      </trkpt>
      <trkpt lat="43.25703" lon="-0.5331">
        <ele>338</ele>
        <time>2013-02-17T09:59:07</time>
      </trkpt>
      <trkpt lat="43.25692" lon="-0.53257">
        <ele>336</ele>
        <time>2013-02-17T09:59:12</time>
      </trkpt>
      <trkpt lat="43.25677" lon="-0.53206">
        <ele>332</ele>
        <time>2013-02-17T09:59:17</time>
      </trkpt>
      <trkpt lat="43.25653" lon="-0.53163">
        <ele>329</ele>
        <time>2013-02-17T09:59:22</time>
      </trkpt>
      <trkpt lat="43.25637" lon="-0.53145">
        <ele>329</ele>
        <time>2013-02-17T09:59:27</time>
      </trkpt>
      <trkpt lat="43.25615" lon="-0.53118">
        <ele>328</ele>
        <time>2013-02-17T09:59:32</time>
      </trkpt>
      <trkpt lat="43.25602" lon="-0.53106">
        <ele>328</ele>
        <time>2013-02-17T09:59:37</time>
      </trkpt>
      <trkpt lat="43.25588" lon="-0.53096">
        <ele>330</ele>
        <time>2013-02-17T09:59:42</time>
      </trkpt>
      <trkpt lat="43.25574" lon="-0.53088">
        <ele>330</ele>
        <time>2013-02-17T09:59:47</time>
      </trkpt>
      <trkpt lat="43.25561" lon="-0.53082">
        <ele>333</ele>
        <time>2013-02-17T09:59:52</time>
      </trkpt>
      <trkpt lat="43.25544" lon="-0.53077">
        <ele>333</ele>
        <time>2013-02-17T09:59:57</time>
      </trkpt>
      <trkpt lat="43.25528" lon="-0.53075">
        <ele>333</ele>
        <time>2013-02-17T10:00:02</time>
      </trkpt>
      <trkpt lat="43.25511" lon="-0.53073">
        <ele>334</ele>
        <time>2013-02-17T10:00:07</time>
      </trkpt>
      <trkpt lat="43.25491" lon="-0.53071">
        <ele>334</ele>
        <time>2013-02-17T10:00:13</time>
      </trkpt>
      <trkpt lat="43.25471" lon="-0.53067">
        <ele>335</ele>
        <time>2013-02-17T10:00:18</time>
      </trkpt>
      <trkpt lat="43.25453" lon="-0.53062">
        <ele>335</ele>
        <time>2013-02-17T10:00:23</time>
      </trkpt>
      <trkpt lat="43.25436" lon="-0.53053">
        <ele>336</ele>
        <time>2013-02-17T10:00:28</time>
      </trkpt>
      <trkpt lat="43.25426" lon="-0.53045">
        <ele>336</ele>
        <time>2013-02-17T10:00:33</time>
      </trkpt>
      <trkpt lat="43.25414" lon="-0.53034">
        <ele>337</ele>
        <time>2013-02-17T10:00:38</time>
      </trkpt>
      <trkpt lat="43.25402" lon="-0.53021">
        <ele>337</ele>
        <time>2013-02-17T10:00:43</time>
      </trkpt>
      <trkpt lat="43.25386" lon="-0.53009">
        <ele>340</ele>
        <time>2013-02-17T10:00:48</time>
      </trkpt>
      <trkpt lat="43.25373" lon="-0.53001">
        <ele>341</ele>
        <time>2013-02-17T10:00:53</time>
      </trkpt>
      <trkpt lat="43.25359" lon="-0.52987">
        <ele>340</ele>
        <time>2013-02-17T10:00:58</time>
      </trkpt>
      <trkpt lat="43.25348" lon="-0.5297">
        <ele>341</ele>
        <time>2013-02-17T10:01:03</time>
      </trkpt>
      <trkpt lat="43.2534" lon="-0.52952">
        <ele>341</ele>
        <time>2013-02-17T10:01:08</time>
      </trkpt>
      <trkpt lat="43.25329" lon="-0.52937">
        <ele>341</ele>
        <time>2013-02-17T10:01:13</time>
      </trkpt>
      <trkpt lat="43.25316" lon="-0.52922">
        <ele>341</ele>
        <time>2013-02-17T10:01:18</time>
      </trkpt>
      <trkpt lat="43.25299" lon="-0.52909">
        <ele>340</ele>
        <time>2013-02-17T10:01:23</time>
      </trkpt>
      <trkpt lat="43.25283" lon="-0.52895">
        <ele>340</ele>
        <time>2013-02-17T10:01:28</time>
      </trkpt>
      <trkpt lat="43.2527" lon="-0.52879">
        <ele>340</ele>
        <time>2013-02-17T10:01:33</time>
      </trkpt>
      <trkpt lat="43.25256" lon="-0.52862">
        <ele>340</ele>
        <time>2013-02-17T10:01:38</time>
      </trkpt>
      <trkpt lat="43.25243" lon="-0.52845">
        <ele>340</ele>
        <time>2013-02-17T10:01:43</time>
      </trkpt>
      <trkpt lat="43.25227" lon="-0.52823">
        <ele>341</ele>
        <time>2013-02-17T10:01:48</time>
      </trkpt>
      <trkpt lat="43.25211" lon="-0.52803">
        <ele>341</ele>
        <time>2013-02-17T10:01:53</time>
      </trkpt>
      <trkpt lat="43.25196" lon="-0.52784">
        <ele>340</ele>
        <time>2013-02-17T10:01:58</time>
      </trkpt>
      <trkpt lat="43.25181" lon="-0.52759">
        <ele>340</ele>
        <time>2013-02-17T10:02:03</time>
      </trkpt>
      <trkpt lat="43.25164" lon="-0.52733">
        <ele>340</ele>
        <time>2013-02-17T10:02:08</time>
      </trkpt>
      <trkpt lat="43.2515" lon="-0.52709">
        <ele>338</ele>
        <time>2013-02-17T10:02:13</time>
      </trkpt>
      <trkpt lat="43.25133" lon="-0.52675">
        <ele>337</ele>
        <time>2013-02-17T10:02:18</time>
      </trkpt>
      <trkpt lat="43.25124" lon="-0.52644">
        <ele>336</ele>
        <time>2013-02-17T10:02:23</time>
      </trkpt>
      <trkpt lat="43.25118" lon="-0.52633">
        <ele>337</ele>
        <time>2013-02-17T10:02:28</time>
      </trkpt>
      <trkpt lat="43.25113" lon="-0.52622">
        <ele>337</ele>
        <time>2013-02-17T10:02:33</time>
      </trkpt>
      <trkpt lat="43.25109" lon="-0.52607">
        <ele>336</ele>
        <time>2013-02-17T10:02:38</time>
      </trkpt>
      <trkpt lat="43.25107" lon="-0.52593">
        <ele>335</ele>
        <time>2013-02-17T10:02:43</time>
      </trkpt>
      <trkpt lat="43.25103" lon="-0.52579">
        <ele>336</ele>
        <time>2013-02-17T10:02:49</time>
      </trkpt>
      <trkpt lat="43.25099" lon="-0.52562">
        <ele>335</ele>
        <time>2013-02-17T10:02:54</time>
      </trkpt>
      <trkpt lat="43.25094" lon="-0.52546">
        <ele>335</ele>
        <time>2013-02-17T10:02:59</time>
      </trkpt>
      <trkpt lat="43.25089" lon="-0.52532">
        <ele>335</ele>
        <time>2013-02-17T10:03:04</time>
      </trkpt>
      <trkpt lat="43.25089" lon="-0.5253">
        <ele>335</ele>
        <time>2013-02-17T10:03:09</time>
      </trkpt>
      <trkpt lat="43.25089" lon="-0.5253">
        <ele>335</ele>
        <time>2013-02-17T10:03:14</time>
      </trkpt>
      <trkpt lat="43.25089" lon="-0.5253">
        <ele>336</ele>
        <time>2013-02-17T10:03:19</time>
      </trkpt>
      <trkpt lat="43.25089" lon="-0.5253">
        <ele>336</ele>
        <time>2013-02-17T10:03:24</time>
      </trkpt>
      <trkpt lat="43.25089" lon="-0.5253">
        <ele>336</ele>
        <time>2013-02-17T10:03:29</time>
      </trkpt>
      <trkpt lat="43.25089" lon="-0.5253">
        <ele>336</ele>
        <time>2013-02-17T10:03:34</time>
      </trkpt>
      <trkpt lat="43.25089" lon="-0.5253">
        <ele>336</ele>
        <time>2013-02-17T10:03:39</time>
      </trkpt>
      <trkpt lat="43.25089" lon="-0.5253">
        <ele>336</ele>
        <time>2013-02-17T10:03:44</time>
      </trkpt>
      <trkpt lat="43.25089" lon="-0.5253">
        <ele>336</ele>
        <time>2013-02-17T10:03:49</time>
      </trkpt>
      <trkpt lat="43.25089" lon="-0.5253">
        <ele>336</ele>
        <time>2013-02-17T10:03:54</time>
      </trkpt>
      <trkpt lat="43.25089" lon="-0.5253">
        <ele>335</ele>
        <time>2013-02-17T10:03:59</time>
      </trkpt>
      <trkpt lat="43.25089" lon="-0.5253">
        <ele>336</ele>
        <time>2013-02-17T10:04:04</time>
      </trkpt>
      <trkpt lat="43.25089" lon="-0.5253">
        <ele>336</ele>
        <time>2013-02-17T10:04:09</time>
      </trkpt>
      <trkpt lat="43.25089" lon="-0.5253">
        <ele>336</ele>
        <time>2013-02-17T10:04:14</time>
      </trkpt>
      <trkpt lat="43.25089" lon="-0.5253">
        <ele>336</ele>
        <time>2013-02-17T10:04:19</time>
      </trkpt>
      <trkpt lat="43.25089" lon="-0.5253">
        <ele>336</ele>
        <time>2013-02-17T10:04:24</time>
      </trkpt>
      <trkpt lat="43.25087" lon="-0.52513">
        <ele>336</ele>
        <time>2013-02-17T10:04:29</time>
      </trkpt>
      <trkpt lat="43.25077" lon="-0.52493">
        <ele>337</ele>
        <time>2013-02-17T10:04:34</time>
      </trkpt>
      <trkpt lat="43.2506" lon="-0.52464">
        <ele>336</ele>
        <time>2013-02-17T10:04:39</time>
      </trkpt>
      <trkpt lat="43.25034" lon="-0.52447">
        <ele>333</ele>
        <time>2013-02-17T10:04:45</time>
      </trkpt>
      <trkpt lat="43.24994" lon="-0.52422">
        <ele>333</ele>
        <time>2013-02-17T10:04:50</time>
      </trkpt>
      <trkpt lat="43.24956" lon="-0.52403">
        <ele>332</ele>
        <time>2013-02-17T10:04:55</time>
      </trkpt>
      <trkpt lat="43.24921" lon="-0.52377">
        <ele>333</ele>
        <time>2013-02-17T10:05:00</time>
      </trkpt>
      <trkpt lat="43.24889" lon="-0.52355">
        <ele>335</ele>
        <time>2013-02-17T10:05:05</time>
      </trkpt>
      <trkpt lat="43.24859" lon="-0.52336">
        <ele>335</ele>
        <time>2013-02-17T10:05:10</time>
      </trkpt>
      <trkpt lat="43.24831" lon="-0.52313">
        <ele>335</ele>
        <time>2013-02-17T10:05:15</time>
      </trkpt>
      <trkpt lat="43.24817" lon="-0.52302">
        <ele>337</ele>
        <time>2013-02-17T10:05:20</time>
      </trkpt>
      <trkpt lat="43.24812" lon="-0.52289">
        <ele>342</ele>
        <time>2013-02-17T10:05:25</time>
      </trkpt>
      <trkpt lat="43.24812" lon="-0.52285">
        <ele>341</ele>
        <time>2013-02-17T10:05:30</time>
      </trkpt>
      <trkpt lat="43.24812" lon="-0.52285">
        <ele>341</ele>
        <time>2013-02-17T10:05:35</time>
      </trkpt>
      <trkpt lat="43.24812" lon="-0.52285">
        <ele>340</ele>
        <time>2013-02-17T10:05:40</time>
      </trkpt>
      <trkpt lat="43.24812" lon="-0.52285">
        <ele>341</ele>
        <time>2013-02-17T10:05:45</time>
      </trkpt>
      <trkpt lat="43.24812" lon="-0.52285">
        <ele>341</ele>
        <time>2013-02-17T10:05:50</time>
      </trkpt>
      <trkpt lat="43.24812" lon="-0.52285">
        <ele>341</ele>
        <time>2013-02-17T10:05:55</time>
      </trkpt>
      <trkpt lat="43.24812" lon="-0.52285">
        <ele>341</ele>
        <time>2013-02-17T10:06:00</time>
      </trkpt>
      <trkpt lat="43.24812" lon="-0.52285">
        <ele>342</ele>
        <time>2013-02-17T10:06:05</time>
      </trkpt>
      <trkpt lat="43.24813" lon="-0.52274">
        <ele>341</ele>
        <time>2013-02-17T10:06:10</time>
      </trkpt>
      <trkpt lat="43.24817" lon="-0.52265">
        <ele>342</ele>
        <time>2013-02-17T10:06:15</time>
      </trkpt>
      <trkpt lat="43.2482" lon="-0.52254">
        <ele>340</ele>
        <time>2013-02-17T10:06:20</time>
      </trkpt>
      <trkpt lat="43.24828" lon="-0.52236">
        <ele>341</ele>
        <time>2013-02-17T10:06:25</time>
      </trkpt>
      <trkpt lat="43.24841" lon="-0.52205">
        <ele>341</ele>
        <time>2013-02-17T10:06:30</time>
      </trkpt>
      <trkpt lat="43.24851" lon="-0.52177">
        <ele>340</ele>
        <time>2013-02-17T10:06:35</time>
      </trkpt>
      <trkpt lat="43.24868" lon="-0.52135">
        <ele>335</ele>
        <time>2013-02-17T10:06:40</time>
      </trkpt>
      <trkpt lat="43.24889" lon="-0.52084">
        <ele>332</ele>
        <time>2013-02-17T10:06:45</time>
      </trkpt>
      <trkpt lat="43.2491" lon="-0.52067">
        <ele>328</ele>
        <time>2013-02-17T10:06:50</time>
      </trkpt>
      <trkpt lat="43.24918" lon="-0.52073">
        <ele>330</ele>
        <time>2013-02-17T10:06:55</time>
      </trkpt>
      <trkpt lat="43.24931" lon="-0.52079">
        <ele>330</ele>
        <time>2013-02-17T10:07:01</time>
      </trkpt>
      <trkpt lat="43.24943" lon="-0.52083">
        <ele>332</ele>
        <time>2013-02-17T10:07:06</time>
      </trkpt>
      <trkpt lat="43.24955" lon="-0.52082">
        <ele>332</ele>
        <time>2013-02-17T10:07:11</time>
      </trkpt>
      <trkpt lat="43.24963" lon="-0.52077">
        <ele>332</ele>
        <time>2013-02-17T10:07:16</time>
      </trkpt>
      <trkpt lat="43.24971" lon="-0.52078">
        <ele>331</ele>
        <time>2013-02-17T10:07:21</time>
      </trkpt>
      <trkpt lat="43.24983" lon="-0.52081">
        <ele>331</ele>
        <time>2013-02-17T10:07:26</time>
      </trkpt>
      <trkpt lat="43.24992" lon="-0.52078">
        <ele>332</ele>
        <time>2013-02-17T10:07:31</time>
      </trkpt>
      <trkpt lat="43.25005" lon="-0.52068">
        <ele>331</ele>
        <time>2013-02-17T10:07:36</time>
      </trkpt>
      <trkpt lat="43.25014" lon="-0.52066">
        <ele>330</ele>
        <time>2013-02-17T10:07:41</time>
      </trkpt>
      <trkpt lat="43.25024" lon="-0.5206">
        <ele>331</ele>
        <time>2013-02-17T10:07:46</time>
      </trkpt>
      <trkpt lat="43.25033" lon="-0.52056">
        <ele>333</ele>
        <time>2013-02-17T10:07:51</time>
      </trkpt>
      <trkpt lat="43.25042" lon="-0.52054">
        <ele>333</ele>
        <time>2013-02-17T10:07:56</time>
      </trkpt>
      <trkpt lat="43.25052" lon="-0.5205">
        <ele>333</ele>
        <time>2013-02-17T10:08:01</time>
      </trkpt>
      <trkpt lat="43.25057" lon="-0.52048">
        <ele>335</ele>
        <time>2013-02-17T10:08:06</time>
      </trkpt>
      <trkpt lat="43.25057" lon="-0.52048">
        <ele>334</ele>
        <time>2013-02-17T10:08:11</time>
      </trkpt>
      <trkpt lat="43.25057" lon="-0.52048">
        <ele>335</ele>
        <time>2013-02-17T10:08:16</time>
      </trkpt>
      <trkpt lat="43.25057" lon="-0.52048">
        <ele>336</ele>
        <time>2013-02-17T10:08:21</time>
      </trkpt>
      <trkpt lat="43.25057" lon="-0.52048">
        <ele>334</ele>
        <time>2013-02-17T10:08:26</time>
      </trkpt>
      <trkpt lat="43.25057" lon="-0.52048">
        <ele>334</ele>
        <time>2013-02-17T10:08:31</time>
      </trkpt>
      <trkpt lat="43.25057" lon="-0.52048">
        <ele>334</ele>
        <time>2013-02-17T10:08:36</time>
      </trkpt>
      <trkpt lat="43.25093" lon="-0.52042">
        <ele>333</ele>
        <time>2013-02-17T10:08:41</time>
      </trkpt>
      <trkpt lat="43.251" lon="-0.52042">
        <ele>335</ele>
        <time>2013-02-17T10:08:46</time>
      </trkpt>
      <trkpt lat="43.25106" lon="-0.5204">
        <ele>335</ele>
        <time>2013-02-17T10:08:51</time>
      </trkpt>
      <trkpt lat="43.25114" lon="-0.5204">
        <ele>337</ele>
        <time>2013-02-17T10:08:56</time>
      </trkpt>
      <trkpt lat="43.25121" lon="-0.52039">
        <ele>337</ele>
        <time>2013-02-17T10:09:01</time>
      </trkpt>
      <trkpt lat="43.25131" lon="-0.52037">
        <ele>335</ele>
        <time>2013-02-17T10:09:07</time>
      </trkpt>
      <trkpt lat="43.25142" lon="-0.52038">
        <ele>337</ele>
        <time>2013-02-17T10:09:12</time>
      </trkpt>
      <trkpt lat="43.25152" lon="-0.52034">
        <ele>338</ele>
        <time>2013-02-17T10:09:17</time>
      </trkpt>
      <trkpt lat="43.25161" lon="-0.5203">
        <ele>339</ele>
        <time>2013-02-17T10:09:22</time>
      </trkpt>
      <trkpt lat="43.25164" lon="-0.52029">
        <ele>339</ele>
        <time>2013-02-17T10:09:27</time>
      </trkpt>
      <trkpt lat="43.25164" lon="-0.52029">
        <ele>340</ele>
        <time>2013-02-17T10:09:32</time>
      </trkpt>
      <trkpt lat="43.25181" lon="-0.52016">
        <ele>340</ele>
        <time>2013-02-17T10:09:37</time>
      </trkpt>
      <trkpt lat="43.25193" lon="-0.5201">
        <ele>341</ele>
        <time>2013-02-17T10:09:42</time>
      </trkpt>
      <trkpt lat="43.25202" lon="-0.52004">
        <ele>341</ele>
        <time>2013-02-17T10:09:47</time>
      </trkpt>
      <trkpt lat="43.25209" lon="-0.51999">
        <ele>342</ele>
        <time>2013-02-17T10:09:52</time>
      </trkpt>
      <trkpt lat="43.25221" lon="-0.51993">
        <ele>342</ele>
        <time>2013-02-17T10:09:57</time>
      </trkpt>
      <trkpt lat="43.25235" lon="-0.51987">
        <ele>341</ele>
        <time>2013-02-17T10:10:02</time>
      </trkpt>
      <trkpt lat="43.25253" lon="-0.5198">
        <ele>340</ele>
        <time>2013-02-17T10:10:07</time>
      </trkpt>
      <trkpt lat="43.25281" lon="-0.51971">
        <ele>337</ele>
        <time>2013-02-17T10:10:12</time>
      </trkpt>
      <trkpt lat="43.25311" lon="-0.51977">
        <ele>332</ele>
        <time>2013-02-17T10:10:17</time>
      </trkpt>
      <trkpt lat="43.25335" lon="-0.51994">
        <ele>332</ele>
        <time>2013-02-17T10:10:22</time>
      </trkpt>
      <trkpt lat="43.2536" lon="-0.52016">
        <ele>330</ele>
        <time>2013-02-17T10:10:27</time>
      </trkpt>
      <trkpt lat="43.25381" lon="-0.52037">
        <ele>327</ele>
        <time>2013-02-17T10:10:32</time>
      </trkpt>
      <trkpt lat="43.25407" lon="-0.5206">
        <ele>325</ele>
        <time>2013-02-17T10:10:37</time>
      </trkpt>
      <trkpt lat="43.25419" lon="-0.52064">
        <ele>323</ele>
        <time>2013-02-17T10:10:42</time>
      </trkpt>
      <trkpt lat="43.25419" lon="-0.52064">
        <ele>322</ele>
        <time>2013-02-17T10:10:47</time>
      </trkpt>
      <trkpt lat="43.25419" lon="-0.52064">
        <ele>323</ele>
        <time>2013-02-17T10:10:52</time>
      </trkpt>
      <trkpt lat="43.25419" lon="-0.52064">
        <ele>321</ele>
        <time>2013-02-17T10:10:57</time>
      </trkpt>
      <trkpt lat="43.25419" lon="-0.52064">
        <ele>323</ele>
        <time>2013-02-17T10:11:02</time>
      </trkpt>
      <trkpt lat="43.25419" lon="-0.52064">
        <ele>324</ele>
        <time>2013-02-17T10:11:07</time>
      </trkpt>
      <trkpt lat="43.25445" lon="-0.52069">
        <ele>323</ele>
        <time>2013-02-17T10:11:12</time>
      </trkpt>
      <trkpt lat="43.25454" lon="-0.52068">
        <ele>321</ele>
        <time>2013-02-17T10:11:17</time>
      </trkpt>
      <trkpt lat="43.25464" lon="-0.52065">
        <ele>324</ele>
        <time>2013-02-17T10:11:22</time>
      </trkpt>
      <trkpt lat="43.25474" lon="-0.52062">
        <ele>324</ele>
        <time>2013-02-17T10:11:28</time>
      </trkpt>
      <trkpt lat="43.25481" lon="-0.52062">
        <ele>325</ele>
        <time>2013-02-17T10:11:33</time>
      </trkpt>
      <trkpt lat="43.25491" lon="-0.52065">
        <ele>326</ele>
        <time>2013-02-17T10:11:38</time>
      </trkpt>
      <trkpt lat="43.25506" lon="-0.52069">
        <ele>326</ele>
        <time>2013-02-17T10:11:43</time>
      </trkpt>
      <trkpt lat="43.25519" lon="-0.52072">
        <ele>329</ele>
        <time>2013-02-17T10:11:48</time>
      </trkpt>
      <trkpt lat="43.25532" lon="-0.52075">
        <ele>328</ele>
        <time>2013-02-17T10:11:53</time>
      </trkpt>
      <trkpt lat="43.25545" lon="-0.52082">
        <ele>330</ele>
        <time>2013-02-17T10:11:58</time>
      </trkpt>
      <trkpt lat="43.25557" lon="-0.52088">
        <ele>329</ele>
        <time>2013-02-17T10:12:03</time>
      </trkpt>
      <trkpt lat="43.25568" lon="-0.52096">
        <ele>329</ele>
        <time>2013-02-17T10:12:08</time>
      </trkpt>
      <trkpt lat="43.25581" lon="-0.52111">
        <ele>328</ele>
        <time>2013-02-17T10:12:13</time>
      </trkpt>
      <trkpt lat="43.256" lon="-0.52132">
        <ele>327</ele>
        <time>2013-02-17T10:12:18</time>
      </trkpt>
      <trkpt lat="43.25615" lon="-0.52152">
        <ele>326</ele>
        <time>2013-02-17T10:12:23</time>
      </trkpt>
      <trkpt lat="43.25627" lon="-0.52176">
        <ele>327</ele>
        <time>2013-02-17T10:12:28</time>
      </trkpt>
      <trkpt lat="43.25636" lon="-0.52205">
        <ele>326</ele>
        <time>2013-02-17T10:12:33</time>
      </trkpt>
      <trkpt lat="43.25647" lon="-0.52222">
        <ele>326</ele>
        <time>2013-02-17T10:12:38</time>
      </trkpt>
      <trkpt lat="43.25667" lon="-0.52237">
        <ele>326</ele>
        <time>2013-02-17T10:12:43</time>
      </trkpt>
      <trkpt lat="43.25691" lon="-0.52258">
        <ele>323</ele>
        <time>2013-02-17T10:12:48</time>
      </trkpt>
      <trkpt lat="43.2572" lon="-0.52264">
        <ele>320</ele>
        <time>2013-02-17T10:12:53</time>
      </trkpt>
      <trkpt lat="43.25745" lon="-0.52254">
        <ele>321</ele>
        <time>2013-02-17T10:12:58</time>
      </trkpt>
      <trkpt lat="43.25775" lon="-0.52236">
        <ele>318</ele>
        <time>2013-02-17T10:13:03</time>
      </trkpt>
      <trkpt lat="43.2581" lon="-0.52218">
        <ele>313</ele>
        <time>2013-02-17T10:13:08</time>
      </trkpt>
      <trkpt lat="43.25848" lon="-0.52216">
        <ele>306</ele>
        <time>2013-02-17T10:13:13</time>
      </trkpt>
      <trkpt lat="43.25861" lon="-0.52194">
        <ele>303</ele>
        <time>2013-02-17T10:13:18</time>
      </trkpt>
      <trkpt lat="43.25878" lon="-0.52153">
        <ele>301</ele>
        <time>2013-02-17T10:13:23</time>
      </trkpt>
      <trkpt lat="43.25898" lon="-0.52104">
        <ele>296</ele>
        <time>2013-02-17T10:13:28</time>
      </trkpt>
      <trkpt lat="43.25914" lon="-0.52066">
        <ele>288</ele>
        <time>2013-02-17T10:13:33</time>
      </trkpt>
      <trkpt lat="43.2592" lon="-0.52034">
        <ele>283</ele>
        <time>2013-02-17T10:13:39</time>
      </trkpt>
      <trkpt lat="43.25932" lon="-0.52005">
        <ele>279</ele>
        <time>2013-02-17T10:13:44</time>
      </trkpt>
      <trkpt lat="43.25948" lon="-0.5197">
        <ele>274</ele>
        <time>2013-02-17T10:13:49</time>
      </trkpt>
      <trkpt lat="43.2597" lon="-0.51935">
        <ele>268</ele>
        <time>2013-02-17T10:13:54</time>
      </trkpt>
      <trkpt lat="43.26" lon="-0.51923">
        <ele>264</ele>
        <time>2013-02-17T10:13:59</time>
      </trkpt>
      <trkpt lat="43.26026" lon="-0.51919">
        <ele>257</ele>
        <time>2013-02-17T10:14:04</time>
      </trkpt>
      <trkpt lat="43.26042" lon="-0.51908">
        <ele>255</ele>
        <time>2013-02-17T10:14:09</time>
      </trkpt>
      <trkpt lat="43.26065" lon="-0.51901">
        <ele>250</ele>
        <time>2013-02-17T10:14:14</time>
      </trkpt>
      <trkpt lat="43.26071" lon="-0.51896">
        <ele>247</ele>
        <time>2013-02-17T10:14:19</time>
      </trkpt>
      <trkpt lat="43.26071" lon="-0.51896">
        <ele>247</ele>
        <time>2013-02-17T10:14:24</time>
      </trkpt>
      <trkpt lat="43.26071" lon="-0.51896">
        <ele>248</ele>
        <time>2013-02-17T10:14:29</time>
      </trkpt>
      <trkpt lat="43.26071" lon="-0.51896">
        <ele>248</ele>
        <time>2013-02-17T10:14:34</time>
      </trkpt>
      <trkpt lat="43.26071" lon="-0.51896">
        <ele>248</ele>
        <time>2013-02-17T10:14:39</time>
      </trkpt>
      <trkpt lat="43.26071" lon="-0.51896">
        <ele>249</ele>
        <time>2013-02-17T10:14:44</time>
      </trkpt>
      <trkpt lat="43.26071" lon="-0.51896">
        <ele>248</ele>
        <time>2013-02-17T10:14:49</time>
      </trkpt>
      <trkpt lat="43.26071" lon="-0.51896">
        <ele>249</ele>
        <time>2013-02-17T10:14:54</time>
      </trkpt>
      <trkpt lat="43.2607" lon="-0.51882">
        <ele>249</ele>
        <time>2013-02-17T10:14:59</time>
      </trkpt>
      <trkpt lat="43.26071" lon="-0.5188">
        <ele>247</ele>
        <time>2013-02-17T10:15:04</time>
      </trkpt>
      <trkpt lat="43.26085" lon="-0.5188">
        <ele>245</ele>
        <time>2013-02-17T10:15:09</time>
      </trkpt>
      <trkpt lat="43.26086" lon="-0.5188">
        <ele>246</ele>
        <time>2013-02-17T10:15:14</time>
      </trkpt>
      <trkpt lat="43.26086" lon="-0.5188">
        <ele>246</ele>
        <time>2013-02-17T10:15:19</time>
      </trkpt>
      <trkpt lat="43.26086" lon="-0.5188">
        <ele>245</ele>
        <time>2013-02-17T10:15:24</time>
      </trkpt>
      <trkpt lat="43.26086" lon="-0.5188">
        <ele>245</ele>
        <time>2013-02-17T10:15:29</time>
      </trkpt>
      <trkpt lat="43.26086" lon="-0.5188">
        <ele>246</ele>
        <time>2013-02-17T10:15:35</time>
      </trkpt>
      <trkpt lat="43.26086" lon="-0.5188">
        <ele>247</ele>
        <time>2013-02-17T10:15:40</time>
      </trkpt>
      <trkpt lat="43.26086" lon="-0.5188">
        <ele>246</ele>
        <time>2013-02-17T10:15:45</time>
      </trkpt>
      <trkpt lat="43.26086" lon="-0.5188">
        <ele>246</ele>
        <time>2013-02-17T10:15:50</time>
      </trkpt>
      <trkpt lat="43.26086" lon="-0.5188">
        <ele>245</ele>
        <time>2013-02-17T10:15:55</time>
      </trkpt>
      <trkpt lat="43.26086" lon="-0.5188">
        <ele>246</ele>
        <time>2013-02-17T10:16:00</time>
      </trkpt>
      <trkpt lat="43.26086" lon="-0.5188">
        <ele>247</ele>
        <time>2013-02-17T10:16:05</time>
      </trkpt>
      <trkpt lat="43.26086" lon="-0.5188">
        <ele>246</ele>
        <time>2013-02-17T10:16:10</time>
      </trkpt>
      <trkpt lat="43.26086" lon="-0.5188">
        <ele>247</ele>
        <time>2013-02-17T10:16:15</time>
      </trkpt>
      <trkpt lat="43.26086" lon="-0.5188">
        <ele>246</ele>
        <time>2013-02-17T10:16:20</time>
      </trkpt>
      <trkpt lat="43.26086" lon="-0.5188">
        <ele>246</ele>
        <time>2013-02-17T10:16:25</time>
      </trkpt>
      <trkpt lat="43.26086" lon="-0.5188">
        <ele>247</ele>
        <time>2013-02-17T10:16:30</time>
      </trkpt>
      <trkpt lat="43.26086" lon="-0.5188">
        <ele>246</ele>
        <time>2013-02-17T10:16:35</time>
      </trkpt>
      <trkpt lat="43.26086" lon="-0.5188">
        <ele>247</ele>
        <time>2013-02-17T10:16:40</time>
      </trkpt>
      <trkpt lat="43.26086" lon="-0.5188">
        <ele>245</ele>
        <time>2013-02-17T10:16:45</time>
      </trkpt>
      <trkpt lat="43.26086" lon="-0.5188">
        <ele>246</ele>
        <time>2013-02-17T10:16:50</time>
      </trkpt>
      <trkpt lat="43.26086" lon="-0.5188">
        <ele>246</ele>
        <time>2013-02-17T10:16:55</time>
      </trkpt>
      <trkpt lat="43.26086" lon="-0.5188">
        <ele>247</ele>
        <time>2013-02-17T10:17:00</time>
      </trkpt>
      <trkpt lat="43.26086" lon="-0.5188">
        <ele>246</ele>
        <time>2013-02-17T10:17:05</time>
      </trkpt>
      <trkpt lat="43.26086" lon="-0.5188">
        <ele>246</ele>
        <time>2013-02-17T10:17:10</time>
      </trkpt>
      <trkpt lat="43.26086" lon="-0.5188">
        <ele>246</ele>
        <time>2013-02-17T10:17:15</time>
      </trkpt>
      <trkpt lat="43.26086" lon="-0.5188">
        <ele>246</ele>
        <time>2013-02-17T10:17:20</time>
      </trkpt>
      <trkpt lat="43.26086" lon="-0.5188">
        <ele>246</ele>
        <time>2013-02-17T10:17:25</time>
      </trkpt>
      <trkpt lat="43.26086" lon="-0.5188">
        <ele>247</ele>
        <time>2013-02-17T10:17:30</time>
      </trkpt>
      <trkpt lat="43.26086" lon="-0.5188">
        <ele>246</ele>
        <time>2013-02-17T10:17:35</time>
      </trkpt>
      <trkpt lat="43.26086" lon="-0.5188">
        <ele>246</ele>
        <time>2013-02-17T10:17:40</time>
      </trkpt>
      <trkpt lat="43.26086" lon="-0.5188">
        <ele>247</ele>
        <time>2013-02-17T10:17:45</time>
      </trkpt>
      <trkpt lat="43.26086" lon="-0.5188">
        <ele>247</ele>
        <time>2013-02-17T10:17:50</time>
      </trkpt>
      <trkpt lat="43.26086" lon="-0.5188">
        <ele>247</ele>
        <time>2013-02-17T10:17:55</time>
      </trkpt>
      <trkpt lat="43.26086" lon="-0.5188">
        <ele>246</ele>
        <time>2013-02-17T10:18:00</time>
      </trkpt>
      <trkpt lat="43.26086" lon="-0.5188">
        <ele>246</ele>
        <time>2013-02-17T10:18:05</time>
      </trkpt>
      <trkpt lat="43.26086" lon="-0.5188">
        <ele>247</ele>
        <time>2013-02-17T10:18:11</time>
      </trkpt>
      <trkpt lat="43.26086" lon="-0.5188">
        <ele>246</ele>
        <time>2013-02-17T10:18:16</time>
      </trkpt>
      <trkpt lat="43.26086" lon="-0.5188">
        <ele>246</ele>
        <time>2013-02-17T10:18:21</time>
      </trkpt>
      <trkpt lat="43.26086" lon="-0.5188">
        <ele>247</ele>
        <time>2013-02-17T10:18:26</time>
      </trkpt>
      <trkpt lat="43.26086" lon="-0.5188">
        <ele>247</ele>
        <time>2013-02-17T10:18:31</time>
      </trkpt>
      <trkpt lat="43.26086" lon="-0.5188">
        <ele>246</ele>
        <time>2013-02-17T10:18:36</time>
      </trkpt>
      <trkpt lat="43.26086" lon="-0.5188">
        <ele>246</ele>
        <time>2013-02-17T10:18:41</time>
      </trkpt>
      <trkpt lat="43.26086" lon="-0.5188">
        <ele>246</ele>
        <time>2013-02-17T10:18:46</time>
      </trkpt>
      <trkpt lat="43.26086" lon="-0.5188">
        <ele>246</ele>
        <time>2013-02-17T10:18:51</time>
      </trkpt>
      <trkpt lat="43.26086" lon="-0.5188">
        <ele>246</ele>
        <time>2013-02-17T10:18:56</time>
      </trkpt>
      <trkpt lat="43.26086" lon="-0.5188">
        <ele>246</ele>
        <time>2013-02-17T10:19:01</time>
      </trkpt>
      <trkpt lat="43.26086" lon="-0.5188">
        <ele>246</ele>
        <time>2013-02-17T10:19:06</time>
      </trkpt>
      <trkpt lat="43.26086" lon="-0.5188">
        <ele>246</ele>
        <time>2013-02-17T10:19:11</time>
      </trkpt>
      <trkpt lat="43.26086" lon="-0.5188">
        <ele>246</ele>
        <time>2013-02-17T10:19:16</time>
      </trkpt>
      <trkpt lat="43.26086" lon="-0.5188">
        <ele>245</ele>
        <time>2013-02-17T10:19:21</time>
      </trkpt>
      <trkpt lat="43.26086" lon="-0.5188">
        <ele>245</ele>
        <time>2013-02-17T10:19:26</time>
      </trkpt>
      <trkpt lat="43.26086" lon="-0.5188">
        <ele>245</ele>
        <time>2013-02-17T10:19:31</time>
      </trkpt>
      <trkpt lat="43.26098" lon="-0.51875">
        <ele>246</ele>
        <time>2013-02-17T10:19:36</time>
      </trkpt>
      <trkpt lat="43.2611" lon="-0.51883">
        <ele>246</ele>
        <time>2013-02-17T10:19:41</time>
      </trkpt>
      <trkpt lat="43.26125" lon="-0.51894">
        <ele>247</ele>
        <time>2013-02-17T10:19:46</time>
      </trkpt>
      <trkpt lat="43.26142" lon="-0.51906">
        <ele>246</ele>
        <time>2013-02-17T10:19:51</time>
      </trkpt>
      <trkpt lat="43.26171" lon="-0.51922">
        <ele>245</ele>
        <time>2013-02-17T10:19:56</time>
      </trkpt>
      <trkpt lat="43.26201" lon="-0.51947">
        <ele>241</ele>
        <time>2013-02-17T10:20:01</time>
      </trkpt>
      <trkpt lat="43.26232" lon="-0.51981">
        <ele>241</ele>
        <time>2013-02-17T10:20:06</time>
      </trkpt>
      <trkpt lat="43.26264" lon="-0.52012">
        <ele>239</ele>
        <time>2013-02-17T10:20:11</time>
      </trkpt>
      <trkpt lat="43.26293" lon="-0.52021">
        <ele>239</ele>
        <time>2013-02-17T10:20:16</time>
      </trkpt>
      <trkpt lat="43.26319" lon="-0.52025">
        <ele>239</ele>
        <time>2013-02-17T10:20:22</time>
      </trkpt>
      <trkpt lat="43.26332" lon="-0.5202">
        <ele>238</ele>
        <time>2013-02-17T10:20:27</time>
      </trkpt>
      <trkpt lat="43.26343" lon="-0.51999">
        <ele>237</ele>
        <time>2013-02-17T10:20:32</time>
      </trkpt>
      <trkpt lat="43.26347" lon="-0.51979">
        <ele>235</ele>
        <time>2013-02-17T10:20:37</time>
      </trkpt>
      <trkpt lat="43.26349" lon="-0.51968">
        <ele>234</ele>
        <time>2013-02-17T10:20:42</time>
      </trkpt>
      <trkpt lat="43.26358" lon="-0.5196">
        <ele>235</ele>
        <time>2013-02-17T10:20:47</time>
      </trkpt>
      <trkpt lat="43.26361" lon="-0.51956">
        <ele>237</ele>
        <time>2013-02-17T10:20:52</time>
      </trkpt>
      <trkpt lat="43.26361" lon="-0.51956">
        <ele>238</ele>
        <time>2013-02-17T10:20:57</time>
      </trkpt>
      <trkpt lat="43.26361" lon="-0.51956">
        <ele>238</ele>
        <time>2013-02-17T10:21:02</time>
      </trkpt>
      <trkpt lat="43.26361" lon="-0.51956">
        <ele>237</ele>
        <time>2013-02-17T10:21:07</time>
      </trkpt>
      <trkpt lat="43.26361" lon="-0.51956">
        <ele>238</ele>
        <time>2013-02-17T10:21:12</time>
      </trkpt>
      <trkpt lat="43.26361" lon="-0.51956">
        <ele>238</ele>
        <time>2013-02-17T10:21:17</time>
      </trkpt>
      <trkpt lat="43.26361" lon="-0.51956">
        <ele>238</ele>
        <time>2013-02-17T10:21:22</time>
      </trkpt>
      <trkpt lat="43.26361" lon="-0.51956">
        <ele>239</ele>
        <time>2013-02-17T10:21:27</time>
      </trkpt>
      <trkpt lat="43.26361" lon="-0.51956">
        <ele>239</ele>
        <time>2013-02-17T10:21:32</time>
      </trkpt>
      <trkpt lat="43.26361" lon="-0.51956">
        <ele>241</ele>
        <time>2013-02-17T10:21:37</time>
      </trkpt>
      <trkpt lat="43.26361" lon="-0.51956">
        <ele>241</ele>
        <time>2013-02-17T10:21:42</time>
      </trkpt>
      <trkpt lat="43.26361" lon="-0.51956">
        <ele>243</ele>
        <time>2013-02-17T10:21:47</time>
      </trkpt>
      <trkpt lat="43.26361" lon="-0.51956">
        <ele>244</ele>
        <time>2013-02-17T10:21:52</time>
      </trkpt>
      <trkpt lat="43.26361" lon="-0.51956">
        <ele>243</ele>
        <time>2013-02-17T10:21:57</time>
      </trkpt>
      <trkpt lat="43.26394" lon="-0.51943">
        <ele>245</ele>
        <time>2013-02-17T10:22:02</time>
      </trkpt>
      <trkpt lat="43.26395" lon="-0.51942">
        <ele>247</ele>
        <time>2013-02-17T10:22:07</time>
      </trkpt>
      <trkpt lat="43.26395" lon="-0.51942">
        <ele>248</ele>
        <time>2013-02-17T10:22:12</time>
      </trkpt>
      <trkpt lat="43.26395" lon="-0.51942">
        <ele>248</ele>
        <time>2013-02-17T10:22:17</time>
      </trkpt>
      <trkpt lat="43.26395" lon="-0.51942">
        <ele>250</ele>
        <time>2013-02-17T10:22:22</time>
      </trkpt>
      <trkpt lat="43.26395" lon="-0.51942">
        <ele>250</ele>
        <time>2013-02-17T10:22:27</time>
      </trkpt>
      <trkpt lat="43.26395" lon="-0.51942">
        <ele>251</ele>
        <time>2013-02-17T10:22:32</time>
      </trkpt>
      <trkpt lat="43.26395" lon="-0.51942">
        <ele>250</ele>
        <time>2013-02-17T10:22:37</time>
      </trkpt>
      <trkpt lat="43.26427" lon="-0.51926">
        <ele>251</ele>
        <time>2013-02-17T10:22:42</time>
      </trkpt>
      <trkpt lat="43.26432" lon="-0.51924">
        <ele>253</ele>
        <time>2013-02-17T10:22:48</time>
      </trkpt>
      <trkpt lat="43.26445" lon="-0.51918">
        <ele>254</ele>
        <time>2013-02-17T10:22:53</time>
      </trkpt>
      <trkpt lat="43.26452" lon="-0.51915">
        <ele>254</ele>
        <time>2013-02-17T10:22:58</time>
      </trkpt>
      <trkpt lat="43.26454" lon="-0.51914">
        <ele>257</ele>
        <time>2013-02-17T10:23:03</time>
      </trkpt>
      <trkpt lat="43.26454" lon="-0.51914">
        <ele>259</ele>
        <time>2013-02-17T10:23:08</time>
      </trkpt>
      <trkpt lat="43.26454" lon="-0.51914">
        <ele>259</ele>
        <time>2013-02-17T10:23:13</time>
      </trkpt>
      <trkpt lat="43.26454" lon="-0.51914">
        <ele>261</ele>
        <time>2013-02-17T10:23:18</time>
      </trkpt>
      <trkpt lat="43.26454" lon="-0.51914">
        <ele>261</ele>
        <time>2013-02-17T10:23:23</time>
      </trkpt>
      <trkpt lat="43.26454" lon="-0.51914">
        <ele>261</ele>
        <time>2013-02-17T10:23:28</time>
      </trkpt>
      <trkpt lat="43.26454" lon="-0.51914">
        <ele>262</ele>
        <time>2013-02-17T10:23:33</time>
      </trkpt>
      <trkpt lat="43.26454" lon="-0.51914">
        <ele>262</ele>
        <time>2013-02-17T10:23:38</time>
      </trkpt>
      <trkpt lat="43.26454" lon="-0.51914">
        <ele>265</ele>
        <time>2013-02-17T10:23:43</time>
      </trkpt>
      <trkpt lat="43.26454" lon="-0.51914">
        <ele>266</ele>
        <time>2013-02-17T10:23:48</time>
      </trkpt>
      <trkpt lat="43.26442" lon="-0.51871">
        <ele>267</ele>
        <time>2013-02-17T10:23:53</time>
      </trkpt>
      <trkpt lat="43.26442" lon="-0.51867">
        <ele>268</ele>
        <time>2013-02-17T10:23:58</time>
      </trkpt>
      <trkpt lat="43.26442" lon="-0.51867">
        <ele>270</ele>
        <time>2013-02-17T10:24:03</time>
      </trkpt>
      <trkpt lat="43.26442" lon="-0.51867">
        <ele>269</ele>
        <time>2013-02-17T10:24:08</time>
      </trkpt>
      <trkpt lat="43.26442" lon="-0.51867">
        <ele>272</ele>
        <time>2013-02-17T10:24:13</time>
      </trkpt>
      <trkpt lat="43.26442" lon="-0.51867">
        <ele>270</ele>
        <time>2013-02-17T10:24:18</time>
      </trkpt>
      <trkpt lat="43.26442" lon="-0.51867">
        <ele>273</ele>
        <time>2013-02-17T10:24:23</time>
      </trkpt>
      <trkpt lat="43.26442" lon="-0.51867">
        <ele>272</ele>
        <time>2013-02-17T10:24:28</time>
      </trkpt>
      <trkpt lat="43.26442" lon="-0.51867">
        <ele>273</ele>
        <time>2013-02-17T10:24:33</time>
      </trkpt>
      <trkpt lat="43.26442" lon="-0.51867">
        <ele>273</ele>
        <time>2013-02-17T10:24:39</time>
      </trkpt>
      <trkpt lat="43.26442" lon="-0.51867">
        <ele>274</ele>
        <time>2013-02-17T10:24:44</time>
      </trkpt>
      <trkpt lat="43.26442" lon="-0.51867">
        <ele>273</ele>
        <time>2013-02-17T10:24:49</time>
      </trkpt>
      <trkpt lat="43.26426" lon="-0.51817">
        <ele>273</ele>
        <time>2013-02-17T10:24:54</time>
      </trkpt>
      <trkpt lat="43.26426" lon="-0.51817">
        <ele>274</ele>
        <time>2013-02-17T10:24:59</time>
      </trkpt>
      <trkpt lat="43.26428" lon="-0.51796">
        <ele>274</ele>
        <time>2013-02-17T10:25:04</time>
      </trkpt>
      <trkpt lat="43.26427" lon="-0.51791">
        <ele>275</ele>
        <time>2013-02-17T10:25:09</time>
      </trkpt>
      <trkpt lat="43.26427" lon="-0.51791">
        <ele>276</ele>
        <time>2013-02-17T10:25:14</time>
      </trkpt>
      <trkpt lat="43.26427" lon="-0.51791">
        <ele>276</ele>
        <time>2013-02-17T10:25:19</time>
      </trkpt>
      <trkpt lat="43.26427" lon="-0.51791">
        <ele>276</ele>
        <time>2013-02-17T10:25:24</time>
      </trkpt>
      <trkpt lat="43.26427" lon="-0.51791">
        <ele>276</ele>
        <time>2013-02-17T10:25:29</time>
      </trkpt>
      <trkpt lat="43.26427" lon="-0.51791">
        <ele>276</ele>
        <time>2013-02-17T10:25:34</time>
      </trkpt>
      <trkpt lat="43.26427" lon="-0.51791">
        <ele>275</ele>
        <time>2013-02-17T10:25:39</time>
      </trkpt>
      <trkpt lat="43.26427" lon="-0.51791">
        <ele>276</ele>
        <time>2013-02-17T10:25:44</time>
      </trkpt>
      <trkpt lat="43.26427" lon="-0.51791">
        <ele>276</ele>
        <time>2013-02-17T10:25:49</time>
      </trkpt>
      <trkpt lat="43.26427" lon="-0.51791">
        <ele>275</ele>
        <time>2013-02-17T10:25:54</time>
      </trkpt>
      <trkpt lat="43.26427" lon="-0.51791">
        <ele>275</ele>
        <time>2013-02-17T10:25:59</time>
      </trkpt>
      <trkpt lat="43.26427" lon="-0.51791">
        <ele>276</ele>
        <time>2013-02-17T10:26:04</time>
      </trkpt>
      <trkpt lat="43.26427" lon="-0.51791">
        <ele>276</ele>
        <time>2013-02-17T10:26:09</time>
      </trkpt>
      <trkpt lat="43.26427" lon="-0.51791">
        <ele>276</ele>
        <time>2013-02-17T10:26:14</time>
      </trkpt>
      <trkpt lat="43.26427" lon="-0.51791">
        <ele>276</ele>
        <time>2013-02-17T10:26:19</time>
      </trkpt>
      <trkpt lat="43.26427" lon="-0.51791">
        <ele>276</ele>
        <time>2013-02-17T10:26:24</time>
      </trkpt>
      <trkpt lat="43.26427" lon="-0.51791">
        <ele>275</ele>
        <time>2013-02-17T10:26:29</time>
      </trkpt>
      <trkpt lat="43.26427" lon="-0.51791">
        <ele>278</ele>
        <time>2013-02-17T10:26:34</time>
      </trkpt>
      <trkpt lat="43.26427" lon="-0.51791">
        <ele>275</ele>
        <time>2013-02-17T10:26:39</time>
      </trkpt>
      <trkpt lat="43.26427" lon="-0.51791">
        <ele>275</ele>
        <time>2013-02-17T10:26:44</time>
      </trkpt>
      <trkpt lat="43.26427" lon="-0.51791">
        <ele>277</ele>
        <time>2013-02-17T10:26:49</time>
      </trkpt>
      <trkpt lat="43.26427" lon="-0.51791">
        <ele>276</ele>
        <time>2013-02-17T10:26:54</time>
      </trkpt>
      <trkpt lat="43.26427" lon="-0.51791">
        <ele>276</ele>
        <time>2013-02-17T10:26:59</time>
      </trkpt>
      <trkpt lat="43.26427" lon="-0.51791">
        <ele>276</ele>
        <time>2013-02-17T10:27:04</time>
      </trkpt>
      <trkpt lat="43.26427" lon="-0.51791">
        <ele>276</ele>
        <time>2013-02-17T10:27:09</time>
      </trkpt>
      <trkpt lat="43.26427" lon="-0.51791">
        <ele>275</ele>
        <time>2013-02-17T10:27:15</time>
      </trkpt>
      <trkpt lat="43.26427" lon="-0.51791">
        <ele>275</ele>
        <time>2013-02-17T10:27:20</time>
      </trkpt>
      <trkpt lat="43.26427" lon="-0.51791">
        <ele>275</ele>
        <time>2013-02-17T10:27:25</time>
      </trkpt>
      <trkpt lat="43.26427" lon="-0.51791">
        <ele>277</ele>
        <time>2013-02-17T10:27:30</time>
      </trkpt>
      <trkpt lat="43.26427" lon="-0.51791">
        <ele>276</ele>
        <time>2013-02-17T10:27:35</time>
      </trkpt>
      <trkpt lat="43.26427" lon="-0.51791">
        <ele>276</ele>
        <time>2013-02-17T10:27:40</time>
      </trkpt>
      <trkpt lat="43.26427" lon="-0.51791">
        <ele>276</ele>
        <time>2013-02-17T10:27:45</time>
      </trkpt>
      <trkpt lat="43.26427" lon="-0.51791">
        <ele>276</ele>
        <time>2013-02-17T10:27:50</time>
      </trkpt>
      <trkpt lat="43.26427" lon="-0.51791">
        <ele>275</ele>
        <time>2013-02-17T10:27:55</time>
      </trkpt>
      <trkpt lat="43.26427" lon="-0.51791">
        <ele>276</ele>
        <time>2013-02-17T10:28:00</time>
      </trkpt>
      <trkpt lat="43.26427" lon="-0.51791">
        <ele>276</ele>
        <time>2013-02-17T10:28:05</time>
      </trkpt>
      <trkpt lat="43.26427" lon="-0.51791">
        <ele>276</ele>
        <time>2013-02-17T10:28:10</time>
      </trkpt>
      <trkpt lat="43.26427" lon="-0.51791">
        <ele>276</ele>
        <time>2013-02-17T10:28:15</time>
      </trkpt>
      <trkpt lat="43.26427" lon="-0.51791">
        <ele>276</ele>
        <time>2013-02-17T10:28:20</time>
      </trkpt>
      <trkpt lat="43.26427" lon="-0.51791">
        <ele>276</ele>
        <time>2013-02-17T10:28:25</time>
      </trkpt>
      <trkpt lat="43.26427" lon="-0.51791">
        <ele>276</ele>
        <time>2013-02-17T10:28:30</time>
      </trkpt>
      <trkpt lat="43.26427" lon="-0.51791">
        <ele>276</ele>
        <time>2013-02-17T10:28:35</time>
      </trkpt>
      <trkpt lat="43.26416" lon="-0.51756">
        <ele>278</ele>
        <time>2013-02-17T10:28:40</time>
      </trkpt>
      <trkpt lat="43.26414" lon="-0.51735">
        <ele>277</ele>
        <time>2013-02-17T10:28:45</time>
      </trkpt>
      <trkpt lat="43.26403" lon="-0.51708">
        <ele>275</ele>
        <time>2013-02-17T10:28:50</time>
      </trkpt>
      <trkpt lat="43.26408" lon="-0.51675">
        <ele>271</ele>
        <time>2013-02-17T10:28:55</time>
      </trkpt>
      <trkpt lat="43.26412" lon="-0.51651">
        <ele>267</ele>
        <time>2013-02-17T10:29:00</time>
      </trkpt>
      <trkpt lat="43.26408" lon="-0.51626">
        <ele>261</ele>
        <time>2013-02-17T10:29:05</time>
      </trkpt>
      <trkpt lat="43.26413" lon="-0.5161">
        <ele>257</ele>
        <time>2013-02-17T10:29:10</time>
      </trkpt>
      <trkpt lat="43.26428" lon="-0.516">
        <ele>253</ele>
        <time>2013-02-17T10:29:15</time>
      </trkpt>
      <trkpt lat="43.26446" lon="-0.51593">
        <ele>251</ele>
        <time>2013-02-17T10:29:20</time>
      </trkpt>
      <trkpt lat="43.26465" lon="-0.51578">
        <ele>245</ele>
        <time>2013-02-17T10:29:25</time>
      </trkpt>
      <trkpt lat="43.26486" lon="-0.5157">
        <ele>239</ele>
        <time>2013-02-17T10:29:30</time>
      </trkpt>
      <trkpt lat="43.26501" lon="-0.51551">
        <ele>234</ele>
        <time>2013-02-17T10:29:36</time>
      </trkpt>
      <trkpt lat="43.2651" lon="-0.51527">
        <ele>229</ele>
        <time>2013-02-17T10:29:41</time>
      </trkpt>
      <trkpt lat="43.26525" lon="-0.515">
        <ele>222</ele>
        <time>2013-02-17T10:29:46</time>
      </trkpt>
      <trkpt lat="43.26533" lon="-0.51479">
        <ele>218</ele>
        <time>2013-02-17T10:29:51</time>
      </trkpt>
      <trkpt lat="43.26534" lon="-0.51451">
        <ele>212</ele>
        <time>2013-02-17T10:29:56</time>
      </trkpt>
      <trkpt lat="43.26528" lon="-0.51411">
        <ele>206</ele>
        <time>2013-02-17T10:30:01</time>
      </trkpt>
      <trkpt lat="43.26538" lon="-0.51402">
        <ele>204</ele>
        <time>2013-02-17T10:30:06</time>
      </trkpt>
      <trkpt lat="43.26546" lon="-0.51399">
        <ele>206</ele>
        <time>2013-02-17T10:30:11</time>
      </trkpt>
      <trkpt lat="43.26547" lon="-0.51398">
        <ele>206</ele>
        <time>2013-02-17T10:30:16</time>
      </trkpt>
      <trkpt lat="43.26547" lon="-0.51398">
        <ele>204</ele>
        <time>2013-02-17T10:30:21</time>
      </trkpt>
      <trkpt lat="43.26547" lon="-0.51398">
        <ele>204</ele>
        <time>2013-02-17T10:30:26</time>
      </trkpt>
      <trkpt lat="43.26547" lon="-0.51398">
        <ele>205</ele>
        <time>2013-02-17T10:30:31</time>
      </trkpt>
      <trkpt lat="43.26553" lon="-0.51402">
        <ele>204</ele>
        <time>2013-02-17T10:30:36</time>
      </trkpt>
      <trkpt lat="43.26571" lon="-0.51396">
        <ele>202</ele>
        <time>2013-02-17T10:30:41</time>
      </trkpt>
      <trkpt lat="43.26591" lon="-0.51401">
        <ele>202</ele>
        <time>2013-02-17T10:30:46</time>
      </trkpt>
      <trkpt lat="43.26621" lon="-0.51413">
        <ele>201</ele>
        <time>2013-02-17T10:30:51</time>
      </trkpt>
      <trkpt lat="43.2665" lon="-0.51429">
        <ele>198</ele>
        <time>2013-02-17T10:30:56</time>
      </trkpt>
      <trkpt lat="43.26674" lon="-0.5144">
        <ele>196</ele>
        <time>2013-02-17T10:31:01</time>
      </trkpt>
      <trkpt lat="43.26691" lon="-0.51446">
        <ele>197</ele>
        <time>2013-02-17T10:31:06</time>
      </trkpt>
      <trkpt lat="43.26717" lon="-0.51447">
        <ele>196</ele>
        <time>2013-02-17T10:31:11</time>
      </trkpt>
      <trkpt lat="43.2675" lon="-0.51446">
        <ele>193</ele>
        <time>2013-02-17T10:31:16</time>
      </trkpt>
      <trkpt lat="43.26779" lon="-0.5144">
        <ele>190</ele>
        <time>2013-02-17T10:31:21</time>
      </trkpt>
      <trkpt lat="43.26796" lon="-0.51431">
        <ele>188</ele>
        <time>2013-02-17T10:31:26</time>
      </trkpt>
      <trkpt lat="43.26815" lon="-0.51425">
        <ele>189</ele>
        <time>2013-02-17T10:31:31</time>
      </trkpt>
      <trkpt lat="43.26828" lon="-0.51422">
        <ele>192</ele>
        <time>2013-02-17T10:31:36</time>
      </trkpt>
      <trkpt lat="43.26841" lon="-0.51418">
        <ele>191</ele>
        <time>2013-02-17T10:31:41</time>
      </trkpt>
      <trkpt lat="43.26852" lon="-0.51416">
        <ele>190</ele>
        <time>2013-02-17T10:31:46</time>
      </trkpt>
      <trkpt lat="43.26866" lon="-0.51413">
        <ele>191</ele>
        <time>2013-02-17T10:31:52</time>
      </trkpt>
      <trkpt lat="43.26885" lon="-0.51409">
        <ele>188</ele>
        <time>2013-02-17T10:31:57</time>
      </trkpt>
      <trkpt lat="43.26913" lon="-0.51398">
        <ele>187</ele>
        <time>2013-02-17T10:32:02</time>
      </trkpt>
      <trkpt lat="43.26949" lon="-0.51377">
        <ele>186</ele>
        <time>2013-02-17T10:32:07</time>
      </trkpt>
      <trkpt lat="43.2699" lon="-0.51351">
        <ele>183</ele>
        <time>2013-02-17T10:32:12</time>
      </trkpt>
      <trkpt lat="43.27014" lon="-0.51308">
        <ele>183</ele>
        <time>2013-02-17T10:32:17</time>
      </trkpt>
      <trkpt lat="43.27029" lon="-0.51255">
        <ele>183</ele>
        <time>2013-02-17T10:32:22</time>
      </trkpt>
      <trkpt lat="43.27036" lon="-0.51196">
        <ele>181</ele>
        <time>2013-02-17T10:32:27</time>
      </trkpt>
      <trkpt lat="43.27052" lon="-0.51151">
        <ele>180</ele>
        <time>2013-02-17T10:32:32</time>
      </trkpt>
      <trkpt lat="43.27068" lon="-0.51104">
        <ele>180</ele>
        <time>2013-02-17T10:32:37</time>
      </trkpt>
      <trkpt lat="43.27084" lon="-0.51074">
        <ele>180</ele>
        <time>2013-02-17T10:32:42</time>
      </trkpt>
      <trkpt lat="43.27108" lon="-0.51069">
        <ele>179</ele>
        <time>2013-02-17T10:32:47</time>
      </trkpt>
      <trkpt lat="43.27132" lon="-0.5108">
        <ele>179</ele>
        <time>2013-02-17T10:32:52</time>
      </trkpt>
      <trkpt lat="43.27147" lon="-0.51089">
        <ele>180</ele>
        <time>2013-02-17T10:32:57</time>
      </trkpt>
      <trkpt lat="43.27164" lon="-0.51099">
        <ele>184</ele>
        <time>2013-02-17T10:33:02</time>
      </trkpt>
      <trkpt lat="43.27179" lon="-0.5111">
        <ele>184</ele>
        <time>2013-02-17T10:33:07</time>
      </trkpt>
      <trkpt lat="43.27192" lon="-0.51113">
        <ele>186</ele>
        <time>2013-02-17T10:33:12</time>
      </trkpt>
      <trkpt lat="43.27197" lon="-0.51101">
        <ele>185</ele>
        <time>2013-02-17T10:33:17</time>
      </trkpt>
      <trkpt lat="43.27201" lon="-0.5109">
        <ele>184</ele>
        <time>2013-02-17T10:33:22</time>
      </trkpt>
      <trkpt lat="43.27206" lon="-0.51078">
        <ele>184</ele>
        <time>2013-02-17T10:33:27</time>
      </trkpt>
      <trkpt lat="43.27211" lon="-0.5107">
        <ele>184</ele>
        <time>2013-02-17T10:33:32</time>
      </trkpt>
      <trkpt lat="43.27211" lon="-0.51069">
        <ele>184</ele>
        <time>2013-02-17T10:33:37</time>
      </trkpt>
      <trkpt lat="43.27211" lon="-0.51069">
        <ele>183</ele>
        <time>2013-02-17T10:33:42</time>
      </trkpt>
      <trkpt lat="43.27211" lon="-0.51069">
        <ele>184</ele>
        <time>2013-02-17T10:33:47</time>
      </trkpt>
      <trkpt lat="43.27211" lon="-0.51069">
        <ele>183</ele>
        <time>2013-02-17T10:33:52</time>
      </trkpt>
      <trkpt lat="43.27211" lon="-0.51069">
        <ele>183</ele>
        <time>2013-02-17T10:33:57</time>
      </trkpt>
      <trkpt lat="43.27211" lon="-0.51069">
        <ele>184</ele>
        <time>2013-02-17T10:34:02</time>
      </trkpt>
      <trkpt lat="43.27211" lon="-0.51069">
        <ele>183</ele>
        <time>2013-02-17T10:34:07</time>
      </trkpt>
      <trkpt lat="43.27211" lon="-0.51069">
        <ele>183</ele>
        <time>2013-02-17T10:34:13</time>
      </trkpt>
      <trkpt lat="43.27211" lon="-0.51069">
        <ele>185</ele>
        <time>2013-02-17T10:34:18</time>
      </trkpt>
      <trkpt lat="43.27211" lon="-0.51069">
        <ele>183</ele>
        <time>2013-02-17T10:34:23</time>
      </trkpt>
      <trkpt lat="43.27211" lon="-0.51069">
        <ele>183</ele>
        <time>2013-02-17T10:34:28</time>
      </trkpt>
      <trkpt lat="43.27224" lon="-0.51049">
        <ele>182</ele>
        <time>2013-02-17T10:34:33</time>
      </trkpt>
      <trkpt lat="43.27235" lon="-0.51037">
        <ele>183</ele>
        <time>2013-02-17T10:34:38</time>
      </trkpt>
      <trkpt lat="43.2725" lon="-0.51027">
        <ele>183</ele>
        <time>2013-02-17T10:34:43</time>
      </trkpt>
      <trkpt lat="43.27265" lon="-0.51017">
        <ele>183</ele>
        <time>2013-02-17T10:34:48</time>
      </trkpt>
      <trkpt lat="43.27279" lon="-0.51004">
        <ele>182</ele>
        <time>2013-02-17T10:34:53</time>
      </trkpt>
      <trkpt lat="43.27298" lon="-0.50985">
        <ele>181</ele>
        <time>2013-02-17T10:34:58</time>
      </trkpt>
      <trkpt lat="43.27313" lon="-0.50968">
        <ele>180</ele>
        <time>2013-02-17T10:35:03</time>
      </trkpt>
      <trkpt lat="43.27332" lon="-0.50947">
        <ele>180</ele>
        <time>2013-02-17T10:35:08</time>
      </trkpt>
      <trkpt lat="43.27351" lon="-0.50925">
        <ele>178</ele>
        <time>2013-02-17T10:35:13</time>
      </trkpt>
      <trkpt lat="43.2737" lon="-0.50904">
        <ele>179</ele>
        <time>2013-02-17T10:35:18</time>
      </trkpt>
      <trkpt lat="43.27388" lon="-0.50885">
        <ele>178</ele>
        <time>2013-02-17T10:35:23</time>
      </trkpt>
      <trkpt lat="43.27405" lon="-0.50866">
        <ele>177</ele>
        <time>2013-02-17T10:35:28</time>
      </trkpt>
      <trkpt lat="43.27428" lon="-0.5085">
        <ele>177</ele>
        <time>2013-02-17T10:35:33</time>
      </trkpt>
      <trkpt lat="43.27447" lon="-0.5086">
        <ele>176</ele>
        <time>2013-02-17T10:35:38</time>
      </trkpt>
      <trkpt lat="43.27477" lon="-0.50875">
        <ele>174</ele>
        <time>2013-02-17T10:35:43</time>
      </trkpt>
      <trkpt lat="43.27517" lon="-0.50888">
        <ele>172</ele>
        <time>2013-02-17T10:35:48</time>
      </trkpt>
      <trkpt lat="43.27553" lon="-0.50902">
        <ele>168</ele>
        <time>2013-02-17T10:35:53</time>
      </trkpt>
      <trkpt lat="43.27575" lon="-0.50916">
        <ele>168</ele>
        <time>2013-02-17T10:35:58</time>
      </trkpt>
      <trkpt lat="43.27588" lon="-0.50929">
        <ele>170</ele>
        <time>2013-02-17T10:36:03</time>
      </trkpt>
      <trkpt lat="43.27599" lon="-0.50941">
        <ele>172</ele>
        <time>2013-02-17T10:36:08</time>
      </trkpt>
      <trkpt lat="43.27611" lon="-0.50949">
        <ele>173</ele>
        <time>2013-02-17T10:36:13</time>
      </trkpt>
      <trkpt lat="43.27619" lon="-0.5095">
        <ele>174</ele>
        <time>2013-02-17T10:36:18</time>
      </trkpt>
      <trkpt lat="43.27626" lon="-0.50955">
        <ele>175</ele>
        <time>2013-02-17T10:36:23</time>
      </trkpt>
      <trkpt lat="43.27636" lon="-0.50963">
        <ele>175</ele>
        <time>2013-02-17T10:36:29</time>
      </trkpt>
      <trkpt lat="43.27644" lon="-0.50963">
        <ele>175</ele>
        <time>2013-02-17T10:36:34</time>
      </trkpt>
      <trkpt lat="43.27648" lon="-0.50962">
        <ele>175</ele>
        <time>2013-02-17T10:36:39</time>
      </trkpt>
      <trkpt lat="43.27648" lon="-0.50962">
        <ele>175</ele>
        <time>2013-02-17T10:36:44</time>
      </trkpt>
      <trkpt lat="43.27653" lon="-0.5095">
        <ele>177</ele>
        <time>2013-02-17T10:36:49</time>
      </trkpt>
      <trkpt lat="43.27653" lon="-0.50961">
        <ele>177</ele>
        <time>2013-02-17T10:36:54</time>
      </trkpt>
      <trkpt lat="43.27647" lon="-0.50971">
        <ele>177</ele>
        <time>2013-02-17T10:36:59</time>
      </trkpt>
      <trkpt lat="43.27649" lon="-0.50963">
        <ele>176</ele>
        <time>2013-02-17T10:37:04</time>
      </trkpt>
      <trkpt lat="43.27649" lon="-0.50963">
        <ele>176</ele>
        <time>2013-02-17T10:37:09</time>
      </trkpt>
      <trkpt lat="43.27656" lon="-0.50954">
        <ele>177</ele>
        <time>2013-02-17T10:37:14</time>
      </trkpt>
      <trkpt lat="43.27664" lon="-0.50941">
        <ele>177</ele>
        <time>2013-02-17T10:37:19</time>
      </trkpt>
      <trkpt lat="43.27678" lon="-0.50923">
        <ele>175</ele>
        <time>2013-02-17T10:37:24</time>
      </trkpt>
      <trkpt lat="43.27699" lon="-0.50911">
        <ele>177</ele>
        <time>2013-02-17T10:37:29</time>
      </trkpt>
      <trkpt lat="43.27721" lon="-0.5089">
        <ele>174</ele>
        <time>2013-02-17T10:37:34</time>
      </trkpt>
      <trkpt lat="43.27728" lon="-0.50867">
        <ele>172</ele>
        <time>2013-02-17T10:37:39</time>
      </trkpt>
      <trkpt lat="43.27733" lon="-0.50848">
        <ele>171</ele>
        <time>2013-02-17T10:37:44</time>
      </trkpt>
      <trkpt lat="43.27739" lon="-0.50824">
        <ele>170</ele>
        <time>2013-02-17T10:37:49</time>
      </trkpt>
      <trkpt lat="43.27751" lon="-0.50797">
        <ele>167</ele>
        <time>2013-02-17T10:37:54</time>
      </trkpt>
      <trkpt lat="43.27761" lon="-0.50774">
        <ele>164</ele>
        <time>2013-02-17T10:37:59</time>
      </trkpt>
      <trkpt lat="43.27767" lon="-0.50766">
        <ele>163</ele>
        <time>2013-02-17T10:38:05</time>
      </trkpt>
      <trkpt lat="43.27775" lon="-0.50765">
        <ele>162</ele>
        <time>2013-02-17T10:38:10</time>
      </trkpt>
      <trkpt lat="43.27782" lon="-0.50771">
        <ele>162</ele>
        <time>2013-02-17T10:38:15</time>
      </trkpt>
      <trkpt lat="43.27784" lon="-0.50771">
        <ele>162</ele>
        <time>2013-02-17T10:38:20</time>
      </trkpt>
      <trkpt lat="43.27792" lon="-0.50775">
        <ele>164</ele>
        <time>2013-02-17T10:38:25</time>
      </trkpt>
      <trkpt lat="43.2779" lon="-0.50777">
        <ele>163</ele>
        <time>2013-02-17T10:38:30</time>
      </trkpt>
      <trkpt lat="43.27792" lon="-0.50776">
        <ele>163</ele>
        <time>2013-02-17T10:38:35</time>
      </trkpt>
      <trkpt lat="43.27803" lon="-0.50781">
        <ele>164</ele>
        <time>2013-02-17T10:38:40</time>
      </trkpt>
      <trkpt lat="43.27816" lon="-0.50788">
        <ele>164</ele>
        <time>2013-02-17T10:38:45</time>
      </trkpt>
      <trkpt lat="43.27831" lon="-0.50796">
        <ele>164</ele>
        <time>2013-02-17T10:38:50</time>
      </trkpt>
      <trkpt lat="43.27842" lon="-0.50798">
        <ele>164</ele>
        <time>2013-02-17T10:38:55</time>
      </trkpt>
      <trkpt lat="43.27859" lon="-0.50792">
        <ele>165</ele>
        <time>2013-02-17T10:39:00</time>
      </trkpt>
      <trkpt lat="43.27873" lon="-0.50792">
        <ele>165</ele>
        <time>2013-02-17T10:39:05</time>
      </trkpt>
      <trkpt lat="43.27892" lon="-0.50792">
        <ele>164</ele>
        <time>2013-02-17T10:39:10</time>
      </trkpt>
      <trkpt lat="43.27908" lon="-0.50778">
        <ele>165</ele>
        <time>2013-02-17T10:39:15</time>
      </trkpt>
      <trkpt lat="43.27916" lon="-0.50754">
        <ele>164</ele>
        <time>2013-02-17T10:39:20</time>
      </trkpt>
      <trkpt lat="43.27924" lon="-0.50726">
        <ele>164</ele>
        <time>2013-02-17T10:39:25</time>
      </trkpt>
      <trkpt lat="43.27937" lon="-0.50696">
        <ele>163</ele>
        <time>2013-02-17T10:39:30</time>
      </trkpt>
      <trkpt lat="43.27961" lon="-0.50682">
        <ele>163</ele>
        <time>2013-02-17T10:39:35</time>
      </trkpt>
      <trkpt lat="43.27988" lon="-0.50665">
        <ele>161</ele>
        <time>2013-02-17T10:39:40</time>
      </trkpt>
      <trkpt lat="43.28008" lon="-0.50651">
        <ele>161</ele>
        <time>2013-02-17T10:39:45</time>
      </trkpt>
      <trkpt lat="43.28023" lon="-0.50637">
        <ele>161</ele>
        <time>2013-02-17T10:39:50</time>
      </trkpt>
      <trkpt lat="43.28037" lon="-0.50625">
        <ele>161</ele>
        <time>2013-02-17T10:39:55</time>
      </trkpt>
      <trkpt lat="43.2805" lon="-0.50615">
        <ele>161</ele>
        <time>2013-02-17T10:40:00</time>
      </trkpt>
      <trkpt lat="43.28061" lon="-0.50608">
        <ele>161</ele>
        <time>2013-02-17T10:40:05</time>
      </trkpt>
      <trkpt lat="43.28074" lon="-0.50597">
        <ele>160</ele>
        <time>2013-02-17T10:40:10</time>
      </trkpt>
      <trkpt lat="43.28088" lon="-0.50586">
        <ele>159</ele>
        <time>2013-02-17T10:40:15</time>
      </trkpt>
      <trkpt lat="43.28102" lon="-0.50572">
        <ele>159</ele>
        <time>2013-02-17T10:40:20</time>
      </trkpt>
      <trkpt lat="43.28115" lon="-0.50551">
        <ele>159</ele>
        <time>2013-02-17T10:40:25</time>
      </trkpt>
      <trkpt lat="43.28126" lon="-0.50532">
        <ele>159</ele>
        <time>2013-02-17T10:40:31</time>
      </trkpt>
      <trkpt lat="43.28136" lon="-0.50513">
        <ele>158</ele>
        <time>2013-02-17T10:40:36</time>
      </trkpt>
      <trkpt lat="43.28148" lon="-0.50497">
        <ele>157</ele>
        <time>2013-02-17T10:40:41</time>
      </trkpt>
      <trkpt lat="43.28163" lon="-0.50484">
        <ele>157</ele>
        <time>2013-02-17T10:40:46</time>
      </trkpt>
      <trkpt lat="43.28176" lon="-0.50476">
        <ele>157</ele>
        <time>2013-02-17T10:40:51</time>
      </trkpt>
      <trkpt lat="43.28193" lon="-0.50467">
        <ele>158</ele>
        <time>2013-02-17T10:40:56</time>
      </trkpt>
      <trkpt lat="43.28211" lon="-0.5046">
        <ele>156</ele>
        <time>2013-02-17T10:41:01</time>
      </trkpt>
      <trkpt lat="43.28227" lon="-0.50456">
        <ele>157</ele>
        <time>2013-02-17T10:41:06</time>
      </trkpt>
      <trkpt lat="43.28247" lon="-0.50453">
        <ele>157</ele>
        <time>2013-02-17T10:41:11</time>
      </trkpt>
      <trkpt lat="43.28267" lon="-0.50449">
        <ele>156</ele>
        <time>2013-02-17T10:41:16</time>
      </trkpt>
      <trkpt lat="43.28286" lon="-0.50445">
        <ele>155</ele>
        <time>2013-02-17T10:41:21</time>
      </trkpt>
      <trkpt lat="43.28304" lon="-0.50441">
        <ele>157</ele>
        <time>2013-02-17T10:41:26</time>
      </trkpt>
      <trkpt lat="43.28319" lon="-0.5043">
        <ele>155</ele>
        <time>2013-02-17T10:41:31</time>
      </trkpt>
      <trkpt lat="43.28338" lon="-0.50415">
        <ele>154</ele>
        <time>2013-02-17T10:41:36</time>
      </trkpt>
      <trkpt lat="43.28355" lon="-0.50406">
        <ele>156</ele>
        <time>2013-02-17T10:41:41</time>
      </trkpt>
      <trkpt lat="43.28372" lon="-0.50407">
        <ele>156</ele>
        <time>2013-02-17T10:41:46</time>
      </trkpt>
      <trkpt lat="43.28382" lon="-0.50425">
        <ele>155</ele>
        <time>2013-02-17T10:41:51</time>
      </trkpt>
      <trkpt lat="43.28392" lon="-0.50448">
        <ele>155</ele>
        <time>2013-02-17T10:41:56</time>
      </trkpt>
      <trkpt lat="43.28396" lon="-0.50473">
        <ele>156</ele>
        <time>2013-02-17T10:42:01</time>
      </trkpt>
      <trkpt lat="43.28398" lon="-0.50499">
        <ele>156</ele>
        <time>2013-02-17T10:42:06</time>
      </trkpt>
      <trkpt lat="43.28401" lon="-0.5053">
        <ele>157</ele>
        <time>2013-02-17T10:42:11</time>
      </trkpt>
      <trkpt lat="43.28402" lon="-0.50556">
        <ele>156</ele>
        <time>2013-02-17T10:42:16</time>
      </trkpt>
      <trkpt lat="43.28405" lon="-0.50582">
        <ele>158</ele>
        <time>2013-02-17T10:42:21</time>
      </trkpt>
      <trkpt lat="43.28408" lon="-0.50606">
        <ele>157</ele>
        <time>2013-02-17T10:42:26</time>
      </trkpt>
      <trkpt lat="43.28417" lon="-0.50619">
        <ele>158</ele>
        <time>2013-02-17T10:42:31</time>
      </trkpt>
      <trkpt lat="43.28435" lon="-0.50629">
        <ele>158</ele>
        <time>2013-02-17T10:42:36</time>
      </trkpt>
      <trkpt lat="43.28454" lon="-0.50637">
        <ele>158</ele>
        <time>2013-02-17T10:42:41</time>
      </trkpt>
      <trkpt lat="43.28475" lon="-0.50649">
        <ele>158</ele>
        <time>2013-02-17T10:42:46</time>
      </trkpt>
      <trkpt lat="43.28497" lon="-0.50669">
        <ele>157</ele>
        <time>2013-02-17T10:42:51</time>
      </trkpt>
      <trkpt lat="43.28517" lon="-0.50685">
        <ele>157</ele>
        <time>2013-02-17T10:42:57</time>
      </trkpt>
      <trkpt lat="43.28537" lon="-0.50699">
        <ele>158</ele>
        <time>2013-02-17T10:43:02</time>
      </trkpt>
      <trkpt lat="43.28555" lon="-0.50713">
        <ele>158</ele>
        <time>2013-02-17T10:43:07</time>
      </trkpt>
      <trkpt lat="43.28574" lon="-0.50727">
        <ele>159</ele>
        <time>2013-02-17T10:43:12</time>
      </trkpt>
      <trkpt lat="43.2858" lon="-0.50753">
        <ele>159</ele>
        <time>2013-02-17T10:43:17</time>
      </trkpt>
      <trkpt lat="43.28577" lon="-0.50781">
        <ele>159</ele>
        <time>2013-02-17T10:43:22</time>
      </trkpt>
      <trkpt lat="43.28572" lon="-0.50813">
        <ele>160</ele>
        <time>2013-02-17T10:43:27</time>
      </trkpt>
      <trkpt lat="43.2857" lon="-0.50834">
        <ele>160</ele>
        <time>2013-02-17T10:43:32</time>
      </trkpt>
      <trkpt lat="43.28567" lon="-0.50862">
        <ele>161</ele>
        <time>2013-02-17T10:43:37</time>
      </trkpt>
      <trkpt lat="43.28563" lon="-0.50889">
        <ele>160</ele>
        <time>2013-02-17T10:43:42</time>
      </trkpt>
      <trkpt lat="43.28556" lon="-0.50915">
        <ele>161</ele>
        <time>2013-02-17T10:43:47</time>
      </trkpt>
      <trkpt lat="43.28548" lon="-0.50937">
        <ele>162</ele>
        <time>2013-02-17T10:43:52</time>
      </trkpt>
      <trkpt lat="43.28551" lon="-0.50958">
        <ele>165</ele>
        <time>2013-02-17T10:43:57</time>
      </trkpt>
      <trkpt lat="43.28567" lon="-0.50968">
        <ele>165</ele>
        <time>2013-02-17T10:44:02</time>
      </trkpt>
      <trkpt lat="43.28585" lon="-0.50967">
        <ele>165</ele>
        <time>2013-02-17T10:44:07</time>
      </trkpt>
      <trkpt lat="43.28605" lon="-0.50969">
        <ele>167</ele>
        <time>2013-02-17T10:44:12</time>
      </trkpt>
      <trkpt lat="43.2863" lon="-0.50971">
        <ele>165</ele>
        <time>2013-02-17T10:44:17</time>
      </trkpt>
      <trkpt lat="43.28656" lon="-0.50972">
        <ele>163</ele>
        <time>2013-02-17T10:44:22</time>
      </trkpt>
      <trkpt lat="43.28677" lon="-0.5097">
        <ele>162</ele>
        <time>2013-02-17T10:44:27</time>
      </trkpt>
      <trkpt lat="43.28701" lon="-0.5097">
        <ele>162</ele>
        <time>2013-02-17T10:44:32</time>
      </trkpt>
      <trkpt lat="43.28727" lon="-0.50971">
        <ele>161</ele>
        <time>2013-02-17T10:44:37</time>
      </trkpt>
      <trkpt lat="43.28747" lon="-0.50973">
        <ele>162</ele>
        <time>2013-02-17T10:44:42</time>
      </trkpt>
      <trkpt lat="43.28768" lon="-0.50976">
        <ele>161</ele>
        <time>2013-02-17T10:44:47</time>
      </trkpt>
      <trkpt lat="43.2879" lon="-0.50976">
        <ele>161</ele>
        <time>2013-02-17T10:44:52</time>
      </trkpt>
      <trkpt lat="43.28812" lon="-0.50973">
        <ele>161</ele>
        <time>2013-02-17T10:44:57</time>
      </trkpt>
      <trkpt lat="43.28836" lon="-0.50971">
        <ele>161</ele>
        <time>2013-02-17T10:45:03</time>
      </trkpt>
      <trkpt lat="43.2886" lon="-0.50968">
        <ele>162</ele>
        <time>2013-02-17T10:45:08</time>
      </trkpt>
      <trkpt lat="43.28886" lon="-0.50965">
        <ele>161</ele>
        <time>2013-02-17T10:45:13</time>
      </trkpt>
      <trkpt lat="43.28912" lon="-0.50961">
        <ele>160</ele>
        <time>2013-02-17T10:45:18</time>
      </trkpt>
      <trkpt lat="43.28938" lon="-0.50951">
        <ele>160</ele>
        <time>2013-02-17T10:45:23</time>
      </trkpt>
      <trkpt lat="43.28962" lon="-0.50935">
        <ele>159</ele>
        <time>2013-02-17T10:45:28</time>
      </trkpt>
      <trkpt lat="43.28988" lon="-0.50916">
        <ele>159</ele>
        <time>2013-02-17T10:45:33</time>
      </trkpt>
      <trkpt lat="43.29014" lon="-0.50898">
        <ele>158</ele>
        <time>2013-02-17T10:45:38</time>
      </trkpt>
      <trkpt lat="43.29039" lon="-0.5088">
        <ele>157</ele>
        <time>2013-02-17T10:45:43</time>
      </trkpt>
      <trkpt lat="43.29064" lon="-0.50863">
        <ele>156</ele>
        <time>2013-02-17T10:45:48</time>
      </trkpt>
      <trkpt lat="43.29074" lon="-0.50829">
        <ele>156</ele>
        <time>2013-02-17T10:45:53</time>
      </trkpt>
      <trkpt lat="43.2907" lon="-0.50794">
        <ele>156</ele>
        <time>2013-02-17T10:45:58</time>
      </trkpt>
      <trkpt lat="43.29064" lon="-0.50765">
        <ele>154</ele>
        <time>2013-02-17T10:46:03</time>
      </trkpt>
      <trkpt lat="43.29058" lon="-0.50728">
        <ele>153</ele>
        <time>2013-02-17T10:46:08</time>
      </trkpt>
      <trkpt lat="43.29052" lon="-0.50691">
        <ele>154</ele>
        <time>2013-02-17T10:46:13</time>
      </trkpt>
      <trkpt lat="43.29042" lon="-0.50655">
        <ele>153</ele>
        <time>2013-02-17T10:46:18</time>
      </trkpt>
      <trkpt lat="43.29028" lon="-0.50623">
        <ele>154</ele>
        <time>2013-02-17T10:46:23</time>
      </trkpt>
      <trkpt lat="43.29025" lon="-0.5059">
        <ele>153</ele>
        <time>2013-02-17T10:46:28</time>
      </trkpt>
      <trkpt lat="43.29018" lon="-0.50555">
        <ele>153</ele>
        <time>2013-02-17T10:46:33</time>
      </trkpt>
      <trkpt lat="43.29012" lon="-0.50519">
        <ele>153</ele>
        <time>2013-02-17T10:46:38</time>
      </trkpt>
      <trkpt lat="43.29013" lon="-0.50487">
        <ele>155</ele>
        <time>2013-02-17T10:46:43</time>
      </trkpt>
      <trkpt lat="43.2903" lon="-0.5048">
        <ele>154</ele>
        <time>2013-02-17T10:46:48</time>
      </trkpt>
      <trkpt lat="43.29055" lon="-0.50487">
        <ele>152</ele>
        <time>2013-02-17T10:46:53</time>
      </trkpt>
      <trkpt lat="43.29074" lon="-0.50496">
        <ele>151</ele>
        <time>2013-02-17T10:46:58</time>
      </trkpt>
      <trkpt lat="43.29097" lon="-0.50487">
        <ele>151</ele>
        <time>2013-02-17T10:47:03</time>
      </trkpt>
      <trkpt lat="43.29116" lon="-0.50456">
        <ele>153</ele>
        <time>2013-02-17T10:47:08</time>
      </trkpt>
      <trkpt lat="43.29125" lon="-0.50426">
        <ele>152</ele>
        <time>2013-02-17T10:47:13</time>
      </trkpt>
      <trkpt lat="43.29129" lon="-0.50395">
        <ele>151</ele>
        <time>2013-02-17T10:47:18</time>
      </trkpt>
      <trkpt lat="43.29142" lon="-0.50369">
        <ele>152</ele>
        <time>2013-02-17T10:47:23</time>
      </trkpt>
      <trkpt lat="43.29153" lon="-0.50343">
        <ele>154</ele>
        <time>2013-02-17T10:47:29</time>
      </trkpt>
      <trkpt lat="43.29168" lon="-0.50319">
        <ele>152</ele>
        <time>2013-02-17T10:47:34</time>
      </trkpt>
      <trkpt lat="43.29189" lon="-0.50318">
        <ele>153</ele>
        <time>2013-02-17T10:47:39</time>
      </trkpt>
      <trkpt lat="43.29211" lon="-0.50322">
        <ele>154</ele>
        <time>2013-02-17T10:47:44</time>
      </trkpt>
      <trkpt lat="43.29235" lon="-0.50321">
        <ele>154</ele>
        <time>2013-02-17T10:47:49</time>
      </trkpt>
      <trkpt lat="43.29261" lon="-0.5032">
        <ele>154</ele>
        <time>2013-02-17T10:47:54</time>
      </trkpt>
      <trkpt lat="43.2929" lon="-0.5032">
        <ele>154</ele>
        <time>2013-02-17T10:47:59</time>
      </trkpt>
      <trkpt lat="43.2931" lon="-0.50317">
        <ele>154</ele>
        <time>2013-02-17T10:48:04</time>
      </trkpt>
      <trkpt lat="43.29334" lon="-0.50312">
        <ele>153</ele>
        <time>2013-02-17T10:48:09</time>
      </trkpt>
      <trkpt lat="43.29356" lon="-0.50313">
        <ele>155</ele>
        <time>2013-02-17T10:48:14</time>
      </trkpt>
      <trkpt lat="43.29379" lon="-0.50307">
        <ele>154</ele>
        <time>2013-02-17T10:48:19</time>
      </trkpt>
      <trkpt lat="43.29401" lon="-0.50301">
        <ele>154</ele>
        <time>2013-02-17T10:48:24</time>
      </trkpt>
      <trkpt lat="43.29424" lon="-0.50296">
        <ele>155</ele>
        <time>2013-02-17T10:48:29</time>
      </trkpt>
      <trkpt lat="43.29448" lon="-0.50282">
        <ele>154</ele>
        <time>2013-02-17T10:48:34</time>
      </trkpt>
      <trkpt lat="43.29469" lon="-0.50272">
        <ele>154</ele>
        <time>2013-02-17T10:48:40</time>
      </trkpt>
      <trkpt lat="43.29491" lon="-0.50265">
        <ele>155</ele>
        <time>2013-02-17T10:48:45</time>
      </trkpt>
      <trkpt lat="43.29511" lon="-0.5026">
        <ele>154</ele>
        <time>2013-02-17T10:48:50</time>
      </trkpt>
      <trkpt lat="43.29529" lon="-0.50258">
        <ele>155</ele>
        <time>2013-02-17T10:48:55</time>
      </trkpt>
      <trkpt lat="43.29548" lon="-0.50258">
        <ele>155</ele>
        <time>2013-02-17T10:49:00</time>
      </trkpt>
      <trkpt lat="43.29566" lon="-0.50258">
        <ele>156</ele>
        <time>2013-02-17T10:49:05</time>
      </trkpt>
      <trkpt lat="43.29585" lon="-0.50254">
        <ele>156</ele>
        <time>2013-02-17T10:49:10</time>
      </trkpt>
      <trkpt lat="43.296" lon="-0.50244">
        <ele>156</ele>
        <time>2013-02-17T10:49:15</time>
      </trkpt>
      <trkpt lat="43.29613" lon="-0.50227">
        <ele>157</ele>
        <time>2013-02-17T10:49:20</time>
      </trkpt>
      <trkpt lat="43.2963" lon="-0.50214">
        <ele>157</ele>
        <time>2013-02-17T10:49:25</time>
      </trkpt>
      <trkpt lat="43.29648" lon="-0.5021">
        <ele>157</ele>
        <time>2013-02-17T10:49:30</time>
      </trkpt>
      <trkpt lat="43.29666" lon="-0.50202">
        <ele>158</ele>
        <time>2013-02-17T10:49:35</time>
      </trkpt>
      <trkpt lat="43.29684" lon="-0.50192">
        <ele>158</ele>
        <time>2013-02-17T10:49:40</time>
      </trkpt>
      <trkpt lat="43.297" lon="-0.5018">
        <ele>158</ele>
        <time>2013-02-17T10:49:45</time>
      </trkpt>
      <trkpt lat="43.29719" lon="-0.50167">
        <ele>158</ele>
        <time>2013-02-17T10:49:50</time>
      </trkpt>
      <trkpt lat="43.29734" lon="-0.50166">
        <ele>160</ele>
        <time>2013-02-17T10:49:55</time>
      </trkpt>
      <trkpt lat="43.29752" lon="-0.50169">
        <ele>161</ele>
        <time>2013-02-17T10:50:00</time>
      </trkpt>
      <trkpt lat="43.29782" lon="-0.50173">
        <ele>160</ele>
        <time>2013-02-17T10:50:06</time>
      </trkpt>
      <trkpt lat="43.29815" lon="-0.5018">
        <ele>158</ele>
        <time>2013-02-17T10:50:11</time>
      </trkpt>
      <trkpt lat="43.29834" lon="-0.50189">
        <ele>159</ele>
        <time>2013-02-17T10:50:16</time>
      </trkpt>
      <trkpt lat="43.29852" lon="-0.50179">
        <ele>156</ele>
        <time>2013-02-17T10:50:21</time>
      </trkpt>
      <trkpt lat="43.2987" lon="-0.50178">
        <ele>157</ele>
        <time>2013-02-17T10:50:26</time>
      </trkpt>
      <trkpt lat="43.29891" lon="-0.50184">
        <ele>159</ele>
        <time>2013-02-17T10:50:31</time>
      </trkpt>
      <trkpt lat="43.29907" lon="-0.5019">
        <ele>159</ele>
        <time>2013-02-17T10:50:36</time>
      </trkpt>
      <trkpt lat="43.29929" lon="-0.50198">
        <ele>159</ele>
        <time>2013-02-17T10:50:41</time>
      </trkpt>
      <trkpt lat="43.29949" lon="-0.50204">
        <ele>158</ele>
        <time>2013-02-17T10:50:46</time>
      </trkpt>
      <trkpt lat="43.29968" lon="-0.50208">
        <ele>157</ele>
        <time>2013-02-17T10:50:51</time>
      </trkpt>
      <trkpt lat="43.29992" lon="-0.50217">
        <ele>158</ele>
        <time>2013-02-17T10:50:56</time>
      </trkpt>
      <trkpt lat="43.30008" lon="-0.5022">
        <ele>158</ele>
        <time>2013-02-17T10:51:01</time>
      </trkpt>
      <trkpt lat="43.30027" lon="-0.50229">
        <ele>158</ele>
        <time>2013-02-17T10:51:06</time>
      </trkpt>
      <trkpt lat="43.30045" lon="-0.50243">
        <ele>160</ele>
        <time>2013-02-17T10:51:11</time>
      </trkpt>
      <trkpt lat="43.30064" lon="-0.5026">
        <ele>159</ele>
        <time>2013-02-17T10:51:16</time>
      </trkpt>
      <trkpt lat="43.3008" lon="-0.50281">
        <ele>158</ele>
        <time>2013-02-17T10:51:21</time>
      </trkpt>
      <trkpt lat="43.30096" lon="-0.50302">
        <ele>159</ele>
        <time>2013-02-17T10:51:26</time>
      </trkpt>
      <trkpt lat="43.30113" lon="-0.50321">
        <ele>157</ele>
        <time>2013-02-17T10:51:31</time>
      </trkpt>
      <trkpt lat="43.30134" lon="-0.5034">
        <ele>158</ele>
        <time>2013-02-17T10:51:36</time>
      </trkpt>
      <trkpt lat="43.30149" lon="-0.50352">
        <ele>159</ele>
        <time>2013-02-17T10:51:41</time>
      </trkpt>
      <trkpt lat="43.30155" lon="-0.50336">
        <ele>159</ele>
        <time>2013-02-17T10:51:46</time>
      </trkpt>
      <trkpt lat="43.30157" lon="-0.50314">
        <ele>160</ele>
        <time>2013-02-17T10:51:51</time>
      </trkpt>
      <trkpt lat="43.30159" lon="-0.50293">
        <ele>160</ele>
        <time>2013-02-17T10:51:56</time>
      </trkpt>
      <trkpt lat="43.30159" lon="-0.50271">
        <ele>161</ele>
        <time>2013-02-17T10:52:01</time>
      </trkpt>
      <trkpt lat="43.30161" lon="-0.50248">
        <ele>161</ele>
        <time>2013-02-17T10:52:06</time>
      </trkpt>
      <trkpt lat="43.30163" lon="-0.50224">
        <ele>162</ele>
        <time>2013-02-17T10:52:11</time>
      </trkpt>
      <trkpt lat="43.30164" lon="-0.50201">
        <ele>163</ele>
        <time>2013-02-17T10:52:16</time>
      </trkpt>
      <trkpt lat="43.30164" lon="-0.50178">
        <ele>164</ele>
        <time>2013-02-17T10:52:22</time>
      </trkpt>
      <trkpt lat="43.30169" lon="-0.50161">
        <ele>166</ele>
        <time>2013-02-17T10:52:27</time>
      </trkpt>
      <trkpt lat="43.3017" lon="-0.50142">
        <ele>166</ele>
        <time>2013-02-17T10:52:32</time>
      </trkpt>
      <trkpt lat="43.30169" lon="-0.50122">
        <ele>166</ele>
        <time>2013-02-17T10:52:37</time>
      </trkpt>
      <trkpt lat="43.30167" lon="-0.50112">
        <ele>169</ele>
        <time>2013-02-17T10:52:42</time>
      </trkpt>
      <trkpt lat="43.30167" lon="-0.50112">
        <ele>172</ele>
        <time>2013-02-17T10:52:47</time>
      </trkpt>
      <trkpt lat="43.30162" lon="-0.50094">
        <ele>172</ele>
        <time>2013-02-17T10:52:52</time>
      </trkpt>
      <trkpt lat="43.30156" lon="-0.5009">
        <ele>175</ele>
        <time>2013-02-17T10:52:57</time>
      </trkpt>
      <trkpt lat="43.30146" lon="-0.50083">
        <ele>176</ele>
        <time>2013-02-17T10:53:02</time>
      </trkpt>
      <trkpt lat="43.30143" lon="-0.50068">
        <ele>179</ele>
        <time>2013-02-17T10:53:07</time>
      </trkpt>
      <trkpt lat="43.30143" lon="-0.50053">
        <ele>180</ele>
        <time>2013-02-17T10:53:12</time>
      </trkpt>
      <trkpt lat="43.30144" lon="-0.50039">
        <ele>183</ele>
        <time>2013-02-17T10:53:17</time>
      </trkpt>
      <trkpt lat="43.30144" lon="-0.5003">
        <ele>183</ele>
        <time>2013-02-17T10:53:22</time>
      </trkpt>
      <trkpt lat="43.30143" lon="-0.50006">
        <ele>184</ele>
        <time>2013-02-17T10:53:27</time>
      </trkpt>
      <trkpt lat="43.30148" lon="-0.49991">
        <ele>184</ele>
        <time>2013-02-17T10:53:32</time>
      </trkpt>
      <trkpt lat="43.30149" lon="-0.49977">
        <ele>184</ele>
        <time>2013-02-17T10:53:37</time>
      </trkpt>
      <trkpt lat="43.30151" lon="-0.49968">
        <ele>185</ele>
        <time>2013-02-17T10:53:42</time>
      </trkpt>
      <trkpt lat="43.30148" lon="-0.49957">
        <ele>187</ele>
        <time>2013-02-17T10:53:47</time>
      </trkpt>
      <trkpt lat="43.30143" lon="-0.49947">
        <ele>190</ele>
        <time>2013-02-17T10:53:52</time>
      </trkpt>
      <trkpt lat="43.30138" lon="-0.49937">
        <ele>190</ele>
        <time>2013-02-17T10:53:57</time>
      </trkpt>
      <trkpt lat="43.30133" lon="-0.49924">
        <ele>190</ele>
        <time>2013-02-17T10:54:02</time>
      </trkpt>
      <trkpt lat="43.30131" lon="-0.49905">
        <ele>191</ele>
        <time>2013-02-17T10:54:07</time>
      </trkpt>
      <trkpt lat="43.30133" lon="-0.49889">
        <ele>191</ele>
        <time>2013-02-17T10:54:12</time>
      </trkpt>
      <trkpt lat="43.30135" lon="-0.49871">
        <ele>192</ele>
        <time>2013-02-17T10:54:17</time>
      </trkpt>
      <trkpt lat="43.30135" lon="-0.49856">
        <ele>192</ele>
        <time>2013-02-17T10:54:22</time>
      </trkpt>
      <trkpt lat="43.30135" lon="-0.49844">
        <ele>193</ele>
        <time>2013-02-17T10:54:27</time>
      </trkpt>
      <trkpt lat="43.30132" lon="-0.49829">
        <ele>197</ele>
        <time>2013-02-17T10:54:32</time>
      </trkpt>
      <trkpt lat="43.30129" lon="-0.49817">
        <ele>198</ele>
        <time>2013-02-17T10:54:38</time>
      </trkpt>
      <trkpt lat="43.30129" lon="-0.49817">
        <ele>201</ele>
        <time>2013-02-17T10:54:43</time>
      </trkpt>
      <trkpt lat="43.30123" lon="-0.49794">
        <ele>200</ele>
        <time>2013-02-17T10:54:48</time>
      </trkpt>
      <trkpt lat="43.30116" lon="-0.49779">
        <ele>200</ele>
        <time>2013-02-17T10:54:53</time>
      </trkpt>
      <trkpt lat="43.30109" lon="-0.4977">
        <ele>202</ele>
        <time>2013-02-17T10:54:58</time>
      </trkpt>
      <trkpt lat="43.30107" lon="-0.4977">
        <ele>204</ele>
        <time>2013-02-17T10:55:03</time>
      </trkpt>
      <trkpt lat="43.30107" lon="-0.4977">
        <ele>207</ele>
        <time>2013-02-17T10:55:08</time>
      </trkpt>
      <trkpt lat="43.30107" lon="-0.4977">
        <ele>208</ele>
        <time>2013-02-17T10:55:13</time>
      </trkpt>
      <trkpt lat="43.30107" lon="-0.4977">
        <ele>207</ele>
        <time>2013-02-17T10:55:18</time>
      </trkpt>
      <trkpt lat="43.30107" lon="-0.4977">
        <ele>211</ele>
        <time>2013-02-17T10:55:23</time>
      </trkpt>
      <trkpt lat="43.30107" lon="-0.4977">
        <ele>213</ele>
        <time>2013-02-17T10:55:28</time>
      </trkpt>
      <trkpt lat="43.30107" lon="-0.4977">
        <ele>213</ele>
        <time>2013-02-17T10:55:33</time>
      </trkpt>
      <trkpt lat="43.30075" lon="-0.49806">
        <ele>213</ele>
        <time>2013-02-17T10:55:38</time>
      </trkpt>
      <trkpt lat="43.30075" lon="-0.49806">
        <ele>213</ele>
        <time>2013-02-17T10:55:43</time>
      </trkpt>
      <trkpt lat="43.30057" lon="-0.49815">
        <ele>215</ele>
        <time>2013-02-17T10:55:48</time>
      </trkpt>
      <trkpt lat="43.30049" lon="-0.49821">
        <ele>215</ele>
        <time>2013-02-17T10:55:53</time>
      </trkpt>
      <trkpt lat="43.30039" lon="-0.49826">
        <ele>217</ele>
        <time>2013-02-17T10:55:58</time>
      </trkpt>
      <trkpt lat="43.30029" lon="-0.49827">
        <ele>217</ele>
        <time>2013-02-17T10:56:03</time>
      </trkpt>
      <trkpt lat="43.3002" lon="-0.49823">
        <ele>217</ele>
        <time>2013-02-17T10:56:08</time>
      </trkpt>
      <trkpt lat="43.30015" lon="-0.49819">
        <ele>217</ele>
        <time>2013-02-17T10:56:13</time>
      </trkpt>
      <trkpt lat="43.30008" lon="-0.49817">
        <ele>220</ele>
        <time>2013-02-17T10:56:18</time>
      </trkpt>
      <trkpt lat="43.30006" lon="-0.49817">
        <ele>221</ele>
        <time>2013-02-17T10:56:23</time>
      </trkpt>
      <trkpt lat="43.30006" lon="-0.49817">
        <ele>222</ele>
        <time>2013-02-17T10:56:28</time>
      </trkpt>
      <trkpt lat="43.29984" lon="-0.49806">
        <ele>223</ele>
        <time>2013-02-17T10:56:33</time>
      </trkpt>
      <trkpt lat="43.29977" lon="-0.49801">
        <ele>225</ele>
        <time>2013-02-17T10:56:39</time>
      </trkpt>
      <trkpt lat="43.2997" lon="-0.49794">
        <ele>226</ele>
        <time>2013-02-17T10:56:44</time>
      </trkpt>
      <trkpt lat="43.29963" lon="-0.49788">
        <ele>228</ele>
        <time>2013-02-17T10:56:49</time>
      </trkpt>
      <trkpt lat="43.29956" lon="-0.49782">
        <ele>228</ele>
        <time>2013-02-17T10:56:54</time>
      </trkpt>
      <trkpt lat="43.29955" lon="-0.4978">
        <ele>229</ele>
        <time>2013-02-17T10:56:59</time>
      </trkpt>
      <trkpt lat="43.29955" lon="-0.4978">
        <ele>230</ele>
        <time>2013-02-17T10:57:04</time>
      </trkpt>
      <trkpt lat="43.29938" lon="-0.49766">
        <ele>232</ele>
        <time>2013-02-17T10:57:09</time>
      </trkpt>
      <trkpt lat="43.29931" lon="-0.49758">
        <ele>232</ele>
        <time>2013-02-17T10:57:14</time>
      </trkpt>
      <trkpt lat="43.29926" lon="-0.49751">
        <ele>235</ele>
        <time>2013-02-17T10:57:19</time>
      </trkpt>
      <trkpt lat="43.29919" lon="-0.49741">
        <ele>236</ele>
        <time>2013-02-17T10:57:24</time>
      </trkpt>
      <trkpt lat="43.29913" lon="-0.49734">
        <ele>237</ele>
        <time>2013-02-17T10:57:29</time>
      </trkpt>
      <trkpt lat="43.29913" lon="-0.49734">
        <ele>240</ele>
        <time>2013-02-17T10:57:34</time>
      </trkpt>
      <trkpt lat="43.29902" lon="-0.49722">
        <ele>239</ele>
        <time>2013-02-17T10:57:39</time>
      </trkpt>
      <trkpt lat="43.29893" lon="-0.49717">
        <ele>242</ele>
        <time>2013-02-17T10:57:44</time>
      </trkpt>
      <trkpt lat="43.29885" lon="-0.49713">
        <ele>242</ele>
        <time>2013-02-17T10:57:49</time>
      </trkpt>
      <trkpt lat="43.29877" lon="-0.49708">
        <ele>243</ele>
        <time>2013-02-17T10:57:54</time>
      </trkpt>
      <trkpt lat="43.29869" lon="-0.497">
        <ele>244</ele>
        <time>2013-02-17T10:57:59</time>
      </trkpt>
      <trkpt lat="43.29862" lon="-0.49691">
        <ele>245</ele>
        <time>2013-02-17T10:58:04</time>
      </trkpt>
      <trkpt lat="43.29857" lon="-0.4968">
        <ele>248</ele>
        <time>2013-02-17T10:58:09</time>
      </trkpt>
      <trkpt lat="43.29856" lon="-0.49667">
        <ele>249</ele>
        <time>2013-02-17T10:58:14</time>
      </trkpt>
      <trkpt lat="43.29857" lon="-0.49653">
        <ele>249</ele>
        <time>2013-02-17T10:58:19</time>
      </trkpt>
      <trkpt lat="43.29857" lon="-0.49641">
        <ele>252</ele>
        <time>2013-02-17T10:58:24</time>
      </trkpt>
      <trkpt lat="43.29858" lon="-0.49631">
        <ele>253</ele>
        <time>2013-02-17T10:58:29</time>
      </trkpt>
      <trkpt lat="43.29859" lon="-0.49619">
        <ele>254</ele>
        <time>2013-02-17T10:58:34</time>
      </trkpt>
      <trkpt lat="43.2986" lon="-0.49604">
        <ele>256</ele>
        <time>2013-02-17T10:58:40</time>
      </trkpt>
      <trkpt lat="43.29863" lon="-0.49592">
        <ele>255</ele>
        <time>2013-02-17T10:58:45</time>
      </trkpt>
      <trkpt lat="43.29867" lon="-0.49581">
        <ele>257</ele>
        <time>2013-02-17T10:58:50</time>
      </trkpt>
      <trkpt lat="43.29869" lon="-0.4957">
        <ele>259</ele>
        <time>2013-02-17T10:58:55</time>
      </trkpt>
      <trkpt lat="43.29871" lon="-0.49558">
        <ele>260</ele>
        <time>2013-02-17T10:59:00</time>
      </trkpt>
      <trkpt lat="43.29874" lon="-0.49547">
        <ele>261</ele>
        <time>2013-02-17T10:59:05</time>
      </trkpt>
      <trkpt lat="43.29875" lon="-0.49534">
        <ele>263</ele>
        <time>2013-02-17T10:59:10</time>
      </trkpt>
      <trkpt lat="43.29875" lon="-0.49522">
        <ele>263</ele>
        <time>2013-02-17T10:59:15</time>
      </trkpt>
      <trkpt lat="43.29875" lon="-0.49511">
        <ele>266</ele>
        <time>2013-02-17T10:59:20</time>
      </trkpt>
      <trkpt lat="43.29874" lon="-0.49502">
        <ele>266</ele>
        <time>2013-02-17T10:59:25</time>
      </trkpt>
      <trkpt lat="43.29874" lon="-0.49487">
        <ele>267</ele>
        <time>2013-02-17T10:59:30</time>
      </trkpt>
      <trkpt lat="43.29875" lon="-0.49474">
        <ele>268</ele>
        <time>2013-02-17T10:59:35</time>
      </trkpt>
      <trkpt lat="43.29876" lon="-0.4946">
        <ele>268</ele>
        <time>2013-02-17T10:59:40</time>
      </trkpt>
      <trkpt lat="43.29877" lon="-0.49446">
        <ele>270</ele>
        <time>2013-02-17T10:59:45</time>
      </trkpt>
      <trkpt lat="43.29878" lon="-0.4943">
        <ele>271</ele>
        <time>2013-02-17T10:59:50</time>
      </trkpt>
      <trkpt lat="43.29879" lon="-0.49414">
        <ele>273</ele>
        <time>2013-02-17T10:59:55</time>
      </trkpt>
      <trkpt lat="43.29881" lon="-0.494">
        <ele>275</ele>
        <time>2013-02-17T11:00:00</time>
      </trkpt>
      <trkpt lat="43.29882" lon="-0.49384">
        <ele>275</ele>
        <time>2013-02-17T11:00:05</time>
      </trkpt>
      <trkpt lat="43.29883" lon="-0.49371">
        <ele>279</ele>
        <time>2013-02-17T11:00:10</time>
      </trkpt>
      <trkpt lat="43.29884" lon="-0.49357">
        <ele>279</ele>
        <time>2013-02-17T11:00:15</time>
      </trkpt>
      <trkpt lat="43.29885" lon="-0.49344">
        <ele>283</ele>
        <time>2013-02-17T11:00:20</time>
      </trkpt>
      <trkpt lat="43.29887" lon="-0.49331">
        <ele>284</ele>
        <time>2013-02-17T11:00:25</time>
      </trkpt>
      <trkpt lat="43.29889" lon="-0.49318">
        <ele>283</ele>
        <time>2013-02-17T11:00:30</time>
      </trkpt>
      <trkpt lat="43.2989" lon="-0.49308">
        <ele>287</ele>
        <time>2013-02-17T11:00:35</time>
      </trkpt>
      <trkpt lat="43.29892" lon="-0.49295">
        <ele>288</ele>
        <time>2013-02-17T11:00:40</time>
      </trkpt>
      <trkpt lat="43.29894" lon="-0.49282">
        <ele>287</ele>
        <time>2013-02-17T11:00:45</time>
      </trkpt>
      <trkpt lat="43.29897" lon="-0.4927">
        <ele>290</ele>
        <time>2013-02-17T11:00:50</time>
      </trkpt>
      <trkpt lat="43.299" lon="-0.4926">
        <ele>290</ele>
        <time>2013-02-17T11:00:55</time>
      </trkpt>
      <trkpt lat="43.29904" lon="-0.49251">
        <ele>289</ele>
        <time>2013-02-17T11:01:01</time>
      </trkpt>
      <trkpt lat="43.29905" lon="-0.49241">
        <ele>289</ele>
        <time>2013-02-17T11:01:06</time>
      </trkpt>
      <trkpt lat="43.2991" lon="-0.49236">
        <ele>291</ele>
        <time>2013-02-17T11:01:11</time>
      </trkpt>
      <trkpt lat="43.2991" lon="-0.49231">
        <ele>291</ele>
        <time>2013-02-17T11:01:16</time>
      </trkpt>
      <trkpt lat="43.29905" lon="-0.49237">
        <ele>291</ele>
        <time>2013-02-17T11:01:21</time>
      </trkpt>
      <trkpt lat="43.29905" lon="-0.49237">
        <ele>290</ele>
        <time>2013-02-17T11:01:26</time>
      </trkpt>
      <trkpt lat="43.29905" lon="-0.49237">
        <ele>290</ele>
        <time>2013-02-17T11:01:31</time>
      </trkpt>
      <trkpt lat="43.29905" lon="-0.49237">
        <ele>289</ele>
        <time>2013-02-17T11:01:36</time>
      </trkpt>
      <trkpt lat="43.29905" lon="-0.49237">
        <ele>290</ele>
        <time>2013-02-17T11:01:41</time>
      </trkpt>
      <trkpt lat="43.29905" lon="-0.49237">
        <ele>290</ele>
        <time>2013-02-17T11:01:46</time>
      </trkpt>
      <trkpt lat="43.29905" lon="-0.49237">
        <ele>290</ele>
        <time>2013-02-17T11:01:51</time>
      </trkpt>
      <trkpt lat="43.29905" lon="-0.49237">
        <ele>290</ele>
        <time>2013-02-17T11:01:56</time>
      </trkpt>
      <trkpt lat="43.29905" lon="-0.49237">
        <ele>289</ele>
        <time>2013-02-17T11:02:01</time>
      </trkpt>
      <trkpt lat="43.29905" lon="-0.49237">
        <ele>292</ele>
        <time>2013-02-17T11:02:06</time>
      </trkpt>
      <trkpt lat="43.29905" lon="-0.49237">
        <ele>292</ele>
        <time>2013-02-17T11:02:11</time>
      </trkpt>
      <trkpt lat="43.29905" lon="-0.49237">
        <ele>290</ele>
        <time>2013-02-17T11:02:16</time>
      </trkpt>
      <trkpt lat="43.29905" lon="-0.49237">
        <ele>290</ele>
        <time>2013-02-17T11:02:21</time>
      </trkpt>
      <trkpt lat="43.29905" lon="-0.49237">
        <ele>295</ele>
        <time>2013-02-17T11:02:26</time>
      </trkpt>
      <trkpt lat="43.29905" lon="-0.49237">
        <ele>289</ele>
        <time>2013-02-17T11:02:31</time>
      </trkpt>
      <trkpt lat="43.29905" lon="-0.49237">
        <ele>293</ele>
        <time>2013-02-17T11:02:36</time>
      </trkpt>
      <trkpt lat="43.29905" lon="-0.49237">
        <ele>292</ele>
        <time>2013-02-17T11:02:41</time>
      </trkpt>
      <trkpt lat="43.29905" lon="-0.49237">
        <ele>295</ele>
        <time>2013-02-17T11:02:46</time>
      </trkpt>
      <trkpt lat="43.29905" lon="-0.49237">
        <ele>289</ele>
        <time>2013-02-17T11:02:51</time>
      </trkpt>
      <trkpt lat="43.29905" lon="-0.49237">
        <ele>290</ele>
        <time>2013-02-17T11:02:57</time>
      </trkpt>
      <trkpt lat="43.29905" lon="-0.49237">
        <ele>289</ele>
        <time>2013-02-17T11:03:02</time>
      </trkpt>
      <trkpt lat="43.29905" lon="-0.49237">
        <ele>289</ele>
        <time>2013-02-17T11:03:07</time>
      </trkpt>
      <trkpt lat="43.29905" lon="-0.49237">
        <ele>289</ele>
        <time>2013-02-17T11:03:12</time>
      </trkpt>
      <trkpt lat="43.29905" lon="-0.49237">
        <ele>291</ele>
        <time>2013-02-17T11:03:17</time>
      </trkpt>
      <trkpt lat="43.29905" lon="-0.49237">
        <ele>290</ele>
        <time>2013-02-17T11:03:22</time>
      </trkpt>
      <trkpt lat="43.29905" lon="-0.49237">
        <ele>289</ele>
        <time>2013-02-17T11:03:27</time>
      </trkpt>
      <trkpt lat="43.29905" lon="-0.49237">
        <ele>290</ele>
        <time>2013-02-17T11:03:32</time>
      </trkpt>
      <trkpt lat="43.29905" lon="-0.49237">
        <ele>289</ele>
        <time>2013-02-17T11:03:37</time>
      </trkpt>
      <trkpt lat="43.29905" lon="-0.49237">
        <ele>290</ele>
        <time>2013-02-17T11:03:42</time>
      </trkpt>
      <trkpt lat="43.29905" lon="-0.49237">
        <ele>290</ele>
        <time>2013-02-17T11:03:47</time>
      </trkpt>
      <trkpt lat="43.29905" lon="-0.49237">
        <ele>290</ele>
        <time>2013-02-17T11:03:52</time>
      </trkpt>
      <trkpt lat="43.29905" lon="-0.49237">
        <ele>289</ele>
        <time>2013-02-17T11:03:57</time>
      </trkpt>
      <trkpt lat="43.29905" lon="-0.49237">
        <ele>291</ele>
        <time>2013-02-17T11:04:02</time>
      </trkpt>
      <trkpt lat="43.29905" lon="-0.49237">
        <ele>289</ele>
        <time>2013-02-17T11:04:07</time>
      </trkpt>
      <trkpt lat="43.29905" lon="-0.49237">
        <ele>289</ele>
        <time>2013-02-17T11:04:12</time>
      </trkpt>
      <trkpt lat="43.29905" lon="-0.49237">
        <ele>290</ele>
        <time>2013-02-17T11:04:17</time>
      </trkpt>
      <trkpt lat="43.29905" lon="-0.49237">
        <ele>290</ele>
        <time>2013-02-17T11:04:22</time>
      </trkpt>
      <trkpt lat="43.29905" lon="-0.49237">
        <ele>289</ele>
        <time>2013-02-17T11:04:27</time>
      </trkpt>
      <trkpt lat="43.29905" lon="-0.49237">
        <ele>289</ele>
        <time>2013-02-17T11:04:32</time>
      </trkpt>
      <trkpt lat="43.29905" lon="-0.49237">
        <ele>289</ele>
        <time>2013-02-17T11:04:38</time>
      </trkpt>
      <trkpt lat="43.29905" lon="-0.49237">
        <ele>290</ele>
        <time>2013-02-17T11:04:43</time>
      </trkpt>
      <trkpt lat="43.29905" lon="-0.49237">
        <ele>289</ele>
        <time>2013-02-17T11:04:48</time>
      </trkpt>
      <trkpt lat="43.29905" lon="-0.49237">
        <ele>290</ele>
        <time>2013-02-17T11:04:53</time>
      </trkpt>
      <trkpt lat="43.29903" lon="-0.49236">
        <ele>289</ele>
        <time>2013-02-17T11:04:58</time>
      </trkpt>
      <trkpt lat="43.29906" lon="-0.49241">
        <ele>289</ele>
        <time>2013-02-17T11:05:03</time>
      </trkpt>
      <trkpt lat="43.29906" lon="-0.49241">
        <ele>291</ele>
        <time>2013-02-17T11:05:08</time>
      </trkpt>
      <trkpt lat="43.29906" lon="-0.49241">
        <ele>289</ele>
        <time>2013-02-17T11:05:13</time>
      </trkpt>
      <trkpt lat="43.29906" lon="-0.49241">
        <ele>291</ele>
        <time>2013-02-17T11:05:18</time>
      </trkpt>
      <trkpt lat="43.29906" lon="-0.49241">
        <ele>290</ele>
        <time>2013-02-17T11:05:23</time>
      </trkpt>
      <trkpt lat="43.29906" lon="-0.49241">
        <ele>290</ele>
        <time>2013-02-17T11:05:28</time>
      </trkpt>
      <trkpt lat="43.29906" lon="-0.49241">
        <ele>291</ele>
        <time>2013-02-17T11:05:33</time>
      </trkpt>
      <trkpt lat="43.29906" lon="-0.49241">
        <ele>289</ele>
        <time>2013-02-17T11:05:38</time>
      </trkpt>
      <trkpt lat="43.29906" lon="-0.49241">
        <ele>290</ele>
        <time>2013-02-17T11:05:43</time>
      </trkpt>
      <trkpt lat="43.29906" lon="-0.49241">
        <ele>290</ele>
        <time>2013-02-17T11:05:48</time>
      </trkpt>
      <trkpt lat="43.29906" lon="-0.49241">
        <ele>290</ele>
        <time>2013-02-17T11:05:53</time>
      </trkpt>
      <trkpt lat="43.29906" lon="-0.49241">
        <ele>289</ele>
        <time>2013-02-17T11:05:58</time>
      </trkpt>
      <trkpt lat="43.29906" lon="-0.49241">
        <ele>291</ele>
        <time>2013-02-17T11:06:03</time>
      </trkpt>
      <trkpt lat="43.29906" lon="-0.49241">
        <ele>292</ele>
        <time>2013-02-17T11:06:08</time>
      </trkpt>
      <trkpt lat="43.29906" lon="-0.49241">
        <ele>292</ele>
        <time>2013-02-17T11:06:13</time>
      </trkpt>
      <trkpt lat="43.29906" lon="-0.49241">
        <ele>291</ele>
        <time>2013-02-17T11:06:18</time>
      </trkpt>
      <trkpt lat="43.29927" lon="-0.49191">
        <ele>293</ele>
        <time>2013-02-17T11:06:23</time>
      </trkpt>
      <trkpt lat="43.29932" lon="-0.4918">
        <ele>293</ele>
        <time>2013-02-17T11:06:28</time>
      </trkpt>
      <trkpt lat="43.29939" lon="-0.49162">
        <ele>293</ele>
        <time>2013-02-17T11:06:33</time>
      </trkpt>
      <trkpt lat="43.29945" lon="-0.49139">
        <ele>293</ele>
        <time>2013-02-17T11:06:38</time>
      </trkpt>
      <trkpt lat="43.29951" lon="-0.49123">
        <ele>294</ele>
        <time>2013-02-17T11:06:43</time>
      </trkpt>
      <trkpt lat="43.29958" lon="-0.49108">
        <ele>293</ele>
        <time>2013-02-17T11:06:48</time>
      </trkpt>
      <trkpt lat="43.29963" lon="-0.49093">
        <ele>292</ele>
        <time>2013-02-17T11:06:54</time>
      </trkpt>
      <trkpt lat="43.29968" lon="-0.49079">
        <ele>294</ele>
        <time>2013-02-17T11:06:59</time>
      </trkpt>
      <trkpt lat="43.29971" lon="-0.4907">
        <ele>294</ele>
        <time>2013-02-17T11:07:04</time>
      </trkpt>
      <trkpt lat="43.29972" lon="-0.49055">
        <ele>295</ele>
        <time>2013-02-17T11:07:09</time>
      </trkpt>
      <trkpt lat="43.29973" lon="-0.4904">
        <ele>297</ele>
        <time>2013-02-17T11:07:14</time>
      </trkpt>
      <trkpt lat="43.29974" lon="-0.49023">
        <ele>297</ele>
        <time>2013-02-17T11:07:19</time>
      </trkpt>
      <trkpt lat="43.29972" lon="-0.49006">
        <ele>297</ele>
        <time>2013-02-17T11:07:24</time>
      </trkpt>
      <trkpt lat="43.29969" lon="-0.48989">
        <ele>297</ele>
        <time>2013-02-17T11:07:29</time>
      </trkpt>
      <trkpt lat="43.29963" lon="-0.48968">
        <ele>296</ele>
        <time>2013-02-17T11:07:34</time>
      </trkpt>
      <trkpt lat="43.29953" lon="-0.48944">
        <ele>296</ele>
        <time>2013-02-17T11:07:39</time>
      </trkpt>
      <trkpt lat="43.29944" lon="-0.4891">
        <ele>296</ele>
        <time>2013-02-17T11:07:44</time>
      </trkpt>
      <trkpt lat="43.29949" lon="-0.48856">
        <ele>293</ele>
        <time>2013-02-17T11:07:49</time>
      </trkpt>
      <trkpt lat="43.29979" lon="-0.48812">
        <ele>290</ele>
        <time>2013-02-17T11:07:54</time>
      </trkpt>
      <trkpt lat="43.30001" lon="-0.48791">
        <ele>290</ele>
        <time>2013-02-17T11:07:59</time>
      </trkpt>
      <trkpt lat="43.30022" lon="-0.48777">
        <ele>290</ele>
        <time>2013-02-17T11:08:04</time>
      </trkpt>
      <trkpt lat="43.30043" lon="-0.48767">
        <ele>291</ele>
        <time>2013-02-17T11:08:09</time>
      </trkpt>
      <trkpt lat="43.30062" lon="-0.48759">
        <ele>291</ele>
        <time>2013-02-17T11:08:14</time>
      </trkpt>
      <trkpt lat="43.3007" lon="-0.48752">
        <ele>292</ele>
        <time>2013-02-17T11:08:19</time>
      </trkpt>
      <trkpt lat="43.30079" lon="-0.48748">
        <ele>292</ele>
        <time>2013-02-17T11:08:25</time>
      </trkpt>
      <trkpt lat="43.3009" lon="-0.48752">
        <ele>293</ele>
        <time>2013-02-17T11:08:30</time>
      </trkpt>
      <trkpt lat="43.30104" lon="-0.48759">
        <ele>293</ele>
        <time>2013-02-17T11:08:35</time>
      </trkpt>
      <trkpt lat="43.30113" lon="-0.48761">
        <ele>293</ele>
        <time>2013-02-17T11:08:40</time>
      </trkpt>
      <trkpt lat="43.30113" lon="-0.48762">
        <ele>293</ele>
        <time>2013-02-17T11:08:45</time>
      </trkpt>
      <trkpt lat="43.30113" lon="-0.48762">
        <ele>293</ele>
        <time>2013-02-17T11:08:50</time>
      </trkpt>
      <trkpt lat="43.30113" lon="-0.48762">
        <ele>292</ele>
        <time>2013-02-17T11:08:55</time>
      </trkpt>
      <trkpt lat="43.30113" lon="-0.48762">
        <ele>292</ele>
        <time>2013-02-17T11:09:00</time>
      </trkpt>
      <trkpt lat="43.30121" lon="-0.48767">
        <ele>291</ele>
        <time>2013-02-17T11:09:05</time>
      </trkpt>
      <trkpt lat="43.30134" lon="-0.48775">
        <ele>293</ele>
        <time>2013-02-17T11:09:10</time>
      </trkpt>
      <trkpt lat="43.30146" lon="-0.48784">
        <ele>294</ele>
        <time>2013-02-17T11:09:15</time>
      </trkpt>
      <trkpt lat="43.30157" lon="-0.48791">
        <ele>295</ele>
        <time>2013-02-17T11:09:20</time>
      </trkpt>
      <trkpt lat="43.30169" lon="-0.48801">
        <ele>294</ele>
        <time>2013-02-17T11:09:25</time>
      </trkpt>
      <trkpt lat="43.30183" lon="-0.4881">
        <ele>295</ele>
        <time>2013-02-17T11:09:30</time>
      </trkpt>
      <trkpt lat="43.30197" lon="-0.4882">
        <ele>296</ele>
        <time>2013-02-17T11:09:35</time>
      </trkpt>
      <trkpt lat="43.3021" lon="-0.48831">
        <ele>299</ele>
        <time>2013-02-17T11:09:40</time>
      </trkpt>
      <trkpt lat="43.30224" lon="-0.48843">
        <ele>298</ele>
        <time>2013-02-17T11:09:45</time>
      </trkpt>
      <trkpt lat="43.30239" lon="-0.48856">
        <ele>300</ele>
        <time>2013-02-17T11:09:50</time>
      </trkpt>
      <trkpt lat="43.3026" lon="-0.4887">
        <ele>301</ele>
        <time>2013-02-17T11:09:55</time>
      </trkpt>
      <trkpt lat="43.30278" lon="-0.4888">
        <ele>299</ele>
        <time>2013-02-17T11:10:00</time>
      </trkpt>
      <trkpt lat="43.303" lon="-0.48886">
        <ele>298</ele>
        <time>2013-02-17T11:10:05</time>
      </trkpt>
      <trkpt lat="43.30333" lon="-0.4889">
        <ele>298</ele>
        <time>2013-02-17T11:10:10</time>
      </trkpt>
      <trkpt lat="43.30375" lon="-0.4889">
        <ele>294</ele>
        <time>2013-02-17T11:10:15</time>
      </trkpt>
      <trkpt lat="43.30423" lon="-0.4889">
        <ele>292</ele>
        <time>2013-02-17T11:10:20</time>
      </trkpt>
      <trkpt lat="43.30455" lon="-0.48888">
        <ele>291</ele>
        <time>2013-02-17T11:10:25</time>
      </trkpt>
      <trkpt lat="43.30489" lon="-0.48886">
        <ele>291</ele>
        <time>2013-02-17T11:10:30</time>
      </trkpt>
      <trkpt lat="43.30515" lon="-0.48883">
        <ele>293</ele>
        <time>2013-02-17T11:10:36</time>
      </trkpt>
      <trkpt lat="43.30536" lon="-0.48881">
        <ele>293</ele>
        <time>2013-02-17T11:10:41</time>
      </trkpt>
      <trkpt lat="43.30556" lon="-0.48879">
        <ele>293</ele>
        <time>2013-02-17T11:10:46</time>
      </trkpt>
      <trkpt lat="43.3058" lon="-0.48877">
        <ele>293</ele>
        <time>2013-02-17T11:10:51</time>
      </trkpt>
      <trkpt lat="43.30615" lon="-0.48877">
        <ele>290</ele>
        <time>2013-02-17T11:10:56</time>
      </trkpt>
      <trkpt lat="43.30652" lon="-0.48875">
        <ele>289</ele>
        <time>2013-02-17T11:11:01</time>
      </trkpt>
      <trkpt lat="43.30688" lon="-0.48871">
        <ele>288</ele>
        <time>2013-02-17T11:11:06</time>
      </trkpt>
      <trkpt lat="43.30723" lon="-0.48874">
        <ele>288</ele>
        <time>2013-02-17T11:11:11</time>
      </trkpt>
      <trkpt lat="43.30756" lon="-0.48879">
        <ele>288</ele>
        <time>2013-02-17T11:11:16</time>
      </trkpt>
      <trkpt lat="43.30781" lon="-0.48885">
        <ele>287</ele>
        <time>2013-02-17T11:11:21</time>
      </trkpt>
      <trkpt lat="43.30798" lon="-0.48887">
        <ele>289</ele>
        <time>2013-02-17T11:11:26</time>
      </trkpt>
      <trkpt lat="43.30818" lon="-0.4889">
        <ele>292</ele>
        <time>2013-02-17T11:11:31</time>
      </trkpt>
      <trkpt lat="43.30837" lon="-0.48895">
        <ele>293</ele>
        <time>2013-02-17T11:11:36</time>
      </trkpt>
      <trkpt lat="43.30857" lon="-0.489">
        <ele>293</ele>
        <time>2013-02-17T11:11:41</time>
      </trkpt>
      <trkpt lat="43.30878" lon="-0.48906">
        <ele>293</ele>
        <time>2013-02-17T11:11:46</time>
      </trkpt>
      <trkpt lat="43.30897" lon="-0.48913">
        <ele>293</ele>
        <time>2013-02-17T11:11:51</time>
      </trkpt>
      <trkpt lat="43.30917" lon="-0.48925">
        <ele>293</ele>
        <time>2013-02-17T11:11:56</time>
      </trkpt>
      <trkpt lat="43.30935" lon="-0.48941">
        <ele>293</ele>
        <time>2013-02-17T11:12:01</time>
      </trkpt>
      <trkpt lat="43.30959" lon="-0.4896">
        <ele>293</ele>
        <time>2013-02-17T11:12:06</time>
      </trkpt>
      <trkpt lat="43.30992" lon="-0.48981">
        <ele>292</ele>
        <time>2013-02-17T11:12:11</time>
      </trkpt>
      <trkpt lat="43.31024" lon="-0.49007">
        <ele>290</ele>
        <time>2013-02-17T11:12:16</time>
      </trkpt>
      <trkpt lat="43.3106" lon="-0.49051">
        <ele>287</ele>
        <time>2013-02-17T11:12:22</time>
      </trkpt>
      <trkpt lat="43.31092" lon="-0.49095">
        <ele>284</ele>
        <time>2013-02-17T11:12:27</time>
      </trkpt>
      <trkpt lat="43.31147" lon="-0.49115">
        <ele>279</ele>
        <time>2013-02-17T11:12:32</time>
      </trkpt>
      <trkpt lat="43.31178" lon="-0.49122">
        <ele>279</ele>
        <time>2013-02-17T11:12:37</time>
      </trkpt>
      <trkpt lat="43.31203" lon="-0.49136">
        <ele>279</ele>
        <time>2013-02-17T11:12:42</time>
      </trkpt>
      <trkpt lat="43.31229" lon="-0.49156">
        <ele>278</ele>
        <time>2013-02-17T11:12:47</time>
      </trkpt>
      <trkpt lat="43.31249" lon="-0.49172">
        <ele>277</ele>
        <time>2013-02-17T11:12:52</time>
      </trkpt>
      <trkpt lat="43.31263" lon="-0.49182">
        <ele>278</ele>
        <time>2013-02-17T11:12:57</time>
      </trkpt>
      <trkpt lat="43.31277" lon="-0.49192">
        <ele>280</ele>
        <time>2013-02-17T11:13:02</time>
      </trkpt>
      <trkpt lat="43.3129" lon="-0.49203">
        <ele>281</ele>
        <time>2013-02-17T11:13:07</time>
      </trkpt>
      <trkpt lat="43.31308" lon="-0.4922">
        <ele>283</ele>
        <time>2013-02-17T11:13:12</time>
      </trkpt>
      <trkpt lat="43.31322" lon="-0.49236">
        <ele>283</ele>
        <time>2013-02-17T11:13:17</time>
      </trkpt>
      <trkpt lat="43.31338" lon="-0.49255">
        <ele>284</ele>
        <time>2013-02-17T11:13:22</time>
      </trkpt>
      <trkpt lat="43.31351" lon="-0.4927">
        <ele>283</ele>
        <time>2013-02-17T11:13:27</time>
      </trkpt>
      <trkpt lat="43.31369" lon="-0.49284">
        <ele>284</ele>
        <time>2013-02-17T11:13:32</time>
      </trkpt>
      <trkpt lat="43.31391" lon="-0.49296">
        <ele>284</ele>
        <time>2013-02-17T11:13:37</time>
      </trkpt>
      <trkpt lat="43.31414" lon="-0.49305">
        <ele>284</ele>
        <time>2013-02-17T11:13:42</time>
      </trkpt>
      <trkpt lat="43.3143" lon="-0.49311">
        <ele>285</ele>
        <time>2013-02-17T11:13:47</time>
      </trkpt>
      <trkpt lat="43.31437" lon="-0.49311">
        <ele>284</ele>
        <time>2013-02-17T11:13:52</time>
      </trkpt>
      <trkpt lat="43.31437" lon="-0.49311">
        <ele>285</ele>
        <time>2013-02-17T11:13:57</time>
      </trkpt>
      <trkpt lat="43.31437" lon="-0.49311">
        <ele>284</ele>
        <time>2013-02-17T11:14:02</time>
      </trkpt>
      <trkpt lat="43.31437" lon="-0.49311">
        <ele>284</ele>
        <time>2013-02-17T11:14:07</time>
      </trkpt>
      <trkpt lat="43.31437" lon="-0.49311">
        <ele>285</ele>
        <time>2013-02-17T11:14:12</time>
      </trkpt>
      <trkpt lat="43.31437" lon="-0.49311">
        <ele>284</ele>
        <time>2013-02-17T11:14:17</time>
      </trkpt>
      <trkpt lat="43.31437" lon="-0.49311">
        <ele>284</ele>
        <time>2013-02-17T11:14:22</time>
      </trkpt>
      <trkpt lat="43.31437" lon="-0.49311">
        <ele>285</ele>
        <time>2013-02-17T11:14:27</time>
      </trkpt>
      <trkpt lat="43.31437" lon="-0.49311">
        <ele>285</ele>
        <time>2013-02-17T11:14:32</time>
      </trkpt>
      <trkpt lat="43.31437" lon="-0.49311">
        <ele>284</ele>
        <time>2013-02-17T11:14:38</time>
      </trkpt>
      <trkpt lat="43.31437" lon="-0.49311">
        <ele>286</ele>
        <time>2013-02-17T11:14:43</time>
      </trkpt>
      <trkpt lat="43.31437" lon="-0.49311">
        <ele>284</ele>
        <time>2013-02-17T11:14:48</time>
      </trkpt>
      <trkpt lat="43.31437" lon="-0.49311">
        <ele>284</ele>
        <time>2013-02-17T11:14:53</time>
      </trkpt>
      <trkpt lat="43.31437" lon="-0.49311">
        <ele>284</ele>
        <time>2013-02-17T11:14:58</time>
      </trkpt>
      <trkpt lat="43.31437" lon="-0.49311">
        <ele>284</ele>
        <time>2013-02-17T11:15:03</time>
      </trkpt>
      <trkpt lat="43.31437" lon="-0.49311">
        <ele>284</ele>
        <time>2013-02-17T11:15:08</time>
      </trkpt>
      <trkpt lat="43.31437" lon="-0.49311">
        <ele>285</ele>
        <time>2013-02-17T11:15:13</time>
      </trkpt>
      <trkpt lat="43.31444" lon="-0.49308">
        <ele>284</ele>
        <time>2013-02-17T11:15:18</time>
      </trkpt>
      <trkpt lat="43.31449" lon="-0.49292">
        <ele>284</ele>
        <time>2013-02-17T11:15:23</time>
      </trkpt>
      <trkpt lat="43.31453" lon="-0.49275">
        <ele>284</ele>
        <time>2013-02-17T11:15:28</time>
      </trkpt>
      <trkpt lat="43.31458" lon="-0.49266">
        <ele>283</ele>
        <time>2013-02-17T11:15:33</time>
      </trkpt>
      <trkpt lat="43.31466" lon="-0.49263">
        <ele>283</ele>
        <time>2013-02-17T11:15:38</time>
      </trkpt>
      <trkpt lat="43.31468" lon="-0.49261">
        <ele>285</ele>
        <time>2013-02-17T11:15:43</time>
      </trkpt>
      <trkpt lat="43.31468" lon="-0.49261">
        <ele>285</ele>
        <time>2013-02-17T11:15:48</time>
      </trkpt>
      <trkpt lat="43.31468" lon="-0.49261">
        <ele>282</ele>
        <time>2013-02-17T11:15:53</time>
      </trkpt>
      <trkpt lat="43.31468" lon="-0.49261">
        <ele>282</ele>
        <time>2013-02-17T11:15:58</time>
      </trkpt>
      <trkpt lat="43.31488" lon="-0.49251">
        <ele>282</ele>
        <time>2013-02-17T11:16:03</time>
      </trkpt>
      <trkpt lat="43.31488" lon="-0.49251">
        <ele>282</ele>
        <time>2013-02-17T11:16:09</time>
      </trkpt>
      <trkpt lat="43.31501" lon="-0.49249">
        <ele>281</ele>
        <time>2013-02-17T11:16:14</time>
      </trkpt>
      <trkpt lat="43.31509" lon="-0.49253">
        <ele>283</ele>
        <time>2013-02-17T11:16:19</time>
      </trkpt>
      <trkpt lat="43.31518" lon="-0.49251">
        <ele>282</ele>
        <time>2013-02-17T11:16:24</time>
      </trkpt>
      <trkpt lat="43.31531" lon="-0.49247">
        <ele>281</ele>
        <time>2013-02-17T11:16:29</time>
      </trkpt>
      <trkpt lat="43.31561" lon="-0.49235">
        <ele>280</ele>
        <time>2013-02-17T11:16:34</time>
      </trkpt>
      <trkpt lat="43.31584" lon="-0.49213">
        <ele>277</ele>
        <time>2013-02-17T11:16:39</time>
      </trkpt>
      <trkpt lat="43.31622" lon="-0.49213">
        <ele>273</ele>
        <time>2013-02-17T11:16:44</time>
      </trkpt>
      <trkpt lat="43.31665" lon="-0.49219">
        <ele>269</ele>
        <time>2013-02-17T11:16:49</time>
      </trkpt>
      <trkpt lat="43.31697" lon="-0.49229">
        <ele>265</ele>
        <time>2013-02-17T11:16:54</time>
      </trkpt>
      <trkpt lat="43.31722" lon="-0.49231">
        <ele>264</ele>
        <time>2013-02-17T11:16:59</time>
      </trkpt>
      <trkpt lat="43.31741" lon="-0.49233">
        <ele>264</ele>
        <time>2013-02-17T11:17:04</time>
      </trkpt>
      <trkpt lat="43.31762" lon="-0.49238">
        <ele>262</ele>
        <time>2013-02-17T11:17:09</time>
      </trkpt>
      <trkpt lat="43.31781" lon="-0.4924">
        <ele>263</ele>
        <time>2013-02-17T11:17:14</time>
      </trkpt>
      <trkpt lat="43.31801" lon="-0.49241">
        <ele>264</ele>
        <time>2013-02-17T11:17:19</time>
      </trkpt>
      <trkpt lat="43.31817" lon="-0.49241">
        <ele>264</ele>
        <time>2013-02-17T11:17:24</time>
      </trkpt>
      <trkpt lat="43.31831" lon="-0.49241">
        <ele>264</ele>
        <time>2013-02-17T11:17:29</time>
      </trkpt>
      <trkpt lat="43.31839" lon="-0.49241">
        <ele>266</ele>
        <time>2013-02-17T11:17:34</time>
      </trkpt>
      <trkpt lat="43.3185" lon="-0.49239">
        <ele>266</ele>
        <time>2013-02-17T11:17:39</time>
      </trkpt>
      <trkpt lat="43.31862" lon="-0.49237">
        <ele>267</ele>
        <time>2013-02-17T11:17:44</time>
      </trkpt>
      <trkpt lat="43.31872" lon="-0.49237">
        <ele>268</ele>
        <time>2013-02-17T11:17:49</time>
      </trkpt>
      <trkpt lat="43.31884" lon="-0.49237">
        <ele>268</ele>
        <time>2013-02-17T11:17:54</time>
      </trkpt>
      <trkpt lat="43.31895" lon="-0.49238">
        <ele>269</ele>
        <time>2013-02-17T11:17:59</time>
      </trkpt>
      <trkpt lat="43.31907" lon="-0.49239">
        <ele>269</ele>
        <time>2013-02-17T11:18:04</time>
      </trkpt>
      <trkpt lat="43.3192" lon="-0.49241">
        <ele>269</ele>
        <time>2013-02-17T11:18:09</time>
      </trkpt>
      <trkpt lat="43.31935" lon="-0.49245">
        <ele>268</ele>
        <time>2013-02-17T11:18:14</time>
      </trkpt>
      <trkpt lat="43.31945" lon="-0.4925">
        <ele>269</ele>
        <time>2013-02-17T11:18:19</time>
      </trkpt>
      <trkpt lat="43.31958" lon="-0.49255">
        <ele>267</ele>
        <time>2013-02-17T11:18:24</time>
      </trkpt>
      <trkpt lat="43.3197" lon="-0.4926">
        <ele>267</ele>
        <time>2013-02-17T11:18:30</time>
      </trkpt>
      <trkpt lat="43.31986" lon="-0.49261">
        <ele>269</ele>
        <time>2013-02-17T11:18:35</time>
      </trkpt>
      <trkpt lat="43.32" lon="-0.49267">
        <ele>266</ele>
        <time>2013-02-17T11:18:40</time>
      </trkpt>
      <trkpt lat="43.32019" lon="-0.49281">
        <ele>266</ele>
        <time>2013-02-17T11:18:45</time>
      </trkpt>
      <trkpt lat="43.32047" lon="-0.49312">
        <ele>264</ele>
        <time>2013-02-17T11:18:50</time>
      </trkpt>
      <trkpt lat="43.32073" lon="-0.49349">
        <ele>260</ele>
        <time>2013-02-17T11:18:55</time>
      </trkpt>
      <trkpt lat="43.32098" lon="-0.49383">
        <ele>258</ele>
        <time>2013-02-17T11:19:00</time>
      </trkpt>
      <trkpt lat="43.32122" lon="-0.49433">
        <ele>253</ele>
        <time>2013-02-17T11:19:05</time>
      </trkpt>
      <trkpt lat="43.32151" lon="-0.4947">
        <ele>252</ele>
        <time>2013-02-17T11:19:10</time>
      </trkpt>
      <trkpt lat="43.32173" lon="-0.49488">
        <ele>250</ele>
        <time>2013-02-17T11:19:15</time>
      </trkpt>
      <trkpt lat="43.32188" lon="-0.49505">
        <ele>252</ele>
        <time>2013-02-17T11:19:20</time>
      </trkpt>
      <trkpt lat="43.32199" lon="-0.49516">
        <ele>253</ele>
        <time>2013-02-17T11:19:25</time>
      </trkpt>
      <trkpt lat="43.32208" lon="-0.49525">
        <ele>255</ele>
        <time>2013-02-17T11:19:30</time>
      </trkpt>
      <trkpt lat="43.32208" lon="-0.49525">
        <ele>254</ele>
        <time>2013-02-17T11:19:35</time>
      </trkpt>
      <trkpt lat="43.32219" lon="-0.49534">
        <ele>254</ele>
        <time>2013-02-17T11:19:40</time>
      </trkpt>
      <trkpt lat="43.32241" lon="-0.4956">
        <ele>250</ele>
        <time>2013-02-17T11:19:45</time>
      </trkpt>
      <trkpt lat="43.32276" lon="-0.4959">
        <ele>244</ele>
        <time>2013-02-17T11:19:50</time>
      </trkpt>
      <trkpt lat="43.32298" lon="-0.49607">
        <ele>240</ele>
        <time>2013-02-17T11:19:55</time>
      </trkpt>
      <trkpt lat="43.32315" lon="-0.49623">
        <ele>240</ele>
        <time>2013-02-17T11:20:00</time>
      </trkpt>
      <trkpt lat="43.32323" lon="-0.49635">
        <ele>239</ele>
        <time>2013-02-17T11:20:05</time>
      </trkpt>
      <trkpt lat="43.32323" lon="-0.49635">
        <ele>239</ele>
        <time>2013-02-17T11:20:10</time>
      </trkpt>
      <trkpt lat="43.32336" lon="-0.49652">
        <ele>239</ele>
        <time>2013-02-17T11:20:15</time>
      </trkpt>
      <trkpt lat="43.32343" lon="-0.49665">
        <ele>239</ele>
        <time>2013-02-17T11:20:21</time>
      </trkpt>
      <trkpt lat="43.32359" lon="-0.49694">
        <ele>233</ele>
        <time>2013-02-17T11:20:26</time>
      </trkpt>
      <trkpt lat="43.32376" lon="-0.49715">
        <ele>233</ele>
        <time>2013-02-17T11:20:31</time>
      </trkpt>
      <trkpt lat="43.32385" lon="-0.49735">
        <ele>229</ele>
        <time>2013-02-17T11:20:36</time>
      </trkpt>
      <trkpt lat="43.32393" lon="-0.49747">
        <ele>227</ele>
        <time>2013-02-17T11:20:41</time>
      </trkpt>
      <trkpt lat="43.32399" lon="-0.49768">
        <ele>222</ele>
        <time>2013-02-17T11:20:46</time>
      </trkpt>
      <trkpt lat="43.32411" lon="-0.49792">
        <ele>218</ele>
        <time>2013-02-17T11:20:51</time>
      </trkpt>
      <trkpt lat="43.32427" lon="-0.49831">
        <ele>216</ele>
        <time>2013-02-17T11:20:56</time>
      </trkpt>
      <trkpt lat="43.32446" lon="-0.4985">
        <ele>212</ele>
        <time>2013-02-17T11:21:01</time>
      </trkpt>
      <trkpt lat="43.32475" lon="-0.4987">
        <ele>212</ele>
        <time>2013-02-17T11:21:06</time>
      </trkpt>
      <trkpt lat="43.32495" lon="-0.49886">
        <ele>209</ele>
        <time>2013-02-17T11:21:11</time>
      </trkpt>
      <trkpt lat="43.32513" lon="-0.49907">
        <ele>207</ele>
        <time>2013-02-17T11:21:16</time>
      </trkpt>
      <trkpt lat="43.32526" lon="-0.49914">
        <ele>205</ele>
        <time>2013-02-17T11:21:21</time>
      </trkpt>
      <trkpt lat="43.32541" lon="-0.49928">
        <ele>205</ele>
        <time>2013-02-17T11:21:26</time>
      </trkpt>
      <trkpt lat="43.32555" lon="-0.49944">
        <ele>202</ele>
        <time>2013-02-17T11:21:31</time>
      </trkpt>
      <trkpt lat="43.32567" lon="-0.4996">
        <ele>203</ele>
        <time>2013-02-17T11:21:36</time>
      </trkpt>
      <trkpt lat="43.32575" lon="-0.49967">
        <ele>201</ele>
        <time>2013-02-17T11:21:41</time>
      </trkpt>
      <trkpt lat="43.32582" lon="-0.49975">
        <ele>199</ele>
        <time>2013-02-17T11:21:46</time>
      </trkpt>
      <trkpt lat="43.32582" lon="-0.49975">
        <ele>198</ele>
        <time>2013-02-17T11:21:51</time>
      </trkpt>
      <trkpt lat="43.32582" lon="-0.49975">
        <ele>199</ele>
        <time>2013-02-17T11:21:57</time>
      </trkpt>
      <trkpt lat="43.32582" lon="-0.49975">
        <ele>195</ele>
        <time>2013-02-17T11:22:02</time>
      </trkpt>
      <trkpt lat="43.32582" lon="-0.49975">
        <ele>192</ele>
        <time>2013-02-17T11:22:07</time>
      </trkpt>
      <trkpt lat="43.32625" lon="-0.49979">
        <ele>191</ele>
        <time>2013-02-17T11:22:12</time>
      </trkpt>
      <trkpt lat="43.32628" lon="-0.49981">
        <ele>190</ele>
        <time>2013-02-17T11:22:17</time>
      </trkpt>
      <trkpt lat="43.32628" lon="-0.49981">
        <ele>189</ele>
        <time>2013-02-17T11:22:22</time>
      </trkpt>
      <trkpt lat="43.32649" lon="-0.50007">
        <ele>188</ele>
        <time>2013-02-17T11:22:27</time>
      </trkpt>
      <trkpt lat="43.32658" lon="-0.50021">
        <ele>184</ele>
        <time>2013-02-17T11:22:32</time>
      </trkpt>
      <trkpt lat="43.32669" lon="-0.50034">
        <ele>180</ele>
        <time>2013-02-17T11:22:37</time>
      </trkpt>
      <trkpt lat="43.3268" lon="-0.50034">
        <ele>175</ele>
        <time>2013-02-17T11:22:42</time>
      </trkpt>
      <trkpt lat="43.32689" lon="-0.50033">
        <ele>173</ele>
        <time>2013-02-17T11:22:47</time>
      </trkpt>
      <trkpt lat="43.32701" lon="-0.50034">
        <ele>170</ele>
        <time>2013-02-17T11:22:52</time>
      </trkpt>
      <trkpt lat="43.32712" lon="-0.50043">
        <ele>165</ele>
        <time>2013-02-17T11:22:57</time>
      </trkpt>
      <trkpt lat="43.32725" lon="-0.5006">
        <ele>162</ele>
        <time>2013-02-17T11:23:02</time>
      </trkpt>
      <trkpt lat="43.32738" lon="-0.50076">
        <ele>161</ele>
        <time>2013-02-17T11:23:07</time>
      </trkpt>
      <trkpt lat="43.32755" lon="-0.50091">
        <ele>161</ele>
        <time>2013-02-17T11:23:12</time>
      </trkpt>
      <trkpt lat="43.32774" lon="-0.50104">
        <ele>160</ele>
        <time>2013-02-17T11:23:17</time>
      </trkpt>
      <trkpt lat="43.32787" lon="-0.50114">
        <ele>158</ele>
        <time>2013-02-17T11:23:22</time>
      </trkpt>
      <trkpt lat="43.32796" lon="-0.50123">
        <ele>159</ele>
        <time>2013-02-17T11:23:27</time>
      </trkpt>
      <trkpt lat="43.32805" lon="-0.50127">
        <ele>157</ele>
        <time>2013-02-17T11:23:33</time>
      </trkpt>
      <trkpt lat="43.32822" lon="-0.50126">
        <ele>157</ele>
        <time>2013-02-17T11:23:38</time>
      </trkpt>
      <trkpt lat="43.32835" lon="-0.50131">
        <ele>158</ele>
        <time>2013-02-17T11:23:43</time>
      </trkpt>
      <trkpt lat="43.3285" lon="-0.50138">
        <ele>156</ele>
        <time>2013-02-17T11:23:48</time>
      </trkpt>
      <trkpt lat="43.32862" lon="-0.50148">
        <ele>158</ele>
        <time>2013-02-17T11:23:53</time>
      </trkpt>
      <trkpt lat="43.3287" lon="-0.50169">
        <ele>156</ele>
        <time>2013-02-17T11:23:58</time>
      </trkpt>
      <trkpt lat="43.3288" lon="-0.5019">
        <ele>156</ele>
        <time>2013-02-17T11:24:03</time>
      </trkpt>
      <trkpt lat="43.32897" lon="-0.50212">
        <ele>155</ele>
        <time>2013-02-17T11:24:08</time>
      </trkpt>
      <trkpt lat="43.32909" lon="-0.50228">
        <ele>155</ele>
        <time>2013-02-17T11:24:13</time>
      </trkpt>
      <trkpt lat="43.32925" lon="-0.50249">
        <ele>155</ele>
        <time>2013-02-17T11:24:18</time>
      </trkpt>
      <trkpt lat="43.32937" lon="-0.50272">
        <ele>154</ele>
        <time>2013-02-17T11:24:23</time>
      </trkpt>
      <trkpt lat="43.32952" lon="-0.50301">
        <ele>155</ele>
        <time>2013-02-17T11:24:28</time>
      </trkpt>
      <trkpt lat="43.32967" lon="-0.50331">
        <ele>154</ele>
        <time>2013-02-17T11:24:33</time>
      </trkpt>
      <trkpt lat="43.32989" lon="-0.50359">
        <ele>154</ele>
        <time>2013-02-17T11:24:38</time>
      </trkpt>
      <trkpt lat="43.33012" lon="-0.50378">
        <ele>154</ele>
        <time>2013-02-17T11:24:43</time>
      </trkpt>
      <trkpt lat="43.33032" lon="-0.50399">
        <ele>154</ele>
        <time>2013-02-17T11:24:48</time>
      </trkpt>
      <trkpt lat="43.33053" lon="-0.50417">
        <ele>153</ele>
        <time>2013-02-17T11:24:53</time>
      </trkpt>
      <trkpt lat="43.33072" lon="-0.50433">
        <ele>155</ele>
        <time>2013-02-17T11:24:58</time>
      </trkpt>
      <trkpt lat="43.33087" lon="-0.50446">
        <ele>155</ele>
        <time>2013-02-17T11:25:03</time>
      </trkpt>
      <trkpt lat="43.33104" lon="-0.50464">
        <ele>155</ele>
        <time>2013-02-17T11:25:08</time>
      </trkpt>
      <trkpt lat="43.33121" lon="-0.50481">
        <ele>155</ele>
        <time>2013-02-17T11:25:13</time>
      </trkpt>
      <trkpt lat="43.33146" lon="-0.50484">
        <ele>155</ele>
        <time>2013-02-17T11:25:18</time>
      </trkpt>
      <trkpt lat="43.33179" lon="-0.50489">
        <ele>154</ele>
        <time>2013-02-17T11:25:23</time>
      </trkpt>
      <trkpt lat="43.33206" lon="-0.50498">
        <ele>154</ele>
        <time>2013-02-17T11:25:28</time>
      </trkpt>
      <trkpt lat="43.3323" lon="-0.50513">
        <ele>154</ele>
        <time>2013-02-17T11:25:34</time>
      </trkpt>
      <trkpt lat="43.33257" lon="-0.50528">
        <ele>154</ele>
        <time>2013-02-17T11:25:39</time>
      </trkpt>
      <trkpt lat="43.3329" lon="-0.50544">
        <ele>153</ele>
        <time>2013-02-17T11:25:44</time>
      </trkpt>
      <trkpt lat="43.33328" lon="-0.50558">
        <ele>151</ele>
        <time>2013-02-17T11:25:49</time>
      </trkpt>
      <trkpt lat="43.3336" lon="-0.50586">
        <ele>149</ele>
        <time>2013-02-17T11:25:54</time>
      </trkpt>
      <trkpt lat="43.33392" lon="-0.50614">
        <ele>148</ele>
        <time>2013-02-17T11:25:59</time>
      </trkpt>
      <trkpt lat="43.33412" lon="-0.50632">
        <ele>148</ele>
        <time>2013-02-17T11:26:04</time>
      </trkpt>
      <trkpt lat="43.33434" lon="-0.50654">
        <ele>147</ele>
        <time>2013-02-17T11:26:09</time>
      </trkpt>
      <trkpt lat="43.33456" lon="-0.50674">
        <ele>146</ele>
        <time>2013-02-17T11:26:14</time>
      </trkpt>
      <trkpt lat="43.33478" lon="-0.50694">
        <ele>146</ele>
        <time>2013-02-17T11:26:19</time>
      </trkpt>
      <trkpt lat="43.33503" lon="-0.50715">
        <ele>145</ele>
        <time>2013-02-17T11:26:24</time>
      </trkpt>
      <trkpt lat="43.33529" lon="-0.50736">
        <ele>145</ele>
        <time>2013-02-17T11:26:29</time>
      </trkpt>
      <trkpt lat="43.33553" lon="-0.50752">
        <ele>145</ele>
        <time>2013-02-17T11:26:34</time>
      </trkpt>
      <trkpt lat="43.33583" lon="-0.50777">
        <ele>146</ele>
        <time>2013-02-17T11:26:39</time>
      </trkpt>
      <trkpt lat="43.33608" lon="-0.50798">
        <ele>145</ele>
        <time>2013-02-17T11:26:44</time>
      </trkpt>
      <trkpt lat="43.33633" lon="-0.50825">
        <ele>146</ele>
        <time>2013-02-17T11:26:49</time>
      </trkpt>
      <trkpt lat="43.33655" lon="-0.50859">
        <ele>147</ele>
        <time>2013-02-17T11:26:54</time>
      </trkpt>
      <trkpt lat="43.33667" lon="-0.50889">
        <ele>145</ele>
        <time>2013-02-17T11:26:59</time>
      </trkpt>
      <trkpt lat="43.3368" lon="-0.50927">
        <ele>146</ele>
        <time>2013-02-17T11:27:04</time>
      </trkpt>
      <trkpt lat="43.33705" lon="-0.50964">
        <ele>147</ele>
        <time>2013-02-17T11:27:09</time>
      </trkpt>
      <trkpt lat="43.33733" lon="-0.50981">
        <ele>146</ele>
        <time>2013-02-17T11:27:14</time>
      </trkpt>
      <trkpt lat="43.33762" lon="-0.50996">
        <ele>145</ele>
        <time>2013-02-17T11:27:20</time>
      </trkpt>
      <trkpt lat="43.33793" lon="-0.50989">
        <ele>145</ele>
        <time>2013-02-17T11:27:25</time>
      </trkpt>
      <trkpt lat="43.33823" lon="-0.50977">
        <ele>146</ele>
        <time>2013-02-17T11:27:30</time>
      </trkpt>
      <trkpt lat="43.33853" lon="-0.50966">
        <ele>145</ele>
        <time>2013-02-17T11:27:35</time>
      </trkpt>
      <trkpt lat="43.33883" lon="-0.50955">
        <ele>144</ele>
        <time>2013-02-17T11:27:40</time>
      </trkpt>
      <trkpt lat="43.33914" lon="-0.50955">
        <ele>145</ele>
        <time>2013-02-17T11:27:45</time>
      </trkpt>
      <trkpt lat="43.33978" lon="-0.50955">
        <ele>144</ele>
        <time>2013-02-17T11:27:55</time>
      </trkpt>
      <trkpt lat="43.33972" lon="-0.50973">
        <ele>144</ele>
        <time>2013-02-17T11:28:00</time>
      </trkpt>
      <trkpt lat="43.3399" lon="-0.50997">
        <ele>144</ele>
        <time>2013-02-17T11:28:05</time>
      </trkpt>
      <trkpt lat="43.34012" lon="-0.51025">
        <ele>144</ele>
        <time>2013-02-17T11:28:10</time>
      </trkpt>
      <trkpt lat="43.34035" lon="-0.51051">
        <ele>144</ele>
        <time>2013-02-17T11:28:15</time>
      </trkpt>
      <trkpt lat="43.34061" lon="-0.51076">
        <ele>143</ele>
        <time>2013-02-17T11:28:20</time>
      </trkpt>
      <trkpt lat="43.34088" lon="-0.51095">
        <ele>144</ele>
        <time>2013-02-17T11:28:25</time>
      </trkpt>
      <trkpt lat="43.34121" lon="-0.5111">
        <ele>145</ele>
        <time>2013-02-17T11:28:30</time>
      </trkpt>
      <trkpt lat="43.34151" lon="-0.51119">
        <ele>143</ele>
        <time>2013-02-17T11:28:35</time>
      </trkpt>
      <trkpt lat="43.3418" lon="-0.51127">
        <ele>144</ele>
        <time>2013-02-17T11:28:40</time>
      </trkpt>
      <trkpt lat="43.34209" lon="-0.51139">
        <ele>144</ele>
        <time>2013-02-17T11:28:45</time>
      </trkpt>
      <trkpt lat="43.34232" lon="-0.51154">
        <ele>144</ele>
        <time>2013-02-17T11:28:50</time>
      </trkpt>
      <trkpt lat="43.34259" lon="-0.51175">
        <ele>144</ele>
        <time>2013-02-17T11:28:55</time>
      </trkpt>
      <trkpt lat="43.34285" lon="-0.51197">
        <ele>145</ele>
        <time>2013-02-17T11:29:00</time>
      </trkpt>
      <trkpt lat="43.34316" lon="-0.51225">
        <ele>144</ele>
        <time>2013-02-17T11:29:05</time>
      </trkpt>
      <trkpt lat="43.34343" lon="-0.51247">
        <ele>144</ele>
        <time>2013-02-17T11:29:10</time>
      </trkpt>
      <trkpt lat="43.34371" lon="-0.51266">
        <ele>142</ele>
        <time>2013-02-17T11:29:15</time>
      </trkpt>
      <trkpt lat="43.34395" lon="-0.51274">
        <ele>142</ele>
        <time>2013-02-17T11:29:20</time>
      </trkpt>
      <trkpt lat="43.34425" lon="-0.51274">
        <ele>144</ele>
        <time>2013-02-17T11:29:25</time>
      </trkpt>
      <trkpt lat="43.34461" lon="-0.51262">
        <ele>143</ele>
        <time>2013-02-17T11:29:30</time>
      </trkpt>
      <trkpt lat="43.3449" lon="-0.51247">
        <ele>143</ele>
        <time>2013-02-17T11:29:35</time>
      </trkpt>
      <trkpt lat="43.34519" lon="-0.51233">
        <ele>144</ele>
        <time>2013-02-17T11:29:40</time>
      </trkpt>
      <trkpt lat="43.34549" lon="-0.51223">
        <ele>144</ele>
        <time>2013-02-17T11:29:46</time>
      </trkpt>
      <trkpt lat="43.34574" lon="-0.5122">
        <ele>141</ele>
        <time>2013-02-17T11:29:51</time>
      </trkpt>
      <trkpt lat="43.34605" lon="-0.51224">
        <ele>143</ele>
        <time>2013-02-17T11:29:56</time>
      </trkpt>
      <trkpt lat="43.34641" lon="-0.51236">
        <ele>144</ele>
        <time>2013-02-17T11:30:01</time>
      </trkpt>
      <trkpt lat="43.34672" lon="-0.51244">
        <ele>142</ele>
        <time>2013-02-17T11:30:06</time>
      </trkpt>
      <trkpt lat="43.347" lon="-0.51252">
        <ele>142</ele>
        <time>2013-02-17T11:30:11</time>
      </trkpt>
      <trkpt lat="43.3473" lon="-0.51258">
        <ele>142</ele>
        <time>2013-02-17T11:30:16</time>
      </trkpt>
      <trkpt lat="43.34759" lon="-0.51271">
        <ele>143</ele>
        <time>2013-02-17T11:30:21</time>
      </trkpt>
      <trkpt lat="43.3479" lon="-0.51282">
        <ele>141</ele>
        <time>2013-02-17T11:30:26</time>
      </trkpt>
      <trkpt lat="43.34821" lon="-0.51293">
        <ele>141</ele>
        <time>2013-02-17T11:30:31</time>
      </trkpt>
      <trkpt lat="43.3485" lon="-0.51314">
        <ele>143</ele>
        <time>2013-02-17T11:30:36</time>
      </trkpt>
      <trkpt lat="43.34877" lon="-0.51338">
        <ele>141</ele>
        <time>2013-02-17T11:30:41</time>
      </trkpt>
      <trkpt lat="43.34906" lon="-0.51357">
        <ele>141</ele>
        <time>2013-02-17T11:30:46</time>
      </trkpt>
      <trkpt lat="43.34936" lon="-0.51378">
        <ele>142</ele>
        <time>2013-02-17T11:30:51</time>
      </trkpt>
      <trkpt lat="43.34959" lon="-0.51394">
        <ele>142</ele>
        <time>2013-02-17T11:30:56</time>
      </trkpt>
      <trkpt lat="43.3499" lon="-0.51412">
        <ele>142</ele>
        <time>2013-02-17T11:31:01</time>
      </trkpt>
      <trkpt lat="43.35025" lon="-0.51399">
        <ele>142</ele>
        <time>2013-02-17T11:31:06</time>
      </trkpt>
      <trkpt lat="43.35056" lon="-0.51398">
        <ele>142</ele>
        <time>2013-02-17T11:31:11</time>
      </trkpt>
      <trkpt lat="43.35071" lon="-0.51438">
        <ele>141</ele>
        <time>2013-02-17T11:31:16</time>
      </trkpt>
      <trkpt lat="43.35091" lon="-0.51472">
        <ele>143</ele>
        <time>2013-02-17T11:31:21</time>
      </trkpt>
      <trkpt lat="43.35123" lon="-0.51505">
        <ele>140</ele>
        <time>2013-02-17T11:31:26</time>
      </trkpt>
      <trkpt lat="43.3515" lon="-0.51504">
        <ele>142</ele>
        <time>2013-02-17T11:31:31</time>
      </trkpt>
      <trkpt lat="43.3518" lon="-0.51503">
        <ele>140</ele>
        <time>2013-02-17T11:31:36</time>
      </trkpt>
      <trkpt lat="43.35209" lon="-0.51491">
        <ele>139</ele>
        <time>2013-02-17T11:31:41</time>
      </trkpt>
      <trkpt lat="43.35241" lon="-0.51506">
        <ele>140</ele>
        <time>2013-02-17T11:31:46</time>
      </trkpt>
      <trkpt lat="43.35268" lon="-0.51538">
        <ele>140</ele>
        <time>2013-02-17T11:31:51</time>
      </trkpt>
      <trkpt lat="43.35297" lon="-0.51571">
        <ele>140</ele>
        <time>2013-02-17T11:31:56</time>
      </trkpt>
      <trkpt lat="43.3532" lon="-0.51596">
        <ele>139</ele>
        <time>2013-02-17T11:32:01</time>
      </trkpt>
      <trkpt lat="43.35347" lon="-0.5161">
        <ele>140</ele>
        <time>2013-02-17T11:32:06</time>
      </trkpt>
      <trkpt lat="43.35373" lon="-0.51628">
        <ele>140</ele>
        <time>2013-02-17T11:32:12</time>
      </trkpt>
      <trkpt lat="43.35388" lon="-0.51664">
        <ele>140</ele>
        <time>2013-02-17T11:32:17</time>
      </trkpt>
      <trkpt lat="43.354" lon="-0.51697">
        <ele>140</ele>
        <time>2013-02-17T11:32:22</time>
      </trkpt>
      <trkpt lat="43.3541" lon="-0.51726">
        <ele>138</ele>
        <time>2013-02-17T11:32:27</time>
      </trkpt>
      <trkpt lat="43.35424" lon="-0.51759">
        <ele>138</ele>
        <time>2013-02-17T11:32:32</time>
      </trkpt>
      <trkpt lat="43.35444" lon="-0.51785">
        <ele>138</ele>
        <time>2013-02-17T11:32:37</time>
      </trkpt>
      <trkpt lat="43.35458" lon="-0.51807">
        <ele>139</ele>
        <time>2013-02-17T11:32:42</time>
      </trkpt>
      <trkpt lat="43.35474" lon="-0.51832">
        <ele>138</ele>
        <time>2013-02-17T11:32:47</time>
      </trkpt>
      <trkpt lat="43.35494" lon="-0.51854">
        <ele>139</ele>
        <time>2013-02-17T11:32:52</time>
      </trkpt>
      <trkpt lat="43.35508" lon="-0.51878">
        <ele>139</ele>
        <time>2013-02-17T11:32:57</time>
      </trkpt>
      <trkpt lat="43.35522" lon="-0.51905">
        <ele>139</ele>
        <time>2013-02-17T11:33:02</time>
      </trkpt>
      <trkpt lat="43.35545" lon="-0.51907">
        <ele>138</ele>
        <time>2013-02-17T11:33:07</time>
      </trkpt>
      <trkpt lat="43.35562" lon="-0.51915">
        <ele>138</ele>
        <time>2013-02-17T11:33:12</time>
      </trkpt>
      <trkpt lat="43.35579" lon="-0.51946">
        <ele>138</ele>
        <time>2013-02-17T11:33:17</time>
      </trkpt>
      <trkpt lat="43.35597" lon="-0.51978">
        <ele>139</ele>
        <time>2013-02-17T11:33:22</time>
      </trkpt>
      <trkpt lat="43.3561" lon="-0.52004">
        <ele>139</ele>
        <time>2013-02-17T11:33:27</time>
      </trkpt>
      <trkpt lat="43.35626" lon="-0.52039">
        <ele>139</ele>
        <time>2013-02-17T11:33:32</time>
      </trkpt>
      <trkpt lat="43.3564" lon="-0.52074">
        <ele>138</ele>
        <time>2013-02-17T11:33:37</time>
      </trkpt>
      <trkpt lat="43.35649" lon="-0.52113">
        <ele>139</ele>
        <time>2013-02-17T11:33:42</time>
      </trkpt>
      <trkpt lat="43.35647" lon="-0.52153">
        <ele>138</ele>
        <time>2013-02-17T11:33:47</time>
      </trkpt>
      <trkpt lat="43.35631" lon="-0.52192">
        <ele>137</ele>
        <time>2013-02-17T11:33:52</time>
      </trkpt>
      <trkpt lat="43.35603" lon="-0.52195">
        <ele>137</ele>
        <time>2013-02-17T11:33:57</time>
      </trkpt>
      <trkpt lat="43.35575" lon="-0.52187">
        <ele>137</ele>
        <time>2013-02-17T11:34:02</time>
      </trkpt>
      <trkpt lat="43.35548" lon="-0.52194">
        <ele>138</ele>
        <time>2013-02-17T11:34:07</time>
      </trkpt>
      <trkpt lat="43.35529" lon="-0.52213">
        <ele>138</ele>
        <time>2013-02-17T11:34:12</time>
      </trkpt>
      <trkpt lat="43.35511" lon="-0.52244">
        <ele>137</ele>
        <time>2013-02-17T11:34:17</time>
      </trkpt>
      <trkpt lat="43.35499" lon="-0.5228">
        <ele>140</ele>
        <time>2013-02-17T11:34:22</time>
      </trkpt>
      <trkpt lat="43.35489" lon="-0.52318">
        <ele>139</ele>
        <time>2013-02-17T11:34:27</time>
      </trkpt>
      <trkpt lat="43.35477" lon="-0.52369">
        <ele>138</ele>
        <time>2013-02-17T11:34:32</time>
      </trkpt>
      <trkpt lat="43.35469" lon="-0.52415">
        <ele>140</ele>
        <time>2013-02-17T11:34:37</time>
      </trkpt>
      <trkpt lat="43.35467" lon="-0.52461">
        <ele>138</ele>
        <time>2013-02-17T11:34:42</time>
      </trkpt>
      <trkpt lat="43.3547" lon="-0.52508">
        <ele>139</ele>
        <time>2013-02-17T11:34:48</time>
      </trkpt>
      <trkpt lat="43.35475" lon="-0.52554">
        <ele>137</ele>
        <time>2013-02-17T11:34:53</time>
      </trkpt>
      <trkpt lat="43.35481" lon="-0.526">
        <ele>139</ele>
        <time>2013-02-17T11:34:58</time>
      </trkpt>
      <trkpt lat="43.35487" lon="-0.52636">
        <ele>138</ele>
        <time>2013-02-17T11:35:03</time>
      </trkpt>
      <trkpt lat="43.35498" lon="-0.52691">
        <ele>139</ele>
        <time>2013-02-17T11:35:08</time>
      </trkpt>
      <trkpt lat="43.35506" lon="-0.52737">
        <ele>138</ele>
        <time>2013-02-17T11:35:13</time>
      </trkpt>
      <trkpt lat="43.35514" lon="-0.52784">
        <ele>139</ele>
        <time>2013-02-17T11:35:18</time>
      </trkpt>
      <trkpt lat="43.35516" lon="-0.52832">
        <ele>139</ele>
        <time>2013-02-17T11:35:23</time>
      </trkpt>
      <trkpt lat="43.35515" lon="-0.52881">
        <ele>139</ele>
        <time>2013-02-17T11:35:28</time>
      </trkpt>
      <trkpt lat="43.35513" lon="-0.5293">
        <ele>137</ele>
        <time>2013-02-17T11:35:33</time>
      </trkpt>
      <trkpt lat="43.35511" lon="-0.52978">
        <ele>137</ele>
        <time>2013-02-17T11:35:38</time>
      </trkpt>
      <trkpt lat="43.35519" lon="-0.53023">
        <ele>137</ele>
        <time>2013-02-17T11:35:43</time>
      </trkpt>
      <trkpt lat="43.35535" lon="-0.53064">
        <ele>136</ele>
        <time>2013-02-17T11:35:48</time>
      </trkpt>
      <trkpt lat="43.35547" lon="-0.53109">
        <ele>137</ele>
        <time>2013-02-17T11:35:53</time>
      </trkpt>
      <trkpt lat="43.35559" lon="-0.53167">
        <ele>137</ele>
        <time>2013-02-17T11:35:58</time>
      </trkpt>
      <trkpt lat="43.35566" lon="-0.53205">
        <ele>138</ele>
        <time>2013-02-17T11:36:03</time>
      </trkpt>
      <trkpt lat="43.35576" lon="-0.5325">
        <ele>136</ele>
        <time>2013-02-17T11:36:08</time>
      </trkpt>
      <trkpt lat="43.35592" lon="-0.53294">
        <ele>138</ele>
        <time>2013-02-17T11:36:13</time>
      </trkpt>
      <trkpt lat="43.35612" lon="-0.53334">
        <ele>138</ele>
        <time>2013-02-17T11:36:18</time>
      </trkpt>
      <trkpt lat="43.35634" lon="-0.53373">
        <ele>136</ele>
        <time>2013-02-17T11:36:23</time>
      </trkpt>
      <trkpt lat="43.35656" lon="-0.53411">
        <ele>136</ele>
        <time>2013-02-17T11:36:28</time>
      </trkpt>
      <trkpt lat="43.3568" lon="-0.53456">
        <ele>136</ele>
        <time>2013-02-17T11:36:33</time>
      </trkpt>
      <trkpt lat="43.35696" lon="-0.53497">
        <ele>135</ele>
        <time>2013-02-17T11:36:38</time>
      </trkpt>
      <trkpt lat="43.35706" lon="-0.53544">
        <ele>137</ele>
        <time>2013-02-17T11:36:43</time>
      </trkpt>
      <trkpt lat="43.35711" lon="-0.5359">
        <ele>136</ele>
        <time>2013-02-17T11:36:48</time>
      </trkpt>
      <trkpt lat="43.35714" lon="-0.53627">
        <ele>134</ele>
        <time>2013-02-17T11:36:53</time>
      </trkpt>
      <trkpt lat="43.35717" lon="-0.53673">
        <ele>136</ele>
        <time>2013-02-17T11:36:58</time>
      </trkpt>
      <trkpt lat="43.3573" lon="-0.53727">
        <ele>135</ele>
        <time>2013-02-17T11:37:03</time>
      </trkpt>
      <trkpt lat="43.35748" lon="-0.53764">
        <ele>135</ele>
        <time>2013-02-17T11:37:08</time>
      </trkpt>
      <trkpt lat="43.35763" lon="-0.53794">
        <ele>135</ele>
        <time>2013-02-17T11:37:14</time>
      </trkpt>
      <trkpt lat="43.35769" lon="-0.53799">
        <ele>135</ele>
        <time>2013-02-17T11:37:19</time>
      </trkpt>
      <trkpt lat="43.35769" lon="-0.53799">
        <ele>134</ele>
        <time>2013-02-17T11:37:24</time>
      </trkpt>
      <trkpt lat="43.35769" lon="-0.53799">
        <ele>134</ele>
        <time>2013-02-17T11:37:29</time>
      </trkpt>
      <trkpt lat="43.35769" lon="-0.53799">
        <ele>132</ele>
        <time>2013-02-17T11:37:34</time>
      </trkpt>
      <trkpt lat="43.35769" lon="-0.53799">
        <ele>134</ele>
        <time>2013-02-17T11:37:39</time>
      </trkpt>
      <trkpt lat="43.35769" lon="-0.53799">
        <ele>134</ele>
        <time>2013-02-17T11:37:44</time>
      </trkpt>
      <trkpt lat="43.35769" lon="-0.53799">
        <ele>134</ele>
        <time>2013-02-17T11:37:49</time>
      </trkpt>
      <trkpt lat="43.35769" lon="-0.53799">
        <ele>134</ele>
        <time>2013-02-17T11:37:54</time>
      </trkpt>
      <trkpt lat="43.35769" lon="-0.53799">
        <ele>134</ele>
        <time>2013-02-17T11:37:59</time>
      </trkpt>
      <trkpt lat="43.35769" lon="-0.53799">
        <ele>134</ele>
        <time>2013-02-17T11:38:04</time>
      </trkpt>
      <trkpt lat="43.35769" lon="-0.53799">
        <ele>131</ele>
        <time>2013-02-17T11:38:09</time>
      </trkpt>
      <trkpt lat="43.35769" lon="-0.53799">
        <ele>140</ele>
        <time>2013-02-17T11:38:14</time>
      </trkpt>
      <trkpt lat="43.35769" lon="-0.53799">
        <ele>134</ele>
        <time>2013-02-17T11:38:19</time>
      </trkpt>
      <trkpt lat="43.35769" lon="-0.53799">
        <ele>134</ele>
        <time>2013-02-17T11:38:24</time>
      </trkpt>
      <trkpt lat="43.35769" lon="-0.53799">
        <ele>134</ele>
        <time>2013-02-17T11:38:29</time>
      </trkpt>
      <trkpt lat="43.35769" lon="-0.53799">
        <ele>135</ele>
        <time>2013-02-17T11:38:34</time>
      </trkpt>
      <trkpt lat="43.35769" lon="-0.53799">
        <ele>133</ele>
        <time>2013-02-17T11:38:39</time>
      </trkpt>
      <trkpt lat="43.35769" lon="-0.53799">
        <ele>131</ele>
        <time>2013-02-17T11:38:44</time>
      </trkpt>
      <trkpt lat="43.35769" lon="-0.53799">
        <ele>136</ele>
        <time>2013-02-17T11:38:49</time>
      </trkpt>
      <trkpt lat="43.35769" lon="-0.53799">
        <ele>136</ele>
        <time>2013-02-17T11:38:54</time>
      </trkpt>
      <trkpt lat="43.35769" lon="-0.53799">
        <ele>134</ele>
        <time>2013-02-17T11:38:59</time>
      </trkpt>
      <trkpt lat="43.35769" lon="-0.53799">
        <ele>134</ele>
        <time>2013-02-17T11:39:04</time>
      </trkpt>
      <trkpt lat="43.35769" lon="-0.53799">
        <ele>134</ele>
        <time>2013-02-17T11:39:09</time>
      </trkpt>
      <trkpt lat="43.35769" lon="-0.53799">
        <ele>133</ele>
        <time>2013-02-17T11:39:14</time>
      </trkpt>
      <trkpt lat="43.35769" lon="-0.53799">
        <ele>133</ele>
        <time>2013-02-17T11:39:19</time>
      </trkpt>
      <trkpt lat="43.35769" lon="-0.53799">
        <ele>135</ele>
        <time>2013-02-17T11:39:24</time>
      </trkpt>
      <trkpt lat="43.35769" lon="-0.53799">
        <ele>134</ele>
        <time>2013-02-17T11:39:30</time>
      </trkpt>
      <trkpt lat="43.35769" lon="-0.53799">
        <ele>134</ele>
        <time>2013-02-17T11:39:31</time>
      </trkpt>
    </trkseg>
  </trk>
</gpx>